# Wetter Temperatur Luftdruck Luftfeuchtigkeit Sichtweite Windgeschwindigkeit Windrichtung Zeit
1 Clouds 22 1016 58 10000 0.45 238 08:56 14.08.2022
2 Clouds 23 1017 55 10000 0.45 186 06:27 14.08.2022
3 Clouds 23 1014 51 10000 2.68 336 04:47 14.08.2022
4 Clouds 31 1012 32 10000 3.13 234 01:35 14.08.2022
5 Clear 33 1013 31 10000 1.34 90 22:56 13.08.2022
6 Clear 31 1014 35 10000 2.24 68 21:59 13.08.2022
7 Clouds 29 1016 42 10000 2.57 310 20:49 13.08.2022
8 Clouds 28 1017 45 10000 0.45 83 19:47 13.08.2022
9 Clouds 26 1014 50 10000 0.89 261 18:47 13.08.2022
10 Clouds 21 1019 64 10000 2.57 300 16:23 13.08.2022
11 Clouds 18 1017 74 10000 4.63 340 14:41 13.08.2022
12 Clouds 19 1020 72 10000 0.45 36 13:48 13.08.2022
13 Clouds 19 1020 70 10000 1.79 34 13:23 13.08.2022
14 Clouds 22 1017 52 10000 3.58 350 10:44 13.08.2022
15 Clouds 23 1016 45 10000 2.25 344 09:22 13.08.2022
16 Clouds 25 1014 41 10000 0.45 200 06:26 13.08.2022
17 Clear 34 1014 26 10000 2.24 355 00:44 13.08.2022
18 Clouds 32 1016 30 10000 2.57 30 22:37 12.08.2022
19 Clear 31 1016 32 10000 2.24 321 21:35 12.08.2022
20 Clouds 29 1018 36 10000 2.57 300 19:46 12.08.2022
21 Clouds 28 1019 39 10000 2.24 28 19:21 12.08.2022
22 Clouds 27 1018 42 10000 2.24 301 17:58 12.08.2022
23 Clouds 23 1016 50 10000 0.45 190 16:25 12.08.2022
24 Clear 20 1017 54 10000 0.2 104 14:50 12.08.2022
25 Clouds 20 1023 54 10000 2.06 260 13:26 12.08.2022
26 Clouds 21 1014 50 10000 0.35 203 11:39 12.08.2022
27 Clouds 24 1015 39 10000 8.23 180 08:48 12.08.2022
28 Clouds 25 1014 37 10000 9.26 190 07:44 12.08.2022
29 Clouds 30 1013 28 10000 1.34 167 03:56 12.08.2022
30 Clear 35 1012 22 10000 1.79 48 00:31 12.08.2022
31 Clear 35 1013 23 10000 1.79 340 23:42 11.08.2022
32 Clear 34 1015 26 10000 1.34 22 22:37 11.08.2022
33 Clear 33 1016 29 10000 1.34 338 21:47 11.08.2022
34 Clear 33 1015 30 10000 1.79 17 21:22 11.08.2022
35 Clear 31 1016 34 10000 1.34 126 20:29 11.08.2022
36 Clear 30 1016 37 10000 1.34 6 19:33 11.08.2022
37 Clear 29 1017 38 10000 1.34 27 18:39 11.08.2022
38 Clear 24 1017 49 10000 0.45 31 16:42 11.08.2022
39 Clear 22 1019 55 10000 0.89 191 15:37 11.08.2022
40 Clear 20 1019 57 10000 1.45 196 13:51 11.08.2022
41 Clear 22 1017 51 10000 7.72 180 11:26 11.08.2022
42 Clear 25 1018 44 10000 4.47 177 07:56 11.08.2022
43 Clear 28 1016 33 10000 1.79 166 04:44 11.08.2022
44 Clear 34 1016 23 10000 1.34 131 01:55 11.08.2022
45 Clear 34 1016 23 10000 1.79 137 22:54 10.08.2022
46 Clear 33 1018 23 10000 1.79 101 21:44 10.08.2022
47 Clear 33 1019 24 10000 1.79 141 20:56 10.08.2022
48 Clear 31 1019 30 10000 2.68 142 19:44 10.08.2022
49 Clouds 29 1021 36 10000 0.89 111 18:45 10.08.2022
50 Clear 26 1019 45 10000 0.45 77 17:20 10.08.2022
51 Clear 19 1019 62 10000 1.76 209 13:36 10.08.2022
52 Clear 20 1018 59 10000 0.45 152 12:48 10.08.2022
53 Clear 22 1017 53 10000 1.79 117 09:56 10.08.2022
54 Clear 23 1017 49 10000 0.45 99 08:35 10.08.2022
55 Clear 24 1016 43 10000 0.89 235 07:21 10.08.2022
56 Clear 28 1015 36 10000 0.89 114 04:49 10.08.2022
57 Clouds 34 1014 23 10000 1.79 355 00:49 10.08.2022
58 Clear 33 1015 23 10000 1.34 20 23:25 09.08.2022
59 Clear 33 1016 28 10000 2.24 94 21:37 09.08.2022
60 Clear 31 1016 34 10000 1.34 102 20:42 09.08.2022
61 Clear 29 1017 41 10000 1.34 85 18:48 09.08.2022
62 Clear 25 1017 49 10000 0.89 157 17:31 09.08.2022
63 Clear 24 1016 53 10000 0.45 165 16:43 09.08.2022
64 Clear 22 1016 60 10000 0.43 238 15:59 09.08.2022
65 Clear 19 1022 69 10000 0.85 217 14:30 09.08.2022
66 Clouds 21 1017 62 10000 4.12 190 10:45 09.08.2022
67 Clear 22 1016 60 10000 0.45 158 08:51 09.08.2022
68 Clear 23 1015 57 10000 0.89 194 07:54 09.08.2022
69 Clear 26 1014 50 10000 1.79 172 04:43 09.08.2022
70 Clouds 32 1015 28 10000 0.89 101 23:58 08.08.2022
71 Clouds 31 1016 32 10000 1.34 42 22:58 08.08.2022
72 Clouds 31 1017 34 10000 1.54 180 22:35 08.08.2022
73 Clear 29 1017 41 10000 0.89 149 21:30 08.08.2022
74 Clear 26 1019 50 10000 1.34 218 19:58 08.08.2022
75 Clear 26 1019 53 10000 1.34 170 19:31 08.08.2022
76 Clear 22 1020 67 10000 0.89 341 17:47 08.08.2022
77 Clear 18 1019 77 10000 0.97 355 15:46 08.08.2022
78 Clouds 17 1024 80 10000 0.71 9 14:45 08.08.2022
79 Clouds 17 1024 81 10000 1.24 153 12:29 08.08.2022
80 Clouds 18 1023 80 10000 5.14 120 10:23 08.08.2022
81 Clouds 18 1021 88 10000 1.34 211 06:56 08.08.2022
82 Rain 20 1018 74 3909 2.68 47 03:34 08.08.2022
83 Clouds 29 1016 42 10000 1.79 120 22:52 07.08.2022
84 Clouds 28 1017 45 10000 2.68 100 21:41 07.08.2022
85 Clouds 28 1016 46 10000 2.24 62 20:54 07.08.2022
86 Clouds 27 1017 49 10000 1.34 13 20:18 07.08.2022
87 Clouds 26 1017 52 10000 2.24 91 19:50 07.08.2022
88 Clouds 25 1016 60 10000 0.89 90 18:40 07.08.2022
89 Clouds 22 1016 68 10000 1.34 148 17:18 07.08.2022
90 Clouds 22 1017 67 10000 1.34 17 16:38 07.08.2022
91 Clouds 21 1015 68 10000 1.79 326 15:24 07.08.2022
92 Clouds 21 1013 64 10000 1.34 310 13:44 07.08.2022
93 Clouds 21 1013 67 10000 3.6 180 12:18 07.08.2022
94 Clouds 21 1013 68 10000 0.89 184 10:35 07.08.2022
95 Clouds 21 1012 75 10000 0.89 186 07:59 07.08.2022
96 Rain 22 1014 71 10000 3.13 118 04:26 07.08.2022
97 Clouds 26 1010 54 10000 0.89 323 01:50 07.08.2022
98 Clouds 32 1011 33 10000 1.79 42 22:28 06.08.2022
99 Clear 31 1012 36 10000 1.79 20 21:28 06.08.2022
100 Clouds 29 1013 43 10000 1.79 105 19:42 06.08.2022
101 Clouds 27 1014 50 10000 1.34 117 18:33 06.08.2022
102 Clouds 25 1014 55 10000 0.89 55 17:37 06.08.2022
103 Clouds 20 1014 64 10000 0.89 312 14:52 06.08.2022
104 Clouds 20 1014 64 10000 0.89 307 13:49 06.08.2022
105 Clouds 21 1012 62 10000 0.45 23 12:19 06.08.2022
106 Clouds 22 1012 57 10000 0.45 214 10:33 06.08.2022
107 Clouds 22 1010 56 10000 2.53 55 09:21 06.08.2022
108 Clouds 29 1009 37 10000 1.79 17 03:54 06.08.2022
109 Clouds 33 1004 26 10000 1.13 118 23:54 05.08.2022
110 Clouds 36 1008 23 10000 2.68 325 22:33 05.08.2022
111 Clouds 34 1010 27 10000 3.6 10 20:20 05.08.2022
112 Clouds 32 1010 32 10000 1.34 178 18:47 05.08.2022
113 Clouds 31 1010 35 10000 0.45 126 18:27 05.08.2022
114 Clouds 27 1011 45 10000 0.89 182 16:50 05.08.2022
115 Clouds 22 1014 56 10000 4.12 210 15:23 05.08.2022
116 Clear 21 1017 56 10000 1.76 221 14:33 05.08.2022
117 Clouds 21 1013 57 10000 4.63 200 13:25 05.08.2022
118 Clouds 21 1011 57 10000 0.45 224 12:44 05.08.2022
119 Clouds 22 1010 55 10000 0.89 171 10:55 05.08.2022
120 Clouds 25 1010 48 10000 1.34 120 08:36 05.08.2022
121 Clouds 26 1010 43 10000 0.89 171 07:23 05.08.2022
122 Clouds 35 1010 20 10000 1.34 128 01:46 05.08.2022
123 Clear 35 1012 21 10000 1.79 325 22:33 04.08.2022
124 Clear 34 1012 23 10000 1.34 60 21:27 04.08.2022
125 Clear 33 1013 25 10000 1.34 11 20:45 04.08.2022
126 Clouds 32 1014 28 10000 1.34 350 19:49 04.08.2022
127 Clouds 30 1014 35 10000 1.34 205 18:51 04.08.2022
128 Clouds 30 1014 36 10000 0.89 202 18:32 04.08.2022
129 Clouds 20 1014 60 10000 5.66 210 14:39 04.08.2022
130 Clear 20 1013 61 10000 0.45 184 13:22 04.08.2022
131 Clear 20 1013 59 10000 1.79 189 11:37 04.08.2022
132 Clouds 22 1014 54 10000 0.89 154 07:56 04.08.2022
133 Clouds 23 1016 54 10000 0.89 147 07:26 04.08.2022
134 Clouds 28 1013 39 10000 2.24 195 02:38 04.08.2022
135 Clouds 31 1012 28 10000 0.89 25 23:49 03.08.2022
136 Clouds 31 1013 28 10000 4.63 330 23:27 03.08.2022
137 Clouds 30 1013 32 10000 2.24 81 20:57 03.08.2022
138 Clouds 29 1014 35 10000 1.79 96 19:56 03.08.2022
139 Clouds 28 1016 40 10000 1.34 95 18:40 03.08.2022
140 Clouds 24 1014 54 10000 0.89 313 16:26 03.08.2022
141 Clouds 23 1014 58 10000 2.06 80 15:47 03.08.2022
142 Clouds 21 1011 58 10000 0.8 288 13:24 03.08.2022
143 Clouds 23 1010 52 10000 2.24 258 09:51 03.08.2022
144 Clouds 25 1010 49 10000 0.45 154 06:29 03.08.2022
145 Clouds 27 1009 40 10000 2.24 41 04:21 03.08.2022
146 Clouds 31 1009 28 10000 7.2 340 02:25 03.08.2022
147 Rain 33 1007 27 10000 2.24 172 23:54 02.08.2022
148 Clouds 33 1009 24 10000 3.6 70 21:59 02.08.2022
149 Clouds 33 1009 25 10000 1.34 96 21:40 02.08.2022
150 Clouds 33 1009 26 10000 2.24 28 20:20 02.08.2022
151 Clouds 26 1011 42 10000 0.45 57 16:49 02.08.2022
152 Clouds 20 1010 55 10000 1.47 253 13:40 02.08.2022
153 Clouds 23 1011 47 10000 0.45 192 10:34 02.08.2022
154 Clouds 24 1011 41 10000 0.45 182 08:29 02.08.2022
155 Clouds 25 1011 40 10000 0.89 188 07:50 02.08.2022
156 Clouds 27 1012 35 10000 1.34 234 04:56 02.08.2022
157 Clouds 30 1012 26 10000 4.02 299 02:20 02.08.2022
158 Clouds 35 1012 20 10000 1.79 199 23:23 01.08.2022
159 Clouds 33 1013 23 10000 1.34 62 21:37 01.08.2022
160 Clouds 32 1014 27 10000 0.89 184 19:45 01.08.2022
161 Clouds 31 1014 31 10000 0.89 103 18:55 01.08.2022
162 Clouds 25 1015 45 10000 0.45 232 16:56 01.08.2022
163 Clouds 23 1015 50 10000 0.45 153 16:33 01.08.2022
164 Clouds 22 1020 50 10000 1.52 204 15:44 01.08.2022
165 Clouds 20 1008 53 10000 1.71 212 14:45 01.08.2022
166 Clouds 19 1015 56 10000 1.87 219 13:29 01.08.2022
167 Clouds 20 1015 52 10000 5.66 180 10:48 01.08.2022
168 Clouds 21 1015 52 10000 1.79 190 08:53 01.08.2022
169 Clouds 22 1015 50 10000 0.89 196 06:51 01.08.2022
170 Clouds 25 1015 41 10000 0.45 196 04:31 01.08.2022
171 Clouds 29 1015 30 10000 9.26 320 00:58 01.08.2022
172 Clouds 31 1013 31 10000 6.31 311 22:44 31.07.2022
173 Clouds 32 1015 26 10000 0.89 343 22:25 31.07.2022
174 Clouds 31 1016 27 10000 1.79 51 20:28 31.07.2022
175 Clouds 29 1016 34 10000 0.89 226 18:39 31.07.2022
176 Clouds 24 1016 48 10000 1.34 165 16:26 31.07.2022
177 Clouds 20 1021 57 10000 0.97 223 14:33 31.07.2022
178 Clouds 20 1015 59 10000 1.61 228 12:55 31.07.2022
179 Clouds 21 1015 56 10000 1.68 218 10:53 31.07.2022
180 Clouds 22 1014 48 10000 2.18 201 08:29 31.07.2022
181 Clouds 27 1015 34 10000 0.45 302 05:20 31.07.2022
182 Clouds 33 1014 20 10000 2.57 90 01:20 31.07.2022
183 Clear 32 1014 19 10000 1.79 103 22:40 30.07.2022
184 Clear 32 1015 20 10000 1.34 61 21:50 30.07.2022
185 Clouds 31 1015 21 10000 1.79 110 21:32 30.07.2022
186 Clear 30 1015 26 10000 1.34 91 20:28 30.07.2022
187 Clear 29 1016 31 10000 0.89 300 19:42 30.07.2022
188 Clear 24 1016 46 10000 0.89 149 17:53 30.07.2022
189 Clouds 21 1020 56 10000 3.6 240 16:38 30.07.2022
190 Clear 17 1016 67 10000 1.28 208 15:30 30.07.2022
191 Clear 15 1021 71 10000 0.97 213 13:23 30.07.2022
192 Clouds 16 1021 73 10000 1.38 227 12:22 30.07.2022
193 Clouds 17 1017 71 10000 1.54 180 10:45 30.07.2022
194 Clouds 17 1016 69 10000 0.45 232 09:59 30.07.2022
195 Clear 18 1017 66 10000 0.45 192 08:49 30.07.2022
196 Clouds 19 1017 64 10000 0.45 207 06:55 30.07.2022
197 Clouds 23 1014 56 10000 2.68 135 02:33 30.07.2022
198 Clouds 28 1016 43 10000 1.34 312 23:30 29.07.2022
199 Clouds 27 1017 47 10000 1.79 129 21:36 29.07.2022
200 Clouds 26 1018 50 10000 2.06 340 20:50 29.07.2022
201 Clouds 25 1018 54 10000 1.79 200 19:45 29.07.2022
202 Clouds 19 1020 75 10000 0.89 183 16:59 29.07.2022
203 Clouds 16 1018 84 10000 3.09 220 14:38 29.07.2022
204 Clouds 16 1017 85 10000 1.44 15 12:41 29.07.2022
205 Clouds 18 1017 81 10000 0.45 305 08:52 29.07.2022
206 Clouds 18 1018 79 10000 1.54 270 08:22 29.07.2022
207 Clouds 21 1016 64 10000 0.45 227 04:39 29.07.2022
208 Clouds 25 1022 49 10000 2.31 42 23:46 28.07.2022
209 Clouds 23 1014 58 10000 0.47 68 21:38 28.07.2022
210 Clouds 22 1024 63 10000 0.45 207 20:52 28.07.2022
211 Clouds 20 1021 74 10000 0.89 0 20:18 28.07.2022
212 Clouds 20 1020 73 10000 2.59 31 19:40 28.07.2022
213 Clouds 18 1020 83 10000 0.89 341 17:46 28.07.2022
214 Clouds 18 1019 84 9357 0.89 37 17:23 28.07.2022
215 Clouds 18 1020 85 10000 4.12 350 16:40 28.07.2022
216 Clouds 17 1017 85 10000 0.89 223 13:56 28.07.2022
217 Clouds 18 1017 84 10000 0.89 161 12:39 28.07.2022
218 Clouds 19 1016 77 10000 1.79 205 07:46 28.07.2022
219 Clouds 25 1015 54 10000 2.57 330 05:41 28.07.2022
220 Clouds 26 1014 50 10000 2.57 330 05:20 28.07.2022
221 Clouds 32 1019 39 10000 1.34 28 23:20 27.07.2022
222 Clouds 30 1020 43 10000 0.89 181 21:30 27.07.2022
223 Clouds 30 1011 52 10000 2.22 100 19:48 27.07.2022
224 Clouds 28 1015 52 10000 2.24 345 19:20 27.07.2022
225 Clouds 22 1014 65 10000 1.39 194 16:31 27.07.2022
226 Clouds 21 1021 67 10000 4.12 200 15:51 27.07.2022
227 Clouds 18 1021 73 10000 5.14 200 14:41 27.07.2022
228 Clouds 18 1013 74 10000 5.14 200 13:34 27.07.2022
229 Clouds 18 1010 80 10000 0.89 224 09:29 27.07.2022
230 Clouds 18 1016 87 10000 0.76 162 07:47 27.07.2022
231 Clouds 23 1014 66 10000 1.79 326 04:53 27.07.2022
232 Clouds 30 1014 43 10000 1.79 43 23:21 26.07.2022
233 Clouds 29 1014 42 10000 1.34 303 21:49 26.07.2022
234 Clouds 29 1015 45 10000 2.24 319 20:49 26.07.2022
235 Clouds 27 1014 50 10000 2.24 313 19:20 26.07.2022
236 Clouds 26 1014 51 10000 2.68 339 18:39 26.07.2022
237 Clouds 25 1014 53 10000 3.58 40 17:46 26.07.2022
238 Clouds 21 1013 57 10000 1.54 230 15:43 26.07.2022
239 Clouds 19 1013 57 10000 2.57 180 14:38 26.07.2022
240 Clouds 20 1011 58 10000 0.89 295 12:25 26.07.2022
241 Clouds 21 1011 57 10000 0.89 224 09:44 26.07.2022
242 Clouds 22 1011 56 10000 1.79 138 08:18 26.07.2022
243 Clouds 32 1010 26 10000 1.79 232 01:52 26.07.2022
244 Clouds 32 1010 28 10000 1.34 178 23:44 25.07.2022
245 Clouds 31 1012 29 10000 1.34 102 22:39 25.07.2022
246 Clouds 30 1012 31 10000 1.79 22 21:43 25.07.2022
247 Clouds 29 1013 37 10000 1.34 44 20:42 25.07.2022
248 Clouds 28 1014 42 10000 0.89 0 19:51 25.07.2022
249 Clouds 25 1014 56 10000 0.89 175 18:23 25.07.2022
250 Clouds 23 1016 66 10000 0.89 5 17:34 25.07.2022
251 Clouds 21 1014 70 10000 0.89 155 16:40 25.07.2022
252 Clouds 16 1015 93 10000 0.89 296 12:47 25.07.2022
253 Clouds 16 1014 93 10000 0.45 130 10:42 25.07.2022
254 Clouds 17 1017 92 10000 3.09 140 06:52 25.07.2022
255 Rain 21 1017 75 10000 0.89 307 23:57 24.07.2022
256 Clouds 22 1016 69 8558 2.24 326 23:21 24.07.2022
257 Clouds 22 1017 67 8558 4.02 308 22:41 24.07.2022
258 Clouds 28 1012 35 10000 0.6 33 21:30 24.07.2022
259 Clouds 27 1013 47 10000 0.89 76 20:56 24.07.2022
260 Clouds 26 1015 54 10000 2.24 331 20:29 24.07.2022
261 Clouds 24 1015 61 10000 2.24 309 18:57 24.07.2022
262 Clouds 21 1016 76 10000 0.45 275 16:51 24.07.2022
263 Clouds 19 1012 76 10000 0.45 241 15:53 24.07.2022
264 Clouds 18 1016 78 10000 0.52 304 14:40 24.07.2022
265 Clouds 17 1015 81 10000 2.01 183 13:25 24.07.2022
266 Clouds 17 1017 85 10000 2.65 187 12:19 24.07.2022
267 Clouds 17 1017 87 10000 0.45 89 11:26 24.07.2022
268 Clouds 18 1020 89 10000 1.79 183 09:23 24.07.2022
269 Clouds 18 1016 90 10000 1.34 140 07:53 24.07.2022
270 Clouds 18 1022 87 10000 0.45 172 06:34 24.07.2022
271 Clouds 27 1005 42 10000 6.7 359 01:51 24.07.2022
272 Clouds 33 1009 25 10000 3.58 37 22:31 23.07.2022
273 Clouds 35 1010 21 10000 1.34 45 20:41 23.07.2022
274 Clouds 33 1009 24 10000 0.89 118 18:52 23.07.2022
275 Clouds 31 1004 29 10000 0.45 78 17:48 23.07.2022
276 Clouds 30 1009 32 10000 0.89 333 17:24 23.07.2022
277 Clouds 26 1018 36 10000 5.14 200 15:51 23.07.2022
278 Clouds 23 1011 44 10000 2.31 209 15:20 23.07.2022
279 Clouds 23 1010 41 10000 0.45 185 14:36 23.07.2022
280 Clear 22 1011 41 10000 0.45 194 13:53 23.07.2022
281 Clear 23 1005 40 10000 0.45 186 11:46 23.07.2022
282 Clear 23 1008 40 10000 2.17 196 10:28 23.07.2022
283 Clear 23 1011 39 10000 1.85 243 09:26 23.07.2022
284 Clouds 27 1008 34 10000 4.59 205 04:59 23.07.2022
285 Clouds 32 1010 24 10000 6.17 190 02:30 23.07.2022
286 Clouds 35 1009 19 10000 2.68 186 23:57 22.07.2022
287 Clear 34 1010 20 10000 1.79 56 21:18 22.07.2022
288 Clear 33 1012 22 10000 1.79 342 19:55 22.07.2022
289 Clear 31 1011 25 10000 1.34 319 18:36 22.07.2022
290 Clear 29 1007 29 10000 0.45 134 17:37 22.07.2022
291 Clouds 22 1022 37 10000 3.09 210 15:26 22.07.2022
292 Clear 21 1018 40 10000 1.25 250 12:23 22.07.2022
293 Clouds 23 1015 37 10000 5.14 210 09:43 22.07.2022
294 Clouds 23 1018 37 10000 5.14 210 09:18 22.07.2022
295 Clouds 24 1004 38 10000 1.16 255 07:23 22.07.2022
296 Clear 29 1009 29 10000 2.26 49 04:18 22.07.2022
297 Clouds 34 1011 18 10000 4.12 210 22:56 21.07.2022
298 Clear 34 1011 19 10000 1.34 246 21:35 21.07.2022
299 Clear 32 1013 23 10000 1.34 215 19:31 21.07.2022
300 Clear 30 1013 29 10000 1.34 198 18:28 21.07.2022
301 Clear 27 1014 38 10000 0.89 226 17:20 21.07.2022
302 Clear 22 1021 51 10000 1.26 16 15:39 21.07.2022
303 Clear 20 1015 53 10000 0.92 353 14:44 21.07.2022
304 Clear 19 1020 59 10000 1.26 235 12:54 21.07.2022
305 Clear 20 1014 58 10000 2.24 296 11:23 21.07.2022
306 Clear 21 1013 56 10000 0.45 195 09:42 21.07.2022
307 Clear 22 1012 54 10000 0.89 182 08:52 21.07.2022
308 Clouds 22 1011 55 10000 0.89 175 07:50 21.07.2022
309 Clouds 23 1015 54 10000 1.34 275 06:25 21.07.2022
310 Clouds 24 1016 58 10000 2.24 229 01:54 21.07.2022
311 Clear 33 1013 26 10000 1.34 137 22:22 20.07.2022
312 Clear 32 1014 29 10000 1.79 162 21:42 20.07.2022
313 Clear 31 1015 30 10000 0.45 298 20:39 20.07.2022
314 Clear 30 1017 33 10000 0.89 94 19:43 20.07.2022
315 Clear 29 1013 36 10000 0.45 173 18:52 20.07.2022
316 Clear 27 1015 38 10000 0.89 40 18:29 20.07.2022
317 Clear 24 1018 45 10000 0.45 209 16:46 20.07.2022
318 Clear 22 1018 49 10000 1.79 20 15:32 20.07.2022
319 Clouds 19 1016 59 10000 0.89 296 14:26 20.07.2022
320 Clouds 20 1020 60 10000 1.94 326 12:34 20.07.2022
321 Clouds 22 1011 51 10000 3.25 173 10:24 20.07.2022
322 Clouds 27 1009 45 10000 0.89 121 04:50 20.07.2022
323 Clouds 31 1012 34 10000 1.79 141 00:54 20.07.2022
324 Clouds 32 1017 31 10000 3.58 152 00:25 20.07.2022
325 Clouds 33 1011 27 10000 0.89 140 22:34 19.07.2022
326 Clouds 34 1009 25 10000 2.68 1 21:53 19.07.2022
327 Clouds 34 1010 24 10000 2.68 333 20:48 19.07.2022
328 Clouds 34 1010 25 10000 2.68 314 19:21 19.07.2022
329 Clouds 33 1010 26 10000 2.24 313 18:34 19.07.2022
330 Clouds 32 1010 29 10000 1.34 353 17:49 19.07.2022
331 Clouds 24 1010 43 10000 2.23 217 14:58 19.07.2022
332 Clouds 24 1010 43 10000 5.14 220 11:58 19.07.2022
333 Clouds 25 1010 41 10000 5.14 220 11:18 19.07.2022
334 Clouds 25 1012 40 10000 0.45 164 09:26 19.07.2022
335 Clouds 25 1012 41 10000 0.89 257 08:39 19.07.2022
336 Clouds 26 1009 37 10000 0.45 192 07:19 19.07.2022
337 Clouds 28 1007 32 10000 2.68 313 05:48 19.07.2022
338 Clouds 29 1008 29 10000 4.02 304 04:58 19.07.2022
339 Clouds 33 1007 27 10000 4.63 190 01:58 19.07.2022
340 Clouds 34 1008 24 10000 1.34 204 23:50 18.07.2022
341 Clouds 34 1008 26 10000 1.79 95 23:19 18.07.2022
342 Clouds 35 1006 21 10000 3.91 173 22:22 18.07.2022
343 Clouds 36 1009 21 10000 1.79 73 20:57 18.07.2022
344 Clouds 35 1009 23 10000 1.34 157 19:52 18.07.2022
345 Clouds 31 1010 32 10000 0.89 219 17:53 18.07.2022
346 Clouds 26 1011 43 10000 0.89 39 16:28 18.07.2022
347 Clouds 23 1013 48 10000 6.17 190 15:19 18.07.2022
348 Clouds 23 1011 44 10000 0.45 182 13:26 18.07.2022
349 Clouds 24 1012 41 10000 1.79 128 11:31 18.07.2022
350 Clouds 25 1011 39 10000 1.34 174 09:53 18.07.2022
351 Clouds 27 1011 36 10000 1.34 117 07:48 18.07.2022
352 Clouds 34 1012 23 10000 7.72 130 02:34 18.07.2022
353 Clear 36 1013 18 10000 1.79 23 22:52 17.07.2022
354 Clear 35 1013 18 10000 1.79 306 22:25 17.07.2022
355 Clear 34 1014 20 10000 1.79 17 21:26 17.07.2022
356 Clouds 34 1014 22 10000 2.06 20 20:44 17.07.2022
357 Clear 32 1015 29 10000 1.79 317 19:49 17.07.2022
358 Clear 31 1015 32 10000 0.89 94 19:19 17.07.2022
359 Clear 28 1014 40 10000 0.45 184 17:39 17.07.2022
360 Clouds 25 1017 46 10000 5.14 200 16:51 17.07.2022
361 Clear 24 1017 51 10000 1.34 155 16:27 17.07.2022
362 Clear 21 1018 60 10000 0.89 146 15:27 17.07.2022
363 Clear 18 1019 65 10000 0.89 251 13:34 17.07.2022
364 Clear 19 1022 65 10000 1.82 221 12:32 17.07.2022
365 Clear 21 1015 58 10000 0.89 329 09:31 17.07.2022
366 Clouds 23 1015 53 10000 3.32 227 06:58 17.07.2022
367 Clouds 28 1013 42 10000 0.45 199 02:33 17.07.2022
368 Clouds 29 1016 38 10000 5.81 322 23:22 16.07.2022
369 Clouds 29 1016 38 10000 5.81 322 23:22 16.07.2022
370 Clouds 32 1011 33 10000 3.13 21 21:57 16.07.2022
371 Clouds 33 1013 29 10000 2.24 0 20:28 16.07.2022
372 Clouds 30 1014 39 10000 1.34 64 18:42 16.07.2022
373 Clouds 27 1014 49 10000 0.89 147 17:24 16.07.2022
374 Clouds 22 1018 64 10000 0.89 157 15:41 16.07.2022
375 Clouds 19 1014 75 10000 0.45 183 11:55 16.07.2022
376 Clouds 21 1016 68 10000 1.34 337 09:37 16.07.2022
377 Clouds 22 1017 67 10000 4.12 300 08:58 16.07.2022
378 Clouds 22 1017 64 10000 4.63 90 08:33 16.07.2022
379 Clouds 24 1014 51 10000 1.88 40 05:59 16.07.2022
380 Clouds 26 1023 45 10000 3.3 155 03:31 16.07.2022
381 Clouds 31 1013 32 10000 1.79 304 23:51 15.07.2022
382 Clouds 33 1013 27 10000 1.54 220 22:43 15.07.2022
383 Clouds 33 1014 28 10000 1.79 66 21:31 15.07.2022
384 Clouds 31 1015 32 10000 1.34 186 20:31 15.07.2022
385 Clouds 29 1016 37 10000 1.34 168 18:44 15.07.2022
386 Clouds 28 1018 41 10000 1.54 270 17:48 15.07.2022
387 Clouds 22 1019 54 10000 0.45 237 14:57 15.07.2022
388 Clouds 20 1017 56 10000 1.54 180 13:20 15.07.2022
389 Clouds 21 1015 52 10000 1.3 232 11:45 15.07.2022
390 Clouds 23 1014 49 10000 0.45 209 10:27 15.07.2022
391 Clouds 24 1015 45 10000 2.57 180 07:42 15.07.2022
392 Clouds 29 1015 30 10000 0.89 178 02:24 15.07.2022
393 Clouds 31 1012 30 10000 3.13 227 00:37 15.07.2022
394 Clouds 35 1013 21 10000 1.79 244 22:53 14.07.2022
395 Clouds 35 1011 22 10000 1.34 221 21:54 14.07.2022
396 Clouds 34 1014 23 10000 1.34 201 21:30 14.07.2022
397 Clouds 34 1014 23 10000 1.34 103 20:45 14.07.2022
398 Clouds 34 1014 24 10000 1.34 319 20:26 14.07.2022
399 Clouds 32 1015 26 10000 1.34 120 19:45 14.07.2022
400 Clouds 26 1016 39 10000 0.89 28 16:23 14.07.2022
401 Clouds 25 1014 41 10000 0.89 3 15:50 14.07.2022
402 Clouds 21 1020 44 10000 1.39 227 14:31 14.07.2022
403 Clouds 21 1014 42 10000 0.45 57 13:21 14.07.2022
404 Clouds 21 1010 42 10000 0.89 221 11:56 14.07.2022
405 Clouds 22 1016 43 10000 1.79 320 11:24 14.07.2022
406 Clouds 22 1015 43 10000 1.34 222 10:37 14.07.2022
407 Clouds 22 1016 43 10000 1.06 233 07:55 14.07.2022
408 Clouds 32 1010 21 10000 2.24 256 01:28 14.07.2022
409 Clouds 34 1011 18 10000 1.34 227 00:54 14.07.2022
410 Clouds 35 1011 16 10000 1.34 105 23:35 13.07.2022
411 Clouds 35 1012 18 10000 1.34 296 22:23 13.07.2022
412 Clouds 35 1012 17 10000 3.13 20 21:21 13.07.2022
413 Clouds 34 1013 20 10000 2.24 55 20:23 13.07.2022
414 Clouds 31 1013 27 10000 0.45 146 17:54 13.07.2022
415 Clouds 27 1013 34 10000 1.6 215 16:47 13.07.2022
416 Clouds 24 1014 36 10000 2.02 211 15:43 13.07.2022
417 Clouds 18 1021 53 10000 1.89 188 13:24 13.07.2022
418 Clouds 19 1018 46 10000 5.14 190 10:46 13.07.2022
419 Clear 20 1014 43 10000 1.77 335 10:28 13.07.2022
420 Clouds 20 1014 43 10000 5.14 190 10:28 13.07.2022
421 Clear 21 1012 41 10000 1.54 257 09:27 13.07.2022
422 Clouds 22 1012 40 10000 0.89 192 07:53 13.07.2022
423 Clouds 28 1014 26 10000 5.13 69 03:26 13.07.2022
424 Clouds 32 1011 21 10000 3.58 261 00:19 13.07.2022
425 Clear 34 1013 22 10000 1.34 104 22:19 12.07.2022
426 Clear 32 1013 25 10000 1.34 130 21:36 12.07.2022
427 Clear 31 1014 31 10000 1.34 166 20:42 12.07.2022
428 Clear 29 1015 37 10000 1.34 31 19:42 12.07.2022
429 Clear 26 1015 46 10000 0.89 321 18:21 12.07.2022
430 Clear 21 1018 59 10000 0.89 90 16:20 12.07.2022
431 Clouds 16 1015 74 10000 0.45 256 14:31 12.07.2022
432 Clouds 17 1023 71 10000 0.3 283 13:24 12.07.2022
433 Clouds 17 1017 70 10000 0.45 217 11:46 12.07.2022
434 Clear 18 1017 69 10000 4.12 170 10:25 12.07.2022
435 Clouds 19 1018 63 10000 4.63 190 08:38 12.07.2022
436 Clouds 20 1017 61 10000 0.45 249 07:38 12.07.2022
437 Clouds 22 1018 57 10000 3.19 165 05:44 12.07.2022
438 Clouds 24 1018 51 10000 3.69 197 03:50 12.07.2022
439 Clouds 25 1018 48 10000 2.06 60 23:43 11.07.2022
440 Clouds 24 1018 51 10000 1.34 329 22:36 11.07.2022
441 Clouds 21 1020 59 10000 0.45 266 20:54 11.07.2022
442 Clouds 20 1024 65 10000 0.89 30 20:25 11.07.2022
443 Clouds 17 1020 69 10000 3.15 27 18:38 11.07.2022
444 Clouds 16 1021 49 10000 3.6 15 17:55 11.07.2022
445 Clouds 17 1023 72 10000 2.24 0 16:22 11.07.2022
446 Clouds 19 1018 61 10000 6.78 23 14:49 11.07.2022
447 Clouds 20 1015 48 10000 0.45 162 12:28 11.07.2022
448 Clouds 21 1013 47 10000 5.14 210 10:42 11.07.2022
449 Clouds 21 1012 47 10000 0.89 254 09:54 11.07.2022
450 Clouds 23 1013 45 10000 1.34 229 08:35 11.07.2022
451 Clouds 24 1014 40 10000 1.79 174 07:32 11.07.2022
452 Clouds 32 1009 21 10000 0.45 220 00:47 11.07.2022
453 Clouds 35 1012 16 10000 2.68 355 23:48 10.07.2022
454 Clouds 36 1014 16 10000 4.63 30 22:26 10.07.2022
455 Clouds 36 1013 15 10000 2.68 327 20:55 10.07.2022
456 Clouds 36 1012 15 10000 2.24 302 19:55 10.07.2022
457 Clouds 35 1012 17 10000 2.24 299 19:20 10.07.2022
458 Clouds 33 1014 23 10000 4.12 230 17:50 10.07.2022
459 Clear 30 1016 30 10000 0.89 165 16:59 10.07.2022
460 Clear 27 1015 36 10000 0.45 181 16:20 10.07.2022
461 Clouds 23 1023 42 10000 4.63 200 14:35 10.07.2022
462 Clear 22 1015 42 10000 0.45 164 12:38 10.07.2022
463 Clear 23 1016 40 10000 0.45 195 11:34 10.07.2022
464 Clouds 25 1016 36 10000 0.45 223 09:30 10.07.2022
465 Clouds 25 1015 36 10000 0.45 268 08:42 10.07.2022
466 Clouds 28 1015 30 10000 1.34 190 06:32 10.07.2022
467 Clear 37 1015 14 10000 1.79 352 23:35 09.07.2022
468 Clouds 37 1016 13 10000 2.57 310 22:26 09.07.2022
469 Clouds 36 1017 14 10000 2.57 280 21:40 09.07.2022
470 Clouds 33 1017 24 10000 1.34 14 19:19 09.07.2022
471 Clouds 32 1019 30 10000 0.89 18 18:25 09.07.2022
472 Clouds 29 1018 38 10000 3.6 240 17:18 09.07.2022
473 Clouds 24 1020 48 10000 3.6 200 15:56 09.07.2022
474 Clouds 24 1018 49 10000 0.45 178 15:36 09.07.2022
475 Clear 20 1018 55 10000 1.79 176 13:54 09.07.2022
476 Clear 20 1018 54 10000 0.89 166 13:28 09.07.2022
477 Clear 21 1018 50 10000 7.2 190 11:34 09.07.2022
478 Clear 21 1017 47 10000 0.45 194 10:24 09.07.2022
479 Clouds 22 1019 46 10000 1.34 231 08:27 09.07.2022
480 Clouds 24 1018 44 10000 0.45 120 06:59 09.07.2022
481 Clouds 28 1017 37 10000 7.2 180 04:35 09.07.2022
482 Clear 34 1016 20 10000 1.79 5 23:27 08.07.2022
483 Clear 33 1016 26 10000 1.34 153 21:59 08.07.2022
484 Clear 32 1017 30 10000 1.34 127 21:20 08.07.2022
485 Clear 31 1016 33 10000 1.34 21 20:33 08.07.2022
486 Clear 27 1018 44 10000 0.89 50 18:36 08.07.2022
487 Clear 25 1018 49 10000 0.89 158 17:45 08.07.2022
488 Clear 18 1020 73 10000 0.89 150 15:30 08.07.2022
489 Clear 17 1022 75 10000 1.99 211 14:49 08.07.2022
490 Clear 16 1019 77 10000 1.77 220 12:28 08.07.2022
491 Clear 18 1019 71 10000 1.79 296 10:46 08.07.2022
492 Clear 18 1017 70 10000 0.89 314 09:24 08.07.2022
493 Clouds 19 1017 67 10000 0.89 156 06:55 08.07.2022
494 Clouds 22 1015 55 10000 0.45 273 04:31 08.07.2022
495 Clouds 28 1015 37 10000 4.47 17 23:56 07.07.2022
496 Clouds 29 1022 28 10000 4.12 50 22:45 07.07.2022
497 Clouds 29 1015 29 10000 1.34 280 21:39 07.07.2022
498 Clear 28 1014 37 10000 0.89 182 18:43 07.07.2022
499 Clear 25 1014 47 10000 0.45 132 17:41 07.07.2022
500 Clear 18 1015 72 10000 0.45 191 15:34 07.07.2022
501 Clouds 16 1015 83 10000 2.03 217 13:30 07.07.2022
502 Clouds 16 1013 82 10000 0.89 336 12:40 07.07.2022
503 Clouds 16 1013 81 10000 0.89 336 12:20 07.07.2022
504 Clouds 17 1013 80 10000 1.85 208 11:31 07.07.2022
505 Clouds 17 1014 79 10000 1.85 208 10:44 07.07.2022
506 Clouds 17 1014 79 10000 3.6 180 10:25 07.07.2022
507 Clouds 17 1013 80 10000 0.89 212 07:58 07.07.2022
508 Clouds 19 1014 74 10000 4.12 100 04:44 07.07.2022
509 Clouds 25 1015 77 10000 2.88 91 23:37 06.07.2022
510 Clouds 26 1012 83 1357 4.12 221 23:19 06.07.2022
511 Clouds 26 1012 83 1357 4.12 221 23:19 06.07.2022
512 Clouds 27 1012 83 1357 4.12 221 22:57 06.07.2022
513 Clouds 28 1012 33 1357 4.12 221 22:38 06.07.2022
514 Clouds 28 1012 44 10000 1.34 319 21:30 06.07.2022
515 Clouds 26 1014 52 10000 3.09 340 19:39 06.07.2022
516 Clouds 24 1014 61 10000 1.79 82 18:29 06.07.2022
517 Clouds 19 1015 81 10000 3.09 330 16:19 06.07.2022
518 Clouds 19 1014 83 10000 0.89 344 14:55 06.07.2022
519 Clouds 19 1012 69 10000 2.24 322 12:40 06.07.2022
520 Clouds 20 1011 62 10000 0.45 185 11:49 06.07.2022
521 Clouds 21 1010 57 10000 0.45 351 10:18 06.07.2022
522 Clouds 22 1011 52 10000 1.34 258 07:47 06.07.2022
523 Clouds 22 1010 51 10000 0.89 207 07:23 06.07.2022
524 Clouds 24 1010 48 10000 1.79 237 03:24 06.07.2022
525 Clouds 31 1016 27 10000 0.89 350 22:45 05.07.2022
526 Clouds 31 1016 27 10000 0.89 350 22:45 05.07.2022
527 Clouds 33 1008 23 10000 3.58 320 21:39 05.07.2022
528 Clouds 33 1008 24 10000 2.24 130 20:38 05.07.2022
529 Clouds 32 1009 27 10000 1.34 90 19:41 05.07.2022
530 Clouds 32 1009 27 10000 1.34 109 19:22 05.07.2022
531 Clouds 28 1010 36 10000 0.45 198 17:47 05.07.2022
532 Clouds 25 1010 41 10000 0.89 223 16:44 05.07.2022
533 Clouds 21 1012 56 10000 3.09 200 15:25 05.07.2022
534 Clouds 18 1018 59 10000 0.75 230 13:53 05.07.2022
535 Clouds 18 1013 61 10000 1.77 224 12:42 05.07.2022
536 Clouds 19 1011 61 10000 0.45 167 11:32 05.07.2022
537 Clouds 19 1011 60 10000 0.45 179 10:34 05.07.2022
538 Clouds 21 1011 55 10000 0.45 217 08:26 05.07.2022
539 Clouds 22 1011 51 10000 0.89 175 07:31 05.07.2022
540 Clouds 25 1010 43 10000 2.68 259 04:47 05.07.2022
541 Clouds 25 1010 46 10000 7.4 223 04:20 05.07.2022
542 Clouds 32 1008 14 10000 8.79 306 23:45 04.07.2022
543 Clouds 33 1010 20 10000 0.89 136 23:25 04.07.2022
544 Clouds 34 1009 19 10000 4.63 80 22:21 04.07.2022
545 Clear 33 1009 21 10000 1.79 149 21:20 04.07.2022
546 Clear 33 1009 21 10000 1.79 339 20:51 04.07.2022
547 Clear 32 1009 23 10000 1.34 148 20:33 04.07.2022
548 Clouds 32 1010 26 10000 1.79 129 19:51 04.07.2022
549 Clouds 31 1010 27 10000 0.89 190 19:33 04.07.2022
550 Clouds 28 1009 35 10000 0.89 226 17:42 04.07.2022
551 Clouds 22 1010 50 10000 0.45 254 15:44 04.07.2022
552 Clouds 19 1013 56 10000 1.79 277 14:42 04.07.2022
553 Clouds 18 1008 59 10000 2.71 212 13:27 04.07.2022
554 Clouds 19 1007 53 10000 0.45 181 11:43 04.07.2022
555 Clouds 19 1008 54 10000 2.76 207 10:33 04.07.2022
556 Clouds 20 1008 53 10000 2.77 210 09:36 04.07.2022
557 Clouds 20 1010 57 10000 1.34 221 06:53 04.07.2022
558 Clouds 23 1011 48 10000 0.45 86 03:30 04.07.2022
559 Clouds 25 1010 65 10000 12.41 237 00:27 04.07.2022
560 Clouds 32 1007 26 10000 0.89 200 22:55 03.07.2022
561 Clouds 31 1005 29 10000 0.89 17 20:47 03.07.2022
562 Clouds 31 1008 30 10000 1.34 11 20:20 03.07.2022
563 Clouds 29 1008 33 10000 1.34 104 19:25 03.07.2022
564 Clouds 27 1009 38 10000 1.54 350 18:32 03.07.2022
565 Clouds 26 1008 39 10000 0.89 30 17:42 03.07.2022
566 Clouds 20 1010 55 10000 0.89 227 15:28 03.07.2022
567 Clouds 20 1009 56 10000 0.45 271 14:57 03.07.2022
568 Clouds 18 1011 57 10000 0.89 244 13:50 03.07.2022
569 Clouds 19 1008 55 10000 0.89 214 12:51 03.07.2022
570 Clouds 19 1009 57 10000 2.04 206 12:21 03.07.2022
571 Clouds 20 1009 55 10000 4.63 180 10:55 03.07.2022
572 Clouds 20 1008 55 10000 0.45 158 10:36 03.07.2022
573 Clouds 21 1011 53 10000 0.89 193 08:21 03.07.2022
574 Clouds 21 1013 52 10000 4.12 210 07:34 03.07.2022
575 Clouds 30 1011 26 10000 1.34 312 00:41 03.07.2022
576 Clear 31 1012 25 10000 1.79 35 23:38 02.07.2022
577 Clouds 31 1013 26 10000 6.17 60 22:31 02.07.2022
578 Clouds 28 1014 33 10000 2.06 90 20:31 02.07.2022
579 Clear 28 1014 35 10000 1.34 154 19:49 02.07.2022
580 Clear 26 1013 42 10000 0.89 223 18:36 02.07.2022
581 Clear 24 1011 47 10000 1.34 159 17:39 02.07.2022
582 Clear 21 1015 55 10000 0.45 207 16:32 02.07.2022
583 Clouds 15 1020 76 10000 0.36 31 13:51 02.07.2022
584 Clouds 15 1020 75 10000 1.7 210 11:51 02.07.2022
585 Clouds 16 1020 73 10000 1.82 207 10:52 02.07.2022
586 Clouds 16 1013 73 10000 1.21 205 10:25 02.07.2022
587 Clouds 17 1013 67 10000 0.9 314 08:38 02.07.2022
588 Clouds 17 1014 66 10000 1.34 339 08:19 02.07.2022
589 Clouds 24 1012 42 10000 1.79 178 04:19 02.07.2022
590 Clouds 28 1013 40 10000 6.64 191 00:34 02.07.2022
591 Clouds 28 1015 35 10000 1.79 34 23:30 01.07.2022
592 Clouds 27 1015 37 10000 4.12 60 22:35 01.07.2022
593 Clear 26 1016 41 10000 1.34 357 21:38 01.07.2022
594 Clear 26 1016 44 10000 1.79 85 20:59 01.07.2022
595 Clear 25 1017 45 10000 0.89 103 20:34 01.07.2022
596 Clouds 24 1010 49 10000 1.34 27 19:38 01.07.2022
597 Clouds 19 1017 65 10000 0.89 8 17:18 01.07.2022
598 Clouds 15 1019 78 10000 0.53 64 14:59 01.07.2022
599 Clouds 13 1016 79 10000 0.45 301 13:54 01.07.2022
600 Clouds 15 1016 73 10000 0.89 302 11:22 01.07.2022
601 Clouds 16 1017 70 10000 0.45 40 10:19 01.07.2022
602 Clouds 16 1018 65 10000 0.45 181 07:38 01.07.2022
603 Clouds 20 1013 62 10000 7.52 175 02:43 01.07.2022
604 Clouds 22 1016 59 10000 3.6 240 00:21 01.07.2022
605 Clouds 25 1015 48 10000 0.89 322 22:52 30.06.2022
606 Clouds 25 1015 46 10000 0.89 179 22:32 30.06.2022
607 Clouds 25 1016 49 10000 1.79 144 21:54 30.06.2022
608 Clouds 23 1017 54 10000 1.34 169 20:53 30.06.2022
609 Clouds 27 1011 35 10000 5.71 351 20:21 30.06.2022
610 Clouds 27 1018 36 10000 1.34 25 19:48 30.06.2022
611 Clouds 27 1014 37 10000 2.24 56 19:18 30.06.2022
612 Clouds 27 1015 38 10000 1.34 19 18:34 30.06.2022
613 Clouds 26 1013 39 10000 1.79 23 17:37 30.06.2022
614 Clouds 22 1014 55 10000 0.45 5 16:22 30.06.2022
615 Clouds 20 1012 55 10000 2.4 207 14:20 30.06.2022
616 Clouds 19 1014 56 10000 0 0 13:29 30.06.2022
617 Clouds 20 1012 55 10000 1.93 220 12:34 30.06.2022
618 Clouds 20 1012 56 10000 0.89 108 11:21 30.06.2022
619 Clouds 19 1013 65 10000 1.79 222 09:52 30.06.2022
620 Clouds 19 1014 67 10000 5.66 230 09:26 30.06.2022
621 Clouds 18 1016 72 10000 0.45 191 07:41 30.06.2022
622 Clouds 21 1016 61 10000 1.79 16 05:46 30.06.2022
623 Clouds 31 1020 27 10000 1.79 105 00:26 30.06.2022
624 Clouds 31 1021 22 10000 8.23 340 22:53 29.06.2022
625 Clouds 32 1008 21 10000 0.89 5 22:33 29.06.2022
626 Clouds 33 1011 19 10000 1.79 336 20:56 29.06.2022
627 Clouds 33 1012 19 10000 0.89 30 20:32 29.06.2022
628 Clouds 33 1013 21 10000 1.34 41 19:33 29.06.2022
629 Clouds 29 1014 26 10000 0.89 230 17:40 29.06.2022
630 Clouds 24 1016 35 10000 5.14 210 16:33 29.06.2022
631 Clouds 19 1016 42 10000 5.14 200 14:19 29.06.2022
632 Clouds 19 1013 38 10000 0.45 253 12:38 29.06.2022
633 Clear 21 1013 34 10000 1.34 209 10:20 29.06.2022
634 Clear 22 1014 32 10000 1.34 192 09:31 29.06.2022
635 Clouds 23 1015 30 10000 1.34 115 07:23 29.06.2022
636 Clouds 27 1006 26 10000 0.45 197 04:48 29.06.2022
637 Clouds 33 1015 16 10000 1.34 61 00:55 29.06.2022
638 Clouds 33 1014 16 10000 1.34 97 00:35 29.06.2022
639 Clear 33 1016 15 10000 0.89 151 22:53 28.06.2022
640 Clear 33 1017 15 10000 2.24 24 22:21 28.06.2022
641 Clear 33 1017 15 10000 2.24 23 21:50 28.06.2022
642 Clear 33 1017 15 10000 2.68 14 21:30 28.06.2022
643 Clear 32 1018 18 10000 1.79 32 20:18 28.06.2022
644 Clear 31 1018 22 10000 1.34 95 19:32 28.06.2022
645 Clouds 29 1019 25 10000 2.06 160 18:42 28.06.2022
646 Clear 27 1019 31 10000 0.89 126 17:37 28.06.2022
647 Clear 21 1021 41 10000 0.89 112 15:56 28.06.2022
648 Clear 18 1020 49 10000 1.86 209 14:59 28.06.2022
649 Clear 16 1023 54 10000 1.95 196 14:19 28.06.2022
650 Clear 16 1021 54 10000 0.45 192 13:47 28.06.2022
651 Clear 15 1021 56 10000 0.45 211 12:47 28.06.2022
652 Clear 16 1026 55 10000 2.02 199 10:44 28.06.2022
653 Clouds 17 1022 56 10000 2.57 220 08:56 28.06.2022
654 Clear 17 1022 56 10000 1.5 242 08:38 28.06.2022
655 Clouds 19 1022 50 10000 0.89 295 07:20 28.06.2022
656 Clouds 23 1020 33 10000 5.14 330 04:54 28.06.2022
657 Clear 30 1018 20 10000 1.79 22 23:53 27.06.2022
658 Clear 30 1019 20 10000 2.68 32 23:28 27.06.2022
659 Clouds 29 1019 20 10000 5.66 50 22:42 27.06.2022
660 Clear 28 1020 23 10000 2.24 3 21:30 27.06.2022
661 Clouds 27 1021 34 10000 1.34 151 20:34 27.06.2022
662 Clouds 24 1022 42 10000 1.34 169 18:52 27.06.2022
663 Clouds 22 1021 50 10000 1.34 290 17:45 27.06.2022
664 Clouds 17 1024 65 10000 0.89 215 15:51 27.06.2022
665 Clouds 13 1028 79 10000 3.09 190 14:26 27.06.2022
666 Clouds 13 1028 76 10000 0.87 317 12:59 27.06.2022
667 Clouds 13 1028 76 10000 0.87 317 12:36 27.06.2022
668 Clouds 14 1025 72 10000 0.45 298 09:53 27.06.2022
669 Clouds 15 1024 71 10000 0.89 319 08:43 27.06.2022
670 Clouds 15 1024 68 10000 6.69 150 07:53 27.06.2022
671 Clouds 16 1023 65 10000 0.89 306 06:37 27.06.2022
672 Clouds 18 1024 59 10000 0.45 135 01:26 27.06.2022
673 Clouds 20 1020 56 10000 5.84 147 23:27 26.06.2022
674 Clouds 20 1031 56 10000 6.17 170 21:40 26.06.2022
675 Clouds 19 1022 46 10000 1.32 141 20:34 26.06.2022
676 Clouds 17 1026 51 10000 0.45 276 19:19 26.06.2022
677 Clouds 16 1029 55 10000 0.89 5 18:23 26.06.2022
678 Clouds 14 1028 60 10000 0.89 346 15:38 26.06.2022
679 Clouds 14 1027 62 10000 1.79 360 14:33 26.06.2022
680 Clouds 14 1027 67 10000 4.12 320 13:27 26.06.2022
681 Clouds 14 1026 70 10000 4.12 320 12:37 26.06.2022
682 Clouds 15 1026 72 10000 1.79 29 10:53 26.06.2022
683 Clouds 16 1025 72 10000 2.24 8 10:22 26.06.2022
684 Clouds 16 1025 71 10000 2.68 14 08:45 26.06.2022
685 Clouds 17 1025 65 10000 1.34 184 06:50 26.06.2022
686 Clouds 20 1022 51 10000 1.54 350 00:38 26.06.2022
687 Clouds 21 1022 50 10000 1.34 194 00:19 26.06.2022
688 Clouds 21 1016 48 10000 0.89 210 23:31 25.06.2022
689 Clouds 21 1019 46 10000 2.09 140 22:48 25.06.2022
690 Clouds 20 1028 48 10000 0.89 137 22:25 25.06.2022
691 Clouds 19 1017 53 10000 0.45 246 21:21 25.06.2022
692 Clouds 19 1022 51 10000 1.94 127 20:48 25.06.2022
693 Clouds 17 1022 58 10000 0.89 142 20:25 25.06.2022
694 Clouds 14 1023 68 10000 0.89 305 18:26 25.06.2022
695 Clouds 13 1024 74 10000 1.79 347 17:27 25.06.2022
696 Clouds 13 1023 79 10000 2.24 318 16:29 25.06.2022
697 Clouds 15 1020 79 10000 2.68 26 14:43 25.06.2022
698 Clouds 16 1022 59 10000 0.45 9 12:51 25.06.2022
699 Clouds 16 1015 59 10000 1.51 233 12:31 25.06.2022
700 Clouds 16 1020 59 10000 1.8 217 09:35 25.06.2022
701 Clouds 17 1019 59 10000 2.07 227 08:55 25.06.2022
702 Clouds 17 1019 59 10000 0.45 179 08:20 25.06.2022
703 Clouds 18 1013 65 10000 2.5 196 06:36 25.06.2022
704 Clouds 25 1010 40 6560 0.89 130 00:50 25.06.2022
705 Clouds 25 1005 45 10000 5.64 318 23:57 24.06.2022
706 Clouds 30 1009 23 10000 3.13 304 22:29 24.06.2022
707 Clouds 30 1009 24 10000 1.34 80 21:28 24.06.2022
708 Clouds 30 1010 24 10000 1.34 351 20:23 24.06.2022
709 Clouds 29 1009 24 10000 1.34 112 19:37 24.06.2022
710 Clouds 29 1010 25 10000 1.34 56 19:18 24.06.2022
711 Clouds 28 1009 26 10000 0.89 121 18:31 24.06.2022
712 Clouds 27 1008 29 10000 2.24 18 17:57 24.06.2022
713 Clouds 26 1009 32 10000 1.79 305 16:46 24.06.2022
714 Clouds 18 1017 44 10000 1.93 228 14:32 24.06.2022
715 Clouds 18 1010 43 10000 2.19 233 13:59 24.06.2022
716 Clouds 18 1010 45 10000 2.19 233 13:35 24.06.2022
717 Clouds 18 1010 45 10000 0.45 267 11:41 24.06.2022
718 Clouds 18 1008 44 10000 0.89 277 10:36 24.06.2022
719 Clouds 19 1010 42 10000 2.22 213 09:41 24.06.2022
720 Clouds 20 1009 39 10000 0.89 76 08:53 24.06.2022
721 Clouds 22 1009 35 10000 2.24 257 07:56 24.06.2022
722 Clouds 23 1008 31 10000 4.02 309 06:43 24.06.2022
723 Clouds 24 1008 30 10000 3.13 301 06:20 24.06.2022
724 Clouds 26 1008 25 10000 5.36 315 04:41 24.06.2022
725 Clouds 33 1009 12 10000 1.34 97 23:19 23.06.2022
726 Clouds 32 1009 13 10000 2.24 13 22:40 23.06.2022
727 Clouds 31 1010 16 10000 3.13 34 20:59 23.06.2022
728 Clouds 31 1010 17 10000 1.79 327 20:35 23.06.2022
729 Clouds 29 1011 20 10000 1.79 331 19:40 23.06.2022
730 Clouds 26 1010 28 10000 0.89 31 17:53 23.06.2022
731 Clouds 26 1009 29 10000 0.89 355 17:33 23.06.2022
732 Clouds 22 1011 36 10000 0.89 182 15:57 23.06.2022
733 Clouds 19 1012 42 10000 1.4 225 15:24 23.06.2022
734 Clouds 17 1012 41 10000 1.7 212 13:45 23.06.2022
735 Clear 18 1012 38 10000 2.13 209 11:27 23.06.2022
736 Clear 18 1013 37 10000 2.13 209 10:37 23.06.2022
737 Clear 20 1014 34 10000 2.37 206 09:18 23.06.2022
738 Clouds 27 1014 24 10000 0.89 201 03:39 23.06.2022
739 Clouds 28 1016 22 10000 0.89 250 00:26 23.06.2022
740 Clouds 28 1019 23 10000 3.09 90 23:41 22.06.2022
741 Clouds 28 1016 23 10000 0.89 123 22:41 22.06.2022
742 Clouds 28 1018 23 10000 1.34 342 21:22 22.06.2022
743 Clouds 27 1019 24 10000 3.09 60 20:43 22.06.2022
744 Clouds 26 1019 27 10000 0.89 28 19:56 22.06.2022
745 Clouds 25 1020 28 10000 0.89 337 18:47 22.06.2022
746 Clouds 22 1021 33 10000 0.89 36 17:28 22.06.2022
747 Clouds 19 1021 39 10000 0.89 144 16:29 22.06.2022
748 Clouds 16 1023 45 10000 0.52 50 15:26 22.06.2022
749 Clouds 13 1027 49 10000 0.21 0 14:20 22.06.2022
750 Clouds 13 1026 52 10000 0.36 344 13:39 22.06.2022
751 Clouds 13 1021 52 10000 0.2 96 13:21 22.06.2022
752 Clouds 13 1026 49 10000 2.57 180 11:49 22.06.2022
753 Clouds 14 1026 51 10000 1.07 220 10:57 22.06.2022
754 Clouds 14 1026 46 10000 1.16 234 10:19 22.06.2022
755 Clouds 15 1023 42 10000 1.49 195 08:28 22.06.2022
756 Clouds 20 1021 28 10000 1.79 215 04:50 22.06.2022
757 Clouds 25 1020 21 10000 3.13 105 01:24 22.06.2022
758 Clouds 26 1019 22 10000 2.68 176 00:29 22.06.2022
759 Clouds 25 1020 23 10000 4.02 193 22:19 21.06.2022
760 Clouds 23 1022 25 10000 3.13 150 19:56 21.06.2022
761 Clear 22 1020 27 10000 3.13 104 18:35 21.06.2022
762 Clouds 20 1021 30 10000 3.58 193 17:39 21.06.2022
763 Clouds 13 1019 43 10000 1.79 181 14:22 21.06.2022
764 Clouds 15 1018 41 10000 0.89 112 11:49 21.06.2022
765 Clouds 16 1017 38 10000 0.45 131 10:18 21.06.2022
766 Clouds 17 1017 34 10000 1.79 164 08:48 21.06.2022
767 Clouds 20 1014 21 10000 1.79 42 07:23 21.06.2022
768 Clouds 31 1008 15 10000 7.72 350 01:43 21.06.2022
769 Clouds 31 1006 17 10000 2.68 294 23:25 20.06.2022
770 Clouds 30 1007 17 10000 2.68 188 21:55 20.06.2022
771 Clouds 29 1009 18 10000 2.68 161 20:53 20.06.2022
772 Clouds 28 1008 21 10000 3.58 210 19:44 20.06.2022
773 Clouds 26 1008 26 10000 2.68 192 18:48 20.06.2022
774 Clouds 25 1009 30 10000 2.24 155 18:20 20.06.2022
775 Clouds 24 1009 36 10000 1.79 175 17:35 20.06.2022
776 Clouds 20 1009 45 10000 0.45 220 15:57 20.06.2022
777 Clouds 18 1007 49 10000 0.45 173 13:34 20.06.2022
778 Clouds 19 1006 42 10000 0.89 231 11:25 20.06.2022
779 Clouds 21 1006 38 10000 9.77 200 09:47 20.06.2022
780 Clouds 21 1007 37 10000 2.68 182 08:44 20.06.2022
781 Clouds 23 1006 36 10000 1.34 170 06:49 20.06.2022
782 Clouds 27 1004 31 10000 0.89 175 03:20 20.06.2022
783 Clouds 28 1004 32 10000 1.79 189 00:37 20.06.2022
784 Clouds 28 995 31 10000 0.45 103 23:24 19.06.2022
785 Clouds 30 1005 26 10000 1.79 244 22:18 19.06.2022
786 Clouds 30 1006 29 10000 7.72 190 21:41 19.06.2022
787 Clouds 29 1004 31 10000 4.25 168 20:46 19.06.2022
788 Clouds 28 1006 33 10000 0.89 321 19:48 19.06.2022
789 Clouds 26 1007 38 10000 1.79 179 19:23 19.06.2022
790 Clouds 26 1007 38 10000 3.13 186 18:31 19.06.2022
791 Clouds 25 1007 40 10000 1.79 181 17:34 19.06.2022
792 Clouds 24 1007 42 10000 2.68 221 16:38 19.06.2022
793 Clouds 22 1008 45 10000 7.2 190 15:44 19.06.2022
794 Clouds 22 1007 45 10000 1.34 188 15:25 19.06.2022
795 Clouds 21 1007 45 10000 1.34 185 14:30 19.06.2022
796 Clouds 21 1007 44 10000 2.24 177 13:43 19.06.2022
797 Clouds 22 1006 43 10000 2.68 185 11:53 19.06.2022
798 Clouds 22 1006 43 10000 3.13 178 10:51 19.06.2022
799 Clouds 23 1008 40 10000 2.24 175 08:55 19.06.2022
800 Clouds 23 1008 39 10000 2.68 171 08:30 19.06.2022
801 Clouds 24 1008 38 10000 2.68 171 06:41 19.06.2022
802 Clouds 27 1006 35 10000 3.13 189 03:19 19.06.2022
803 Clouds 30 1006 29 10000 1.34 318 00:27 19.06.2022
804 Clouds 30 1006 27 10000 1.34 263 23:37 18.06.2022
805 Clouds 31 1006 26 10000 1.79 210 23:19 18.06.2022
806 Clouds 32 1007 23 10000 1.79 323 21:54 18.06.2022
807 Clouds 31 1007 25 10000 1.34 24 20:50 18.06.2022
808 Clouds 30 1007 28 10000 2.68 311 19:50 18.06.2022
809 Clouds 28 1005 35 10000 1.34 197 18:54 18.06.2022
810 Clouds 27 1007 38 10000 1.79 209 18:30 18.06.2022
811 Clouds 26 1007 39 10000 2.68 161 17:28 18.06.2022
812 Clouds 24 1007 43 10000 2.24 148 15:39 18.06.2022
813 Clouds 22 1007 47 10000 0.89 214 14:50 18.06.2022
814 Clouds 20 1007 46 10000 0.89 192 13:54 18.06.2022
815 Clouds 21 1007 45 10000 5.66 190 12:25 18.06.2022
816 Clouds 21 1006 42 10000 1.34 192 10:59 18.06.2022
817 Clouds 22 1005 40 10000 1.79 174 09:29 18.06.2022
818 Clouds 22 1005 42 10000 0.45 236 08:37 18.06.2022
819 Clouds 23 1007 43 10000 0.45 215 07:33 18.06.2022
820 Clouds 26 1006 37 10000 0.89 120 04:43 18.06.2022
821 Clouds 34 1004 14 10000 1.79 186 01:27 18.06.2022
822 Clouds 35 1003 15 10000 2.24 0 00:55 18.06.2022
823 Clouds 35 1005 15 10000 3.58 115 00:22 18.06.2022
824 Clouds 35 1005 16 10000 2.24 68 23:33 17.06.2022
825 Clouds 34 1008 20 10000 7.72 130 21:57 17.06.2022
826 Clouds 32 1010 31 10000 10.29 120 20:29 17.06.2022
827 Clear 29 1010 40 10000 1.34 101 19:19 17.06.2022
828 Clear 26 1008 51 10000 0.89 106 17:47 17.06.2022
829 Clouds 23 1011 59 10000 3.6 220 16:44 17.06.2022
830 Clear 22 1013 61 10000 0.89 85 16:21 17.06.2022
831 Clear 20 1010 70 10000 0.45 229 15:37 17.06.2022
832 Clear 17 1012 80 10000 0.45 217 14:23 17.06.2022
833 Clear 17 1012 81 10000 1.48 331 13:57 17.06.2022
834 Clear 17 1012 80 10000 1.14 337 13:37 17.06.2022
835 Clear 19 1012 76 10000 0.89 294 12:20 17.06.2022
836 Clear 19 1013 73 10000 0.89 325 11:49 17.06.2022
837 Clear 20 1013 72 10000 0.89 32 11:30 17.06.2022
838 Clear 23 1012 48 10000 2.68 58 08:45 17.06.2022
839 Clouds 23 1013 47 10000 2.24 292 08:24 17.06.2022
840 Clouds 25 1011 40 10000 1.34 284 06:35 17.06.2022
841 Clouds 31 1009 23 10000 2.68 320 03:25 17.06.2022
842 Clouds 34 1010 20 10000 5.14 150 01:27 17.06.2022
843 Clear 33 1011 20 10000 1.79 26 23:30 16.06.2022
844 Clear 32 1012 21 10000 1.34 28 22:38 16.06.2022
845 Clear 32 1012 21 10000 1.34 342 22:38 16.06.2022
846 Clear 30 1014 24 10000 1.34 68 21:19 16.06.2022
847 Clear 29 1015 25 10000 0.89 34 20:50 16.06.2022
848 Clear 28 1015 26 10000 1.34 75 19:59 16.06.2022
849 Clear 26 1015 28 10000 1.34 320 18:48 16.06.2022
850 Clear 24 1015 28 10000 0.89 41 17:49 16.06.2022
851 Clear 24 1015 29 10000 0.89 41 17:49 16.06.2022
852 Clear 23 1016 29 10000 2.06 300 17:27 16.06.2022
853 Clear 21 1017 32 10000 0.89 100 16:19 16.06.2022
854 Clear 17 1016 39 10000 3.09 220 15:21 16.06.2022
855 Clear 15 1012 41 10000 1.34 282 14:22 16.06.2022
856 Clear 15 1017 42 10000 3.6 210 12:53 16.06.2022
857 Clear 15 1020 39 10000 0.45 204 12:34 16.06.2022
858 Clear 16 1012 39 10000 1.43 331 11:48 16.06.2022
859 Clear 17 1014 37 10000 1.34 316 10:41 16.06.2022
860 Clear 18 1012 37 10000 0.89 298 09:43 16.06.2022
861 Clear 18 1013 36 10000 1.45 333 08:56 16.06.2022
862 Clear 20 1013 33 10000 0.48 44 07:41 16.06.2022
863 Clear 22 1010 25 10000 0.89 157 05:51 16.06.2022
864 Clear 28 1010 12 10000 0.89 96 03:56 16.06.2022
865 Clear 31 1009 12 10000 1.34 85 01:52 16.06.2022
866 Clear 31 1009 12 10000 1.79 110 01:22 16.06.2022
867 Clear 31 1009 13 10000 1.79 128 00:22 16.06.2022
868 Clear 30 1009 12 10000 3.09 340 22:53 15.06.2022
869 Clear 29 1009 15 10000 1.79 300 21:37 15.06.2022
870 Clear 28 1009 16 10000 1.79 356 20:59 15.06.2022
871 Clear 27 1010 17 10000 2.24 65 20:36 15.06.2022
872 Clear 26 1009 19 10000 1.79 32 19:57 15.06.2022
873 Clear 24 1009 25 10000 1.79 32 18:37 15.06.2022
874 Clear 22 1009 32 10000 2.24 219 17:46 15.06.2022
875 Clear 17 1010 47 10000 2.24 182 16:23 15.06.2022
876 Clear 14 1010 57 10000 0.89 172 15:19 15.06.2022
877 Clear 11 1011 64 10000 0.45 206 13:29 15.06.2022
878 Clouds 11 1011 65 10000 2.06 240 12:47 15.06.2022
879 Clear 11 1008 63 10000 0.45 287 11:25 15.06.2022
880 Clear 12 1007 60 10000 1.54 230 10:22 15.06.2022
881 Clear 13 1008 53 10000 1.34 40 08:59 15.06.2022
882 Clear 15 1008 50 10000 0.89 334 07:43 15.06.2022
883 Clear 18 1006 39 10000 4.02 42 05:57 15.06.2022
884 Clouds 27 1002 24 10000 5.14 10 02:54 15.06.2022
885 Clouds 28 1001 23 10000 3.13 7 01:36 15.06.2022
886 Clouds 28 1001 22 10000 3.13 31 00:36 15.06.2022
887 Clouds 28 1001 23 10000 3.58 20 23:38 14.06.2022
888 Clouds 28 1001 23 10000 2.68 35 22:47 14.06.2022
889 Clouds 27 1001 26 10000 2.68 7 21:43 14.06.2022
890 Clouds 27 1002 28 10000 1.79 298 21:20 14.06.2022
891 Clouds 26 1002 30 10000 2.24 32 20:40 14.06.2022
892 Clouds 24 1004 31 10000 1.34 125 19:58 14.06.2022
893 Clouds 22 1003 29 10000 2.2 41 18:40 14.06.2022
894 Clear 19 1004 40 10000 2.24 79 17:19 14.06.2022
895 Clear 19 1004 42 10000 1.34 28 16:42 14.06.2022
896 Clear 16 1005 47 10000 0.89 186 15:43 14.06.2022
897 Clear 14 1002 52 10000 0.89 326 14:56 14.06.2022
898 Clear 13 1002 54 10000 1.79 188 14:18 14.06.2022
899 Clear 14 1004 49 10000 0.45 165 13:24 14.06.2022
900 Clouds 15 1002 46 10000 6.17 130 11:58 14.06.2022
901 Clear 15 1000 44 10000 1.34 192 10:55 14.06.2022
902 Clear 15 1001 42 10000 1.79 175 10:29 14.06.2022
903 Clear 17 1001 40 10000 0.89 124 09:22 14.06.2022
904 Clear 18 1000 36 10000 1.79 144 08:40 14.06.2022
905 Clouds 26 997 23 10000 3.13 65 06:32 14.06.2022
906 Clouds 30 992 17 10000 0.89 267 04:23 14.06.2022
907 Clouds 36 992 9 10000 2.68 306 01:38 14.06.2022
908 Clear 36 993 10 10000 3.13 186 00:24 14.06.2022
909 Clear 36 995 9 10000 4.12 190 22:58 13.06.2022
910 Clear 36 994 10 10000 2.68 256 22:23 13.06.2022
911 Clear 35 995 11 10000 2.68 243 21:39 13.06.2022
912 Clear 33 997 12 10000 1.79 74 19:59 13.06.2022
913 Clear 32 998 15 10000 1.34 90 18:54 13.06.2022
914 Clear 30 998 18 10000 0.89 112 17:56 13.06.2022
915 Clouds 28 1000 22 10000 7.2 200 17:24 13.06.2022
916 Clear 27 996 25 10000 0.45 259 16:30 13.06.2022
917 Clear 21 993 29 10000 3.25 200 14:51 13.06.2022
918 Clouds 20 1003 29 10000 6.69 200 14:31 13.06.2022
919 Clear 20 1006 27 10000 0.45 249 13:33 13.06.2022
920 Clear 21 1000 26 10000 3.35 208 12:22 13.06.2022
921 Clear 21 1000 28 10000 0.89 210 10:37 13.06.2022
922 Clear 21 1000 28 10000 0.45 123 09:54 13.06.2022
923 Clear 22 1002 30 10000 0.45 179 08:40 13.06.2022
924 Clouds 23 1002 36 10000 0.45 282 06:36 13.06.2022
925 Clouds 26 998 32 10000 0.45 191 04:43 13.06.2022
926 Clouds 30 1002 26 10000 0.89 36 01:55 13.06.2022
927 Clouds 30 1002 23 10000 1.34 41 01:34 13.06.2022
928 Clouds 33 1000 19 10000 2.24 0 23:48 12.06.2022
929 Clouds 31 1003 23 10000 1.34 267 22:39 12.06.2022
930 Clouds 31 1003 24 10000 0.89 301 21:46 12.06.2022
931 Clouds 32 1002 25 10000 2.06 110 20:53 12.06.2022
932 Clear 32 999 26 10000 0.45 103 19:58 12.06.2022
933 Clear 30 1005 30 10000 1.34 274 19:25 12.06.2022
934 Clear 28 1003 33 10000 2.26 120 17:36 12.06.2022
935 Clear 24 1008 38 10000 0.89 28 15:52 12.06.2022
936 Clear 21 1013 40 10000 0.45 341 14:50 12.06.2022
937 Clouds 20 997 42 10000 2.33 199 14:18 12.06.2022
938 Clouds 19 1013 41 10000 2.33 199 13:45 12.06.2022
939 Clouds 20 1006 39 10000 0.8 245 12:28 12.06.2022
940 Clouds 21 1004 35 10000 0.89 274 10:46 12.06.2022
941 Clouds 22 1003 34 10000 2.67 297 09:42 12.06.2022
942 Clouds 23 1003 32 10000 0.45 265 08:50 12.06.2022
943 Clouds 25 1003 30 10000 2.4 213 07:52 12.06.2022
944 Clouds 27 994 23 10000 0.89 139 06:27 12.06.2022
945 Clouds 30 1003 24 10000 0.45 28 04:26 12.06.2022
946 Clouds 34 1003 17 10000 7.56 180 02:27 12.06.2022
947 Clouds 36 1003 15 10000 0.45 106 01:35 12.06.2022
948 Clouds 36 1003 13 10000 1.79 182 00:48 12.06.2022
949 Clouds 37 1003 13 10000 1.79 241 00:19 12.06.2022
950 Clouds 37 1004 13 10000 1.79 229 23:21 11.06.2022
951 Clouds 36 1004 14 10000 1.34 268 22:37 11.06.2022
952 Clear 35 1005 16 10000 0.89 155 21:18 11.06.2022
953 Clear 35 1006 17 10000 0.89 101 20:27 11.06.2022
954 Clear 34 1007 18 10000 0.89 196 19:36 11.06.2022
955 Clear 32 1007 24 10000 1.79 151 18:45 11.06.2022
956 Clear 31 1008 26 10000 1.79 186 18:26 11.06.2022
957 Clear 30 1008 30 10000 2.24 175 17:48 11.06.2022
958 Clear 28 1008 33 10000 2.24 171 17:26 11.06.2022
959 Clear 27 1007 36 10000 1.34 215 16:43 11.06.2022
960 Clear 25 1010 39 10000 1.34 184 16:18 11.06.2022
961 Clear 21 1010 43 10000 2.75 208 14:44 11.06.2022
962 Clouds 19 1009 49 10000 2.07 232 13:52 11.06.2022
963 Clouds 19 1015 48 10000 0.73 237 12:19 11.06.2022
964 Clouds 19 1015 48 10000 0.73 237 12:19 11.06.2022
965 Clouds 21 1012 46 10000 2.45 228 10:31 11.06.2022
966 Clouds 21 1009 46 10000 0.89 223 09:41 11.06.2022
967 Clouds 22 1011 46 10000 6.69 190 08:38 11.06.2022
968 Clouds 24 1009 39 10000 0.89 184 06:33 11.06.2022
969 Clouds 25 1008 37 10000 0.45 172 05:44 11.06.2022
970 Clouds 31 1008 23 10000 0.89 126 03:18 11.06.2022
971 Clouds 33 1008 22 10000 1.34 167 01:51 11.06.2022
972 Clouds 33 1009 22 10000 1.79 141 01:25 11.06.2022
973 Clouds 32 1009 23 10000 2.68 44 23:26 10.06.2022
974 Clouds 32 1009 24 10000 1.79 329 22:20 10.06.2022
975 Clouds 31 1009 25 10000 1.79 24 21:27 10.06.2022
976 Clouds 31 1010 25 10000 1.79 27 20:38 10.06.2022
977 Clouds 30 1010 26 10000 1.79 352 20:19 10.06.2022
978 Clouds 30 1010 26 10000 1.79 352 20:19 10.06.2022
979 Clouds 29 1011 33 10000 0.89 138 19:19 10.06.2022
980 Clouds 27 1011 37 10000 0.45 113 18:30 10.06.2022
981 Clouds 25 1012 41 10000 0.89 67 17:43 10.06.2022
982 Clouds 24 1012 45 10000 0.89 145 17:21 10.06.2022
983 Clouds 21 1013 53 10000 0.89 117 16:25 10.06.2022
984 Clouds 19 1014 57 10000 0.45 322 15:38 10.06.2022
985 Clouds 14 1017 69 10000 3.6 180 13:58 10.06.2022
986 Clouds 14 1016 71 10000 0.64 58 12:51 10.06.2022
987 Clouds 15 1015 69 10000 0.89 23 11:53 10.06.2022
988 Clouds 16 1014 66 10000 1.37 0 10:45 10.06.2022
989 Clear 17 1013 62 10000 0.45 295 09:54 10.06.2022
990 Clear 19 1013 55 10000 0.89 326 08:44 10.06.2022
991 Clouds 19 1014 46 10000 1.79 281 07:30 10.06.2022
992 Clouds 20 1011 44 10000 0.45 19 06:45 10.06.2022
993 Clouds 20 1011 44 10000 2.19 166 06:26 10.06.2022
994 Clouds 27 1008 26 10000 2.68 61 03:56 10.06.2022
995 Clouds 29 1008 24 10000 0.89 267 01:42 10.06.2022
996 Clouds 30 1008 23 10000 0.45 121 00:32 10.06.2022
997 Clouds 31 1008 23 10000 1.34 139 23:47 09.06.2022
998 Clouds 31 1008 21 10000 1.34 188 22:18 09.06.2022
999 Clouds 30 1009 22 10000 0.89 186 21:33 09.06.2022
1000 Clouds 29 1009 25 10000 1.79 61 20:54 09.06.2022
1001 Clouds 28 1009 30 10000 1.34 106 20:21 09.06.2022
1002 Clouds 26 1018 40 10000 2.57 190 19:21 09.06.2022
1003 Clouds 23 1009 50 10000 1.03 20 18:28 09.06.2022
1004 Clouds 18 1010 32 10000 0.57 345 16:51 09.06.2022
1005 Clouds 18 1010 47 10000 1.84 195 15:48 09.06.2022
1006 Clouds 16 1018 62 10000 1.18 196 14:35 09.06.2022
1007 Clouds 15 1011 62 10000 0.45 277 13:54 09.06.2022
1008 Clouds 15 1010 63 10000 0.45 357 13:28 09.06.2022
1009 Clouds 16 1010 62 10000 0.89 311 11:54 09.06.2022
1010 Clouds 16 1010 62 10000 0.45 199 11:18 09.06.2022
1011 Clouds 16 1011 59 10000 0.89 50 09:44 09.06.2022
1012 Clear 17 1011 58 10000 1.34 186 09:24 09.06.2022
1013 Clear 17 1012 53 10000 1.34 193 07:52 09.06.2022
1014 Clouds 19 1013 47 10000 5.14 170 06:33 09.06.2022
1015 Clear 25 1010 31 10000 2.68 328 02:52 09.06.2022
1016 Clear 27 1012 28 10000 1.79 3 23:48 08.06.2022
1017 Clouds 26 1013 28 10000 4.12 80 22:58 08.06.2022
1018 Clear 26 1013 29 10000 1.34 346 22:27 08.06.2022
1019 Clear 25 1013 30 10000 1.34 85 21:55 08.06.2022
1020 Clear 25 1014 31 10000 1.79 360 21:21 08.06.2022
1021 Clouds 23 1015 34 10000 1.79 111 20:21 08.06.2022
1022 Clouds 22 1015 37 10000 2.24 180 19:38 08.06.2022
1023 Clouds 20 1016 40 10000 1.79 169 18:45 08.06.2022
1024 Clouds 17 1017 44 10000 1.79 193 17:18 08.06.2022
1025 Clouds 14 1019 57 10000 2.06 130 15:44 08.06.2022
1026 Clouds 12 1018 69 10000 0.86 51 13:51 08.06.2022
1027 Clouds 13 1018 63 10000 0.45 296 12:20 08.06.2022
1028 Clouds 13 1018 62 10000 1.34 85 11:33 08.06.2022
1029 Clouds 14 1018 62 10000 1.34 69 09:59 08.06.2022
1030 Clouds 14 1018 64 10000 1.79 47 09:21 08.06.2022
1031 Clouds 14 1018 65 10000 2.57 10 08:26 08.06.2022
1032 Clouds 17 1015 58 10000 3.58 24 05:55 08.06.2022
1033 Clouds 24 1009 35 10000 2.24 69 03:55 08.06.2022
1034 Clouds 27 1007 35 10000 1.79 5 00:38 08.06.2022
1035 Clouds 26 1009 40 10000 5.14 20 23:28 07.06.2022
1036 Clouds 26 1009 43 10000 2.68 313 22:45 07.06.2022
1037 Clouds 25 1010 45 10000 3.6 30 22:23 07.06.2022
1038 Clouds 24 1010 46 10000 0.89 69 21:33 07.06.2022
1039 Clouds 23 1010 49 10000 2.57 80 20:58 07.06.2022
1040 Clouds 22 1010 51 10000 1.34 355 20:32 07.06.2022
1041 Clouds 21 1011 53 10000 1.34 21 19:38 07.06.2022
1042 Clouds 19 1012 60 10000 1.34 296 18:22 07.06.2022
1043 Clouds 17 1013 66 10000 1.34 122 17:25 07.06.2022
1044 Clouds 16 1013 71 10000 0.89 102 16:42 07.06.2022
1045 Clouds 14 1014 77 10000 2.06 280 15:44 07.06.2022
1046 Clouds 14 1014 78 10000 2.06 280 15:24 07.06.2022
1047 Clouds 13 1014 80 10000 0.45 328 14:46 07.06.2022
1048 Clear 13 1013 80 10000 0.45 335 14:27 07.06.2022
1049 Clear 13 1013 79 10000 0.45 320 13:30 07.06.2022
1050 Clear 13 1013 79 10000 1.34 5 12:45 07.06.2022
1051 Clear 13 1012 80 10000 2.24 333 11:37 07.06.2022
1052 Clear 14 1012 71 10000 2.68 5 10:26 07.06.2022
1053 Clear 15 1010 64 10000 0.89 169 08:49 07.06.2022
1054 Clear 15 1010 64 10000 0.89 169 08:49 07.06.2022
1055 Clear 15 1010 64 10000 0.89 169 08:49 07.06.2022
1056 Clear 15 1010 64 10000 0.89 169 08:49 07.06.2022
1057 Clouds 16 1008 61 10000 2.82 174 07:32 07.06.2022
1058 Clouds 18 1009 54 10000 4.12 180 05:56 07.06.2022
1059 Clouds 19 1008 51 10000 3.6 170 03:22 07.06.2022
1060 Clouds 20 1004 61 10000 2.68 333 00:44 07.06.2022
1061 Clouds 24 1013 40 10000 0 0 23:35 06.06.2022
1062 Clouds 25 1006 38 10000 0.45 335 22:47 06.06.2022
1063 Clouds 25 1007 36 10000 0.89 90 21:49 06.06.2022
1064 Clouds 24 1008 43 10000 1.34 217 20:21 06.06.2022
1065 Clouds 22 1008 48 10000 0.89 185 19:23 06.06.2022
1066 Clouds 22 1007 49 10000 0.89 64 18:47 06.06.2022
1067 Clouds 21 1008 51 10000 1.79 20 17:55 06.06.2022
1068 Clear 19 1007 54 10000 0.45 33 16:48 06.06.2022
1069 Clear 17 1014 60 10000 0.45 329 15:44 06.06.2022
1070 Clouds 15 1010 65 10000 0.89 188 14:57 06.06.2022
1071 Clouds 13 1007 68 10000 0.45 193 13:40 06.06.2022
1072 Clouds 14 1008 69 10000 1.28 244 12:59 06.06.2022
1073 Clouds 14 1006 66 10000 3.09 180 12:27 06.06.2022
1074 Clouds 15 1005 65 10000 0.89 193 11:45 06.06.2022
1075 Clouds 16 1005 62 10000 0.45 193 09:46 06.06.2022
1076 Clouds 17 1005 61 10000 0.45 207 08:36 06.06.2022
1077 Clouds 18 1005 60 10000 1.84 189 07:43 06.06.2022
1078 Clouds 18 1006 58 10000 0.45 319 06:43 06.06.2022
1079 Clouds 20 1005 46 10000 0.89 356 04:36 06.06.2022
1080 Clouds 26 1001 27 10000 2.24 56 01:30 06.06.2022
1081 Clouds 26 1003 27 10000 4.12 310 00:55 06.06.2022
1082 Clouds 27 1002 25 10000 3.13 299 00:33 06.06.2022
1083 Clouds 28 1002 24 10000 2.57 290 22:58 05.06.2022
1084 Clouds 27 1002 25 10000 3.6 30 21:59 05.06.2022
1085 Clouds 26 1004 29 10000 1.34 189 20:23 05.06.2022
1086 Clouds 24 1004 35 10000 1.34 213 18:51 05.06.2022
1087 Clouds 22 1005 40 10000 0.89 84 17:59 05.06.2022
1088 Clouds 22 1003 41 10000 1.34 22 17:38 05.06.2022
1089 Clouds 21 1006 47 10000 0.45 173 17:19 05.06.2022
1090 Clouds 20 1005 48 10000 1.89 332 16:47 05.06.2022
1091 Clouds 17 1006 57 10000 0.45 103 15:22 05.06.2022
1092 Clouds 16 1007 60 10000 2.57 140 13:55 05.06.2022
1093 Clouds 16 1003 61 10000 2.55 211 11:58 05.06.2022
1094 Clouds 16 1004 62 10000 2.06 210 10:45 05.06.2022
1095 Clouds 16 1008 61 10000 2.38 234 10:24 05.06.2022
1096 Clouds 16 1008 61 10000 3.09 160 09:29 05.06.2022
1097 Clouds 16 1003 59 10000 0.45 271 08:22 05.06.2022
1098 Clouds 19 1005 50 10000 0.89 114 05:58 05.06.2022
1099 Clouds 19 1004 48 10000 0.89 122 05:19 05.06.2022
1100 Clouds 24 1001 32 10000 3.13 17 02:23 05.06.2022
1101 Clouds 28 1005 21 10000 2.24 292 01:23 05.06.2022
1102 Clouds 28 1004 20 10000 1.79 350 01:23 05.06.2022
1103 Clouds 29 1004 19 10000 2.24 26 22:49 04.06.2022
1104 Clouds 28 1005 19 10000 2.24 185 21:25 04.06.2022
1105 Clouds 26 1006 30 10000 2.06 220 19:26 04.06.2022
1106 Clouds 20 1013 46 10000 0.89 121 16:48 04.06.2022
1107 Clouds 17 1008 57 10000 0.89 237 16:20 04.06.2022
1108 Clouds 16 1007 56 10000 2.26 211 15:35 04.06.2022
1109 Clear 11 1013 77 10000 2.43 204 13:59 04.06.2022
1110 Clouds 12 1011 72 10000 3.6 190 11:38 04.06.2022
1111 Clouds 12 1008 72 10000 0.89 180 10:52 04.06.2022
1112 Clouds 13 1010 72 10000 3.09 200 09:47 04.06.2022
1113 Clear 13 1011 72 10000 0.82 332 08:59 04.06.2022
1114 Clear 13 1011 72 10000 0.45 155 08:37 04.06.2022
1115 Clouds 15 1008 63 10000 1.51 148 06:25 04.06.2022
1116 Clouds 20 1002 44 10000 0.45 27 03:52 04.06.2022
1117 Clouds 23 1008 41 10000 6.69 100 00:22 04.06.2022
1118 Clouds 22 1008 47 10000 2.24 345 22:56 03.06.2022
1119 Clouds 23 1007 47 10000 2.24 329 21:52 03.06.2022
1120 Clouds 23 1009 46 10000 1.34 231 20:40 03.06.2022
1121 Clouds 21 1009 50 10000 1.34 69 19:33 03.06.2022
1122 Clouds 17 1010 60 10000 0.89 10 16:56 03.06.2022
1123 Clear 15 1012 69 10000 0.45 182 15:52 03.06.2022
1124 Clouds 11 1014 82 10000 0 0 14:25 03.06.2022
1125 Clear 11 1013 80 10000 1.39 231 12:21 03.06.2022
1126 Clear 13 1013 73 10000 0.45 194 09:57 03.06.2022
1127 Clear 13 1013 72 10000 0.45 71 09:29 03.06.2022
1128 Clear 14 1013 67 10000 0.45 267 07:45 03.06.2022
1129 Clear 15 1012 63 10000 0.89 260 06:49 03.06.2022
1130 Clear 16 1013 62 10000 1.34 287 06:27 03.06.2022
1131 Clouds 19 1013 50 10000 4.12 80 03:39 03.06.2022
1132 Clouds 21 1013 45 10000 2.68 4 23:52 02.06.2022
1133 Clear 21 1014 47 10000 2.68 25 22:23 02.06.2022
1134 Clear 19 1015 53 10000 2.24 24 20:38 02.06.2022
1135 Clear 18 1015 55 10000 1.34 76 19:56 02.06.2022
1136 Clouds 18 1016 56 10000 2.06 40 19:38 02.06.2022
1137 Clear 16 1016 61 10000 1.34 98 18:41 02.06.2022
1138 Clear 12 1018 74 10000 0.89 40 16:28 02.06.2022
1139 Clear 11 1018 79 10000 0.89 44 15:47 02.06.2022
1140 Clouds 7 1018 88 10000 0.5 168 13:31 02.06.2022
1141 Clouds 7 1018 88 10000 2.57 190 12:49 02.06.2022
1142 Clouds 9 1018 85 10000 1.57 169 10:36 02.06.2022
1143 Clear 10 1019 82 10000 0.45 310 09:30 02.06.2022
1144 Clear 10 1019 80 10000 0.45 144 08:44 02.06.2022
1145 Clouds 10 1019 80 10000 0.21 157 08:23 02.06.2022
1146 Clouds 11 1020 76 10000 1.37 348 06:21 02.06.2022
1147 Clouds 12 1019 73 10000 1.34 22 03:50 02.06.2022
1148 Clouds 14 1019 67 10000 1.34 350 00:47 02.06.2022
1149 Clouds 13 1020 68 10000 0.89 314 22:57 01.06.2022
1150 Clouds 12 1022 72 10000 1.34 36 21:59 01.06.2022
1151 Clouds 11 1022 75 10000 0.45 103 21:24 01.06.2022
1152 Clouds 10 1023 79 10000 0.89 185 20:38 01.06.2022
1153 Clouds 9 1023 83 10000 0.89 198 19:51 01.06.2022
1154 Clouds 7 1024 89 10000 0.45 181 18:28 01.06.2022
1155 Clouds 5 1024 93 10000 1.12 111 16:56 01.06.2022
1156 Rain 5 1024 93 10000 2.57 150 15:42 01.06.2022
1157 Clouds 4 1024 93 10000 2.01 169 14:46 01.06.2022
1158 Rain 4 1024 93 10000 0.89 173 13:18 01.06.2022
1159 Rain 5 1023 92 10000 0.47 132 10:44 01.06.2022
1160 Rain 5 1023 92 3512 0.89 34 09:28 01.06.2022
1161 Rain 5 1024 92 10000 6.17 340 07:59 01.06.2022
1162 Rain 6 1023 91 7687 0.45 331 07:20 01.06.2022
1163 Rain 8 1020 89 5183 0.89 267 03:22 01.06.2022
1164 Clouds 11 1017 73 8159 1.79 335 23:47 31.05.2022
1165 Clouds 13 1016 62 10000 5.14 80 22:38 31.05.2022
1166 Clouds 13 1016 56 10000 2.24 319 22:19 31.05.2022
1167 Clouds 16 1014 40 10000 3.13 60 21:23 31.05.2022
1168 Clouds 16 1014 40 10000 2.68 47 20:42 31.05.2022
1169 Clouds 16 1014 43 10000 1.79 52 19:22 31.05.2022
1170 Clouds 14 1014 47 10000 2.24 88 18:19 31.05.2022
1171 Clouds 13 1015 48 10000 1.79 140 17:37 31.05.2022
1172 Clouds 10 1014 55 10000 0.89 109 15:42 31.05.2022
1173 Clouds 9 1014 58 10000 0.89 185 15:22 31.05.2022
1174 Clear 8 1011 56 10000 1.34 197 12:39 31.05.2022
1175 Clouds 8 1011 55 10000 0.89 130 12:18 31.05.2022
1176 Clear 7 1010 52 10000 0.45 192 09:53 31.05.2022
1177 Clouds 9 1007 45 10000 0.45 270 07:43 31.05.2022
1178 Clouds 12 1007 34 10000 0.45 254 05:38 31.05.2022
1179 Clouds 15 1006 26 10000 2.68 251 03:41 31.05.2022
1180 Clouds 19 1001 20 10000 3.58 282 23:39 30.05.2022
1181 Clouds 19 1001 20 10000 3.58 270 23:18 30.05.2022
1182 Clouds 18 1000 22 10000 7.2 300 22:32 30.05.2022
1183 Clouds 18 1000 23 10000 4.47 287 21:37 30.05.2022
1184 Clouds 17 1001 24 10000 4.02 287 20:41 30.05.2022
1185 Clouds 16 999 26 10000 4.02 291 19:38 30.05.2022
1186 Clouds 13 1003 37 10000 5.59 296 17:44 30.05.2022
1187 Clouds 12 999 40 10000 1.34 86 17:18 30.05.2022
1188 Clouds 11 999 52 10000 1.34 261 15:44 30.05.2022
1189 Clouds 8 997 77 10000 0.45 320 12:58 30.05.2022
1190 Clouds 10 998 76 10000 4.63 140 11:26 30.05.2022
1191 Clouds 11 997 72 10000 0.45 19 09:41 30.05.2022
1192 Clouds 11 997 80 10000 1.79 353 07:29 30.05.2022
1193 Clouds 11 997 75 10000 0.45 36 05:52 30.05.2022
1194 Rain 15 995 57 10000 2.68 320 03:18 30.05.2022
1195 Clouds 21 992 37 10000 6.69 60 23:32 29.05.2022
1196 Clouds 20 990 44 10000 1.34 39 22:40 29.05.2022
1197 Rain 21 991 31 10000 3.78 344 21:40 29.05.2022
1198 Clouds 23 993 32 10000 7.2 150 19:57 29.05.2022
1199 Clouds 22 993 33 10000 4.02 194 19:28 29.05.2022
1200 Clouds 20 995 38 10000 2.68 162 17:48 29.05.2022
1201 Clouds 16 997 47 10000 2.41 108 15:50 29.05.2022
1202 Clouds 15 1000 51 10000 0.45 173 15:32 29.05.2022
1203 Clouds 12 999 56 10000 0.54 171 14:31 29.05.2022
1204 Clouds 14 996 46 10000 0.45 296 11:55 29.05.2022
1205 Clouds 14 995 41 10000 0.45 80 10:44 29.05.2022
1206 Clouds 15 997 39 10000 0.45 350 09:52 29.05.2022
1207 Clouds 17 997 29 10000 4.12 220 07:28 29.05.2022
1208 Clouds 22 996 20 10000 1.34 288 04:50 29.05.2022
1209 Clouds 23 996 18 10000 0.45 355 04:31 29.05.2022
1210 Clouds 28 995 18 10000 1.79 5 00:35 29.05.2022
1211 Clouds 29 995 15 10000 8.75 200 23:42 28.05.2022
1212 Clouds 29 996 14 10000 0.89 30 22:56 28.05.2022
1213 Clouds 29 996 15 10000 1.79 124 21:45 28.05.2022
1214 Clouds 27 998 18 10000 7.72 190 20:30 28.05.2022
1215 Clouds 26 999 26 10000 1.34 153 19:18 28.05.2022
1216 Clouds 22 1000 29 10000 2.49 196 17:48 28.05.2022
1217 Clouds 20 1002 30 10000 2.12 207 16:53 28.05.2022
1218 Clouds 18 1003 30 10000 1.97 213 15:44 28.05.2022
1219 Clouds 16 1004 34 10000 2.08 222 15:19 28.05.2022
1220 Clouds 14 1010 42 10000 3.6 180 13:26 28.05.2022
1221 Clouds 14 1010 43 10000 2.38 220 12:41 28.05.2022
1222 Clear 15 1011 39 10000 1.52 253 11:27 28.05.2022
1223 Clear 15 1003 39 10000 0.45 264 10:32 28.05.2022
1224 Clear 15 1007 41 10000 0.45 155 09:39 28.05.2022
1225 Clouds 17 1007 38 10000 0.45 217 07:53 28.05.2022
1226 Clouds 19 1006 35 10000 0.89 236 06:32 28.05.2022
1227 Clouds 25 1005 24 10000 0.45 94 04:21 28.05.2022
1228 Clouds 29 1004 17 10000 3.58 316 00:50 28.05.2022
1229 Clouds 28 1004 19 10000 0.89 37 23:42 27.05.2022
1230 Clouds 29 1007 18 10000 0.89 41 22:24 27.05.2022
1231 Clouds 31 1007 15 10000 1.34 99 20:58 27.05.2022
1232 Clouds 31 1006 15 10000 1.34 175 20:31 27.05.2022
1233 Clouds 31 1007 16 10000 1.34 97 19:56 27.05.2022
1234 Clouds 30 1008 18 10000 1.34 126 19:34 27.05.2022
1235 Clouds 28 1009 24 10000 2.24 229 18:37 27.05.2022
1236 Clouds 22 1012 32 10000 0.89 217 16:42 27.05.2022
1237 Clouds 19 1014 39 10000 0.89 180 15:44 27.05.2022
1238 Clouds 16 1017 41 10000 0.45 200 14:45 27.05.2022
1239 Clouds 14 1011 46 10000 2.59 206 13:35 27.05.2022
1240 Clouds 15 1014 42 10000 2.42 212 11:43 27.05.2022
1241 Clouds 15 1012 41 10000 2.3 216 11:25 27.05.2022
1242 Clouds 16 1013 42 10000 2.3 216 10:35 27.05.2022
1243 Clouds 16 1012 41 10000 2.54 217 09:42 27.05.2022
1244 Clouds 17 1014 40 10000 0.45 198 08:24 27.05.2022
1245 Clouds 18 1013 37 10000 0.45 247 06:50 27.05.2022
1246 Clouds 27 1012 18 10000 1.34 8 02:56 27.05.2022
1247 Clouds 28 1012 16 10000 1.79 173 00:53 27.05.2022
1248 Clouds 27 1013 18 10000 1.79 128 22:50 26.05.2022
1249 Clouds 27 1014 19 10000 2.24 106 21:43 26.05.2022
1250 Clouds 26 1014 20 10000 1.79 51 20:59 26.05.2022
1251 Clear 24 1014 22 10000 1.79 179 19:27 26.05.2022
1252 Clear 22 1015 27 10000 1.34 163 18:21 26.05.2022
1253 Clear 18 1015 39 10000 1.34 205 16:58 26.05.2022
1254 Clear 14 1015 50 10000 0.45 155 15:49 26.05.2022
1255 Clear 11 1016 54 10000 1.91 219 14:48 26.05.2022
1256 Clear 9 1013 61 10000 1.65 225 13:23 26.05.2022
1257 Clear 9 1012 60 10000 1.64 223 11:36 26.05.2022
1258 Clear 10 1014 55 10000 1.87 264 10:24 26.05.2022
1259 Clear 11 1014 54 10000 0.89 309 09:35 26.05.2022
1260 Clear 11 1014 53 10000 0.45 341 08:37 26.05.2022
1261 Clouds 15 1013 42 10000 0 0 05:24 26.05.2022
1262 Clouds 21 1012 25 10000 4.63 330 01:24 26.05.2022
1263 Clear 21 1013 26 10000 1.79 274 23:40 25.05.2022
1264 Clear 19 1014 29 10000 2.68 319 22:29 25.05.2022
1265 Clear 18 1014 31 10000 2.68 329 21:33 25.05.2022
1266 Clear 17 1015 33 10000 3.13 322 20:38 25.05.2022
1267 Clear 16 1015 38 10000 1.79 340 19:31 25.05.2022
1268 Clear 13 1017 48 10000 1.79 352 17:46 25.05.2022
1269 Clear 11 1017 61 10000 0.89 346 16:40 25.05.2022
1270 Clear 9 1017 71 10000 0.45 315 15:57 25.05.2022
1271 Clear 6 1017 82 10000 0.75 314 14:55 25.05.2022
1272 Clouds 4 1016 86 10000 1.05 294 14:33 25.05.2022
1273 Clouds 4 1016 85 10000 2.06 260 13:58 25.05.2022
1274 Clouds 4 1015 86 10000 0.72 16 12:45 25.05.2022
1275 Clouds 5 1015 85 10000 0.9 342 10:54 25.05.2022
1276 Clouds 5 1015 85 10000 0.67 247 10:19 25.05.2022
1277 Clouds 6 1015 83 10000 2.24 277 08:41 25.05.2022
1278 Clouds 7 1015 82 10000 1.34 294 07:23 25.05.2022
1279 Clouds 9 1015 69 10000 3.09 50 04:23 25.05.2022
1280 Clouds 13 1012 52 10000 1.79 357 00:23 25.05.2022
1281 Clouds 13 1012 52 10000 1.79 47 23:47 24.05.2022
1282 Clouds 13 1012 52 10000 1.79 47 23:47 24.05.2022
1283 Clouds 12 1013 55 10000 1.79 58 22:33 24.05.2022
1284 Clouds 12 1013 60 10000 1.79 34 21:41 24.05.2022
1285 Clouds 11 1013 63 10000 1.79 75 21:21 24.05.2022
1286 Clouds 11 1014 67 10000 2.57 40 20:30 24.05.2022
1287 Clouds 9 1014 77 10000 1.79 60 18:56 24.05.2022
1288 Clouds 7 1014 86 10000 1.79 54 16:58 24.05.2022
1289 Clouds 7 1014 87 10000 0.89 24 16:28 24.05.2022
1290 Clouds 6 1014 89 10000 2.06 30 14:59 24.05.2022
1291 Clouds 6 1014 89 10000 0.45 71 14:25 24.05.2022
1292 Clouds 6 1014 87 10000 0.45 358 13:18 24.05.2022
1293 Clouds 7 1015 86 10000 2.06 30 11:40 24.05.2022
1294 Clouds 8 1015 83 10000 0.89 26 09:46 24.05.2022
1295 Clouds 8 1015 84 10000 0.89 15 08:50 24.05.2022
1296 Clouds 8 1015 83 10000 0.45 294 06:58 24.05.2022
1297 Clouds 10 1015 73 10000 6.17 50 04:59 24.05.2022
1298 Clouds 13 1013 46 10000 2.68 38 02:42 24.05.2022
1299 Clouds 14 1013 40 10000 4.63 30 01:42 24.05.2022
1300 Clouds 16 1012 41 10000 1.34 347 23:43 23.05.2022
1301 Clouds 15 1013 45 10000 2.68 40 21:59 23.05.2022
1302 Clouds 15 1012 46 10000 2.68 34 21:41 23.05.2022
1303 Clouds 14 1013 50 10000 2.68 42 20:42 23.05.2022
1304 Clouds 13 1014 57 10000 1.79 80 19:33 23.05.2022
1305 Clouds 12 1013 61 10000 2.24 17 18:59 23.05.2022
1306 Clouds 11 1013 65 10000 2.68 43 18:35 23.05.2022
1307 Clouds 11 1014 69 10000 2.24 22 17:55 23.05.2022
1308 Clouds 8 1013 72 10000 8.23 180 15:47 23.05.2022
1309 Clouds 6 1013 80 10000 0.45 173 13:44 23.05.2022
1310 Clouds 7 1014 75 10000 0.45 197 11:36 23.05.2022
1311 Clouds 8 1015 70 10000 7.2 160 10:43 23.05.2022
1312 Clouds 9 1016 68 10000 1.79 86 09:40 23.05.2022
1313 Clouds 8 1016 70 10000 2.68 131 08:38 23.05.2022
1314 Clouds 9 1017 69 10000 2.24 160 06:47 23.05.2022
1315 Clouds 9 1018 67 10000 1.79 188 06:23 23.05.2022
1316 Clouds 13 1016 52 10000 2.24 186 02:35 23.05.2022
1317 Clouds 13 1016 50 10000 6.69 180 01:46 23.05.2022
1318 Clouds 13 1016 49 10000 2.24 196 00:44 23.05.2022
1319 Clouds 14 1017 47 10000 2.24 132 22:47 22.05.2022
1320 Clouds 14 1017 47 10000 1.34 123 22:18 22.05.2022
1321 Clouds 13 1018 48 10000 11.32 180 21:49 22.05.2022
1322 Clouds 12 1020 50 10000 1.79 196 20:40 22.05.2022
1323 Clouds 12 1020 51 10000 1.34 304 20:19 22.05.2022
1324 Clouds 10 1022 54 10000 2.24 130 18:58 22.05.2022
1325 Clouds 9 1022 57 10000 2.68 191 18:31 22.05.2022
1326 Clouds 8 1023 58 10000 3.58 189 17:51 22.05.2022
1327 Clouds 7 1024 58 10000 1.79 136 16:51 22.05.2022
1328 Clouds 4 1024 70 10000 0.89 116 14:56 22.05.2022
1329 Clouds 4 1025 70 10000 0.45 161 14:35 22.05.2022
1330 Clouds 4 1024 70 10000 1.34 182 12:54 22.05.2022
1331 Clouds 4 1024 71 10000 1.79 145 11:53 22.05.2022
1332 Clouds 4 1025 75 10000 0.89 109 10:29 22.05.2022
1333 Clouds 4 1026 75 10000 0.45 117 09:19 22.05.2022
1334 Clouds 4 1026 76 10000 0.89 188 07:34 22.05.2022
1335 Clouds 4 1026 74 10000 0.89 207 06:40 22.05.2022
1336 Clouds 6 1025 59 10000 2.24 180 03:25 22.05.2022
1337 Clouds 7 1023 59 10000 0.89 237 00:48 22.05.2022
1338 Clouds 7 1025 62 10000 1.34 122 23:56 21.05.2022
1339 Clouds 6 1025 63 10000 1.34 200 23:22 21.05.2022
1340 Clouds 5 1025 69 10000 0.89 166 21:59 21.05.2022
1341 Clouds 5 1025 71 10000 0.89 181 21:30 21.05.2022
1342 Clouds 4 1025 78 10000 1.34 208 20:29 21.05.2022
1343 Clouds 4 1025 80 10000 1.34 222 19:43 21.05.2022
1344 Clouds 3 1025 83 9787 1.34 0 18:45 21.05.2022
1345 Rain 2 1025 92 4421 0.45 344 16:57 21.05.2022
1346 Mist 0 1023 94 4023 0 0 14:39 21.05.2022
1347 Snow 0 1022 94 609 1.98 348 13:55 21.05.2022
1348 Mist 0 1022 94 2414 0.89 20 13:19 21.05.2022
1349 Snow 0 1022 94 722 2.22 354 12:38 21.05.2022
1350 Snow 0 1021 94 321 2.98 342 11:20 21.05.2022
1351 Snow 0 1021 94 119 0.45 306 09:57 21.05.2022
1352 Snow 1 1020 94 113 0.45 290 08:59 21.05.2022
1353 Snow 1 1020 94 176 2.73 311 08:37 21.05.2022
1354 Snow 1 1019 94 136 3.13 319 05:52 21.05.2022
1355 Snow 1 1014 93 36 0.45 11 01:33 21.05.2022
1356 Snow 2 1011 92 131 2.24 57 23:30 20.05.2022
1357 Snow 2 1009 92 78 2.68 5 22:29 20.05.2022
1358 Rain 2 1009 91 78 3.58 23 21:55 20.05.2022
1359 Rain 2 1009 91 78 3.58 23 21:55 20.05.2022
1360 Rain 3 1008 91 3003 3.13 40 21:18 20.05.2022
1361 Rain 3 1007 90 3003 1.34 156 20:44 20.05.2022
1362 Rain 4 1006 90 5990 1.34 144 19:45 20.05.2022
1363 Rain 4 1005 89 6385 1.79 169 18:49 20.05.2022
1364 Rain 4 1005 89 2438 0.89 172 17:48 20.05.2022
1365 Clouds 4 1003 89 5760 1.34 124 16:22 20.05.2022
1366 Clouds 4 1003 90 5926 1.79 136 15:53 20.05.2022
1367 Clouds 3 1002 89 10000 1.34 128 14:32 20.05.2022
1368 Clouds 3 1002 89 2518 0.89 102 13:56 20.05.2022
1369 Clouds 5 999 72 10000 1.79 72 11:51 20.05.2022
1370 Clouds 5 999 67 10000 0.89 30 10:34 20.05.2022
1371 Clouds 6 999 66 10000 2.24 53 08:59 20.05.2022
1372 Clouds 7 996 62 10000 1.79 113 07:42 20.05.2022
1373 Clouds 9 999 59 10000 1.79 64 06:39 20.05.2022
1374 Clouds 10 995 53 10000 2.68 35 05:39 20.05.2022
1375 Clouds 30 989 13 10000 4.47 311 01:18 20.05.2022
1376 Clouds 31 990 12 10000 1.79 215 23:31 19.05.2022
1377 Clouds 31 992 12 10000 1.79 165 22:34 19.05.2022
1378 Clouds 30 993 12 10000 2.68 293 21:49 19.05.2022
1379 Clouds 30 992 12 10000 2.24 227 21:49 19.05.2022
1380 Clouds 30 992 13 10000 1.79 186 21:23 19.05.2022
1381 Clouds 29 994 14 10000 2.68 134 20:43 19.05.2022
1382 Clouds 28 996 16 10000 1.34 53 19:54 19.05.2022
1383 Clouds 26 997 19 10000 1.34 109 18:58 19.05.2022
1384 Clouds 23 1000 26 10000 1.34 159 17:35 19.05.2022
1385 Clouds 23 1000 27 10000 5.14 200 17:35 19.05.2022
1386 Clouds 16 1000 41 10000 0.45 222 15:33 19.05.2022
1387 Clouds 15 1003 41 10000 0.89 279 14:30 19.05.2022
1388 Clouds 15 1003 42 10000 0.45 134 13:59 19.05.2022
1389 Clouds 15 1005 42 10000 0.45 188 11:52 19.05.2022
1390 Clouds 16 1004 43 10000 0.45 188 10:25 19.05.2022
1391 Clouds 17 1006 42 10000 0.89 211 08:31 19.05.2022
1392 Clouds 18 1007 43 10000 2.56 221 06:39 19.05.2022
1393 Clouds 25 1006 26 10000 2.24 100 02:59 19.05.2022
1394 Clouds 27 1014 18 10000 1.79 327 00:56 19.05.2022
1395 Clouds 28 1009 22 10000 2.68 31 23:00 18.05.2022
1396 Clouds 28 1009 22 10000 2.68 47 22:40 18.05.2022
1397 Clear 27 1010 24 10000 2.24 34 21:32 18.05.2022
1398 Clear 26 1011 25 10000 1.79 344 20:55 18.05.2022
1399 Clouds 26 1012 27 10000 1.79 39 20:19 18.05.2022
1400 Clouds 23 1013 30 10000 1.79 133 18:46 18.05.2022
1401 Clouds 22 1013 34 10000 1.34 25 17:41 18.05.2022
1402 Clouds 21 1013 37 10000 0.89 28 17:23 18.05.2022
1403 Clouds 18 1014 43 10000 0.45 184 16:36 18.05.2022
1404 Clouds 16 1015 50 10000 0.45 211 15:42 18.05.2022
1405 Clouds 14 1015 54 10000 0.45 177 15:19 18.05.2022
1406 Clouds 13 1016 58 10000 0.89 188 13:48 18.05.2022
1407 Clouds 13 1016 56 10000 4.63 160 12:53 18.05.2022
1408 Clouds 13 1014 53 10000 0.45 128 11:41 18.05.2022
1409 Clouds 13 1016 53 10000 0.45 182 11:23 18.05.2022
1410 Clouds 14 1013 51 10000 2.57 177 09:57 18.05.2022
1411 Clouds 15 1012 52 10000 0.45 271 07:55 18.05.2022
1412 Clouds 16 1013 48 10000 0.45 19 06:50 18.05.2022
1413 Clouds 23 1009 28 10000 7.2 20 02:44 18.05.2022
1414 Clouds 26 999 23 10000 1.79 251 00:26 18.05.2022
1415 Clouds 28 1007 17 10000 2.24 23 22:47 17.05.2022
1416 Clouds 29 1007 18 10000 2.68 72 21:20 17.05.2022
1417 Clouds 28 1007 19 10000 2.68 29 20:30 17.05.2022
1418 Clouds 28 1007 18 10000 2.68 49 19:29 17.05.2022
1419 Clouds 25 1007 23 10000 0.89 102 17:53 17.05.2022
1420 Clouds 23 1007 26 10000 0.89 109 17:22 17.05.2022
1421 Clear 19 1008 33 10000 1.34 190 16:34 17.05.2022
1422 Clouds 16 1011 40 10000 2.57 200 15:32 17.05.2022
1423 Clear 14 1013 41 10000 1.77 219 14:31 17.05.2022
1424 Clouds 13 1006 41 10000 4.12 200 13:38 17.05.2022
1425 Clouds 14 1007 41 10000 1.21 211 12:23 17.05.2022
1426 Clouds 15 1008 39 10000 3.09 200 09:53 17.05.2022
1427 Clouds 16 1005 41 10000 0.89 21 08:43 17.05.2022
1428 Clouds 17 1009 39 10000 2.57 215 07:18 17.05.2022
1429 Clouds 21 1007 31 10000 2.46 244 04:28 17.05.2022
1430 Clouds 24 1001 24 10000 3.13 143 00:47 17.05.2022
1431 Clouds 27 1008 17 10000 4.02 286 22:44 16.05.2022
1432 Clouds 28 1007 17 10000 1.34 213 22:18 16.05.2022
1433 Clouds 28 1009 19 10000 1.54 120 20:49 16.05.2022
1434 Clouds 27 1009 22 10000 1.34 128 19:57 16.05.2022
1435 Clouds 23 1011 33 10000 0.89 137 18:21 16.05.2022
1436 Clouds 17 1013 45 10000 0.45 165 16:28 16.05.2022
1437 Clouds 13 1018 52 10000 0.66 156 14:42 16.05.2022
1438 Clouds 12 1012 51 10000 1.79 301 13:25 16.05.2022
1439 Clouds 13 1012 49 10000 0.77 148 11:34 16.05.2022
1440 Clear 13 1014 50 10000 0.53 134 10:24 16.05.2022
1441 Clear 16 1015 43 10000 1.91 262 07:34 16.05.2022
1442 Clouds 19 1014 32 10000 2.24 33 05:23 16.05.2022
1443 Clouds 25 1014 25 10000 2.24 27 23:59 15.05.2022
1444 Clouds 24 1015 27 10000 1.34 153 22:36 15.05.2022
1445 Clouds 23 1015 28 10000 2.24 205 21:48 15.05.2022
1446 Clouds 23 1016 30 10000 2.24 56 21:19 15.05.2022
1447 Clouds 22 1017 31 10000 1.79 56 20:34 15.05.2022
1448 Clouds 19 1018 39 10000 3.13 42 17:55 15.05.2022
1449 Clouds 19 1017 33 10000 3.13 33 16:36 15.05.2022
1450 Clouds 12 1017 46 10000 0.45 271 14:18 15.05.2022
1451 Clouds 12 1017 43 10000 0.89 191 13:27 15.05.2022
1452 Clouds 14 1016 39 10000 3.6 280 11:55 15.05.2022
1453 Clouds 14 1015 38 10000 1.34 296 10:35 15.05.2022
1454 Clouds 15 1012 35 10000 0.45 284 08:52 15.05.2022
1455 Clouds 18 1013 28 10000 0.45 36 06:59 15.05.2022
1456 Clouds 18 1013 27 10000 0.45 339 06:38 15.05.2022
1457 Clouds 26 1010 14 10000 2.68 51 02:24 15.05.2022
1458 Clouds 27 1010 13 10000 1.34 164 23:56 14.05.2022
1459 Clouds 27 1010 13 10000 2.24 56 23:34 14.05.2022
1460 Clear 26 1011 14 10000 1.34 15 21:45 14.05.2022
1461 Clear 25 1012 15 10000 2.24 143 21:19 14.05.2022
1462 Clouds 23 1013 16 10000 2.24 96 19:40 14.05.2022
1463 Clouds 23 1013 16 10000 2.24 96 19:40 14.05.2022
1464 Clouds 23 1014 16 10000 1.79 185 19:20 14.05.2022
1465 Clouds 22 1015 17 10000 1.34 194 18:47 14.05.2022
1466 Clouds 21 1015 18 10000 2.24 164 17:36 14.05.2022
1467 Clouds 15 1015 26 10000 0.89 109 15:47 14.05.2022
1468 Clouds 12 1017 30 10000 1.54 120 14:37 14.05.2022
1469 Clouds 11 1014 31 10000 0.89 176 12:51 14.05.2022
1470 Clouds 12 1014 27 10000 0.89 204 11:37 14.05.2022
1471 Clouds 13 1013 25 10000 0.45 271 10:24 14.05.2022
1472 Clouds 13 1013 25 10000 0.89 214 09:56 14.05.2022
1473 Clouds 14 1013 25 10000 2.68 243 08:59 14.05.2022
1474 Clouds 15 1012 22 10000 3.09 190 07:21 14.05.2022
1475 Clouds 21 1008 10 10000 3.58 243 03:41 14.05.2022
1476 Clouds 25 1010 11 10000 3.13 271 23:48 13.05.2022
1477 Clouds 25 1010 11 10000 4.02 282 23:22 13.05.2022
1478 Clouds 24 1010 12 10000 4.47 280 22:52 13.05.2022
1479 Clear 24 1011 13 10000 3.58 316 22:20 13.05.2022
1480 Clear 22 1011 12 10000 4.92 326 20:56 13.05.2022
1481 Clouds 22 1012 13 10000 4.47 296 20:28 13.05.2022
1482 Clouds 21 1013 15 10000 3.13 213 19:40 13.05.2022
1483 Clouds 19 1013 18 10000 1.34 97 18:41 13.05.2022
1484 Clouds 17 1014 20 10000 8.75 190 17:29 13.05.2022
1485 Clouds 14 1014 26 10000 1.34 171 16:23 13.05.2022
1486 Clouds 12 1014 29 10000 0.89 134 15:43 13.05.2022
1487 Clouds 8 1018 35 10000 0.46 188 13:57 13.05.2022
1488 Clouds 8 1013 34 10000 0.45 243 12:33 13.05.2022
1489 Clouds 9 1012 30 10000 0.89 337 11:29 13.05.2022
1490 Clouds 10 1010 28 10000 1.34 111 09:43 13.05.2022
1491 Clear 11 1011 28 10000 2.06 100 09:43 13.05.2022
1492 Clouds 12 1012 25 10000 3.09 100 08:50 13.05.2022
1493 Clear 12 1010 22 10000 0.89 257 07:49 13.05.2022
1494 Clear 13 1010 20 10000 0.45 245 06:35 13.05.2022
1495 Clouds 18 1009 12 10000 7.72 270 04:22 13.05.2022
1496 Clear 22 1006 12 10000 4.47 294 00:40 13.05.2022
1497 Clouds 22 1007 8 10000 13.38 250 22:46 12.05.2022
1498 Clear 21 1006 10 10000 4.92 265 21:58 12.05.2022
1499 Clouds 21 1006 10 10000 14.4 230 20:38 12.05.2022
1500 Clear 20 1004 17 10000 4.92 225 19:23 12.05.2022
1501 Clouds 19 1002 50 10000 3.09 280 17:27 12.05.2022
1502 Clear 16 1001 69 10000 1.34 42 16:27 12.05.2022
1503 Clear 12 1001 75 10000 0.6 67 14:47 12.05.2022
1504 Clear 11 1004 81 10000 0.94 36 13:47 12.05.2022
1505 Clear 13 1003 75 10000 0.45 21 11:23 12.05.2022
1506 Clear 15 1004 68 10000 0.45 348 09:31 12.05.2022
1507 Clear 16 1004 64 10000 0.45 24 08:51 12.05.2022
1508 Clouds 18 1004 51 10000 2.68 360 07:41 12.05.2022
1509 Clouds 19 1004 44 10000 0.89 13 06:39 12.05.2022
1510 Clouds 29 1002 10 10000 10.29 180 02:59 12.05.2022
1511 Clouds 31 1002 9 10000 3.58 192 00:39 12.05.2022
1512 Clouds 30 1005 11 10000 9.26 180 22:39 11.05.2022
1513 Clouds 30 1005 11 10000 4.02 227 21:52 11.05.2022
1514 Clear 30 1005 11 10000 3.13 209 21:24 11.05.2022
1515 Clouds 26 1008 12 10000 3.58 156 18:58 11.05.2022
1516 Clear 20 1010 28 10000 0.89 84 16:59 11.05.2022
1517 Clear 16 1010 39 10000 0.16 240 15:50 11.05.2022
1518 Clear 12 1010 39 10000 0.3 341 14:39 11.05.2022
1519 Clouds 10 1011 47 10000 0.69 351 14:19 11.05.2022
1520 Clouds 10 1015 47 10000 3.6 160 11:54 11.05.2022
1521 Clouds 11 1015 46 10000 1.63 173 11:23 11.05.2022
1522 Clear 11 1012 47 10000 0.26 327 08:55 11.05.2022
1523 Clear 14 1011 38 10000 0.29 41 05:45 11.05.2022
1524 Clouds 22 1002 16 10000 2.94 348 01:23 11.05.2022
1525 Clouds 22 1015 20 10000 8.23 70 22:32 10.05.2022
1526 Clear 21 1005 23 10000 5.89 328 21:58 10.05.2022
1527 Clear 18 1007 21 10000 2.65 19 20:58 10.05.2022
1528 Clear 16 1013 26 10000 1.34 26 20:19 10.05.2022
1529 Clear 14 1012 30 10000 1.34 136 18:35 10.05.2022
1530 Clear 12 1016 33 10000 2.24 102 17:37 10.05.2022
1531 Clear 9 1015 48 10000 3.13 132 15:42 10.05.2022
1532 Clouds 6 1014 59 10000 0.45 32 12:48 10.05.2022
1533 Clouds 7 1013 56 10000 0.45 169 11:51 10.05.2022
1534 Clouds 8 1012 53 10000 0.45 170 11:21 10.05.2022
1535 Clouds 8 1012 52 10000 0.89 144 10:54 10.05.2022
1536 Clouds 10 1011 47 10000 1.34 138 09:27 10.05.2022
1537 Clouds 11 1010 42 10000 0.89 69 07:32 10.05.2022
1538 Clouds 18 1004 41 10000 2.24 55 04:34 10.05.2022
1539 Clear 23 993 31 10000 0.89 65 01:34 10.05.2022
1540 Clear 23 992 30 10000 3.58 32 23:37 09.05.2022
1541 Clear 22 991 32 10000 1.79 38 22:29 09.05.2022
1542 Clear 21 994 36 10000 8.75 239 21:21 09.05.2022
1543 Clear 19 994 20 10000 8.05 237 19:37 09.05.2022
1544 Clear 18 994 37 10000 6.01 235 17:59 09.05.2022
1545 Clear 14 994 19 10000 5.8 245 16:49 09.05.2022
1546 Clear 11 994 27 10000 7.55 246 15:53 09.05.2022
1547 Clear 9 994 36 10000 7.55 246 15:31 09.05.2022
1548 Clear 9 994 20 10000 9.06 244 14:32 09.05.2022
1549 Clear 8 993 23 10000 9.63 250 13:51 09.05.2022
1550 Clear 9 991 20 10000 8.27 239 12:30 09.05.2022
1551 Clear 9 991 20 10000 8.27 239 11:43 09.05.2022
1552 Clouds 9 997 87 10000 5.14 350 10:44 09.05.2022
1553 Clear 10 989 21 10000 8.14 243 09:39 09.05.2022
1554 Clouds 15 988 16 10000 9.54 241 07:56 09.05.2022
1555 Clouds 20 987 36 10000 7.2 200 04:33 09.05.2022
1556 Clouds 20 987 36 10000 7.2 200 04:33 09.05.2022
1557 Clouds 19 987 38 10000 1.34 312 04:33 09.05.2022
1558 Clouds 22 990 28 10000 12.86 180 00:21 09.05.2022
1559 Clouds 23 992 30 10000 3.58 312 22:57 08.05.2022
1560 Clouds 22 992 31 10000 4.02 323 22:22 08.05.2022
1561 Clouds 21 995 32 10000 1.34 205 20:37 08.05.2022
1562 Clouds 20 996 33 10000 3.58 110 19:53 08.05.2022
1563 Clouds 18 997 37 10000 2.24 170 18:59 08.05.2022
1564 Clouds 17 999 40 10000 8.75 150 18:24 08.05.2022
1565 Clouds 15 1000 45 10000 2.68 193 16:59 08.05.2022
1566 Clouds 12 1001 54 10000 1.34 164 15:41 08.05.2022
1567 Clouds 10 1002 59 10000 0.45 196 15:20 08.05.2022
1568 Clouds 10 1000 58 10000 1.79 119 12:41 08.05.2022
1569 Clouds 11 1000 55 10000 1.34 144 10:34 08.05.2022
1570 Clouds 12 999 53 10000 1.34 175 09:59 08.05.2022
1571 Clouds 12 1000 53 10000 5.66 100 09:33 08.05.2022
1572 Clouds 14 998 49 10000 2.24 88 07:33 08.05.2022
1573 Clear 17 993 15 10000 6.25 229 04:20 08.05.2022
1574 Clear 23 992 27 10000 8.2 240 03:19 08.05.2022
1575 Clouds 31 991 13 10000 4.92 203 00:28 08.05.2022
1576 Clouds 31 992 12 10000 3.58 248 23:53 07.05.2022
1577 Clouds 30 993 13 10000 3.58 248 22:51 07.05.2022
1578 Clouds 30 993 13 10000 4.92 152 22:33 07.05.2022
1579 Clouds 30 994 14 10000 6.26 208 21:34 07.05.2022
1580 Clouds 29 996 14 10000 4.47 261 20:55 07.05.2022
1581 Clouds 29 996 14 10000 3.58 244 19:58 07.05.2022
1582 Clouds 24 998 19 10000 2.24 200 17:43 07.05.2022
1583 Clouds 17 1001 30 10000 0.45 126 15:51 07.05.2022
1584 Clouds 13 1003 34 10000 3.15 212 14:20 07.05.2022
1585 Clouds 14 1004 41 10000 0.45 205 10:57 07.05.2022
1586 Clouds 15 1006 40 10000 2.57 130 09:22 07.05.2022
1587 Clouds 16 1006 37 10000 0.45 271 07:52 07.05.2022
1588 Clouds 19 1007 30 10000 1.84 203 06:43 07.05.2022
1589 Clouds 22 1006 22 10000 0.89 93 04:59 07.05.2022
1590 Clouds 27 1004 15 10000 3.58 309 02:21 07.05.2022
1591 Clouds 28 1005 14 10000 2.68 208 23:38 06.05.2022
1592 Clouds 27 1006 15 10000 2.24 179 22:31 06.05.2022
1593 Clouds 27 1006 15 10000 3.13 309 21:43 06.05.2022
1594 Clouds 26 1006 16 10000 2.24 145 20:35 06.05.2022
1595 Clouds 25 1006 17 10000 3.13 212 19:31 06.05.2022
1596 Clouds 24 1007 19 10000 2.24 259 19:00 06.05.2022
1597 Clouds 23 1007 22 10000 1.79 137 18:19 06.05.2022
1598 Clouds 18 1008 33 10000 3.6 170 16:44 06.05.2022
1599 Clouds 14 1007 40 10000 0.89 295 15:41 06.05.2022
1600 Clouds 11 1009 48 10000 0.89 199 14:50 06.05.2022
1601 Clouds 11 1009 49 10000 0.89 186 12:55 06.05.2022
1602 Clouds 11 1009 49 10000 0.89 0 12:36 06.05.2022
1603 Clouds 11 1009 51 10000 5.66 180 11:42 06.05.2022
1604 Clouds 11 1010 52 10000 0.45 206 10:29 06.05.2022
1605 Clouds 11 1010 51 10000 0.45 5 09:45 06.05.2022
1606 Clouds 12 1011 50 10000 0.45 5 08:27 06.05.2022
1607 Clouds 13 1009 46 10000 0.45 5 06:45 06.05.2022
1608 Clouds 16 1011 38 10000 0.45 288 04:53 06.05.2022
1609 Clear 21 1009 25 10000 2.68 0 02:45 06.05.2022
1610 Clear 20 1011 30 10000 1.79 354 23:45 05.05.2022
1611 Clear 18 1012 38 10000 2.68 25 21:53 05.05.2022
1612 Clear 18 1013 39 10000 3.58 40 21:19 05.05.2022
1613 Clouds 16 1014 43 10000 1.79 331 19:53 05.05.2022
1614 Clouds 13 1016 55 10000 1.34 163 18:26 05.05.2022
1615 Clouds 7 1016 82 10000 0.45 238 16:20 05.05.2022
1616 Clouds 5 1015 89 10000 0.45 222 14:43 05.05.2022
1617 Clouds 3 1014 90 10000 1.52 213 13:21 05.05.2022
1618 Clouds 4 1014 90 10000 1.96 203 12:24 05.05.2022
1619 Clouds 5 1015 89 10000 1.54 270 10:33 05.05.2022
1620 Clouds 5 1015 88 10000 0.45 236 09:39 05.05.2022
1621 Clouds 6 1016 84 9087 0.45 259 07:24 05.05.2022
1622 Clouds 8 1015 80 10000 3.13 38 03:00 05.05.2022
1623 Clouds 10 1014 69 10000 2.68 23 01:48 05.05.2022
1624 Clouds 10 1014 66 10000 1.34 45 01:22 05.05.2022
1625 Clouds 9 1014 69 10000 1.79 97 23:34 04.05.2022
1626 Clouds 8 1014 77 10000 1.34 5 22:25 04.05.2022
1627 Clouds 8 1014 83 10000 2.68 322 21:49 04.05.2022
1628 Clouds 7 1014 86 10000 2.68 346 21:26 04.05.2022
1629 Mist 7 1014 86 9656 5.66 320 21:26 04.05.2022
1630 Clouds 5 1014 90 10000 2.68 9 20:22 04.05.2022
1631 Mist 5 1014 90 8047 7.72 330 19:51 04.05.2022
1632 Clouds 5 1013 90 10000 2.24 331 18:49 04.05.2022
1633 Clouds 5 1013 89 2939 3.58 313 18:21 04.05.2022
1634 Clouds 6 1012 90 10000 2.68 323 17:29 04.05.2022
1635 Clouds 6 1011 91 2951 0.89 15 15:38 04.05.2022
1636 Clouds 6 1011 91 10000 1.34 32 14:59 04.05.2022
1637 Clouds 6 1011 91 10000 0.89 353 14:20 04.05.2022
1638 Clouds 6 1010 91 10000 1.34 30 13:18 04.05.2022
1639 Mist 6 1010 91 9656 3.09 70 12:29 04.05.2022
1640 Clouds 6 1010 91 10000 2.24 28 10:33 04.05.2022
1641 Clouds 6 1010 90 10000 4.12 80 09:38 04.05.2022
1642 Mist 7 1011 90 9656 7.72 10 08:33 04.05.2022
1643 Clouds 11 1008 68 10000 2.24 17 05:50 04.05.2022
1644 Clouds 12 999 56 10000 1.25 67 02:43 04.05.2022
1645 Clouds 15 1002 42 10000 4.96 339 23:31 03.05.2022
1646 Clouds 14 1008 51 10000 3.58 15 22:20 03.05.2022
1647 Clouds 14 1008 53 10000 2.24 24 21:33 03.05.2022
1648 Clouds 14 1008 51 10000 0.89 328 20:52 03.05.2022
1649 Clouds 13 1007 41 10000 2.4 26 19:44 03.05.2022
1650 Clouds 10 1010 62 10000 0.89 36 18:50 03.05.2022
1651 Clouds 8 1011 72 10000 1.79 16 17:38 03.05.2022
1652 Clouds 5 1012 85 10000 0.89 37 16:28 03.05.2022
1653 Clouds 2 1012 90 10000 2.13 358 14:43 03.05.2022
1654 Clouds 2 1013 90 10000 0.95 7 12:47 03.05.2022
1655 Clouds 2 1013 89 10000 0.47 57 12:22 03.05.2022
1656 Clouds 2 1013 87 10000 4.63 110 10:52 03.05.2022
1657 Clouds 3 1014 84 10000 0.89 24 08:38 03.05.2022
1658 Clouds 4 1014 79 10000 4.12 100 06:46 03.05.2022
1659 Clouds 6 1014 72 10000 2.57 70 03:34 03.05.2022
1660 Clouds 6 1014 75 10000 1.79 55 23:32 02.05.2022
1661 Clouds 5 1015 79 10000 2.24 69 22:34 02.05.2022
1662 Clouds 4 1015 81 10000 1.79 2 21:48 02.05.2022
1663 Clouds 4 1014 82 10000 2.68 16 20:48 02.05.2022
1664 Clouds 3 1013 91 29 3.13 5 18:28 02.05.2022
1665 Mist 3 1013 93 4828 6.69 360 17:44 02.05.2022
1666 Clouds 3 1012 93 28 3.13 360 16:50 02.05.2022
1667 Clouds 3 1011 92 135 2.68 35 15:56 02.05.2022
1668 Clouds 4 1010 91 10000 4.63 30 14:57 02.05.2022
1669 Rain 4 1009 91 223 2.24 360 13:47 02.05.2022
1670 Clouds 5 1012 90 10000 0.89 202 11:51 02.05.2022
1671 Clouds 6 1012 88 10000 2.06 320 10:20 02.05.2022
1672 Rain 7 1009 84 10000 2.24 0 08:46 02.05.2022
1673 Rain 9 1009 73 10000 2.68 20 07:30 02.05.2022
1674 Clouds 15 1006 31 10000 8.75 320 01:28 02.05.2022
1675 Clouds 16 1006 32 10000 4.92 318 00:23 02.05.2022
1676 Clouds 16 1006 32 10000 3.58 304 23:43 01.05.2022
1677 Clouds 17 1007 31 10000 2.24 10 21:46 01.05.2022
1678 Clouds 15 1009 33 10000 2.24 322 20:50 01.05.2022
1679 Clouds 14 1010 36 10000 2.24 336 19:46 01.05.2022
1680 Clouds 12 1011 39 10000 1.34 332 18:53 01.05.2022
1681 Clouds 10 1011 41 10000 0.89 36 17:57 01.05.2022
1682 Clouds 8 1012 48 10000 0.45 269 16:46 01.05.2022
1683 Clouds 8 1013 50 10000 0.89 215 16:23 01.05.2022
1684 Clouds 4 1014 57 10000 0.45 193 14:58 01.05.2022
1685 Clouds 4 1015 56 10000 7.72 150 13:23 01.05.2022
1686 Clouds 5 1014 48 10000 1.34 345 10:45 01.05.2022
1687 Clouds 7 1015 42 10000 0.89 28 08:50 01.05.2022
1688 Clear 10 1014 34 10000 0.89 69 06:51 01.05.2022
1689 Clear 17 1011 21 10000 2.24 113 02:51 01.05.2022
1690 Clear 18 1012 21 10000 2.68 60 22:52 30.04.2022
1691 Clear 16 1013 23 10000 2.68 143 21:34 30.04.2022
1692 Clear 15 1013 25 10000 2.24 74 20:24 30.04.2022
1693 Clear 14 1014 27 10000 1.34 28 19:31 30.04.2022
1694 Clear 11 1014 36 10000 1.79 131 17:37 30.04.2022
1695 Clouds 8 1014 44 10000 5.14 30 16:30 30.04.2022
1696 Clear 6 1013 47 10000 1.34 110 15:19 30.04.2022
1697 Clear 4 1013 45 10000 1.34 80 14:30 30.04.2022
1698 Clear 7 1012 35 10000 3.13 312 12:28 30.04.2022
1699 Clear 7 1012 34 10000 4.02 359 11:32 30.04.2022
1700 Clouds 7 1012 35 10000 4.02 292 10:30 30.04.2022
1701 Clear 8 1012 34 10000 3.13 296 08:26 30.04.2022
1702 Clear 10 1008 28 10000 8.49 280 04:58 30.04.2022
1703 Clouds 14 1004 21 10000 13.89 300 00:34 30.04.2022
1704 Clouds 14 1003 21 10000 13.38 320 22:58 29.04.2022
1705 Clouds 13 1002 23 10000 8.94 279 22:29 29.04.2022
1706 Clouds 14 1000 25 10000 8.94 331 21:26 29.04.2022
1707 Thunderstorm 14 1000 33 10000 11.32 310 20:24 29.04.2022
1708 Clouds 15 999 32 10000 8.94 318 19:33 29.04.2022
1709 Clouds 19 998 15 10000 5.14 270 17:38 29.04.2022
1710 Clouds 17 999 23 10000 3.09 210 16:43 29.04.2022
1711 Clouds 11 997 33 10000 2.05 246 14:38 29.04.2022
1712 Clouds 11 999 34 10000 3.09 230 14:38 29.04.2022
1713 Clouds 11 999 34 10000 3.09 230 14:38 29.04.2022
1714 Clouds 10 997 38 10000 1.79 311 13:59 29.04.2022
1715 Clouds 10 998 39 10000 1.39 245 12:41 29.04.2022
1716 Clouds 11 997 36 10000 0.89 183 10:56 29.04.2022
1717 Clouds 17 1000 27 10000 6.17 50 07:58 29.04.2022
1718 Clouds 18 998 25 10000 1.34 324 07:26 29.04.2022
1719 Clouds 19 1000 23 10000 1.79 213 06:33 29.04.2022
1720 Clouds 23 999 18 10000 0.89 298 02:50 29.04.2022
1721 Clouds 24 1001 18 10000 7.2 100 00:18 29.04.2022
1722 Clouds 24 1002 18 10000 3.58 135 23:26 28.04.2022
1723 Clouds 24 1003 19 10000 2.24 101 22:33 28.04.2022
1724 Clouds 23 1004 21 10000 2.68 54 21:43 28.04.2022
1725 Clouds 22 1006 23 10000 2.24 113 20:49 28.04.2022
1726 Clouds 21 1007 24 10000 1.79 48 19:57 28.04.2022
1727 Clouds 21 1007 24 10000 2.68 69 19:38 28.04.2022
1728 Clouds 21 1007 25 10000 2.24 35 19:19 28.04.2022
1729 Clouds 19 1008 26 10000 2.06 210 17:55 28.04.2022
1730 Clouds 16 1008 32 10000 1.34 156 16:58 28.04.2022
1731 Clouds 14 1008 35 10000 0.89 156 16:21 28.04.2022
1732 Clouds 12 1009 39 10000 1.34 233 15:49 28.04.2022
1733 Clouds 10 1009 46 10000 0.89 226 15:18 28.04.2022
1734 Clouds 9 1008 47 10000 1.34 282 13:42 28.04.2022
1735 Clouds 10 1008 45 10000 0.89 301 12:30 28.04.2022
1736 Clouds 10 1008 45 10000 0.89 301 12:30 28.04.2022
1737 Clouds 11 1008 42 10000 1.79 206 11:37 28.04.2022
1738 Clear 11 1007 40 10000 0.89 215 10:26 28.04.2022
1739 Clear 12 1007 41 10000 1.34 187 09:50 28.04.2022
1740 Clouds 12 1007 45 10000 0.89 215 07:42 28.04.2022
1741 Clouds 13 1008 47 10000 0.45 269 06:51 28.04.2022
1742 Clouds 14 1007 45 10000 1.34 200 05:53 28.04.2022
1743 Clouds 16 1007 41 10000 0.89 155 04:43 28.04.2022
1744 Clear 19 1006 35 10000 3.13 176 02:41 28.04.2022
1745 Clouds 19 1009 31 10000 8.75 300 23:32 27.04.2022
1746 Clouds 21 1008 20 10000 3.58 302 22:20 27.04.2022
1747 Clouds 22 1007 17 10000 1.79 27 21:43 27.04.2022
1748 Clouds 22 1008 17 10000 2.57 50 20:45 27.04.2022
1749 Clouds 21 1009 18 10000 2.24 39 19:55 27.04.2022
1750 Clouds 21 1009 19 10000 1.79 96 19:34 27.04.2022
1751 Clouds 19 1010 21 10000 1.34 18 18:39 27.04.2022
1752 Clouds 16 1011 25 10000 0.89 106 17:55 27.04.2022
1753 Clouds 12 1011 32 10000 0.89 287 15:57 27.04.2022
1754 Clouds 10 1010 31 10000 1.34 248 12:59 27.04.2022
1755 Clouds 11 1014 31 10000 0.89 207 11:24 27.04.2022
1756 Clouds 11 1011 30 10000 0.45 182 10:28 27.04.2022
1757 Clouds 12 1010 29 10000 2.32 209 08:22 27.04.2022
1758 Clouds 13 1011 26 10000 0.45 236 06:41 27.04.2022
1759 Clouds 23 1010 12 10000 2.24 39 02:26 27.04.2022
1760 Clouds 24 1009 11 10000 3.58 327 01:21 27.04.2022
1761 Clouds 24 1011 11 10000 2.24 220 00:27 27.04.2022
1762 Clouds 23 1012 12 10000 2.24 133 23:24 26.04.2022
1763 Clouds 23 1013 12 10000 1.79 182 22:45 26.04.2022
1764 Clouds 22 1014 12 10000 2.68 164 21:59 26.04.2022
1765 Clouds 22 1014 12 10000 2.68 102 21:19 26.04.2022
1766 Clouds 21 1015 14 10000 1.79 159 20:37 26.04.2022
1767 Clouds 19 1017 18 10000 2.24 121 19:45 26.04.2022
1768 Clouds 18 1018 20 10000 2.24 128 19:26 26.04.2022
1769 Clouds 15 1019 27 10000 3.6 190 18:31 26.04.2022
1770 Clouds 13 1019 35 10000 1.34 165 17:38 26.04.2022
1771 Clouds 4 1021 59 10000 6.69 200 14:59 26.04.2022
1772 Clouds 4 1020 60 10000 1.4 207 13:38 26.04.2022
1773 Clouds 4 1020 59 10000 1.47 203 12:35 26.04.2022
1774 Clouds 5 1021 60 10000 0.89 99 11:20 26.04.2022
1775 Clouds 5 1022 61 10000 1.34 126 10:29 26.04.2022
1776 Clouds 6 1024 58 10000 1.3 223 08:32 26.04.2022
1777 Clouds 9 1023 42 10000 0.45 316 04:39 26.04.2022
1778 Clouds 12 1023 34 10000 0.89 103 03:25 26.04.2022
1779 Clouds 13 1023 32 10000 2.68 5 00:39 26.04.2022
1780 Clouds 12 1023 35 10000 2.24 205 23:48 25.04.2022
1781 Clouds 13 1023 28 10000 1.79 286 21:49 25.04.2022
1782 Clouds 12 1024 31 10000 2.68 22 20:49 25.04.2022
1783 Clouds 10 1024 36 10000 2.24 158 19:39 25.04.2022
1784 Clouds 8 1025 41 10000 1.34 110 18:25 25.04.2022
1785 Clouds 7 1025 44 10000 0.89 104 17:39 25.04.2022
1786 Clouds 3 1025 59 10000 1.34 130 15:51 25.04.2022
1787 Clouds 2 1025 64 10000 2.57 170 15:18 25.04.2022
1788 Clouds 2 1025 63 10000 0.45 143 13:59 25.04.2022
1789 Clouds 2 1025 63 5037 0.45 167 12:22 25.04.2022
1790 Clouds 2 1025 67 10000 0.45 207 10:29 25.04.2022
1791 Clouds 2 1025 67 10000 0.45 215 09:23 25.04.2022
1792 Clouds 3 1024 66 10000 1.79 52 07:19 25.04.2022
1793 Clouds 4 1023 71 10000 2.68 355 05:32 25.04.2022
1794 Clouds 11 1018 33 10000 3.13 66 01:24 25.04.2022
1795 Clouds 11 1017 32 10000 1.34 343 23:53 24.04.2022
1796 Clouds 11 1017 33 10000 4.02 48 22:53 24.04.2022
1797 Clouds 11 1017 33 10000 2.68 52 22:32 24.04.2022
1798 Clouds 11 1017 33 10000 2.68 52 22:32 24.04.2022
1799 Clouds 11 1017 33 10000 3.13 302 21:54 24.04.2022
1800 Clouds 11 1017 33 10000 3.58 32 21:20 24.04.2022
1801 Clouds 11 1016 33 10000 2.68 31 20:38 24.04.2022
1802 Clouds 11 1017 35 10000 2.68 55 19:50 24.04.2022
1803 Clouds 9 1016 39 10000 2.24 17 18:28 24.04.2022
1804 Clouds 9 1016 41 10000 6.17 50 17:37 24.04.2022
1805 Clouds 8 1016 43 10000 2.24 181 17:19 24.04.2022
1806 Clouds 7 1015 46 10000 2.24 116 16:37 24.04.2022
1807 Clouds 5 1015 50 10000 1.79 122 15:56 24.04.2022
1808 Clouds 4 1015 54 10000 1.79 171 15:31 24.04.2022
1809 Clouds 4 1015 54 10000 1.79 171 15:31 24.04.2022
1810 Clouds 4 1015 55 10000 1.34 179 15:31 24.04.2022
1811 Clouds 2 1014 58 10000 3.17 127 14:19 24.04.2022
1812 Clouds 2 1013 57 10000 2.17 109 13:25 24.04.2022
1813 Clouds 3 1015 55 10000 0.45 95 12:32 24.04.2022
1814 Clouds 4 1013 53 10000 0.45 101 11:33 24.04.2022
1815 Clouds 5 1011 47 10000 2.24 88 10:27 24.04.2022
1816 Clouds 6 1011 40 10000 1.79 31 09:26 24.04.2022
1817 Clouds 8 1009 33 10000 2.24 270 06:45 24.04.2022
1818 Clouds 11 1006 27 10000 2.68 309 03:57 24.04.2022
1819 Clouds 14 1004 22 10000 4.47 332 01:38 24.04.2022
1820 Clouds 14 1003 22 10000 7.72 280 00:29 24.04.2022
1821 Clouds 14 1002 22 10000 7.6 295 23:44 23.04.2022
1822 Clouds 14 1002 22 10000 6.71 291 23:21 23.04.2022
1823 Clouds 15 1000 22 10000 4.92 328 21:51 23.04.2022
1824 Clouds 14 1000 22 10000 4.92 346 21:33 23.04.2022
1825 Clouds 14 999 22 10000 9.77 290 20:45 23.04.2022
1826 Clouds 14 999 22 10000 5.36 313 20:45 23.04.2022
1827 Clouds 13 997 25 10000 4.92 279 19:46 23.04.2022
1828 Clouds 13 997 24 10000 4.92 285 19:19 23.04.2022
1829 Clouds 13 996 24 10000 4.47 275 18:49 23.04.2022
1830 Clouds 12 995 26 10000 3.13 0 17:51 23.04.2022
1831 Clouds 12 995 29 10000 3.58 276 17:20 23.04.2022
1832 Clouds 11 995 32 10000 3.58 328 16:40 23.04.2022
1833 Clouds 9 993 35 10000 1.79 261 14:57 23.04.2022
1834 Clouds 10 993 33 10000 2.68 277 12:35 23.04.2022
1835 Clouds 10 992 29 10000 4.47 293 10:41 23.04.2022
1836 Clouds 10 992 26 10000 3.58 278 09:30 23.04.2022
1837 Clouds 14 990 24 10000 2.68 191 06:29 23.04.2022
1838 Clouds 18 989 27 10000 6.71 296 03:54 23.04.2022
1839 Clouds 27 985 10 10000 4.92 226 00:53 23.04.2022
1840 Clouds 30 987 6 10000 9.39 182 23:29 22.04.2022
1841 Clouds 29 990 7 10000 4.92 206 22:19 22.04.2022
1842 Clouds 29 991 8 10000 4.92 165 21:41 22.04.2022
1843 Clouds 28 993 11 10000 4.92 119 20:45 22.04.2022
1844 Clouds 28 994 9 10000 4.92 218 20:25 22.04.2022
1845 Clear 26 996 10 10000 6.26 146 19:18 22.04.2022
1846 Clouds 25 998 11 10000 9.77 190 18:35 22.04.2022
1847 Clear 24 998 14 10000 4.02 166 17:39 22.04.2022
1848 Clear 18 1000 21 10000 3.66 194 16:32 22.04.2022
1849 Clear 14 1003 30 10000 3.6 170 15:32 22.04.2022
1850 Clear 13 1001 30 10000 0.45 203 14:43 22.04.2022
1851 Clear 12 1002 31 10000 5.66 160 13:42 22.04.2022
1852 Clear 14 1002 29 10000 1.79 123 12:57 22.04.2022
1853 Clear 15 1002 27 10000 1.79 191 11:42 22.04.2022
1854 Clear 15 1003 28 10000 1.79 191 11:18 22.04.2022
1855 Clear 15 1003 28 10000 1.34 143 10:47 22.04.2022
1856 Clear 16 1003 26 10000 1.34 209 10:25 22.04.2022
1857 Clear 16 1002 28 10000 2.24 185 09:42 22.04.2022
1858 Clear 17 1004 26 10000 6.17 200 08:49 22.04.2022
1859 Clouds 18 1003 31 10000 3.58 175 06:54 22.04.2022
1860 Clouds 26 1002 20 10000 4.47 134 01:49 22.04.2022
1861 Clear 26 1003 22 10000 3.13 59 23:49 21.04.2022
1862 Clear 25 1004 25 10000 4.02 114 22:52 21.04.2022
1863 Clear 24 1005 27 10000 4.02 151 21:49 21.04.2022
1864 Clear 22 1005 30 10000 3.13 175 20:34 21.04.2022
1865 Clouds 20 1010 31 10000 5.66 180 19:36 21.04.2022
1866 Clouds 17 1011 36 10000 0.89 207 18:32 21.04.2022
1867 Clouds 16 1010 38 10000 0.89 5 17:46 21.04.2022
1868 Clouds 12 1011 43 10000 1.34 91 16:21 21.04.2022
1869 Clouds 9 1012 51 10000 0.45 246 15:19 21.04.2022
1870 Clouds 9 1010 49 10000 0.94 113 14:31 21.04.2022
1871 Clouds 8 1010 46 10000 1.12 109 13:22 21.04.2022
1872 Clouds 9 1011 44 10000 1.21 110 12:29 21.04.2022
1873 Clouds 11 1011 39 10000 0.89 346 10:19 21.04.2022
1874 Clouds 13 1010 37 10000 1.79 301 08:50 21.04.2022
1875 Clouds 15 1009 33 10000 1.34 134 06:46 21.04.2022
1876 Clouds 18 1006 27 10000 2.68 125 04:21 21.04.2022
1877 Clouds 20 1005 22 10000 3.13 107 03:23 21.04.2022
1878 Clouds 21 1004 21 10000 2.68 97 02:45 21.04.2022
1879 Clouds 21 1004 21 10000 2.68 97 02:45 21.04.2022
1880 Clouds 22 1003 21 10000 3.13 107 00:35 21.04.2022
1881 Clear 22 1003 21 10000 2.24 58 23:46 20.04.2022
1882 Clear 22 1003 22 10000 2.24 95 23:21 20.04.2022
1883 Clouds 21 1003 22 10000 4.63 100 22:41 20.04.2022
1884 Clear 21 1003 23 10000 3.13 99 21:57 20.04.2022
1885 Clear 19 1003 26 10000 3.58 111 20:50 20.04.2022
1886 Clear 18 1003 28 10000 3.13 61 20:22 20.04.2022
1887 Clear 17 1003 30 10000 3.13 107 19:47 20.04.2022
1888 Clear 16 1003 34 10000 2.24 123 18:52 20.04.2022
1889 Clear 13 1003 40 10000 2.24 115 17:53 20.04.2022
1890 Clear 11 1003 45 10000 1.79 84 16:39 20.04.2022
1891 Clear 9 1002 44 10000 3.13 78 15:39 20.04.2022
1892 Clouds 9 1001 40 10000 0.89 190 12:47 20.04.2022
1893 Clouds 11 1001 34 10000 1.34 157 11:43 20.04.2022
1894 Clouds 12 999 30 10000 2.68 14 10:53 20.04.2022
1895 Clouds 14 999 28 10000 5.36 42 09:45 20.04.2022
1896 Clouds 15 997 25 10000 3.13 23 08:54 20.04.2022
1897 Clouds 15 997 23 10000 3.13 278 08:20 20.04.2022
1898 Clouds 17 996 19 10000 4.12 270 06:49 20.04.2022
1899 Clouds 23 996 12 10000 1.79 236 03:33 20.04.2022
1900 Clouds 27 996 9 10000 3.58 271 00:22 20.04.2022
1901 Clouds 27 997 9 10000 2.06 290 23:31 19.04.2022
1902 Clouds 26 999 9 10000 4.12 290 22:24 19.04.2022
1903 Clouds 26 1000 10 10000 1.34 172 21:55 19.04.2022
1904 Clouds 25 1001 10 10000 2.24 93 21:18 19.04.2022
1905 Clouds 25 1001 10 10000 2.68 30 20:37 19.04.2022
1906 Clouds 25 1001 10 10000 1.79 158 20:37 19.04.2022
1907 Clouds 24 1002 11 10000 1.79 151 19:43 19.04.2022
1908 Clouds 22 1002 17 10000 2.24 236 18:46 19.04.2022
1909 Clouds 22 1002 17 10000 2.24 236 18:46 19.04.2022
1910 Clouds 15 1004 31 10000 0.89 194 17:27 19.04.2022
1911 Clouds 14 1004 31 10000 1.98 206 16:43 19.04.2022
1912 Clouds 11 1000 43 10000 0.45 161 16:21 19.04.2022
1913 Clouds 7 1007 44 10000 2.17 191 14:47 19.04.2022
1914 Clouds 5 1010 61 10000 1.32 177 13:34 19.04.2022
1915 Clouds 5 1007 61 10000 0.15 57 12:50 19.04.2022
1916 Clouds 5 1009 59 10000 0.89 319 11:39 19.04.2022
1917 Clouds 7 1009 55 10000 1.09 262 09:57 19.04.2022
1918 Clouds 8 1010 53 10000 1.45 212 08:43 19.04.2022
1919 Clouds 12 1015 37 10000 7.2 150 04:41 19.04.2022
1920 Clear 15 1014 29 10000 1.79 141 03:19 19.04.2022
1921 Clouds 16 1016 27 10000 4.63 320 00:24 19.04.2022
1922 Clear 16 1017 28 10000 2.24 291 23:25 18.04.2022
1923 Clear 13 1020 33 10000 2.24 235 21:29 18.04.2022
1924 Clear 12 1020 33 10000 1.34 300 20:53 18.04.2022
1925 Clear 11 1021 34 10000 2.57 330 20:27 18.04.2022
1926 Clear 9 1021 37 10000 1.79 284 19:42 18.04.2022
1927 Clear 8 1022 38 10000 1.79 11 18:53 18.04.2022
1928 Clear 6 1023 41 10000 1.34 96 17:53 18.04.2022
1929 Clear 5 1024 44 10000 0.89 14 17:28 18.04.2022
1930 Clouds 3 1024 47 10000 4.63 140 16:40 18.04.2022
1931 Clear 2 1024 51 10000 0.45 323 15:54 18.04.2022
1932 Clear -1 1024 57 10000 1.89 28 14:42 18.04.2022
1933 Clear -1 1024 57 10000 1.89 28 14:42 18.04.2022
1934 Clear -1 1026 54 10000 2.84 11 13:31 18.04.2022
1935 Clear 0 1025 52 10000 2.19 50 12:28 18.04.2022
1936 Clear 1 1024 47 10000 0.89 0 11:27 18.04.2022
1937 Clear 3 1022 44 10000 0.89 27 10:29 18.04.2022
1938 Clear 4 1025 42 10000 1.79 58 09:30 18.04.2022
1939 Clouds 8 1021 43 10000 3.6 40 07:35 18.04.2022
1940 Clouds 11 1017 44 10000 2.24 333 04:40 18.04.2022
1941 Clear 19 1014 23 10000 5.36 330 23:42 17.04.2022
1942 Clouds 19 1013 20 10000 6.71 312 22:40 17.04.2022
1943 Clear 19 1012 20 10000 4.92 271 21:42 17.04.2022
1944 Clear 19 1012 21 10000 4.92 234 21:21 17.04.2022
1945 Clouds 18 1014 23 10000 2.24 274 20:32 17.04.2022
1946 Clear 17 1014 29 10000 2.24 198 19:21 17.04.2022
1947 Clear 14 1009 36 10000 0.45 212 17:38 17.04.2022
1948 Clear 7 1013 39 10000 1.04 178 15:38 17.04.2022
1949 Clear 5 1012 62 10000 2.7 169 14:54 17.04.2022
1950 Clouds 2 1013 68 10000 2.44 170 13:45 17.04.2022
1951 Clouds 3 1013 69 10000 0.45 28 12:56 17.04.2022
1952 Clouds 3 1011 70 10000 2.24 243 11:53 17.04.2022
1953 Clouds 5 1010 68 10000 1.34 351 10:40 17.04.2022
1954 Clouds 5 1009 68 10000 0.89 202 10:19 17.04.2022
1955 Clouds 6 1009 66 10000 1.34 71 09:28 17.04.2022
1956 Rain 7 1012 54 10000 3.58 340 08:42 17.04.2022
1957 Clouds 8 1009 43 10000 1.34 215 06:59 17.04.2022
1958 Clouds 11 1008 34 10000 0.45 302 03:53 17.04.2022
1959 Clouds 12 1008 32 10000 2.68 336 00:55 17.04.2022
1960 Clouds 13 1008 30 10000 2.24 336 23:50 16.04.2022
1961 Clouds 13 1010 31 10000 1.79 345 22:27 16.04.2022
1962 Clouds 11 1012 34 10000 2.06 340 21:29 16.04.2022
1963 Clouds 8 1013 40 10000 1.34 19 19:54 16.04.2022
1964 Clouds 7 1017 39 10000 1.34 62 18:54 16.04.2022
1965 Clouds 4 1016 42 10000 0.45 97 17:40 16.04.2022
1966 Clouds 1 1016 59 10000 1.34 37 16:32 16.04.2022
1967 Clouds 0 1014 60 10000 4.04 332 15:26 16.04.2022
1968 Clouds -1 1019 61 10000 4.07 333 14:47 16.04.2022
1969 Clouds 0 1019 53 10000 0.45 58 13:56 16.04.2022
1970 Clouds 0 1018 52 10000 1.6 16 13:25 16.04.2022
1971 Clouds 1 1015 50 10000 0.45 359 11:58 16.04.2022
1972 Clear 2 1017 49 10000 1.79 320 10:37 16.04.2022
1973 Clear 2 1017 46 10000 0.89 4 09:39 16.04.2022
1974 Clear 3 1016 44 10000 1.34 13 08:56 16.04.2022
1975 Clouds 5 1017 39 10000 0.89 32 07:31 16.04.2022
1976 Clouds 6 1015 36 10000 1.79 43 06:22 16.04.2022
1977 Clear 16 1007 23 10000 3.13 54 01:53 16.04.2022
1978 Clear 18 1005 20 10000 2.68 49 00:19 16.04.2022
1979 Clear 18 1005 21 10000 2.68 65 22:52 15.04.2022
1980 Clear 17 1005 21 10000 4.47 121 22:31 15.04.2022
1981 Clear 17 1006 24 10000 2.24 65 21:35 15.04.2022
1982 Clouds 16 1005 25 10000 4.63 10 20:55 15.04.2022
1983 Clouds 15 1010 27 10000 5.14 20 19:52 15.04.2022
1984 Clear 15 1003 27 10000 5.45 276 19:33 15.04.2022
1985 Clear 15 1004 24 10000 5.13 274 18:45 15.04.2022
1986 Clear 13 1004 28 10000 1.79 51 18:23 15.04.2022
1987 Clear 12 1005 27 10000 4.47 6 17:29 15.04.2022
1988 Clear 10 1006 27 10000 1.62 164 16:25 15.04.2022
1989 Clear 10 1005 32 10000 1.34 186 15:54 15.04.2022
1990 Clouds 7 1004 32 10000 0.89 322 14:22 15.04.2022
1991 Clouds 7 1003 28 10000 1.34 189 12:53 15.04.2022
1992 Clouds 7 1004 28 10000 1.34 72 12:28 15.04.2022
1993 Clouds 6 1004 29 10000 0.45 13 11:54 15.04.2022
1994 Clouds 6 1005 30 10000 3 189 10:48 15.04.2022
1995 Clouds 6 1006 30 10000 2.93 174 10:21 15.04.2022
1996 Clouds 5 1006 30 10000 0.45 0 09:23 15.04.2022
1997 Clouds 6 1007 29 10000 5.14 170 08:57 15.04.2022
1998 Clouds 6 1009 30 10000 2.06 138 06:55 15.04.2022
1999 Clouds 6 1010 31 10000 0.45 257 05:56 15.04.2022
2000 Clouds 14 1008 14 10000 5.36 282 01:28 15.04.2022
2001 Clouds 14 1009 18 10000 5.81 265 23:29 14.04.2022
2002 Clouds 14 1009 18 10000 5.36 283 22:46 14.04.2022
2003 Clouds 14 1009 17 10000 8.75 270 22:27 14.04.2022
2004 Clouds 13 1009 18 10000 4.92 260 21:53 14.04.2022
2005 Clear 11 1010 22 10000 4.92 274 19:57 14.04.2022
2006 Clear 10 1011 22 10000 4.92 277 19:22 14.04.2022
2007 Clear 8 1012 24 10000 2.68 32 17:56 14.04.2022
2008 Clear 6 1013 26 10000 2.24 268 17:27 14.04.2022
2009 Clear 4 1013 33 10000 0.89 82 16:32 14.04.2022
2010 Clear -3 1014 50 10000 5 276 14:20 14.04.2022
2011 Clear -3 1013 52 10000 1.74 237 13:26 14.04.2022
2012 Clear -3 1015 53 10000 0.89 169 12:38 14.04.2022
2013 Clear -3 1015 54 10000 0.45 95 12:19 14.04.2022
2014 Clear -3 1015 54 10000 1.34 188 11:21 14.04.2022
2015 Clear -2 1015 52 10000 0.45 189 10:36 14.04.2022
2016 Clear -2 1016 51 10000 0.89 267 09:52 14.04.2022
2017 Clear -1 1015 47 10000 2.68 336 08:39 14.04.2022
2018 Clouds 0 1014 48 10000 2.68 300 06:26 14.04.2022
2019 Clouds 3 1011 29 10000 8.23 250 01:49 14.04.2022
2020 Clouds 3 1011 26 10000 6.26 320 22:45 13.04.2022
2021 Clouds 3 1010 25 10000 4.02 254 21:44 13.04.2022
2022 Clouds 3 1009 24 10000 8.75 260 20:48 13.04.2022
2023 Clouds 3 1009 22 10000 6.26 285 20:18 13.04.2022
2024 Clouds 2 1009 30 10000 5.36 328 18:50 13.04.2022
2025 Clouds 0 1008 38 10000 0.45 286 17:54 13.04.2022
2026 Clouds -1 1009 47 10000 1.34 204 17:23 13.04.2022
2027 Clouds -4 1011 54 10000 2.57 250 16:24 13.04.2022
2028 Clouds -5 1013 44 10000 3.02 30 15:31 13.04.2022
2029 Clouds -6 1013 59 10000 3.06 29 14:50 13.04.2022
2030 Clouds -5 1012 59 10000 3.02 24 13:57 13.04.2022
2031 Clouds -4 1007 53 10000 0.89 80 12:59 13.04.2022
2032 Clear -3 1007 49 10000 0.45 130 12:19 13.04.2022
2033 Clouds -2 1006 44 10000 4.12 70 10:44 13.04.2022
2034 Clear 0 1004 37 10000 2.24 323 08:50 13.04.2022
2035 Clouds 0 1004 35 10000 3.13 323 08:28 13.04.2022
2036 Clear 2 1004 27 10000 2.24 303 06:50 13.04.2022
2037 Clear 2 1003 26 10000 3.58 236 06:25 13.04.2022
2038 Clear 6 997 25 10000 4.02 76 03:31 13.04.2022
2039 Clouds 12 992 19 10000 3.13 41 00:20 13.04.2022
2040 Clouds 13 991 20 10000 4.47 44 22:46 12.04.2022
2041 Clouds 13 991 19 10000 4.02 309 21:57 12.04.2022
2042 Clear 12 991 20 10000 0.89 145 20:49 12.04.2022
2043 Clouds 11 992 24 10000 1.54 150 20:27 12.04.2022
2044 Clouds 11 995 26 10000 0.89 133 19:47 12.04.2022
2045 Clouds 10 989 28 10000 8.43 221 19:28 12.04.2022
2046 Clouds 9 989 42 10000 9.5 226 17:50 12.04.2022
2047 Clouds 9 992 37 10000 0.45 105 16:50 12.04.2022
2048 Clouds 11 986 36 10000 3.13 341 15:39 12.04.2022
2049 Clear 12 985 35 10000 3.13 189 15:21 12.04.2022
2050 Clear 13 983 32 10000 3.58 259 13:54 12.04.2022
2051 Clear 13 983 31 10000 3.58 185 13:27 12.04.2022
2052 Clear 14 984 30 10000 4.47 202 12:31 12.04.2022
2053 Clear 14 984 32 10000 3.58 189 11:40 12.04.2022
2054 Clouds 13 985 35 10000 12.35 210 10:29 12.04.2022
2055 Clear 13 986 34 10000 2.24 151 08:54 12.04.2022
2056 Clouds 14 987 31 10000 1.79 175 07:47 12.04.2022
2057 Clouds 14 990 27 10000 0.45 214 05:47 12.04.2022
2058 Clouds 17 992 19 10000 0.89 250 02:53 12.04.2022
2059 Clouds 17 994 19 10000 1.79 205 23:36 11.04.2022
2060 Clouds 16 996 20 10000 8.75 180 22:44 11.04.2022
2061 Clouds 15 997 21 10000 2.68 345 21:36 11.04.2022
2062 Clouds 15 998 22 10000 3.13 105 20:49 11.04.2022
2063 Clear 14 1000 22 10000 2.68 55 20:28 11.04.2022
2064 Clear 13 1002 23 10000 2.68 105 19:29 11.04.2022
2065 Clear 12 1002 24 10000 1.79 121 18:59 11.04.2022
2066 Clear 11 1003 25 10000 1.79 277 18:37 11.04.2022
2067 Clear 7 1004 27 10000 1.34 114 17:44 11.04.2022
2068 Clear 5 1005 30 10000 0.89 38 16:38 11.04.2022
2069 Clouds 1 1006 36 10000 0.45 16 15:24 11.04.2022
2070 Clouds 1 1005 37 10000 0.45 340 13:44 11.04.2022
2071 Clouds 1 1005 35 10000 0.89 288 12:41 11.04.2022
2072 Clouds 2 1005 34 10000 1.79 287 12:22 11.04.2022
2073 Clouds 3 1006 30 10000 4.12 130 10:56 11.04.2022
2074 Clouds 3 1006 28 10000 1.34 136 09:58 11.04.2022
2075 Clouds 4 1006 27 10000 2.24 131 08:23 11.04.2022
2076 Clouds 8 1004 17 10000 0.89 59 04:57 11.04.2022
2077 Clear 12 1002 11 10000 5.81 267 00:30 11.04.2022
2078 Clear 13 1001 12 10000 6.26 332 22:27 10.04.2022
2079 Clear 13 1001 12 10000 6.26 332 22:27 10.04.2022
2080 Clear 13 1000 12 10000 8.05 257 21:53 10.04.2022
2081 Clear 12 1000 21 10000 4.02 250 20:55 10.04.2022
2082 Clouds 12 999 24 10000 5.36 332 20:18 10.04.2022
2083 Clouds 11 1000 36 10000 2.68 65 19:36 10.04.2022
2084 Clouds 10 1000 52 10000 2.24 84 18:50 10.04.2022
2085 Clouds 9 1000 61 10000 2.24 51 18:26 10.04.2022
2086 Clouds 7 1000 67 10000 1.79 67 17:44 10.04.2022
2087 Clouds 6 1001 75 10000 0.89 150 16:57 10.04.2022
2088 Clouds 4 1000 84 10000 0.89 182 15:38 10.04.2022
2089 Clouds 3 1000 87 10000 0.89 136 14:41 10.04.2022
2090 Clouds 3 1002 88 10000 0.45 103 13:28 10.04.2022
2091 Rain 4 1000 86 10000 1.79 13 12:27 10.04.2022
2092 Clouds 5 1000 82 10000 3.6 50 11:36 10.04.2022
2093 Clouds 6 1000 82 10000 0.89 56 10:58 10.04.2022
2094 Clouds 6 999 79 10000 1.34 337 10:27 10.04.2022
2095 Rain 7 1000 74 10000 3.13 117 09:41 10.04.2022
2096 Clouds 9 1000 55 10000 7.72 10 08:26 10.04.2022
2097 Clouds 10 999 50 10000 8.23 30 07:53 10.04.2022
2098 Clouds 12 998 46 10000 4.92 29 06:48 10.04.2022
2099 Clouds 20 995 12 10000 5.66 80 03:36 10.04.2022
2100 Clouds 20 995 13 10000 0.89 207 03:36 10.04.2022
2101 Clouds 20 995 14 10000 0.89 207 03:36 10.04.2022
2102 Clouds 24 996 11 10000 4.92 261 01:30 10.04.2022
2103 Clouds 24 998 11 10000 4.02 285 23:53 09.04.2022
2104 Clouds 24 999 11 10000 2.68 209 22:52 09.04.2022
2105 Clouds 24 1000 11 10000 2.24 246 21:51 09.04.2022
2106 Clouds 23 1001 13 10000 2.24 123 20:58 09.04.2022
2107 Clouds 23 1002 14 10000 3.13 138 20:26 09.04.2022
2108 Clouds 21 1003 16 10000 3.13 222 19:43 09.04.2022
2109 Clouds 20 1003 17 10000 3.13 167 19:21 09.04.2022
2110 Clouds 18 1005 19 10000 6.17 190 18:22 09.04.2022
2111 Clouds 17 1005 20 10000 0.89 182 17:42 09.04.2022
2112 Clouds 14 1006 26 10000 0.45 175 16:55 09.04.2022
2113 Clouds 11 1007 32 10000 0.45 148 16:28 09.04.2022
2114 Clouds 11 1008 30 10000 0.89 185 15:48 09.04.2022
2115 Clouds 10 1007 31 10000 1.34 181 14:45 09.04.2022
2116 Clouds 10 1007 32 10000 1.34 199 14:24 09.04.2022
2117 Clouds 9 1008 33 10000 0.89 211 13:21 09.04.2022
2118 Clouds 9 1008 34 10000 0.89 195 12:52 09.04.2022
2119 Clouds 9 1010 34 10000 5.66 200 11:41 09.04.2022
2120 Clear 9 1010 33 10000 0.45 188 10:21 09.04.2022
2121 Clear 9 1011 33 10000 0.89 184 09:52 09.04.2022
2122 Clear 9 1012 33 10000 0.89 190 08:57 09.04.2022
2123 Clear 10 1013 31 10000 1.34 198 07:32 09.04.2022
2124 Clouds 18 1015 15 10000 2.68 294 02:58 09.04.2022
2125 Clouds 19 1016 13 10000 1.54 80 00:30 09.04.2022
2126 Clear 19 1018 15 10000 1.79 46 22:58 08.04.2022
2127 Clear 17 1020 16 10000 1.79 89 21:34 08.04.2022
2128 Clear 16 1021 18 10000 1.79 27 20:41 08.04.2022
2129 Clear 14 1022 19 10000 1.79 176 19:39 08.04.2022
2130 Clear 11 1024 22 10000 1.34 163 18:34 08.04.2022
2131 Clear 10 1024 25 10000 1.34 175 17:55 08.04.2022
2132 Clear 8 1024 29 10000 1.34 180 17:26 08.04.2022
2133 Clear 6 1024 33 10000 1.34 179 16:51 08.04.2022
2134 Clear 3 1025 38 10000 0.89 165 16:20 08.04.2022
2135 Clear 0 1026 43 10000 0.89 222 15:27 08.04.2022
2136 Clear -1 1026 42 10000 1.77 164 14:40 08.04.2022
2137 Clear -1 1025 42 10000 2.24 166 13:55 08.04.2022
2138 Clear -1 1026 43 10000 2.2 154 13:29 08.04.2022
2139 Clear 0 1024 42 10000 2.2 154 12:42 08.04.2022
2140 Clear 0 1026 38 10000 1.54 105 10:55 08.04.2022
2141 Clear 1 1028 38 10000 1.81 88 09:41 08.04.2022
2142 Clear 1 1028 37 10000 0.89 30 08:58 08.04.2022
2143 Clear 3 1028 34 10000 3.09 350 07:38 08.04.2022
2144 Clear 4 1027 31 10000 3.89 59 06:44 08.04.2022
2145 Clear 12 1024 18 10000 4.02 35 02:27 08.04.2022
2146 Clear 12 1024 18 10000 2.24 18 00:28 08.04.2022
2147 Clear 12 1025 19 10000 3.13 57 23:38 07.04.2022
2148 Clear 11 1025 20 10000 4.02 12 22:40 07.04.2022
2149 Clear 11 1026 21 10000 4.47 16 22:22 07.04.2022
2150 Clear 10 1026 21 10000 2.68 346 21:56 07.04.2022
2151 Clear 10 1026 22 10000 4.02 11 21:19 07.04.2022
2152 Clear 9 1027 23 10000 4.92 37 20:41 07.04.2022
2153 Clear 7 1028 26 10000 6.26 344 18:58 07.04.2022
2154 Clear 5 1028 30 10000 4.47 13 17:28 07.04.2022
2155 Clear 4 1028 31 10000 4.02 43 16:45 07.04.2022
2156 Clear 3 1028 33 10000 3.13 348 16:25 07.04.2022
2157 Clear 2 1026 33 10000 0.45 296 15:37 07.04.2022
2158 Clouds -1 1025 38 10000 0.45 270 13:51 07.04.2022
2159 Clouds -1 1026 38 10000 2.73 346 13:23 07.04.2022
2160 Clouds -1 1027 37 10000 1.77 7 11:49 07.04.2022
2161 Clouds 1 1026 33 10000 2.77 13 10:30 07.04.2022
2162 Clouds 1 1026 33 10000 4.62 316 08:40 07.04.2022
2163 Clouds 3 1025 29 10000 0.89 272 06:58 07.04.2022
2164 Clouds 5 1023 20 10000 2.68 320 03:59 07.04.2022
2165 Clouds 7 1022 14 10000 4.47 294 02:28 07.04.2022
2166 Clouds 8 1021 14 10000 6.26 322 00:42 07.04.2022
2167 Clouds 8 1021 16 10000 4.47 294 22:58 06.04.2022
2168 Clouds 8 1021 16 10000 4.02 326 22:39 06.04.2022
2169 Clouds 8 1020 16 10000 4.92 281 21:47 06.04.2022
2170 Clouds 7 1020 17 10000 6.17 300 20:41 06.04.2022
2171 Clear 6 1021 18 10000 5.81 282 19:59 06.04.2022
2172 Clear 5 1020 19 10000 5.81 11 18:53 06.04.2022
2173 Clear 5 1020 19 10000 5.81 292 18:34 06.04.2022
2174 Clear 3 1019 23 10000 8.94 270 17:35 06.04.2022
2175 Clear 2 1019 27 10000 4.92 301 16:39 06.04.2022
2176 Clear 1 1019 30 10000 6.71 274 15:49 06.04.2022
2177 Clear 0 1018 30 10000 4.92 305 15:30 06.04.2022
2178 Clouds 0 1016 31 10000 6.69 280 13:30 06.04.2022
2179 Clear 0 1015 31 10000 4.02 285 12:28 06.04.2022
2180 Clear 1 1015 32 10000 4.47 296 10:54 06.04.2022
2181 Clear 1 1014 32 10000 5.36 294 10:32 06.04.2022
2182 Clear 1 1014 33 10000 5.81 271 09:43 06.04.2022
2183 Clear 1 1013 36 10000 7.6 305 08:36 06.04.2022
2184 Clear 2 1013 37 10000 5.36 331 07:56 06.04.2022
2185 Clear 4 1007 33 10000 9.83 311 04:42 06.04.2022
2186 Clear 12 997 36 10000 5.36 359 23:57 05.04.2022
2187 Clear 13 997 39 10000 3.13 265 23:22 05.04.2022
2188 Clouds 12 995 46 10000 0.89 152 21:31 05.04.2022
2189 Clouds 12 997 44 10000 0.89 219 20:54 05.04.2022
2190 Clouds 12 996 46 10000 7.16 320 20:23 05.04.2022
2191 Clouds 11 997 51 10000 7.21 290 18:26 05.04.2022
2192 Clouds 16 994 32 10000 4.02 277 17:20 05.04.2022
2193 Clouds 16 994 30 10000 2.68 286 16:41 05.04.2022
2194 Clouds 14 992 31 10000 4.47 288 15:49 05.04.2022
2195 Clouds 14 991 31 10000 10.8 280 15:29 05.04.2022
2196 Clouds 14 994 29 10000 1.79 250 13:42 05.04.2022
2197 Clouds 13 993 28 10000 1.34 217 11:51 05.04.2022
2198 Clouds 13 993 28 10000 1.34 200 11:33 05.04.2022
2199 Clouds 13 993 28 10000 0.89 157 10:57 05.04.2022
2200 Clouds 13 996 27 10000 2.24 234 09:29 05.04.2022
2201 Clouds 14 996 27 10000 3.13 256 08:22 05.04.2022
2202 Clouds 17 997 16 10000 2.68 278 02:58 05.04.2022
2203 Clear 20 1000 15 10000 1.79 103 23:22 04.04.2022
2204 Clear 19 1002 16 10000 2.68 99 22:32 04.04.2022
2205 Clear 18 1003 16 10000 1.79 153 21:43 04.04.2022
2206 Clouds 18 1004 15 10000 3.6 90 21:18 04.04.2022
2207 Clear 17 1005 17 10000 2.24 127 20:46 04.04.2022
2208 Clouds 15 1007 28 10000 1.79 247 19:27 04.04.2022
2209 Clouds 13 1008 37 10000 0.89 128 18:39 04.04.2022
2210 Clouds 9 1009 54 10000 1.34 163 17:19 04.04.2022
2211 Clouds 7 1009 63 10000 0.89 176 16:27 04.04.2022
2212 Clouds 5 1010 71 10000 1.34 171 15:33 04.04.2022
2213 Clouds 4 1010 71 10000 0.89 197 14:46 04.04.2022
2214 Clouds 4 1010 67 10000 0.4 182 13:58 04.04.2022
2215 Clouds 4 1010 67 10000 0.82 330 12:58 04.04.2022
2216 Clouds 4 1011 66 10000 1.7 330 11:29 04.04.2022
2217 Clouds 5 1010 63 10000 2.22 329 09:53 04.04.2022
2218 Clouds 7 1013 47 10000 5.14 130 05:34 04.04.2022
2219 Clouds 10 1012 38 10000 2.24 109 02:51 04.04.2022
2220 Clouds 11 1013 37 10000 1.79 18 22:54 03.04.2022
2221 Clouds 10 1013 40 10000 1.79 63 21:59 03.04.2022
2222 Clouds 9 1013 40 10000 1.34 38 21:27 03.04.2022
2223 Clouds 8 1014 43 10000 1.79 113 20:30 03.04.2022
2224 Clouds 8 1014 46 10000 1.34 32 18:46 03.04.2022
2225 Clouds 7 1014 48 10000 1.79 59 17:55 03.04.2022
2226 Clouds 7 1014 48 10000 1.79 40 17:35 03.04.2022
2227 Clouds 7 1014 50 10000 1.79 30 16:49 03.04.2022
2228 Clouds 6 1013 51 10000 1.34 52 15:46 03.04.2022
2229 Clouds 7 1012 50 10000 0.89 128 14:20 03.04.2022
2230 Clouds 7 1011 49 10000 0.89 25 12:59 03.04.2022
2231 Clouds 8 1011 46 10000 0.89 16 11:39 03.04.2022
2232 Clouds 9 1008 41 10000 0.89 320 09:57 03.04.2022
2233 Clouds 9 1009 43 10000 0.45 243 08:57 03.04.2022
2234 Clouds 12 1010 36 10000 0.89 265 05:45 03.04.2022
2235 Clouds 18 1008 21 10000 0.89 63 02:55 03.04.2022
2236 Clouds 19 1010 24 10000 2.24 23 23:35 02.04.2022
2237 Clouds 18 1011 26 10000 2.24 356 22:43 02.04.2022
2238 Clear 16 1012 28 10000 4.12 50 21:55 02.04.2022
2239 Clouds 15 1012 30 10000 1.34 40 21:19 02.04.2022
2240 Clouds 14 1013 33 10000 1.34 30 20:36 02.04.2022
2241 Clouds 10 1015 45 10000 1.34 288 18:47 02.04.2022
2242 Clouds 8 1015 49 10000 0.89 40 18:19 02.04.2022
2243 Clouds 5 1015 58 10000 0.89 11 16:50 02.04.2022
2244 Clouds 2 1012 61 10000 0.45 253 15:42 02.04.2022
2245 Clouds 1 1012 66 10000 0.45 295 15:18 02.04.2022
2246 Clouds 1 1012 63 10000 0.89 282 14:26 02.04.2022
2247 Clouds 2 1011 61 10000 0.45 326 13:31 02.04.2022
2248 Clouds 3 1013 55 10000 0.45 325 12:21 02.04.2022
2249 Clouds 5 1009 48 10000 1.64 8 10:31 02.04.2022
2250 Clouds 6 1013 49 10000 0.45 265 07:52 02.04.2022
2251 Clear 10 1012 32 10000 1.34 344 04:34 02.04.2022
2252 Clear 13 1009 24 10000 5.36 329 02:37 02.04.2022
2253 Clear 15 1007 22 10000 3.13 311 23:54 01.04.2022
2254 Clouds 14 1008 22 10000 4.63 360 22:46 01.04.2022
2255 Clouds 13 1009 27 10000 6.17 40 21:22 01.04.2022
2256 Clouds 12 1009 32 10000 1.79 59 20:46 01.04.2022
2257 Clouds 10 1010 43 10000 6.17 10 19:45 01.04.2022
2258 Clouds 9 1009 46 10000 3.13 40 19:25 01.04.2022
2259 Clouds 8 1009 51 10000 2.68 93 18:37 01.04.2022
2260 Clouds 8 1008 49 10000 3.58 39 17:38 01.04.2022
2261 Clouds 6 1007 56 10000 0.89 58 15:46 01.04.2022
2262 Clouds 6 1006 55 10000 0.45 110 14:53 01.04.2022
2263 Clouds 6 1005 50 10000 1.68 60 13:39 01.04.2022
2264 Clouds 7 1004 44 10000 1.34 40 12:34 01.04.2022
2265 Clouds 7 1004 43 10000 3.13 11 11:47 01.04.2022
2266 Clouds 7 1003 44 10000 3.02 305 10:50 01.04.2022
2267 Clouds 7 1003 42 10000 0.45 248 09:39 01.04.2022
2268 Clouds 10 1003 35 10000 1.34 175 07:31 01.04.2022
2269 Clouds 12 1004 30 10000 7.2 180 04:59 01.04.2022
2270 Clouds 12 1003 30 10000 1.34 158 04:39 01.04.2022
2271 Clouds 15 1003 22 10000 1.79 137 02:37 01.04.2022
2272 Clouds 16 1004 20 10000 1.79 269 01:33 01.04.2022
2273 Clear 17 1006 17 10000 2.24 123 22:31 31.03.2022
2274 Clouds 16 1007 17 10000 3.09 70 21:39 31.03.2022
2275 Clouds 15 1007 17 10000 3.6 350 20:51 31.03.2022
2276 Clear 15 1008 18 10000 2.24 137 20:28 31.03.2022
2277 Clear 14 1009 22 10000 0.89 124 19:21 31.03.2022
2278 Clear 11 1009 30 10000 0.89 138 18:33 31.03.2022
2279 Clear 6 1010 47 10000 1.79 227 16:47 31.03.2022
2280 Clear 3 1008 54 10000 1.97 209 15:54 31.03.2022
2281 Clear 0 1010 59 10000 0.45 144 15:24 31.03.2022
2282 Clear 0 1007 61 10000 2.01 205 14:44 31.03.2022
2283 Clear 0 1006 61 10000 1.93 202 13:28 31.03.2022
2284 Clear -1 1006 63 10000 1.79 195 11:30 31.03.2022
2285 Clear 0 1010 66 10000 0.45 92 10:22 31.03.2022
2286 Clear 0 1010 66 10000 0.45 276 09:39 31.03.2022
2287 Clouds 1 1011 62 10000 1.01 144 07:48 31.03.2022
2288 Clouds 7 1007 29 10000 9.26 360 01:37 31.03.2022
2289 Clouds 7 1006 36 10000 3.13 339 23:23 30.03.2022
2290 Clouds 7 1007 44 10000 1.79 327 21:54 30.03.2022
2291 Clouds 6 1007 50 10000 1.79 89 21:27 30.03.2022
2292 Clouds 5 1008 55 10000 1.34 204 20:32 30.03.2022
2293 Clouds 4 1008 61 10000 1.34 68 19:47 30.03.2022
2294 Clouds 2 1009 69 10000 2.24 119 18:41 30.03.2022
2295 Clouds 1 1009 74 10000 1.79 202 17:50 30.03.2022
2296 Clouds -1 1009 79 10000 1.34 128 16:58 30.03.2022
2297 Clouds -1 1010 79 10000 0.89 127 16:39 30.03.2022
2298 Clouds -2 1010 80 10000 2.06 100 15:38 30.03.2022
2299 Clouds -2 1008 80 10000 1.34 100 14:18 30.03.2022
2300 Clouds -1 1008 80 10000 0.89 121 13:20 30.03.2022
2301 Clouds -1 1007 81 10000 2.57 30 11:55 30.03.2022
2302 Clouds 0 1008 82 10000 1.34 90 10:38 30.03.2022
2303 Clouds 1 1007 84 10000 1.79 61 09:28 30.03.2022
2304 Snow 2 1006 84 10000 0.89 30 07:59 30.03.2022
2305 Snow 3 1005 87 8047 8.75 20 05:41 30.03.2022
2306 Clouds 3 1004 87 2289 2.24 29 04:54 30.03.2022
2307 Clouds 7 995 84 5835 3.58 18 00:43 30.03.2022
2308 Rain 9 993 73 10000 3.13 20 22:35 29.03.2022
2309 Clouds 10 993 72 10000 3.58 55 21:46 29.03.2022
2310 Clouds 11 993 60 10000 3.58 11 20:55 29.03.2022
2311 Clouds 10 999 62 10000 5.14 360 20:24 29.03.2022
2312 Clouds 10 993 60 4907 1.34 188 18:57 29.03.2022
2313 Clouds 10 992 62 4907 2.24 208 18:36 29.03.2022
2314 Clouds 9 993 64 10000 0.45 206 17:37 29.03.2022
2315 Clouds 9 994 64 10000 4.12 200 16:58 29.03.2022
2316 Clouds 10 995 49 10000 0.89 32 15:58 29.03.2022
2317 Clouds 9 995 46 10000 0 0 14:53 29.03.2022
2318 Clouds 10 995 46 10000 2.26 165 14:22 29.03.2022
2319 Clouds 11 994 41 10000 0.45 316 12:55 29.03.2022
2320 Clouds 11 987 34 10000 1.63 156 11:44 29.03.2022
2321 Clouds 12 993 30 10000 3.09 230 10:55 29.03.2022
2322 Clouds 13 988 27 10000 0.45 178 09:49 29.03.2022
2323 Clouds 14 995 24 10000 0.45 169 08:20 29.03.2022
2324 Clouds 17 998 19 10000 1.34 343 05:35 29.03.2022
2325 Clouds 24 999 9 10000 1.79 67 00:50 29.03.2022
2326 Clouds 25 1002 9 10000 2.68 28 23:24 28.03.2022
2327 Clouds 25 1002 9 10000 1.79 44 22:54 28.03.2022
2328 Clouds 24 1002 10 10000 1.79 71 22:26 28.03.2022
2329 Clouds 23 1005 12 10000 0.89 169 20:58 28.03.2022
2330 Clouds 22 1005 12 10000 0.89 104 20:23 28.03.2022
2331 Clouds 22 1006 13 10000 0.89 129 19:45 28.03.2022
2332 Clouds 21 1007 15 10000 3.09 210 19:27 28.03.2022
2333 Clouds 19 1007 19 10000 1.34 133 18:40 28.03.2022
2334 Clouds 16 1007 26 10000 1.34 232 17:39 28.03.2022
2335 Clouds 12 1008 34 10000 0.89 196 16:21 28.03.2022
2336 Clouds 10 1006 35 10000 0.89 274 14:47 28.03.2022
2337 Clouds 11 1007 34 10000 2.11 214 14:21 28.03.2022
2338 Clouds 11 1007 35 10000 2.81 216 12:20 28.03.2022
2339 Clouds 10 1011 38 10000 4.12 180 11:24 28.03.2022
2340 Clouds 11 1007 43 10000 1.87 212 09:43 28.03.2022
2341 Clouds 11 1007 40 10000 1.73 213 09:19 28.03.2022
2342 Clouds 11 1007 44 10000 2.01 241 08:22 28.03.2022
2343 Clouds 11 1007 46 10000 1.6 222 07:28 28.03.2022
2344 Clouds 16 1007 38 10000 1.34 348 03:44 28.03.2022
2345 Clouds 21 1005 28 10000 0.89 352 23:30 27.03.2022
2346 Clouds 20 1014 33 10000 3.09 20 22:24 27.03.2022
2347 Clouds 20 1014 33 10000 3.09 20 22:24 27.03.2022
2348 Clouds 21 1007 30 10000 1.69 28 21:41 27.03.2022
2349 Clouds 20 1008 41 10000 1.39 37 20:54 27.03.2022
2350 Clouds 19 1008 41 10000 1.21 134 19:48 27.03.2022
2351 Clouds 17 1010 47 10000 1.39 157 19:20 27.03.2022
2352 Clouds 15 1011 45 10000 1.31 160 18:27 27.03.2022
2353 Clouds 12 1011 37 10000 1.31 160 17:39 27.03.2022
2354 Clouds 6 1013 56 10000 0.86 17 16:21 27.03.2022
2355 Clouds 4 1012 58 10000 1.31 35 15:18 27.03.2022
2356 Clouds 6 1012 57 10000 0.72 54 13:55 27.03.2022
2357 Clouds 7 1011 62 10000 0.57 199 12:24 27.03.2022
2358 Clouds 9 1010 59 10000 0.89 343 10:53 27.03.2022
2359 Clouds 11 1010 37 10000 0.45 310 08:43 27.03.2022
2360 Clouds 15 1010 31 10000 0.45 287 05:54 27.03.2022
2361 Clouds 23 1005 17 10000 3.58 326 00:48 27.03.2022
2362 Clouds 24 1007 15 10000 4.47 306 23:40 26.03.2022
2363 Clouds 24 1008 15 10000 4.92 285 22:36 26.03.2022
2364 Clouds 24 1009 15 10000 8.05 330 21:33 26.03.2022
2365 Clouds 24 1010 17 10000 5.81 313 20:20 26.03.2022
2366 Clouds 22 1011 20 10000 1.79 182 19:19 26.03.2022
2367 Clouds 20 1012 23 10000 1.79 325 17:51 26.03.2022
2368 Clouds 18 1010 28 10000 3 208 17:30 26.03.2022
2369 Clouds 15 1013 31 10000 2.85 206 16:25 26.03.2022
2370 Clouds 9 1015 45 10000 4.12 210 14:57 26.03.2022
2371 Clear 8 1013 45 10000 0.45 289 13:52 26.03.2022
2372 Clear 8 1014 44 10000 3.15 209 12:47 26.03.2022
2373 Clouds 7 1017 47 10000 3.09 210 11:29 26.03.2022
2374 Clear 8 1014 47 10000 2.47 220 10:18 26.03.2022
2375 Clouds 8 1014 50 10000 2.06 320 08:33 26.03.2022
2376 Clouds 9 1015 52 10000 0.89 303 05:54 26.03.2022
2377 Clouds 11 1016 43 10000 2.57 160 03:59 26.03.2022
2378 Clouds 17 1016 28 10000 3.6 300 23:39 25.03.2022
2379 Clear 15 1017 36 10000 2.24 6 21:35 25.03.2022
2380 Clear 14 1017 39 10000 1.34 30 20:46 25.03.2022
2381 Clear 11 1019 45 10000 1.79 86 19:28 25.03.2022
2382 Clear 10 1019 49 10000 2.24 88 18:47 25.03.2022
2383 Clouds 8 1021 54 10000 4.12 100 17:35 25.03.2022
2384 Clear 6 1021 57 10000 2.24 121 16:41 25.03.2022
2385 Clear 6 1021 57 10000 1.79 78 16:41 25.03.2022
2386 Clear 5 1022 62 10000 1.79 103 15:56 25.03.2022
2387 Clear 3 1022 69 10000 1.09 60 13:58 25.03.2022
2388 Clear 4 1021 69 10000 1.79 4 12:32 25.03.2022
2389 Clouds 7 1018 48 10000 2.57 360 09:52 25.03.2022
2390 Clear 7 1018 45 10000 0.89 15 09:23 25.03.2022
2391 Clear 8 1016 40 10000 4.12 190 07:51 25.03.2022
2392 Clear 8 1016 41 10000 1.34 189 07:23 25.03.2022
2393 Clear 11 1016 32 10000 0.89 302 04:47 25.03.2022
2394 Clouds 18 1014 19 10000 5.66 290 00:33 25.03.2022
2395 Clouds 19 1013 19 10000 4.47 272 22:30 24.03.2022
2396 Clouds 18 1014 21 10000 3.13 296 21:34 24.03.2022
2397 Clouds 17 1015 23 10000 4.92 315 19:50 24.03.2022
2398 Clouds 16 1015 24 10000 5.81 305 18:54 24.03.2022
2399 Clouds 15 1015 26 10000 5.36 304 17:39 24.03.2022
2400 Clouds 11 1016 35 10000 3.6 260 16:44 24.03.2022
2401 Clear 4 1015 51 10000 0.45 155 15:19 24.03.2022
2402 Clouds 3 1014 52 10000 4.12 190 14:41 24.03.2022
2403 Clouds 1 1013 53 10000 4.63 180 13:54 24.03.2022
2404 Clouds 1 1013 52 10000 3.6 180 12:39 24.03.2022
2405 Clear 1 1014 49 10000 2.3 213 11:31 24.03.2022
2406 Clear 2 1016 49 10000 0.45 233 09:36 24.03.2022
2407 Clear 2 1016 48 10000 0.89 226 08:40 24.03.2022
2408 Clear 3 1017 40 10000 2.25 215 06:19 24.03.2022
2409 Clear 12 1016 18 10000 5.36 48 01:28 24.03.2022
2410 Clear 12 1017 17 10000 5.36 359 22:29 23.03.2022
2411 Clear 12 1018 18 10000 5.81 333 21:25 23.03.2022
2412 Clear 11 1019 18 10000 7.6 15 20:47 23.03.2022
2413 Clear 10 1019 19 10000 7.6 329 19:40 23.03.2022
2414 Clear 9 1020 20 10000 8.49 24 18:22 23.03.2022
2415 Clear 8 1019 22 10000 7.15 340 17:31 23.03.2022
2416 Clear 4 1020 36 10000 2.24 334 16:18 23.03.2022
2417 Clear -1 1018 49 10000 1.92 265 14:49 23.03.2022
2418 Clear -2 1021 58 10000 1.95 244 13:34 23.03.2022
2419 Clouds -2 1021 56 10000 0.45 351 11:38 23.03.2022
2420 Clouds -1 1022 59 10000 1.34 272 08:51 23.03.2022
2421 Clouds -1 1021 70 10000 3.84 340 06:26 23.03.2022
2422 Clouds 1 1022 61 10000 1.79 30 03:52 23.03.2022
2423 Clouds 4 1021 48 10000 12.35 360 00:28 23.03.2022
2424 Clouds 6 1020 40 10000 11.83 10 21:56 22.03.2022
2425 Clouds 6 1020 41 10000 11.83 10 21:26 22.03.2022
2426 Clouds 5 1021 41 10000 5.36 315 20:30 22.03.2022
2427 Clouds 4 1021 40 10000 5.36 17 19:27 22.03.2022
2428 Clouds 4 1021 38 10000 4.02 58 18:50 22.03.2022
2429 Clouds 3 1021 39 10000 3.13 329 17:44 22.03.2022
2430 Clouds 3 1022 42 10000 3.58 315 17:18 22.03.2022
2431 Clouds 1 1021 47 10000 5.14 330 15:49 22.03.2022
2432 Clear 0 1021 50 10000 2.68 313 15:21 22.03.2022
2433 Clear -1 1021 55 10000 1.34 355 14:45 22.03.2022
2434 Clouds -1 1021 55 10000 5.66 330 14:24 22.03.2022
2435 Clouds -2 1020 61 10000 0.45 336 12:40 22.03.2022
2436 Clouds -2 1020 62 10000 1.79 336 11:26 22.03.2022
2437 Clouds -1 1019 58 10000 2.24 11 09:52 22.03.2022
2438 Clouds 0 1019 52 10000 4.02 328 07:44 22.03.2022
2439 Clouds 2 1017 50 10000 3.58 58 04:29 22.03.2022
2440 Clouds 4 1016 57 10000 0.89 84 02:52 22.03.2022
2441 Clouds 4 1013 59 10000 3.58 64 23:19 21.03.2022
2442 Clouds 3 1014 69 10000 2.24 38 21:39 21.03.2022
2443 Clouds 2 1014 72 10000 3.13 350 20:44 21.03.2022
2444 Rain 2 1014 75 10000 3.58 355 20:24 21.03.2022
2445 Snow 1 1014 77 10000 1.79 24 19:48 21.03.2022
2446 Mist 1 1015 79 6437 8.75 20 18:59 21.03.2022
2447 Snow 0 1015 85 224 1.79 20 17:36 21.03.2022
2448 Snow 0 1015 81 4828 9.77 20 16:59 21.03.2022
2449 Snow 0 1014 77 176 2.24 43 16:35 21.03.2022
2450 Clouds 0 1014 73 182 2.68 20 15:44 21.03.2022
2451 Clouds 0 1013 78 10000 5.66 30 14:45 21.03.2022
2452 Clouds 1 1012 77 10000 7.72 20 13:20 21.03.2022
2453 Clouds 5 1009 68 10000 3.58 97 11:59 21.03.2022
2454 Clouds 6 1008 60 10000 2.68 37 11:28 21.03.2022
2455 Clouds 6 1006 54 10000 1.34 69 09:53 21.03.2022
2456 Clouds 8 1004 45 10000 0.45 355 07:53 21.03.2022
2457 Clouds 9 1004 41 10000 0 0 06:29 21.03.2022
2458 Clouds 14 1001 25 10000 4.02 345 02:23 21.03.2022
2459 Clouds 18 1000 16 10000 3.58 210 22:57 20.03.2022
2460 Clouds 18 1001 16 10000 2.24 214 22:29 20.03.2022
2461 Clouds 18 1002 15 10000 2.68 136 21:40 20.03.2022
2462 Clouds 18 1003 16 10000 2.68 110 20:56 20.03.2022
2463 Clouds 17 1003 17 10000 2.24 124 20:36 20.03.2022
2464 Clouds 17 1004 16 10000 9.26 200 19:54 20.03.2022
2465 Clouds 16 1005 17 10000 2.24 183 19:24 20.03.2022
2466 Clouds 13 1006 24 10000 2.24 186 17:49 20.03.2022
2467 Clouds 12 1006 28 10000 1.79 185 17:27 20.03.2022
2468 Clouds 9 1007 31 10000 7.2 190 16:38 20.03.2022
2469 Clouds 5 1008 40 10000 1.79 205 14:50 20.03.2022
2470 Clouds 4 1009 42 10000 1.34 201 13:39 20.03.2022
2471 Clouds 4 1009 44 10000 2.38 211 12:20 20.03.2022
2472 Clouds 4 1009 47 10000 0.45 288 10:28 20.03.2022
2473 Clouds 6 1009 45 10000 0.45 281 08:26 20.03.2022
2474 Clouds 7 1011 44 10000 1.34 186 06:39 20.03.2022
2475 Clouds 9 1012 37 10000 0.89 136 03:25 20.03.2022
2476 Clouds 14 1013 23 10000 1.79 112 00:54 20.03.2022
2477 Clear 14 1013 23 10000 6.17 130 00:54 20.03.2022
2478 Clouds 15 1013 22 10000 2.24 167 00:34 20.03.2022
2479 Clouds 15 1014 21 10000 2.24 114 22:39 19.03.2022
2480 Clouds 14 1015 21 10000 1.79 123 21:26 19.03.2022
2481 Clouds 12 1017 26 10000 2.24 124 19:39 19.03.2022
2482 Clear 11 1018 30 10000 1.79 144 18:44 19.03.2022
2483 Clear 9 1019 33 10000 1.34 182 17:52 19.03.2022
2484 Clear 8 1019 36 10000 1.34 140 17:33 19.03.2022
2485 Clouds 3 1020 48 10000 5.14 180 15:40 19.03.2022
2486 Clear -1 1019 57 10000 0.89 190 14:19 19.03.2022
2487 Clouds -1 1018 55 10000 4.63 190 12:56 19.03.2022
2488 Clear -1 1018 58 10000 0.45 191 12:37 19.03.2022
2489 Clear 0 1018 57 10000 0.89 278 11:46 19.03.2022
2490 Clear 0 1019 58 10000 0.45 152 09:31 19.03.2022
2491 Clouds 3 1019 46 10000 0.45 218 05:44 19.03.2022
2492 Clouds 7 1017 30 10000 1.79 315 02:34 19.03.2022
2493 Clouds 10 1016 26 10000 4.47 308 00:32 19.03.2022
2494 Clouds 10 1016 31 10000 3.13 315 22:59 18.03.2022
2495 Clouds 10 1016 33 10000 0.89 273 22:22 18.03.2022
2496 Clouds 10 1016 33 10000 0.89 273 22:22 18.03.2022
2497 Clouds 8 1017 41 10000 1.79 136 20:31 18.03.2022
2498 Clear 7 1018 45 10000 1.34 165 19:45 18.03.2022
2499 Clear 6 1018 48 10000 1.34 134 19:18 18.03.2022
2500 Rain 1 1020 62 10000 1.34 127 16:59 18.03.2022
2501 Rain 1 1020 65 10000 0.89 222 16:34 18.03.2022
2502 Clear -5 1019 82 10000 0.89 192 14:29 18.03.2022
2503 Clear -5 1020 83 10000 0.45 180 13:41 18.03.2022
2504 Clouds -4 1019 84 10000 0.89 190 11:43 18.03.2022
2505 Clouds -4 1020 84 10000 0.89 217 10:27 18.03.2022
2506 Snow -2 1021 87 10000 1.54 210 08:50 18.03.2022
2507 Clouds -1 1022 87 10000 0.45 294 07:26 18.03.2022
2508 Clouds 0 1022 87 10000 0.45 252 05:20 18.03.2022
2509 Rain 1 1021 84 10000 0.45 275 01:51 18.03.2022
2510 Clouds 2 1020 83 10000 0.45 10 00:20 18.03.2022
2511 Rain 2 1020 86 10000 1.34 79 22:54 17.03.2022
2512 Snow 2 1020 88 10000 4.12 360 22:20 17.03.2022
2513 Snow 1 1020 89 10000 1.79 14 21:31 17.03.2022
2514 Snow 1 1021 89 10000 2.24 27 20:54 17.03.2022
2515 Snow 1 1021 90 5868 1.79 351 20:20 17.03.2022
2516 Snow 1 1021 91 5868 2.68 0 19:38 17.03.2022
2517 Snow 0 1021 92 4114 2.68 325 18:53 17.03.2022
2518 Snow 0 1020 93 1851 2.68 339 17:40 17.03.2022
2519 Snow 0 1019 93 258 2.24 335 16:20 17.03.2022
2520 Snow 0 1019 94 258 2.24 26 15:43 17.03.2022
2521 Snow 0 1018 94 87 2.68 44 14:59 17.03.2022
2522 Snow 0 1016 93 1207 7.2 10 13:47 17.03.2022
2523 Snow 0 1014 94 3160 1.79 4 12:47 17.03.2022
2524 Snow 1 1013 93 10000 2.68 17 11:36 17.03.2022
2525 Snow 1 1012 93 10000 0.89 356 10:44 17.03.2022
2526 Snow 1 1012 93 71 1.1 298 09:37 17.03.2022
2527 Snow 1 1012 92 33 0.28 323 08:19 17.03.2022
2528 Rain 1 1012 90 6437 4.12 350 05:51 17.03.2022
2529 Rain 3 1012 88 28 1.79 330 04:40 17.03.2022
2530 Rain 10 1009 54 10000 3.6 40 00:27 17.03.2022
2531 Clouds 12 1008 40 10000 1.79 107 22:56 16.03.2022
2532 Clouds 12 1008 40 10000 2.06 70 22:36 16.03.2022
2533 Clouds 12 1008 40 10000 2.24 103 21:56 16.03.2022
2534 Clouds 11 1009 42 10000 2.24 75 20:40 16.03.2022
2535 Clouds 11 1010 41 10000 3.13 112 19:23 16.03.2022
2536 Clouds 10 1011 41 10000 2.24 67 18:42 16.03.2022
2537 Clouds 9 1011 41 10000 2.24 37 17:49 16.03.2022
2538 Clouds 9 1011 41 10000 1.34 115 17:31 16.03.2022
2539 Clouds 8 1011 42 10000 0.45 101 16:21 16.03.2022
2540 Clouds 6 1011 44 10000 2.06 330 14:50 16.03.2022
2541 Clouds 6 1010 47 10000 0.45 148 13:36 16.03.2022
2542 Clouds 6 1010 44 10000 0.45 199 12:43 16.03.2022
2543 Clouds 7 1011 42 10000 1.34 99 11:23 16.03.2022
2544 Clouds 7 1010 40 10000 3.6 200 10:30 16.03.2022
2545 Clouds 7 1010 41 10000 1.34 119 09:56 16.03.2022
2546 Clouds 8 1012 36 10000 1.82 225 07:23 16.03.2022
2547 Clouds 14 1011 16 10000 0.45 241 02:44 16.03.2022
2548 Clear 20 1013 9 10000 2.24 36 22:55 15.03.2022
2549 Clear 20 1013 9 10000 2.24 331 22:35 15.03.2022
2550 Clear 19 1015 10 10000 1.34 13 20:55 15.03.2022
2551 Clouds 18 1017 10 10000 2.57 290 19:37 15.03.2022
2552 Clouds 13 1019 20 10000 1.34 241 17:42 15.03.2022
2553 Clouds 10 1019 29 10000 1.34 171 16:35 15.03.2022
2554 Clouds 4 1021 42 10000 1.34 194 15:28 15.03.2022
2555 Clouds 3 1020 46 10000 0.89 179 14:52 15.03.2022
2556 Clear 2 1020 46 10000 1.79 205 13:55 15.03.2022
2557 Clouds 2 1020 46 10000 0.45 184 13:21 15.03.2022
2558 Clouds 2 1021 50 10000 0.89 183 11:32 15.03.2022
2559 Clouds 2 1022 47 10000 6.17 180 10:22 15.03.2022
2560 Clear 2 1022 49 10000 0.89 153 08:53 15.03.2022
2561 Clear 3 1022 48 10000 0.45 151 07:53 15.03.2022
2562 Clear 3 1022 48 10000 0.89 183 07:35 15.03.2022
2563 Clear 4 1023 46 10000 0.45 190 05:45 15.03.2022
2564 Clouds 13 1020 25 10000 1.79 53 00:25 15.03.2022
2565 Clouds 13 1020 25 10000 1.54 360 23:26 14.03.2022
2566 Clouds 13 1020 26 10000 2.57 340 22:44 14.03.2022
2567 Clear 12 1020 28 10000 2.24 111 21:51 14.03.2022
2568 Clear 11 1020 30 10000 2.24 55 20:55 14.03.2022
2569 Clouds 10 1021 32 10000 4.12 360 20:24 14.03.2022
2570 Clouds 9 1021 35 10000 1.34 105 19:22 14.03.2022
2571 Clear 8 1020 41 10000 3.13 346 17:55 14.03.2022
2572 Clear 7 1020 44 10000 2.68 42 17:25 14.03.2022
2573 Clear 5 1019 49 10000 3.58 360 16:26 14.03.2022
2574 Clear 0 1018 61 10000 3.09 30 14:42 14.03.2022
2575 Clouds 1 1014 55 10000 0.45 73 12:55 14.03.2022
2576 Clouds 4 1012 50 10000 0.45 355 10:57 14.03.2022
2577 Clouds 5 1012 49 10000 0.45 261 09:56 14.03.2022
2578 Clouds 5 1012 48 10000 1.54 20 09:23 14.03.2022
2579 Clouds 5 1011 48 10000 1.34 21 08:57 14.03.2022
2580 Clouds 6 1010 47 10000 1.79 306 08:20 14.03.2022
2581 Clouds 7 1008 46 10000 1.79 18 05:46 14.03.2022
2582 Clouds 11 1005 29 10000 1.34 336 02:51 14.03.2022
2583 Clouds 13 1005 24 10000 7.72 330 01:33 14.03.2022
2584 Clouds 16 1003 22 10000 3.13 59 23:25 13.03.2022
2585 Clouds 17 1003 20 10000 0.45 343 21:40 13.03.2022
2586 Clear 16 1003 20 10000 1.32 23 21:19 13.03.2022
2587 Clear 16 1006 21 10000 0.45 72 20:43 13.03.2022
2588 Clear 16 1005 25 10000 0.89 97 20:20 13.03.2022
2589 Clear 15 1007 23 10000 0.89 217 19:40 13.03.2022
2590 Clear 14 1009 24 10000 0.89 94 19:19 13.03.2022
2591 Clear 13 1008 26 10000 1.34 128 18:40 13.03.2022
2592 Clear 12 1009 29 10000 0.89 49 17:47 13.03.2022
2593 Clear 10 1011 34 10000 0.89 94 17:22 13.03.2022
2594 Clear 9 1010 36 10000 0.89 98 16:43 13.03.2022
2595 Clear 7 1011 44 10000 0.45 0 16:20 13.03.2022
2596 Clear 4 1011 51 10000 1.34 218 15:33 13.03.2022
2597 Clouds 1 1011 58 10000 1.54 230 13:53 13.03.2022
2598 Clouds 1 1011 58 10000 1.54 230 13:19 13.03.2022
2599 Clouds 1 1011 55 10000 1.72 222 12:19 13.03.2022
2600 Clouds 2 1012 55 10000 5.14 200 11:36 13.03.2022
2601 Clouds 2 1012 55 10000 0.45 189 10:48 13.03.2022
2602 Clouds 2 1012 55 10000 0.45 189 10:48 13.03.2022
2603 Clouds 2 1013 55 10000 3.09 190 10:24 13.03.2022
2604 Clouds 2 1013 54 10000 0.89 200 09:41 13.03.2022
2605 Clouds 2 1013 55 10000 0.89 200 09:41 13.03.2022
2606 Clouds 3 1014 51 10000 0.45 256 08:47 13.03.2022
2607 Clouds 4 1014 52 10000 0.45 182 07:47 13.03.2022
2608 Clouds 5 1015 47 10000 0.45 127 05:42 13.03.2022
2609 Clear 9 1014 19 10000 4.03 283 02:43 13.03.2022
2610 Clear 12 1015 28 10000 5.81 294 00:20 13.03.2022
2611 Clear 13 1016 27 10000 5.81 329 22:37 12.03.2022
2612 Clouds 13 1018 27 10000 7.72 290 20:54 12.03.2022
2613 Clear 12 1018 26 10000 7.15 298 19:50 12.03.2022
2614 Clear 12 1020 27 10000 3.58 320 19:32 12.03.2022
2615 Clear 10 1018 46 10000 3.36 187 18:27 12.03.2022
2616 Clear 9 1018 30 10000 3.36 187 17:34 12.03.2022
2617 Clear 2 1024 54 10000 0.45 243 16:24 12.03.2022
2618 Clear -2 1022 57 10000 0.45 197 15:23 12.03.2022
2619 Clear -3 1021 57 10000 3.19 219 14:40 12.03.2022
2620 Clear -4 1024 61 10000 0.89 224 12:56 12.03.2022
2621 Clear -4 1024 60 10000 2.94 199 11:56 12.03.2022
2622 Clear -3 1024 59 10000 2.94 199 11:38 12.03.2022
2623 Clear -4 1026 56 10000 2.82 199 10:58 12.03.2022
2624 Clear -4 1026 56 10000 2.82 199 10:58 12.03.2022
2625 Clear -4 1022 56 10000 0.45 72 09:45 12.03.2022
2626 Clear -4 1021 55 10000 0.89 226 08:56 12.03.2022
2627 Clear -4 1023 58 10000 6.17 200 07:20 12.03.2022
2628 Clear -2 1025 45 10000 0.89 76 02:36 12.03.2022
2629 Clear 3 1024 33 10000 2.68 328 23:56 11.03.2022
2630 Clear 3 1024 33 10000 2.68 328 23:56 11.03.2022
2631 Clear 3 1024 33 10000 2.24 334 22:56 11.03.2022
2632 Clear 2 1024 31 10000 4.92 313 21:35 11.03.2022
2633 Rain 2 1024 31 10000 5.36 330 20:54 11.03.2022
2634 Rain 1 1024 31 10000 1.34 167 20:29 11.03.2022
2635 Clear 0 1026 32 10000 1.79 46 19:42 11.03.2022
2636 Clear -1 1027 33 10000 0.89 145 19:20 11.03.2022
2637 Clouds -5 1026 49 10000 2.57 220 17:29 11.03.2022
2638 Clear -8 1027 57 10000 1.34 125 16:27 11.03.2022
2639 Clear -10 1027 61 10000 5.14 180 15:53 11.03.2022
2640 Clear -14 1024 69 10000 4.12 180 14:19 11.03.2022
2641 Clear -13 1029 69 10000 0.74 244 12:44 11.03.2022
2642 Clear -13 1019 70 10000 4.63 180 12:20 11.03.2022
2643 Clear -13 1029 72 10000 1.11 229 11:43 11.03.2022
2644 Clear -14 1028 74 10000 2.01 209 09:39 11.03.2022
2645 Clear -13 1024 75 10000 4.63 140 08:40 11.03.2022
2646 Clear -13 1028 75 10000 2.31 206 07:49 11.03.2022
2647 Clouds -13 1030 76 10000 1.63 220 06:59 11.03.2022
2648 Clouds -12 1024 75 10000 0.45 244 05:42 11.03.2022
2649 Clouds -9 1023 65 10000 1.29 110 02:56 11.03.2022
2650 Snow -6 1021 58 10000 1.34 219 22:56 10.03.2022
2651 Snow -6 1021 59 10000 0.89 339 22:28 10.03.2022
2652 Snow -7 1021 61 10000 0.89 22 21:26 10.03.2022
2653 Snow -8 1022 61 10000 1.34 269 20:45 10.03.2022
2654 Snow -10 1022 67 10000 1.34 170 19:22 10.03.2022
2655 Clouds -11 1021 71 10000 2.06 320 18:30 10.03.2022
2656 Clouds -13 1022 77 10000 0.45 35 16:53 10.03.2022
2657 Clouds -15 1016 81 10000 0.45 113 15:36 10.03.2022
2658 Clear -16 1022 81 10000 0.45 35 14:19 10.03.2022
2659 Clouds -16 1021 82 10000 0.45 39 12:44 10.03.2022
2660 Clouds -16 1019 83 10000 0.45 112 11:33 10.03.2022
2661 Clouds -16 1021 81 10000 2.4 135 09:54 10.03.2022
2662 Clouds -15 1020 80 10000 0.45 32 08:40 10.03.2022
2663 Snow -13 1026 81 157 2.64 78 05:48 10.03.2022
2664 Snow -12 1024 82 196 3.37 52 03:22 10.03.2022
2665 Snow -10 1017 47 225 4.62 16 00:22 10.03.2022
2666 Snow -9 1017 69 1218 5.07 12 22:32 09.03.2022
2667 Mist -8 1012 68 4828 8.23 10 21:47 09.03.2022
2668 Snow -8 1018 67 10000 5.1 12 20:50 09.03.2022
2669 Clouds -7 1013 74 10000 4.02 359 18:58 09.03.2022
2670 Mist -8 1014 77 3219 6.17 320 17:28 09.03.2022
2671 Clouds -8 1014 78 1541 2.68 0 16:48 09.03.2022
2672 Snow -8 1013 81 2706 2.68 339 15:41 09.03.2022
2673 Clouds -7 1012 81 10000 4.63 330 14:24 09.03.2022
2674 Clouds -7 1012 82 10000 5.14 330 13:38 09.03.2022
2675 Clouds -6 1012 80 10000 2.24 0 12:20 09.03.2022
2676 Clouds -6 1012 81 10000 1.79 331 11:46 09.03.2022
2677 Clouds -6 1012 79 10000 1.79 341 10:54 09.03.2022
2678 Clouds -6 1012 71 10000 1.34 330 09:25 09.03.2022
2679 Clouds -5 1012 68 10000 1.34 296 08:43 09.03.2022
2680 Clouds -2 1013 51 10000 0.45 202 05:36 09.03.2022
2681 Clear 3 1012 29 10000 1.79 298 00:56 09.03.2022
2682 Clear 4 1014 27 10000 1.34 123 23:37 08.03.2022
2683 Clear 4 1014 28 10000 1.79 282 22:45 08.03.2022
2684 Clouds 3 1015 29 10000 2.24 355 21:43 08.03.2022
2685 Clear 3 1016 29 10000 2.24 15 21:18 08.03.2022
2686 Clear 2 1017 30 10000 1.34 27 19:59 08.03.2022
2687 Clear 1 1017 32 10000 1.34 80 18:53 08.03.2022
2688 Clear 0 1018 37 10000 1.79 86 17:51 08.03.2022
2689 Clear -3 1018 49 10000 0.89 121 16:35 08.03.2022
2690 Clear -9 1018 69 10000 0.89 30 14:23 08.03.2022
2691 Clouds -8 1018 70 10000 0.45 198 12:44 08.03.2022
2692 Clouds -8 1018 70 10000 1.34 278 11:53 08.03.2022
2693 Clouds -8 1018 69 10000 0.89 272 11:34 08.03.2022
2694 Clouds -7 1019 70 10000 0.89 189 10:22 08.03.2022
2695 Clouds -6 1020 76 10000 0.89 221 07:34 08.03.2022
2696 Clouds -5 1022 77 10000 1.54 210 05:47 08.03.2022
2697 Clouds -2 1021 56 10000 0.45 70 00:43 08.03.2022
2698 Snow -1 1022 49 10000 1.34 53 22:23 07.03.2022
2699 Snow -1 1023 49 10000 1.79 106 21:35 07.03.2022
2700 Snow -2 1023 50 10000 0.89 128 20:52 07.03.2022
2701 Snow -2 1024 52 10000 1.54 90 20:20 07.03.2022
2702 Snow -3 1025 54 10000 0.89 138 19:34 07.03.2022
2703 Snow -3 1026 58 10000 0.45 84 18:46 07.03.2022
2704 Snow -5 1026 64 10000 0.89 156 17:52 07.03.2022
2705 Clouds -7 1027 72 10000 1.34 175 16:56 07.03.2022
2706 Clouds -9 1026 77 10000 1.34 167 15:59 07.03.2022
2707 Clouds -10 1026 80 10000 0.45 104 13:52 07.03.2022
2708 Clouds -10 1026 79 10000 0.89 134 12:33 07.03.2022
2709 Clouds -9 1026 80 10000 0.45 56 10:39 07.03.2022
2710 Clouds -9 1027 81 10000 0.89 109 09:24 07.03.2022
2711 Clouds -8 1026 85 332 1.34 38 04:51 07.03.2022
2712 Clouds -6 1020 83 10000 2.24 0 00:23 07.03.2022
2713 Snow -5 1019 82 10000 2.24 23 23:35 06.03.2022
2714 Mist -5 1019 81 8047 4.12 20 22:52 06.03.2022
2715 Snow -5 1018 81 6958 2.24 358 21:58 06.03.2022
2716 Snow -5 1019 80 4308 2.68 34 20:49 06.03.2022
2717 Snow -4 1019 79 10000 2.68 30 20:22 06.03.2022
2718 Snow -5 1019 80 1713 2.24 31 19:21 06.03.2022
2719 Snow -5 1019 82 2183 2.24 0 18:23 06.03.2022
2720 Snow -5 1019 84 1041 2.24 24 17:21 06.03.2022
2721 Snow -6 1018 86 1041 1.34 28 16:42 06.03.2022
2722 Snow -6 1018 87 1493 1.34 30 15:52 06.03.2022
2723 Clouds -6 1017 87 4828 2.57 120 14:49 06.03.2022
2724 Clouds -6 1017 87 587 0.89 36 14:49 06.03.2022
2725 Clouds -6 1017 86 587 1.79 17 14:31 06.03.2022
2726 Clouds -6 1017 84 8567 0.89 37 13:29 06.03.2022
2727 Clouds -6 1017 84 5025 1.34 37 12:35 06.03.2022
2728 Clouds -6 1016 83 10000 3.6 90 10:59 06.03.2022
2729 Clouds -6 1017 83 775 1.34 107 10:22 06.03.2022
2730 Clouds -5 1016 84 10000 1.34 84 08:29 06.03.2022
2731 Clouds -5 1016 84 10000 1.34 84 08:29 06.03.2022
2732 Clouds -5 1016 84 10000 2.57 100 08:29 06.03.2022
2733 Clouds -5 1016 84 10000 2.57 100 08:29 06.03.2022
2734 Mist -5 1017 85 4828 3.6 110 07:34 06.03.2022
2735 Snow -3 1016 80 10000 1.79 138 05:32 06.03.2022
2736 Clouds -1 1012 67 10000 1.79 72 00:49 06.03.2022
2737 Clouds -1 1009 49 10000 4.6 28 00:29 06.03.2022
2738 Clouds -1 1009 52 10000 3.47 27 23:21 05.03.2022
2739 Clouds -1 1009 52 10000 3.47 27 22:43 05.03.2022
2740 Clouds -1 1009 63 10000 5.14 30 21:45 05.03.2022
2741 Clouds -1 1010 30 10000 3.49 35 21:20 05.03.2022
2742 Clouds -1 1009 87 10000 4.5 29 19:26 05.03.2022
2743 Clouds -1 1008 82 10000 4.33 26 18:53 05.03.2022
2744 Clouds 1 1007 84 4828 3.09 30 17:53 05.03.2022
2745 Clouds 2 1004 84 10000 3.13 28 16:32 05.03.2022
2746 Rain 1 1002 86 10000 0.45 34 15:31 05.03.2022
2747 Clouds 1 1002 86 10000 0.45 179 14:44 05.03.2022
2748 Clouds 1 1002 85 10000 0.89 178 14:26 05.03.2022
2749 Clouds 2 1002 84 10000 1.34 72 13:20 05.03.2022
2750 Clouds 3 1002 78 10000 1.34 46 11:46 05.03.2022
2751 Clouds 3 1002 75 10000 1.79 34 11:18 05.03.2022
2752 Clouds 4 1002 72 10000 1.34 10 09:58 05.03.2022
2753 Clouds 5 1002 67 10000 8.75 350 08:57 05.03.2022
2754 Clouds 8 1001 51 10000 3.58 355 07:37 05.03.2022
2755 Clouds 10 1000 47 10000 3.13 182 05:42 05.03.2022
2756 Clouds 16 1000 21 10000 1.79 210 01:30 05.03.2022
2757 Clouds 18 1000 20 10000 3.09 210 23:35 04.03.2022
2758 Clouds 18 1001 20 10000 6.69 210 22:41 04.03.2022
2759 Clouds 17 1002 20 10000 2.68 219 21:47 04.03.2022
2760 Clouds 16 1001 21 10000 2.24 237 20:49 04.03.2022
2761 Clouds 15 1005 22 10000 7.2 210 20:18 04.03.2022
2762 Clouds 14 1005 24 10000 1.79 188 19:35 04.03.2022
2763 Clouds 13 1005 27 10000 0.89 226 18:36 04.03.2022
2764 Clouds 12 1006 29 10000 1.34 206 17:30 04.03.2022
2765 Clouds 10 1007 32 10000 2.24 198 16:36 04.03.2022
2766 Clouds 7 1008 39 10000 1.34 234 15:28 04.03.2022
2767 Clouds 6 1005 42 10000 2.06 202 13:53 04.03.2022
2768 Clouds 6 1002 45 10000 1.91 200 12:54 04.03.2022
2769 Clouds 6 1009 48 10000 1.77 228 11:38 04.03.2022
2770 Clouds 5 1003 56 10000 0.45 278 10:42 04.03.2022
2771 Clouds 6 1004 57 10000 1.32 215 09:28 04.03.2022
2772 Clouds 7 1007 54 10000 1.32 215 08:31 04.03.2022
2773 Clouds 8 1010 47 10000 2.14 214 06:59 04.03.2022
2774 Clouds 14 1010 35 10000 3.09 260 03:28 04.03.2022
2775 Clouds 20 1009 22 10000 1.47 351 00:19 04.03.2022
2776 Clouds 21 1010 14 10000 1.44 332 22:19 03.03.2022
2777 Clouds 21 1015 15 10000 1.34 82 21:37 03.03.2022
2778 Clouds 20 1015 14 10000 1.79 15 20:59 03.03.2022
2779 Clouds 19 1018 17 10000 0.45 93 19:48 03.03.2022
2780 Clouds 17 1015 21 10000 0.89 40 18:49 03.03.2022
2781 Clouds 15 1017 25 10000 0.89 65 17:46 03.03.2022
2782 Clouds 13 1019 30 10000 0.89 184 17:26 03.03.2022
2783 Clouds 7 1017 42 10000 0.45 196 15:47 03.03.2022
2784 Clouds 5 1018 49 10000 0.45 190 14:52 03.03.2022
2785 Clouds 5 1018 48 10000 0.45 185 14:32 03.03.2022
2786 Clear 5 1017 48 10000 0.45 248 12:52 03.03.2022
2787 Clear 6 1017 50 10000 0.45 247 11:39 03.03.2022
2788 Clear 6 1017 51 10000 2.01 216 10:40 03.03.2022
2789 Clear 7 1018 52 10000 0.89 244 08:45 03.03.2022
2790 Clouds 8 1017 52 10000 0.45 194 06:58 03.03.2022
2791 Clear 8 1017 52 10000 0.89 203 06:33 03.03.2022
2792 Clouds 17 1016 30 10000 1.34 325 01:21 03.03.2022
2793 Clouds 19 1015 23 10000 2.09 334 23:28 02.03.2022
2794 Clouds 19 1014 24 10000 1.34 55 22:49 02.03.2022
2795 Clouds 19 1016 24 10000 1.38 319 21:25 02.03.2022
2796 Clouds 19 1016 24 10000 1.39 322 20:40 02.03.2022
2797 Clouds 18 1018 27 10000 0.33 295 19:56 02.03.2022
2798 Clouds 18 1018 26 10000 0.33 295 19:56 02.03.2022
2799 Clouds 17 1023 24 10000 2.06 180 19:33 02.03.2022
2800 Clouds 17 1017 23 10000 0.45 177 18:44 02.03.2022
2801 Clear 15 1018 27 10000 1.34 148 17:57 02.03.2022
2802 Clear 13 1020 34 10000 3.03 197 17:21 02.03.2022
2803 Clear 11 1019 34 10000 1.79 200 16:42 02.03.2022
2804 Clear 5 1019 48 10000 0.89 215 14:43 02.03.2022
2805 Clouds 5 1020 48 10000 4.12 180 13:24 02.03.2022
2806 Clouds 6 1019 46 10000 0.89 217 12:42 02.03.2022
2807 Clouds 6 1019 46 10000 0.89 217 11:40 02.03.2022
2808 Clouds 6 1019 47 10000 0.45 195 11:21 02.03.2022
2809 Clouds 6 1019 44 10000 0.89 208 09:41 02.03.2022
2810 Clear 7 1020 44 10000 0.45 184 08:52 02.03.2022
2811 Clear 8 1020 45 10000 0.45 100 07:28 02.03.2022
2812 Clear 8 1022 44 10000 0.45 189 06:40 02.03.2022
2813 Clear 18 1016 15 10000 1.86 353 00:58 02.03.2022
2814 Clouds 20 1018 13 10000 1.54 270 23:47 01.03.2022
2815 Clear 20 1016 15 10000 0.45 128 22:45 01.03.2022
2816 Clear 20 1017 16 10000 1.34 146 21:57 01.03.2022
2817 Clear 20 1017 17 10000 2.24 117 21:23 01.03.2022
2818 Clear 19 1017 21 10000 0.65 133 20:30 01.03.2022
2819 Clouds 17 1023 21 10000 2.57 140 19:28 01.03.2022
2820 Clouds 16 1021 22 10000 3.09 200 18:49 01.03.2022
2821 Clear 14 1020 25 10000 1.75 191 18:19 01.03.2022
2822 Clear 11 1021 32 10000 1.96 200 17:19 01.03.2022
2823 Clear 7 1022 39 10000 0.89 215 16:31 01.03.2022
2824 Clouds 6 1020 38 10000 3.6 190 15:38 01.03.2022
2825 Clear 3 1019 42 10000 0.89 171 14:34 01.03.2022
2826 Clear 3 1019 40 10000 0.89 173 13:52 01.03.2022
2827 Clear 3 1019 40 10000 0.89 207 13:24 01.03.2022
2828 Clear 3 1019 41 10000 0.89 178 12:30 01.03.2022
2829 Clear 4 1019 41 10000 5.14 200 10:34 01.03.2022
2830 Clear 4 1021 43 10000 0.45 202 08:41 01.03.2022
2831 Clear 3 1020 47 10000 0.89 193 07:44 01.03.2022
2832 Clear 4 1021 41 10000 2.57 190 05:49 01.03.2022
2833 Clear 14 1018 50 10000 1.87 248 01:48 01.03.2022
2834 Clear 15 1018 45 10000 1.42 240 00:34 01.03.2022
2835 Clear 16 1018 39 10000 1.5 2 23:29 28.02.2022
2836 Clear 16 1018 20 10000 1.07 354 21:59 28.02.2022
2837 Clear 16 1018 16 10000 1.55 157 21:25 28.02.2022
2838 Clear 15 1020 15 10000 1.99 181 19:55 28.02.2022
2839 Clear 14 1020 19 10000 1.99 181 19:33 28.02.2022
2840 Clouds 12 1023 21 10000 1.79 211 18:40 28.02.2022
2841 Clouds 8 1025 33 10000 1.63 205 17:30 28.02.2022
2842 Clouds 5 1024 38 10000 1.34 165 16:33 28.02.2022
2843 Clouds 1 1024 48 10000 0.89 186 15:23 28.02.2022
2844 Clouds 1 1024 50 10000 4.12 200 14:31 28.02.2022
2845 Clouds 1 1024 52 10000 0.89 187 13:47 28.02.2022
2846 Clouds 0 1024 53 10000 4.63 180 12:41 28.02.2022
2847 Clouds 0 1024 52 10000 0.89 192 11:55 28.02.2022
2848 Clouds 1 1024 53 10000 0.89 235 10:48 28.02.2022
2849 Clouds 1 1024 53 10000 0.89 192 10:20 28.02.2022
2850 Clouds 1 1024 55 10000 1.34 231 09:32 28.02.2022
2851 Clouds 1 1024 55 10000 0.45 209 08:29 28.02.2022
2852 Clouds 1 1024 56 10000 0.45 194 07:28 28.02.2022
2853 Clouds 2 1024 55 10000 0.45 278 04:55 28.02.2022
2854 Clouds 3 1024 53 10000 1.56 312 04:26 28.02.2022
2855 Clear 14 1020 54 10000 0.96 260 23:42 27.02.2022
2856 Clear 12 1020 53 10000 0.3 175 22:34 27.02.2022
2857 Clear 11 1021 50 10000 0.58 337 21:51 27.02.2022
2858 Clear 11 1022 22 10000 0.77 326 20:59 27.02.2022
2859 Clear 11 1025 22 10000 1.54 230 20:27 27.02.2022
2860 Clear 10 1023 20 10000 0.22 337 19:57 27.02.2022
2861 Clouds 8 1024 23 10000 0.75 185 19:27 27.02.2022
2862 Clouds 7 1029 25 10000 0.89 118 18:47 27.02.2022
2863 Clouds 5 1027 30 10000 1.79 245 17:56 27.02.2022
2864 Clouds 2 1028 33 10000 1.34 221 16:54 27.02.2022
2865 Clouds -2 1027 45 10000 1.34 171 16:21 27.02.2022
2866 Clear -6 1028 50 10000 2.48 205 13:25 27.02.2022
2867 Clear -6 1027 50 10000 0.89 184 12:32 27.02.2022
2868 Clear -6 1027 50 10000 0.45 194 10:59 27.02.2022
2869 Clear -5 1027 49 10000 0.45 194 10:20 27.02.2022
2870 Clear -6 1027 51 10000 0.89 228 09:50 27.02.2022
2871 Clear -6 1027 54 10000 1.34 182 09:20 27.02.2022
2872 Clear -6 1028 56 10000 1.34 195 08:20 27.02.2022
2873 Clear -5 1030 63 10000 0.45 219 05:38 27.02.2022
2874 Clear -5 1030 63 10000 0.45 219 05:38 27.02.2022
2875 Clear -1 1029 51 10000 0.89 323 02:21 27.02.2022
2876 Clear 3 1028 32 10000 1.34 30 23:30 26.02.2022
2877 Clear 3 1028 32 10000 1.34 30 23:30 26.02.2022
2878 Clear 3 1026 29 10000 1.79 34 22:31 26.02.2022
2879 Clear 2 1027 29 10000 1.79 75 21:18 26.02.2022
2880 Rain 2 1027 31 10000 0.89 113 20:27 26.02.2022
2881 Rain 1 1028 31 10000 1.34 44 19:50 26.02.2022
2882 Clouds 0 1025 32 10000 0.89 261 19:29 26.02.2022
2883 Clouds -2 1028 40 10000 4.12 210 17:52 26.02.2022
2884 Clouds -3 1028 46 10000 4.12 210 17:29 26.02.2022
2885 Clear -7 1029 61 10000 1.34 213 16:19 26.02.2022
2886 Clear -11 1028 70 10000 0.45 239 15:25 26.02.2022
2887 Clear -11 1027 69 10000 0.45 193 14:56 26.02.2022
2888 Clear -11 1027 69 10000 0.45 193 14:38 26.02.2022
2889 Clear -11 1027 70 10000 1.34 208 13:27 26.02.2022
2890 Clear -11 1027 72 10000 0.45 195 12:51 26.02.2022
2891 Clouds -11 1027 74 10000 1.34 247 11:29 26.02.2022
2892 Clear -10 1026 76 10000 2.57 210 10:55 26.02.2022
2893 Clouds -10 1028 77 10000 0.45 211 09:18 26.02.2022
2894 Clouds -10 1027 76 10000 0.45 223 07:57 26.02.2022
2895 Clouds -6 1028 64 10000 0.45 65 02:53 26.02.2022
2896 Clouds -2 1026 54 10000 1.79 28 23:31 25.02.2022
2897 Snow -2 1025 50 10000 2.06 40 21:49 25.02.2022
2898 Snow -2 1026 50 10000 1.34 10 21:29 25.02.2022
2899 Snow -3 1026 54 10000 1.54 360 20:33 25.02.2022
2900 Snow -4 1027 55 10000 1.34 96 19:41 25.02.2022
2901 Clouds -7 1029 64 10000 1.34 185 17:35 25.02.2022
2902 Clouds -9 1031 73 10000 0.89 169 16:45 25.02.2022
2903 Clear -12 1028 78 10000 3.09 230 15:48 25.02.2022
2904 Clouds -14 1029 81 10000 1.04 357 15:23 25.02.2022
2905 Clouds -14 1029 80 10000 1.04 357 14:45 25.02.2022
2906 Clouds -14 1028 80 10000 0.45 296 14:18 25.02.2022
2907 Clouds -14 1026 79 10000 0.45 330 13:20 25.02.2022
2908 Clouds -13 1024 79 10000 0.71 334 11:39 25.02.2022
2909 Clouds -13 1026 79 10000 0.19 242 11:18 25.02.2022
2910 Clouds -13 1025 78 10000 0.47 246 10:23 25.02.2022
2911 Clouds -13 1025 77 10000 0.47 246 09:36 25.02.2022
2912 Clouds -12 1026 76 10000 0.45 292 07:47 25.02.2022
2913 Clouds -11 1026 73 10000 0.45 350 06:45 25.02.2022
2914 Clouds -11 1025 72 10000 0.45 65 05:37 25.02.2022
2915 Snow -4 1020 54 10000 3.13 11 00:46 25.02.2022
2916 Snow -4 1018 52 10000 0.89 188 22:30 24.02.2022
2917 Snow -5 1018 53 10000 1.34 97 21:43 24.02.2022
2918 Snow -5 1018 56 10000 1.34 110 21:21 24.02.2022
2919 Snow -6 1019 59 10000 1.34 205 20:42 24.02.2022
2920 Snow -8 1020 64 10000 1.34 221 19:29 24.02.2022
2921 Clouds -11 1022 68 10000 1.34 345 18:20 24.02.2022
2922 Clouds -12 1021 71 10000 0.45 247 17:51 24.02.2022
2923 Clouds -13 1021 75 10000 0.89 325 17:18 24.02.2022
2924 Clouds -14 1021 77 10000 0.89 344 16:25 24.02.2022
2925 Clouds -15 1020 78 10000 0.45 347 15:41 24.02.2022
2926 Clouds -15 1019 79 10000 1.56 332 14:44 24.02.2022
2927 Clouds -15 1019 78 10000 0.45 319 13:51 24.02.2022
2928 Clouds -15 1019 78 3928 0.45 313 13:30 24.02.2022
2929 Clouds -14 1018 78 278 0.45 316 10:50 24.02.2022
2930 Clouds -14 1018 78 1240 0.89 0 10:31 24.02.2022
2931 Snow -14 1019 78 738 1.7 12 08:43 24.02.2022
2932 Snow -14 1019 78 738 1.7 12 08:43 24.02.2022
2933 Snow -14 1020 76 498 0.45 242 06:28 24.02.2022
2934 Clouds -14 1021 76 498 0.89 311 05:37 24.02.2022
2935 Clouds -11 1016 58 10000 4.63 340 00:30 24.02.2022
2936 Clouds -11 1016 58 10000 4.63 340 00:30 24.02.2022
2937 Snow -11 1020 56 10000 2.06 40 21:56 23.02.2022
2938 Clouds -12 1022 59 10000 1.34 359 20:33 23.02.2022
2939 Mist -12 1023 60 9656 1.79 320 19:56 23.02.2022
2940 Clouds -14 1024 62 10000 1.34 141 18:59 23.02.2022
2941 Clouds -15 1026 67 5039 0.89 26 17:47 23.02.2022
2942 Clouds -17 1028 75 4132 1.34 328 15:47 23.02.2022
2943 Clouds -18 1028 77 4564 0.89 338 13:34 23.02.2022
2944 Clouds -18 1028 77 1993 0.89 350 12:28 23.02.2022
2945 Clouds -17 1029 76 2202 1.34 29 10:55 23.02.2022
2946 Clouds -16 1029 75 3427 0.89 28 09:31 23.02.2022
2947 Mist -16 1029 76 6437 4.12 110 08:28 23.02.2022
2948 Snow -16 1030 76 1317 1.34 82 07:25 23.02.2022
2949 Clouds -14 1029 75 404 0.89 24 02:22 23.02.2022
2950 Clouds -13 1027 64 367 0.89 36 23:46 22.02.2022
2951 Clouds -13 1026 63 655 1.79 10 23:28 22.02.2022
2952 Clouds -13 1025 58 8639 2.24 305 22:28 22.02.2022
2953 Clouds -13 1023 60 8639 1.34 296 21:40 22.02.2022
2954 Mist -13 1023 60 8047 3.09 40 21:19 22.02.2022
2955 Clouds -14 1024 61 10000 1.34 21 20:31 22.02.2022
2956 Clouds -14 1024 61 10000 1.34 100 19:54 22.02.2022
2957 Clouds -15 1023 64 10000 1.34 42 19:33 22.02.2022
2958 Clouds -15 1023 64 10000 0.89 60 18:35 22.02.2022
2959 Clouds -16 1023 68 10000 0.89 240 17:27 22.02.2022
2960 Clouds -17 1018 70 10000 0.89 28 16:55 22.02.2022
2961 Clouds -17 1021 72 10000 2.24 286 16:19 22.02.2022
2962 Clouds -18 1016 75 10000 0.89 52 15:21 22.02.2022
2963 Clouds -18 1019 74 10000 2.24 302 14:19 22.02.2022
2964 Clouds -17 1023 76 5951 4.29 38 11:18 22.02.2022
2965 Snow -16 1023 77 7995 4.4 40 09:44 22.02.2022
2966 Clouds -14 1012 78 2843 1.34 334 07:29 22.02.2022
2967 Clouds -13 1013 76 1199 2.68 46 06:54 22.02.2022
2968 Clouds -9 1009 74 4513 1.34 355 02:49 22.02.2022
2969 Clouds -2 1003 49 10000 7.5 22 23:18 21.02.2022
2970 Clouds 4 999 44 10000 8.55 18 21:56 21.02.2022
2971 Clouds 10 996 8 10000 4.11 25 20:38 21.02.2022
2972 Clouds 11 997 24 10000 1.34 165 18:47 21.02.2022
2973 Clouds 10 998 28 10000 1.79 172 18:19 21.02.2022
2974 Clouds 4 1000 38 10000 0.89 265 15:49 21.02.2022
2975 Clouds 2 1000 40 10000 0.89 213 14:22 21.02.2022
2976 Clouds 2 1000 40 10000 0.89 226 13:31 21.02.2022
2977 Clouds 2 999 39 10000 0.89 217 12:41 21.02.2022
2978 Clouds 3 1000 37 10000 6.17 190 12:20 21.02.2022
2979 Clouds 3 1001 35 10000 1.34 194 10:27 21.02.2022
2980 Clouds 4 1004 39 10000 0.89 214 06:25 21.02.2022
2981 Clouds 15 1004 41 10000 1.32 320 00:35 21.02.2022
2982 Clouds 15 1004 36 10000 1.62 8 22:32 20.02.2022
2983 Clouds 15 1004 35 10000 0.71 25 21:43 20.02.2022
2984 Clouds 15 1006 37 10000 0.42 195 21:21 20.02.2022
2985 Clouds 14 1006 22 10000 0.42 195 20:43 20.02.2022
2986 Clouds 13 1008 19 10000 1.26 187 19:48 20.02.2022
2987 Clouds 11 1009 24 10000 0.45 245 18:55 20.02.2022
2988 Clouds 10 1010 28 10000 5.66 220 18:34 20.02.2022
2989 Clouds 9 1009 31 10000 0.45 196 17:55 20.02.2022
2990 Clouds 3 1010 38 10000 2.06 180 16:18 20.02.2022
2991 Clouds 1 1010 42 10000 0.89 265 14:53 20.02.2022
2992 Clouds 1 1010 41 10000 0.89 119 13:58 20.02.2022
2993 Clouds 1 1009 43 10000 0.89 0 12:42 20.02.2022
2994 Clear 1 1008 44 10000 0.89 19 10:52 20.02.2022
2995 Clear 1 1008 45 10000 0.89 114 10:20 20.02.2022
2996 Clouds 1 1009 48 10000 3.09 220 09:24 20.02.2022
2997 Clear 7 1011 32 10000 0.89 293 02:54 20.02.2022
2998 Clear 12 1009 34 10000 0.94 308 00:31 20.02.2022
2999 Clear 13 1009 20 10000 0.94 308 23:30 19.02.2022
3000 Clear 13 1011 24 10000 1.05 175 22:23 19.02.2022
3001 Clear 13 1011 22 10000 1.05 175 21:45 19.02.2022
3002 Clear 11 1016 26 10000 0.45 128 20:23 19.02.2022
3003 Clear 10 1018 27 10000 2.24 189 19:34 19.02.2022
3004 Clear 7 1020 35 10000 1.34 132 18:38 19.02.2022
3005 Clear 6 1020 39 10000 0.89 271 17:37 19.02.2022
3006 Clear 3 1021 45 10000 1.34 198 16:44 19.02.2022
3007 Clear -1 1021 56 10000 0.89 209 15:20 19.02.2022
3008 Clear -1 1021 55 10000 0.89 195 14:52 19.02.2022
3009 Clear -1 1021 57 10000 1.79 194 13:47 19.02.2022
3010 Clear -1 1022 59 10000 5.66 190 11:39 19.02.2022
3011 Clear -1 1023 58 10000 1.34 185 10:30 19.02.2022
3012 Clear -1 1024 60 10000 0.89 180 08:31 19.02.2022
3013 Clear 0 1025 57 10000 4.63 180 06:30 19.02.2022
3014 Clear 6 1022 42 10000 3.13 33 23:45 18.02.2022
3015 Clear 7 1021 41 10000 2.68 32 21:54 18.02.2022
3016 Clear 7 1020 40 10000 2.68 37 20:57 18.02.2022
3017 Clear 6 1022 38 10000 1.34 15 19:54 18.02.2022
3018 Clear 6 1022 40 10000 1.34 127 18:50 18.02.2022
3019 Clear 4 1021 43 10000 1.34 198 18:22 18.02.2022
3020 Clouds 4 1022 43 10000 3.09 210 17:55 18.02.2022
3021 Clear -4 1022 63 10000 0.89 192 15:22 18.02.2022
3022 Clear -4 1021 64 10000 0.89 198 13:55 18.02.2022
3023 Clouds -4 1021 67 10000 0.89 238 12:55 18.02.2022
3024 Clouds -4 1021 66 10000 2.75 228 12:36 18.02.2022
3025 Clouds -4 1021 67 10000 0.45 86 11:29 18.02.2022
3026 Clouds -4 1021 71 10000 0.45 282 10:23 18.02.2022
3027 Clear -5 1020 71 10000 0.45 189 06:57 18.02.2022
3028 Clouds -5 1019 70 10000 4.12 180 05:40 18.02.2022
3029 Rain 1 1019 46 10000 4.12 120 23:31 17.02.2022
3030 Rain 0 1021 54 10000 1.79 158 21:45 17.02.2022
3031 Rain 0 1021 57 10000 2.24 176 21:20 17.02.2022
3032 Snow -2 1022 64 10000 2.24 188 20:38 17.02.2022
3033 Snow -3 1023 67 10000 1.79 176 19:49 17.02.2022
3034 Snow -4 1024 72 10000 2.24 203 18:44 17.02.2022
3035 Snow -6 1025 78 10000 0.45 187 17:50 17.02.2022
3036 Clouds -9 1025 83 10000 0.45 289 16:29 17.02.2022
3037 Clouds -10 1024 86 10000 2.57 180 15:32 17.02.2022
3038 Clouds -10 1024 86 10000 0.45 206 14:26 17.02.2022
3039 Clouds -10 1022 87 10000 1.54 220 12:38 17.02.2022
3040 Clouds -8 1023 87 850 2.4 358 11:23 17.02.2022
3041 Clouds -8 1023 87 850 2.4 358 11:23 17.02.2022
3042 Snow -8 1023 87 621 0.89 20 08:52 17.02.2022
3043 Snow -3 1011 89 162 1.79 30 01:45 17.02.2022
3044 Snow -1 1007 83 1016 2.24 20 23:19 16.02.2022
3045 Clouds 0 1006 72 7120 3.47 12 21:31 16.02.2022
3046 Clouds 0 1007 77 10000 2.8 21 19:47 16.02.2022
3047 Clouds 1 1008 75 10000 3.38 25 18:38 16.02.2022
3048 Clear 0 1005 73 10000 2.24 31 17:53 16.02.2022
3049 Clouds -2 1005 83 10000 0 0 15:38 16.02.2022
3050 Clear -3 1004 82 10000 0.45 295 14:59 16.02.2022
3051 Clouds -2 1004 77 10000 0.45 62 12:35 16.02.2022
3052 Clouds -2 1005 75 10000 0.45 209 11:55 16.02.2022
3053 Clouds -1 1005 73 10000 0.89 25 11:24 16.02.2022
3054 Clouds 0 1005 68 10000 0.45 33 10:30 16.02.2022
3055 Clouds 4 1002 46 10000 1.17 217 06:57 16.02.2022
3056 Clouds 4 1003 47 10000 2.23 216 04:43 16.02.2022
3057 Clouds 12 1001 26 10000 1.79 44 23:44 15.02.2022
3058 Clouds 13 1001 24 10000 1.34 31 22:19 15.02.2022
3059 Clouds 13 1000 21 10000 1.79 284 21:45 15.02.2022
3060 Clouds 13 1001 21 10000 1.79 28 21:27 15.02.2022
3061 Clouds 12 1001 20 10000 2.24 313 20:55 15.02.2022
3062 Clouds 12 1003 21 10000 4.12 220 19:55 15.02.2022
3063 Clouds 10 1004 23 10000 4.63 200 18:52 15.02.2022
3064 Clouds 9 1004 26 10000 1.79 185 18:19 15.02.2022
3065 Clouds 8 1004 26 10000 0.89 182 17:48 15.02.2022
3066 Clouds 3 1005 36 10000 1.34 168 16:30 15.02.2022
3067 Clouds 2 1006 38 10000 0.45 136 15:22 15.02.2022
3068 Clouds 2 1006 39 10000 0.45 141 13:26 15.02.2022
3069 Clouds 1 1006 40 10000 0.45 189 11:57 15.02.2022
3070 Clouds 2 1007 39 10000 1.79 146 10:58 15.02.2022
3071 Clouds 2 1008 40 10000 0.45 137 09:28 15.02.2022
3072 Clouds 3 1010 49 10000 2.06 200 06:49 15.02.2022
3073 Clouds 9 1010 35 10000 1.34 308 00:48 15.02.2022
3074 Clear 12 1012 30 10000 1.79 38 22:20 14.02.2022
3075 Clear 11 1014 30 10000 1.79 250 21:27 14.02.2022
3076 Clouds 10 1017 29 10000 4.12 170 20:24 14.02.2022
3077 Clear 9 1018 29 10000 0.81 184 19:30 14.02.2022
3078 Clear 8 1017 30 10000 1.79 165 18:27 14.02.2022
3079 Clear 7 1018 31 10000 1.34 127 17:43 14.02.2022
3080 Clear 7 1018 31 10000 1.34 127 17:43 14.02.2022
3081 Clear 5 1019 36 10000 5.14 200 17:24 14.02.2022
3082 Clear 1 1020 43 10000 0.89 131 15:58 14.02.2022
3083 Clear 0 1020 42 10000 0.89 237 13:40 14.02.2022
3084 Clear 0 1020 43 10000 0.89 237 13:22 14.02.2022
3085 Clear 0 1020 45 10000 1.34 193 12:32 14.02.2022
3086 Clear 0 1020 44 10000 0.89 190 11:54 14.02.2022
3087 Clear 0 1021 47 10000 0.89 189 10:31 14.02.2022
3088 Clear 1 1022 49 10000 0.89 172 08:37 14.02.2022
3089 Clouds 1 1022 48 10000 4.63 180 07:27 14.02.2022
3090 Clear 11 1018 53 10000 0.95 269 23:41 13.02.2022
3091 Clear 12 1018 26 10000 0.74 247 22:42 13.02.2022
3092 Clear 13 1019 22 10000 0.97 209 22:23 13.02.2022
3093 Clear 12 1020 25 10000 1.22 206 21:28 13.02.2022
3094 Clear 11 1020 37 10000 5.81 305 20:32 13.02.2022
3095 Clear 9 1022 45 10000 1.34 155 19:24 13.02.2022
3096 Clear 8 1025 37 10000 1.34 182 18:42 13.02.2022
3097 Clear 5 1025 42 10000 1.34 209 17:54 13.02.2022
3098 Clear -1 1026 57 10000 0.45 233 15:54 13.02.2022
3099 Clear -2 1026 58 10000 0.45 198 15:54 13.02.2022
3100 Clear -3 1027 61 10000 2.2 221 14:58 13.02.2022
3101 Clouds -3 1026 61 10000 4.12 180 13:59 13.02.2022
3102 Clear -3 1025 61 10000 0.89 256 12:50 13.02.2022
3103 Clouds -3 1025 63 10000 5.66 180 11:26 13.02.2022
3104 Clear -3 1027 62 10000 0.89 179 10:30 13.02.2022
3105 Clear -3 1027 65 10000 0.45 185 09:41 13.02.2022
3106 Clear -3 1027 70 10000 0.89 221 07:19 13.02.2022
3107 Clouds 4 1023 55 10000 1.34 110 00:35 13.02.2022
3108 Clouds 5 1026 48 10000 0.45 103 23:39 12.02.2022
3109 Clouds 5 1025 43 10000 0.89 119 22:33 12.02.2022
3110 Clouds 4 1026 49 10000 2.24 165 21:19 12.02.2022
3111 Clouds 3 1027 53 10000 1.79 167 20:32 12.02.2022
3112 Rain 1 1028 57 10000 1.34 151 19:21 12.02.2022
3113 Snow 0 1028 60 10000 1.34 162 18:50 12.02.2022
3114 Snow -1 1029 63 10000 1.34 231 18:32 12.02.2022
3115 Clouds -5 1027 69 10000 2.87 205 16:55 12.02.2022
3116 Clouds -7 1031 78 10000 0.45 188 16:25 12.02.2022
3117 Clouds -7 1036 75 10000 2.41 206 15:50 12.02.2022
3118 Clear -9 1031 83 10000 0.89 189 14:31 12.02.2022
3119 Clouds -9 1030 86 10000 0.45 163 12:55 12.02.2022
3120 Clouds -8 1031 86 10000 1.19 215 10:36 12.02.2022
3121 Clouds -7 1031 87 10000 1.37 208 09:39 12.02.2022
3122 Clouds -6 1030 88 10000 0 0 08:50 12.02.2022
3123 Clouds -5 1030 89 6437 0 0 07:53 12.02.2022
3124 Snow -4 1029 90 10000 0.45 19 05:33 12.02.2022
3125 Snow -3 1026 90 1609 5.14 30 03:32 12.02.2022
3126 Snow -3 1024 90 162 0.45 45 02:18 12.02.2022
3127 Snow -1 1020 81 3086 1.34 44 22:28 11.02.2022
3128 Snow 0 1019 70 3086 3.13 45 21:47 11.02.2022
3129 Clouds 1 1018 58 10000 3.58 40 20:39 11.02.2022
3130 Clouds 2 1019 56 10000 3.13 48 19:35 11.02.2022
3131 Clouds 2 1018 56 10000 3.13 49 18:59 11.02.2022
3132 Clouds 2 1017 60 10000 1.79 64 17:41 11.02.2022
3133 Clouds 2 1017 63 10000 4.12 360 17:22 11.02.2022
3134 Clouds 0 1017 73 10000 0.45 188 15:56 11.02.2022
3135 Clouds 0 1016 75 10000 1.34 45 14:43 11.02.2022
3136 Clouds 0 1015 75 10000 2.68 59 14:20 11.02.2022
3137 Clouds 0 1014 73 10000 3.58 49 13:52 11.02.2022
3138 Clouds 1 1013 67 10000 4.92 23 13:34 11.02.2022
3139 Clouds 6 1011 45 10000 0.65 239 11:32 11.02.2022
3140 Clouds 5 1008 39 10000 2.58 220 09:45 11.02.2022
3141 Clouds 5 1009 42 10000 2.77 197 08:40 11.02.2022
3142 Clear 6 1009 45 10000 2.38 197 08:22 11.02.2022
3143 Clouds 6 1008 33 10000 4.12 260 06:33 11.02.2022
3144 Clear 9 1009 38 10000 2.68 234 02:26 11.02.2022
3145 Clouds 12 1010 49 10000 1.84 236 00:47 11.02.2022
3146 Clouds 13 1011 40 10000 1.86 168 22:45 10.02.2022
3147 Clouds 13 1012 27 10000 0.82 142 21:45 10.02.2022
3148 Clouds 12 1014 24 10000 0.32 110 20:54 10.02.2022
3149 Clouds 12 1015 27 10000 0.23 109 20:29 10.02.2022
3150 Clouds 10 1017 29 10000 3.09 230 19:25 10.02.2022
3151 Clouds 10 1016 30 10000 0.45 224 18:43 10.02.2022
3152 Clear 6 1017 49 10000 0.89 121 17:26 10.02.2022
3153 Clouds 4 1017 54 10000 5.66 190 16:47 10.02.2022
3154 Clouds 0 1018 67 10000 5.14 190 15:45 10.02.2022
3155 Clear 0 1018 69 10000 0.89 202 15:25 10.02.2022
3156 Clear 0 1019 72 10000 1.34 192 14:44 10.02.2022
3157 Clear 0 1019 72 10000 1.34 192 14:22 10.02.2022
3158 Clouds 0 1019 75 10000 0.89 180 13:20 10.02.2022
3159 Clouds 0 1020 77 10000 0.89 188 11:58 10.02.2022
3160 Clouds 1 1020 77 10000 1.79 162 11:32 10.02.2022
3161 Clouds 1 1021 78 10000 1.79 171 10:32 10.02.2022
3162 Clouds 1 1021 78 10000 1.79 185 09:46 10.02.2022
3163 Clouds 2 1022 75 10000 0.89 184 08:42 10.02.2022
3164 Clouds 2 1022 68 10000 5.14 60 06:42 10.02.2022
3165 Clouds 4 1020 51 10000 0.45 321 03:39 10.02.2022
3166 Clouds 6 1015 39 10000 2.24 340 01:18 10.02.2022
3167 Clouds 7 1016 51 10000 1.29 196 00:41 10.02.2022
3168 Clouds 8 1015 32 10000 0.76 141 00:23 10.02.2022
3169 Clouds 10 1015 30 10000 0.62 47 22:57 09.02.2022
3170 Clouds 11 1015 27 10000 0.63 78 22:33 09.02.2022
3171 Clouds 10 1015 27 10000 0.63 78 21:48 09.02.2022
3172 Clouds 11 1016 26 10000 1.6 151 21:28 09.02.2022
3173 Clouds 11 1016 28 10000 1.6 151 20:45 09.02.2022
3174 Clouds 10 1018 35 10000 1.71 147 20:23 09.02.2022
3175 Clouds 9 1018 31 10000 1.71 147 19:42 09.02.2022
3176 Clouds 8 1019 31 10000 2.24 118 18:50 09.02.2022
3177 Clouds 5 1019 37 10000 1.34 196 17:24 09.02.2022
3178 Clouds 2 1020 43 10000 0.89 110 16:20 09.02.2022
3179 Clouds 1 1020 46 10000 1.34 194 15:26 09.02.2022
3180 Clouds 0 1019 48 10000 0.45 119 12:54 09.02.2022
3181 Clouds 1 1018 44 10000 0.45 171 11:52 09.02.2022
3182 Clouds 1 1019 45 10000 0.45 275 10:35 09.02.2022
3183 Clear 1 1019 42 10000 2.55 205 09:53 09.02.2022
3184 Clouds 1 1019 43 10000 2.57 270 09:22 09.02.2022
3185 Clouds 1 1019 47 10000 3.09 210 08:46 09.02.2022
3186 Clouds 2 1019 45 10000 0.45 213 06:52 09.02.2022
3187 Clouds 3 1019 37 10000 0.45 250 04:30 09.02.2022
3188 Clouds 3 1020 38 10000 0.45 265 03:48 09.02.2022
3189 Clear 9 1020 40 10000 3.64 328 23:45 08.02.2022
3190 Clear 10 1021 27 10000 1.34 111 23:19 08.02.2022
3191 Clear 10 1021 27 10000 1.34 111 23:19 08.02.2022
3192 Clear 9 1020 24 10000 5.64 319 22:38 08.02.2022
3193 Clear 10 1020 24 10000 5.64 319 22:38 08.02.2022
3194 Clear 10 1020 24 10000 4.91 305 22:20 08.02.2022
3195 Clear 9 1022 26 10000 6.26 309 21:22 08.02.2022
3196 Clear 9 1021 28 10000 1.79 179 20:58 08.02.2022
3197 Clear 9 1022 29 10000 2.24 165 20:37 08.02.2022
3198 Clear 9 1022 29 10000 2.24 165 20:37 08.02.2022
3199 Clouds 8 1023 33 10000 0.45 115 19:27 08.02.2022
3200 Clouds 7 1022 33 10000 2.24 126 18:19 08.02.2022
3201 Clouds 5 1022 35 10000 2.57 80 16:56 08.02.2022
3202 Clouds 2 1019 43 10000 0.45 246 15:47 08.02.2022
3203 Clouds 1 1018 47 10000 5.14 290 14:58 08.02.2022
3204 Clouds 2 1017 46 10000 0.89 250 13:48 08.02.2022
3205 Clouds 2 1019 46 10000 2.24 299 12:24 08.02.2022
3206 Clouds 1 1018 50 10000 4.12 210 10:48 08.02.2022
3207 Clear 1 1018 49 10000 0.45 98 09:48 08.02.2022
3208 Clear 1 1018 49 10000 5.14 200 08:38 08.02.2022
3209 Clear 1 1020 51 10000 0.89 188 06:24 08.02.2022
3210 Clear 2 1021 49 10000 2.42 222 04:40 08.02.2022
3211 Clear 2 1021 48 10000 2.23 232 04:22 08.02.2022
3212 Clear 3 1021 47 10000 0.45 197 03:36 08.02.2022
3213 Clear 3 1021 48 10000 0.45 282 03:18 08.02.2022
3214 Clear 3 1021 43 10000 0.45 234 02:59 08.02.2022
3215 Clear 4 1020 41 10000 0.45 234 02:36 08.02.2022
3216 Clear 4 1020 43 10000 0.45 281 02:18 08.02.2022
3217 Clear 6 1022 46 10000 1.63 250 01:44 08.02.2022
3218 Clear 6 1021 45 10000 1.19 236 01:24 08.02.2022
3219 Clear 9 1021 62 10000 1.19 236 00:55 08.02.2022
3220 Clear 10 1020 59 10000 0.61 199 00:19 08.02.2022
3221 Clear 10 1020 59 10000 0.61 199 23:42 07.02.2022
3222 Clear 10 1021 56 10000 0.33 176 23:18 07.02.2022
3223 Clear 10 1021 56 10000 0.33 176 22:56 07.02.2022
3224 Clear 10 1021 56 10000 1 154 22:18 07.02.2022
3225 Clear 10 1021 28 10000 1 154 21:47 07.02.2022
3226 Clear 10 1023 32 10000 1.95 173 21:26 07.02.2022
3227 Clear 10 1023 28 10000 2.24 163 20:41 07.02.2022
3228 Clear 9 1025 30 10000 2.36 185 20:18 07.02.2022
3229 Clear 8 1025 30 10000 1.79 139 19:46 07.02.2022
3230 Clear 5 1029 34 10000 2.24 192 18:24 07.02.2022
3231 Clear 0 1029 43 10000 1.34 197 16:53 07.02.2022
3232 Clear -3 1029 49 10000 1.34 173 16:21 07.02.2022
3233 Clear -3 1029 50 10000 1.34 152 15:48 07.02.2022
3234 Clear -5 1028 53 10000 4.63 180 13:39 07.02.2022
3235 Clear -5 1028 54 10000 4.63 180 13:21 07.02.2022
3236 Clear -5 1028 54 10000 0.45 186 11:58 07.02.2022
3237 Clear -5 1028 54 10000 0.45 186 11:58 07.02.2022
3238 Clear -4 1028 54 10000 0.89 182 11:37 07.02.2022
3239 Clear -4 1028 54 10000 0.45 181 10:53 07.02.2022
3240 Clear -4 1028 56 10000 0.89 203 10:32 07.02.2022
3241 Clear -4 1028 56 10000 0.45 188 09:53 07.02.2022
3242 Clear -4 1028 59 10000 0.89 190 09:18 07.02.2022
3243 Clear -4 1028 60 10000 0.45 194 08:43 07.02.2022
3244 Clear -4 1028 61 10000 0.45 200 07:26 07.02.2022
3245 Clear -3 1028 60 10000 0.45 198 06:34 07.02.2022
3246 Clear -2 1027 56 10000 0.45 215 03:48 07.02.2022
3247 Clouds 2 1027 41 10000 0.45 55 00:47 07.02.2022
3248 Clouds 3 1026 37 10000 0.45 41 23:49 06.02.2022
3249 Clouds 3 1026 37 10000 0.89 65 22:55 06.02.2022
3250 Clouds 3 1026 38 10000 1.34 85 22:34 06.02.2022
3251 Clouds 3 1027 41 10000 0.45 76 21:36 06.02.2022
3252 Clouds 3 1027 43 10000 1.34 134 20:56 06.02.2022
3253 Clouds 3 1027 44 10000 1.79 92 20:36 06.02.2022
3254 Clouds 2 1029 47 10000 0.45 81 19:45 06.02.2022
3255 Clouds 2 1029 49 10000 0.89 26 18:48 06.02.2022
3256 Clouds 1 1029 52 10000 0.89 82 17:58 06.02.2022
3257 Clouds 0 1029 56 10000 0.89 55 17:21 06.02.2022
3258 Clouds -1 1028 64 10000 1.34 165 16:48 06.02.2022
3259 Clouds -3 1027 73 10000 0.45 239 15:50 06.02.2022
3260 Clouds -3 1027 72 10000 2.02 167 15:27 06.02.2022
3261 Clouds -3 1026 71 10000 2.02 167 14:47 06.02.2022
3262 Clouds -1 1025 69 10000 0.45 33 13:28 06.02.2022
3263 Clouds -1 1025 70 10000 0.45 33 12:59 06.02.2022
3264 Clouds -1 1024 70 10000 0.45 36 11:38 06.02.2022
3265 Clouds 0 1023 61 10000 0.45 21 10:31 06.02.2022
3266 Clouds 0 1023 61 10000 0.45 21 10:31 06.02.2022
3267 Clouds 0 1023 55 10000 0.89 17 09:25 06.02.2022
3268 Clouds 0 1022 53 10000 0.89 51 08:40 06.02.2022
3269 Clouds -1 1020 53 10000 0.45 81 05:36 06.02.2022
3270 Clear 2 1019 40 10000 4.84 316 03:18 06.02.2022
3271 Clear 2 1020 37 10000 5.07 325 02:24 06.02.2022
3272 Clouds 7 1016 30 10000 14.4 330 00:29 06.02.2022
3273 Clouds 8 1018 30 10000 5.36 333 23:18 05.02.2022
3274 Clouds 8 1017 28 10000 5.75 312 21:33 05.02.2022
3275 Clouds 8 1019 30 1919 3.11 312 20:25 05.02.2022
3276 Clouds 7 1019 31 1919 3.11 312 19:49 05.02.2022
3277 Clouds 7 1019 32 1980 2.2 302 19:18 05.02.2022
3278 Clouds 4 1021 43 10000 1.34 265 17:45 05.02.2022
3279 Clouds 2 1021 48 10000 0.45 222 17:27 05.02.2022
3280 Clouds -2 1021 55 10000 0.89 143 15:42 05.02.2022
3281 Clouds -4 1022 62 10000 0.45 236 15:21 05.02.2022
3282 Clouds -4 1021 64 10000 0.45 139 12:54 05.02.2022
3283 Clouds -4 1021 65 10000 0.45 81 12:31 05.02.2022
3284 Clear -5 1023 67 10000 0.45 292 10:52 05.02.2022
3285 Clear -5 1022 67 10000 0.45 185 10:22 05.02.2022
3286 Clear -5 1023 68 10000 0.45 204 09:44 05.02.2022
3287 Clear -5 1025 67 10000 0.45 113 07:54 05.02.2022
3288 Clear -5 1025 68 10000 0.45 0 06:57 05.02.2022
3289 Clear -4 1027 66 10000 0.45 140 04:30 05.02.2022
3290 Clouds 1 1028 53 10000 1.16 217 01:19 05.02.2022
3291 Clouds 2 1025 36 10000 3.6 150 00:53 05.02.2022
3292 Clouds 4 1027 39 1865 1.35 235 23:46 04.02.2022
3293 Clouds 5 1031 42 10000 0.45 123 23:28 04.02.2022
3294 Clear 4 1030 38 2791 1.34 127 21:54 04.02.2022
3295 Clear 4 1030 37 2791 1.34 135 21:36 04.02.2022
3296 Clear 3 1031 38 10000 1.34 149 21:18 04.02.2022
3297 Rain 2 1033 39 10000 0.89 290 19:59 04.02.2022
3298 Clear -3 1035 48 10000 1.79 242 17:43 04.02.2022
3299 Clear -11 1034 65 10000 0.45 187 15:42 04.02.2022
3300 Clear -12 1034 69 10000 0.45 190 14:55 04.02.2022
3301 Clear -12 1033 69 10000 0.45 188 13:33 04.02.2022
3302 Clear -13 1033 70 10000 2.25 208 12:43 04.02.2022
3303 Clear -13 1033 72 10000 0.45 309 11:42 04.02.2022
3304 Clear -13 1032 73 10000 0.89 180 10:36 04.02.2022
3305 Clear -13 1032 74 10000 0.45 113 08:36 04.02.2022
3306 Clear -13 1032 76 10000 0.45 88 06:47 04.02.2022
3307 Clear -12 1032 72 10000 0.45 25 02:46 04.02.2022
3308 Clear -11 1037 66 10000 0.51 237 01:52 04.02.2022
3309 Snow -5 1026 50 10000 1.34 19 23:29 03.02.2022
3310 Snow -5 1026 48 10000 0.45 97 22:33 03.02.2022
3311 Snow -5 1024 47 10000 0.89 104 21:49 03.02.2022
3312 Snow -6 1026 54 10000 0.45 287 20:38 03.02.2022
3313 Snow -6 1026 58 10000 0.89 175 20:18 03.02.2022
3314 Snow -8 1027 65 10000 0.45 249 19:30 03.02.2022
3315 Snow -10 1027 70 10000 0.45 266 18:35 03.02.2022
3316 Clear -14 1028 77 10000 0.45 117 17:32 03.02.2022
3317 Clear -18 1028 81 10000 0.45 69 16:25 03.02.2022
3318 Clouds -21 1027 79 10000 2.57 180 14:37 03.02.2022
3319 Clouds -20 1027 79 10000 1.05 200 12:51 03.02.2022
3320 Clouds -19 1019 79 10000 1.12 239 10:45 03.02.2022
3321 Clouds -18 1032 83 10000 1.32 241 08:35 03.02.2022
3322 Clouds -15 1027 81 182 1.79 27 04:27 03.02.2022
3323 Clouds -12 1024 78 192 0.89 284 00:31 03.02.2022
3324 Clouds -11 1022 76 287 0.45 5 23:36 02.02.2022
3325 Clouds -10 1021 76 305 0.45 292 21:54 02.02.2022
3326 Clouds -10 1022 77 376 0.45 26 21:30 02.02.2022
3327 Clouds -10 1022 78 376 0.45 336 20:38 02.02.2022
3328 Clouds -10 1022 78 348 0.45 23 19:55 02.02.2022
3329 Clouds -10 1022 79 249 0.45 303 19:26 02.02.2022
3330 Snow -10 1022 81 226 0.45 335 18:34 02.02.2022
3331 Clouds -11 1022 82 213 0.45 15 17:38 02.02.2022
3332 Clouds -11 1021 83 182 0.89 294 17:19 02.02.2022
3333 Clouds -12 1021 84 172 0.45 292 16:30 02.02.2022
3334 Snow -11 1018 85 116 0.89 279 12:54 02.02.2022
3335 Snow -11 1018 85 117 0.89 317 11:51 02.02.2022
3336 Snow -11 1018 85 117 1.34 292 11:31 02.02.2022
3337 Snow -9 1017 85 140 2.24 32 09:46 02.02.2022
3338 Snow -6 1016 87 140 0.45 74 06:18 02.02.2022
3339 Clouds -2 1012 63 6963 1.79 42 22:44 01.02.2022
3340 Clouds -1 1011 52 10000 2.24 29 21:30 01.02.2022
3341 Clouds 0 1012 43 10000 0.89 57 19:56 01.02.2022
3342 Clouds -2 1014 51 10000 0.89 65 17:38 01.02.2022
3343 Clouds -3 1014 54 10000 0.45 105 16:31 01.02.2022
3344 Clouds -3 1013 49 10000 0.45 181 13:28 01.02.2022
3345 Clouds -2 1012 46 10000 1.34 139 12:28 01.02.2022
3346 Clouds -3 1012 46 10000 1.34 80 12:28 01.02.2022
3347 Clouds -1 1011 54 10000 0.89 216 10:42 01.02.2022
3348 Clear 5 1007 36 10000 2.15 170 02:24 01.02.2022
3349 Clouds 12 1003 51 10000 0.13 251 23:39 31.01.2022
3350 Clouds 13 1002 49 10000 1.89 344 22:42 31.01.2022
3351 Clouds 14 1003 16 10000 5.14 170 21:36 31.01.2022
3352 Clouds 12 1002 24 10000 2.13 190 20:35 31.01.2022
3353 Clouds 11 1006 25 10000 1.34 114 19:59 31.01.2022
3354 Clouds 8 1007 24 10000 0.89 86 18:47 31.01.2022
3355 Clouds 6 1009 29 10000 0.45 286 18:18 31.01.2022
3356 Clouds 3 1009 32 10000 0.45 231 17:24 31.01.2022
3357 Clouds 1 1009 34 10000 0.89 175 16:25 31.01.2022
3358 Clouds 0 1012 28 10000 0.89 213 14:53 31.01.2022
3359 Clouds 0 1012 30 10000 2.26 202 13:35 31.01.2022
3360 Clear 0 1012 33 10000 0.89 198 12:38 31.01.2022
3361 Clear 0 1011 32 10000 1.34 227 11:26 31.01.2022
3362 Clear 0 1012 35 10000 0.45 232 10:48 31.01.2022
3363 Clear 0 1014 36 10000 2.5 213 09:38 31.01.2022
3364 Clear 0 1013 42 10000 0.89 216 08:56 31.01.2022
3365 Clear 0 1015 47 10000 2.87 205 08:20 31.01.2022
3366 Clear 0 1015 50 10000 2.87 205 07:43 31.01.2022
3367 Clear 1 1015 56 10000 0.45 220 05:33 31.01.2022
3368 Clear 8 1013 48 10000 1.25 211 00:36 31.01.2022
3369 Clear 9 1012 29 10000 0.35 347 22:33 30.01.2022
3370 Clear 9 1012 33 10000 0.08 38 21:46 30.01.2022
3371 Clear 9 1013 24 10000 0.26 279 21:26 30.01.2022
3372 Clear 9 1013 27 10000 0.13 41 20:54 30.01.2022
3373 Clouds 9 1016 19 10000 4.12 200 20:31 30.01.2022
3374 Clouds 10 1017 21 10000 1.34 232 19:56 30.01.2022
3375 Clear 8 1018 25 10000 0.89 179 18:52 30.01.2022
3376 Clear 6 1019 28 10000 0.89 200 18:22 30.01.2022
3377 Clear 2 1019 35 10000 0.45 182 17:31 30.01.2022
3378 Clear 2 1019 34 10000 0.45 182 17:31 30.01.2022
3379 Clear 2 1019 34 10000 0.45 182 17:31 30.01.2022
3380 Clear 1 1019 30 10000 1.55 210 16:44 30.01.2022
3381 Clear -1 1021 37 10000 0.45 197 16:23 30.01.2022
3382 Clear -2 1021 36 10000 1.8 211 15:55 30.01.2022
3383 Clouds -2 1018 38 10000 4.63 190 15:33 30.01.2022
3384 Clouds -3 1020 41 10000 4.63 180 14:48 30.01.2022
3385 Clear -2 1018 42 10000 0.45 0 13:49 30.01.2022
3386 Clear -2 1019 45 10000 0.45 188 12:46 30.01.2022
3387 Clear -2 1017 48 10000 1.79 211 11:23 30.01.2022
3388 Clear -2 1017 50 10000 1.22 212 10:26 30.01.2022
3389 Clear -1 1017 49 10000 1.34 323 09:23 30.01.2022
3390 Clear -1 1020 53 10000 0.45 186 08:00 30.01.2022
3391 Clear 2 1020 50 10000 0.35 301 02:55 30.01.2022
3392 Clear 3 1020 43 10000 0.89 79 01:54 30.01.2022
3393 Clear 7 1020 31 10000 1.79 5 23:49 29.01.2022
3394 Clear 9 1016 19 10000 1.05 202 22:57 29.01.2022
3395 Clouds 10 1020 20 10000 0 0 21:35 29.01.2022
3396 Clear 10 1017 28 10000 0.82 200 20:57 29.01.2022
3397 Clear 9 1019 23 10000 1.15 199 19:52 29.01.2022
3398 Clear 8 1021 26 10000 1.65 194 19:31 29.01.2022
3399 Clear 7 1022 26 10000 0.45 128 18:44 29.01.2022
3400 Clear 5 1023 30 10000 1.34 119 17:55 29.01.2022
3401 Clear 2 1023 32 10000 1.34 168 16:59 29.01.2022
3402 Clear -3 1023 40 10000 0.45 184 15:27 29.01.2022
3403 Clear -3 1023 40 10000 0.45 196 13:48 29.01.2022
3404 Clear -3 1024 42 10000 0.45 192 13:27 29.01.2022
3405 Clear -3 1023 42 10000 0.45 192 12:58 29.01.2022
3406 Clear -2 1024 42 10000 1.34 183 11:39 29.01.2022
3407 Clear -3 1024 44 10000 0.89 212 10:33 29.01.2022
3408 Clear -2 1025 46 10000 0.45 182 08:19 29.01.2022
3409 Clear 1 1028 45 10000 2.22 226 02:26 29.01.2022
3410 Clear 6 1026 40 2477 1.91 219 00:31 29.01.2022
3411 Clear 8 1028 73 6768 1.34 171 23:29 28.01.2022
3412 Clear 8 1028 51 6768 1.34 127 22:46 28.01.2022
3413 Clear 8 1028 46 10000 1.34 160 22:19 28.01.2022
3414 Clear 6 1033 37 10000 1.34 152 20:41 28.01.2022
3415 Clear 5 1033 40 10000 0.89 133 19:56 28.01.2022
3416 Clear 2 1034 42 10000 0.89 217 18:52 28.01.2022
3417 Clear 0 1034 46 10000 0.45 169 17:52 28.01.2022
3418 Clear -7 1035 59 10000 0.89 194 15:50 28.01.2022
3419 Clear -9 1033 64 10000 2.45 206 14:46 28.01.2022
3420 Clear -10 1031 67 10000 0.89 191 12:40 28.01.2022
3421 Clear -9 1032 68 10000 0.45 63 11:38 28.01.2022
3422 Clear -9 1032 67 10000 1.34 196 10:26 28.01.2022
3423 Clear -9 1032 70 10000 1.34 186 09:45 28.01.2022
3424 Clear -10 1032 77 10000 0.89 186 07:40 28.01.2022
3425 Clouds -9 1032 82 10000 0.89 155 05:30 28.01.2022
3426 Clouds -8 1032 81 10000 0.89 209 03:48 28.01.2022
3427 Clouds -6 1032 78 10000 1.66 189 02:23 28.01.2022
3428 Clouds -5 1032 74 10000 1.66 189 01:35 28.01.2022
3429 Snow -2 1032 71 10000 0.45 55 23:47 27.01.2022
3430 Clouds -2 1030 80 1880 0.45 350 21:54 27.01.2022
3431 Clouds -3 1030 83 1880 0.89 28 21:32 27.01.2022
3432 Snow -3 1030 84 1225 1.79 43 20:55 27.01.2022
3433 Snow -3 1030 85 378 0.45 299 19:35 27.01.2022
3434 Snow -4 1029 83 173 0.45 5 17:56 27.01.2022
3435 Clouds -3 1026 60 10000 0.89 42 15:31 27.01.2022
3436 Clouds -3 1024 63 10000 0.89 36 13:39 27.01.2022
3437 Clouds -3 1024 61 10000 0.45 296 12:46 27.01.2022
3438 Clouds -2 1023 56 10000 0.89 171 10:57 27.01.2022
3439 Clouds -2 1022 52 10000 0.45 180 09:20 27.01.2022
3440 Clouds -2 1022 54 10000 0.45 150 08:38 27.01.2022
3441 Clouds -2 1022 58 10000 0.45 123 07:22 27.01.2022
3442 Clouds -2 1021 70 10000 0.45 278 02:57 27.01.2022
3443 Clear 3 1018 50 10000 0.45 41 23:45 26.01.2022
3444 Clear 4 1017 44 10000 0.89 93 22:26 26.01.2022
3445 Clear 3 1018 46 10000 0.45 180 21:37 26.01.2022
3446 Clear 3 1018 51 10000 0.45 294 20:41 26.01.2022
3447 Clear 2 1018 52 10000 0.45 123 20:23 26.01.2022
3448 Snow 1 1020 56 10000 0.45 302 19:23 26.01.2022
3449 Snow 0 1020 56 10000 0.45 9 18:45 26.01.2022
3450 Snow -2 1018 61 10000 0.45 294 17:51 26.01.2022
3451 Clear -5 1019 74 10000 0.45 280 17:23 26.01.2022
3452 Clear -6 1022 73 10000 2.4 199 16:35 26.01.2022
3453 Clear -9 1016 77 10000 2.57 290 15:49 26.01.2022
3454 Clear -9 1026 80 10000 1.49 220 14:20 26.01.2022
3455 Clear -9 1026 81 10000 1.74 209 11:54 26.01.2022
3456 Clear -9 1019 84 10000 2.29 194 10:28 26.01.2022
3457 Clear -9 1022 84 10000 0.45 188 09:48 26.01.2022
3458 Clear -9 1024 87 10000 0.89 101 07:45 26.01.2022
3459 Clouds -7 1025 87 10000 1.55 167 04:24 26.01.2022
3460 Snow -3 1024 80 10000 0.45 38 23:58 25.01.2022
3461 Snow -2 1024 82 10000 0.89 23 23:19 25.01.2022
3462 Snow -2 1023 83 10000 1.34 26 22:22 25.01.2022
3463 Snow -2 1023 84 10000 2.24 18 21:58 25.01.2022
3464 Snow -2 1023 86 4449 2.24 290 20:59 25.01.2022
3465 Snow -2 1023 87 4449 2.24 355 20:40 25.01.2022
3466 Snow -2 1023 88 315 1.34 53 19:53 25.01.2022
3467 Snow -2 1023 90 226 0.89 49 18:38 25.01.2022
3468 Snow -2 1021 90 180 1.34 21 17:45 25.01.2022
3469 Snow -2 1020 90 126 1.34 355 16:45 25.01.2022
3470 Mist -2 1019 90 1207 0.89 337 16:21 25.01.2022
3471 Snow -2 1018 90 2414 1.34 289 15:38 25.01.2022
3472 Snow -2 1017 89 137 0.89 15 14:57 25.01.2022
3473 Clouds -2 1016 86 158 0.45 345 13:42 25.01.2022
3474 Clouds -1 1014 64 10000 1.34 19 10:51 25.01.2022
3475 Clouds 0 1014 57 10000 0.45 39 08:37 25.01.2022
3476 Clouds -1 1014 54 10000 0.89 320 07:29 25.01.2022
3477 Clouds 0 1014 53 10000 1.34 112 06:49 25.01.2022
3478 Clouds 0 1014 51 10000 1.34 23 05:22 25.01.2022
3479 Clouds 7 1011 31 10000 0.89 90 23:37 24.01.2022
3480 Clear 7 1011 31 10000 1.34 115 23:18 24.01.2022
3481 Clouds 7 1012 31 10000 1.34 105 22:59 24.01.2022
3482 Clouds 7 1011 31 10000 1.34 148 22:41 24.01.2022
3483 Clear 7 1012 31 10000 1.34 103 21:53 24.01.2022
3484 Clear 7 1012 31 10000 1.34 103 21:53 24.01.2022
3485 Clear 7 1012 32 10000 1.79 79 21:28 24.01.2022
3486 Clear 7 1013 32 10000 1.79 72 20:30 24.01.2022
3487 Clear 7 1014 32 10000 2.24 68 19:44 24.01.2022
3488 Clear 7 1014 33 10000 1.34 69 19:24 24.01.2022
3489 Clear 5 1015 39 10000 1.34 48 17:59 24.01.2022
3490 Clear 3 1015 45 10000 0.89 103 17:23 24.01.2022
3491 Clear 1 1014 51 10000 0.45 101 16:41 24.01.2022
3492 Clear 0 1014 57 10000 0.45 96 16:18 24.01.2022
3493 Clouds -1 1012 58 10000 0.89 47 14:35 24.01.2022
3494 Clouds 0 1012 57 10000 0.45 219 12:40 24.01.2022
3495 Clouds 0 1011 57 10000 3.6 190 12:22 24.01.2022
3496 Clear 0 1012 62 10000 0.89 36 10:25 24.01.2022
3497 Clear 0 1012 60 10000 1.87 226 09:47 24.01.2022
3498 Clear 0 1013 61 10000 2.46 222 08:30 24.01.2022
3499 Clear 2 1014 54 10000 0.45 0 04:50 24.01.2022
3500 Clear 7 1014 33 10000 1.59 219 01:30 24.01.2022
3501 Clear 10 1014 27 10000 0.45 190 00:35 24.01.2022
3502 Clear 10 1014 27 10000 0.45 213 23:49 23.01.2022
3503 Clear 11 1016 28 10000 2.68 156 22:28 23.01.2022
3504 Clouds 10 1016 28 10000 0.89 250 21:44 23.01.2022
3505 Clear 10 1017 29 10000 1.34 195 21:24 23.01.2022
3506 Clear 9 1019 32 10000 0.45 251 20:30 23.01.2022
3507 Clouds 7 1021 37 10000 0.89 213 19:21 23.01.2022
3508 Clouds 6 1022 41 10000 0.45 200 18:44 23.01.2022
3509 Clouds 2 1022 51 10000 0.89 219 17:28 23.01.2022
3510 Clouds 1 1024 55 10000 2.6 201 16:45 23.01.2022
3511 Clouds -2 1026 65 10000 2.56 213 14:59 23.01.2022
3512 Clouds -2 1026 65 10000 1.16 251 14:21 23.01.2022
3513 Clouds -2 1022 64 10000 4.63 180 12:51 23.01.2022
3514 Clear -2 1023 64 10000 0.45 182 12:22 23.01.2022
3515 Clear -2 1023 64 10000 0.89 192 11:51 23.01.2022
3516 Clear -2 1024 66 10000 0.45 190 11:18 23.01.2022
3517 Clear -2 1024 66 10000 0.89 184 10:27 23.01.2022
3518 Clear -2 1024 65 10000 0.45 189 09:40 23.01.2022
3519 Clouds -2 1023 69 10000 1.23 254 08:51 23.01.2022
3520 Clouds -1 1025 71 10000 0.45 163 05:55 23.01.2022
3521 Clear 2 1024 54 10000 1.15 236 01:46 23.01.2022
3522 Clear 3 1023 51 10000 0.45 86 01:25 23.01.2022
3523 Clouds 6 1023 45 10000 0.45 30 00:23 23.01.2022
3524 Clouds 6 1024 46 10000 1.34 5 23:35 22.01.2022
3525 Clear 6 1026 47 10000 2.68 34 22:34 22.01.2022
3526 Clear 6 1023 52 10000 0.45 109 21:19 22.01.2022
3527 Clear 4 1024 60 10000 0.45 181 19:49 22.01.2022
3528 Rain 2 1025 69 10000 0.45 226 18:49 22.01.2022
3529 Snow 0 1025 73 10000 0.89 306 17:56 22.01.2022
3530 Clear -1 1025 78 10000 0.45 220 17:35 22.01.2022
3531 Clear -2 1025 80 10000 0.89 278 16:55 22.01.2022
3532 Clear -4 1024 85 10000 0.69 222 15:49 22.01.2022
3533 Clouds -5 1025 87 10000 1.83 198 14:57 22.01.2022
3534 Clouds -4 1026 89 10000 0.45 72 13:39 22.01.2022
3535 Clouds -4 1027 89 10000 0.45 207 12:48 22.01.2022
3536 Clouds -4 1027 90 10000 0.45 142 12:28 22.01.2022
3537 Clouds -3 1028 89 10000 0.45 207 10:56 22.01.2022
3538 Clouds -2 1029 89 10000 0.44 212 10:29 22.01.2022
3539 Clouds -2 1029 89 10000 0.44 212 09:58 22.01.2022
3540 Clouds -2 1029 89 10000 0.64 265 08:51 22.01.2022
3541 Clouds -2 1029 89 10000 0.99 281 07:34 22.01.2022
3542 Clouds 0 1028 88 10000 1.79 279 04:52 22.01.2022
3543 Clouds 0 1028 88 10000 1.79 279 04:52 22.01.2022
3544 Clouds 1 1026 91 3256 0.89 287 01:34 22.01.2022
3545 Snow 1 1024 89 1186 0.45 218 23:35 21.01.2022
3546 Clouds 1 1023 88 4949 0.45 217 22:27 21.01.2022
3547 Snow 1 1023 82 6179 0.45 276 20:20 21.01.2022
3548 Clouds 1 1021 77 4739 0.28 143 18:39 21.01.2022
3549 Clouds 1 1019 80 10000 0.45 0 17:28 21.01.2022
3550 Clouds -1 1018 79 10000 0.54 95 15:30 21.01.2022
3551 Clouds -1 1015 74 10000 0.45 247 13:29 21.01.2022
3552 Clouds -1 1017 71 10000 1.01 159 12:37 21.01.2022
3553 Clouds -1 1016 65 8711 0.11 103 11:27 21.01.2022
3554 Clouds -2 1013 60 10000 1.54 180 10:18 21.01.2022
3555 Clouds -2 1018 61 10000 1.44 214 08:23 21.01.2022
3556 Clear -4 1018 88 10000 0.45 186 04:49 21.01.2022
3557 Clear -4 1018 88 10000 0.45 186 04:49 21.01.2022
3558 Clouds 5 1020 56 10000 0.45 23 23:31 20.01.2022
3559 Clear 5 1022 51 10000 1.34 34 22:21 20.01.2022
3560 Clear 5 1023 49 10000 1.34 21 21:42 20.01.2022
3561 Clouds 4 1024 50 10000 0.45 203 20:40 20.01.2022
3562 Clear 2 1026 61 10000 1.34 140 19:19 20.01.2022
3563 Clear 2 1026 61 10000 1.34 140 19:19 20.01.2022
3564 Clear -1 1027 72 10000 0.89 203 18:23 20.01.2022
3565 Clear -5 1025 83 10000 0.45 198 16:53 20.01.2022
3566 Clear -7 1029 86 10000 0.45 192 15:41 20.01.2022
3567 Clear -7 1029 86 10000 1.22 170 14:41 20.01.2022
3568 Clouds -7 1028 86 10000 1.54 360 13:33 20.01.2022
3569 Clouds -7 1027 86 10000 1.02 131 12:32 20.01.2022
3570 Clouds -7 1028 86 10000 0.45 44 11:50 20.01.2022
3571 Clouds -6 1028 87 10000 2.57 250 10:38 20.01.2022
3572 Clouds -6 1029 87 10000 0.89 180 09:34 20.01.2022
3573 Clouds -6 1029 88 10000 0.45 29 07:50 20.01.2022
3574 Clouds -6 1024 86 10000 0.45 80 00:44 20.01.2022
3575 Clouds -5 1027 82 10000 2.45 56 22:54 19.01.2022
3576 Clouds -4 1027 86 10000 2.3 53 21:48 19.01.2022
3577 Clouds -5 1023 87 10000 0.89 30 21:23 19.01.2022
3578 Clouds -4 1023 88 10000 1.34 37 20:46 19.01.2022
3579 Clouds -4 1024 89 10000 0.45 59 19:42 19.01.2022
3580 Clouds -4 1023 90 1766 0.89 82 17:55 19.01.2022
3581 Clouds -4 1023 90 1766 0.45 52 17:35 19.01.2022
3582 Clouds -4 1022 89 2701 0.89 21 16:27 19.01.2022
3583 Clouds -3 1019 86 10000 0.45 78 13:42 19.01.2022
3584 Clouds -3 1018 84 5366 2.24 35 12:24 19.01.2022
3585 Clouds -3 1018 84 5366 0.89 339 11:39 19.01.2022
3586 Clouds -2 1017 77 10000 0.89 323 10:20 19.01.2022
3587 Clouds -1 1017 70 10000 2.24 308 09:33 19.01.2022
3588 Clouds 2 1014 49 10000 0.89 278 06:35 19.01.2022
3589 Clouds 6 1011 32 10000 1.34 38 01:55 19.01.2022
3590 Clouds 10 1008 23 10000 0.45 179 23:19 18.01.2022
3591 Clouds 11 1007 23 10000 0.89 128 22:18 18.01.2022
3592 Clouds 10 1008 27 10000 0.89 184 20:55 18.01.2022
3593 Clouds 9 1009 33 10000 0.45 208 19:54 18.01.2022
3594 Clouds 9 1010 31 10000 0.45 0 19:35 18.01.2022
3595 Clouds 7 1010 36 10000 0.45 68 18:36 18.01.2022
3596 Clouds 6 1010 39 10000 0.45 229 17:51 18.01.2022
3597 Clouds 4 1009 43 10000 1.81 231 16:35 18.01.2022
3598 Clouds 4 1009 45 10000 0.45 28 15:39 18.01.2022
3599 Clouds 3 1009 47 10000 0.45 180 15:19 18.01.2022
3600 Clouds 3 1008 46 10000 0.89 221 11:53 18.01.2022
3601 Clouds 3 1007 48 10000 0.89 223 10:43 18.01.2022
3602 Clouds 3 1008 49 10000 0.45 193 08:49 18.01.2022
3603 Clouds 3 1009 49 10000 1.55 214 07:46 18.01.2022
3604 Clouds 7 1011 40 10000 0.96 202 02:31 18.01.2022
3605 Clear 13 1011 29 10000 0.89 38 23:22 17.01.2022
3606 Clear 13 1012 26 10000 0.45 17 22:19 17.01.2022
3607 Clear 13 1008 23 10000 0.36 203 21:32 17.01.2022
3608 Clouds 13 1013 27 10000 0 0 19:51 17.01.2022
3609 Clear 9 1014 35 10000 0.89 114 18:28 17.01.2022
3610 Clear 5 1014 44 10000 1.34 122 17:24 17.01.2022
3611 Clouds 2 1014 46 10000 1.79 240 16:27 17.01.2022
3612 Clear 1 1014 45 10000 0.45 142 14:59 17.01.2022
3613 Clouds 1 1014 48 10000 0.45 191 14:33 17.01.2022
3614 Clouds 1 1014 47 10000 0.45 268 13:20 17.01.2022
3615 Clouds 1 1014 49 10000 0.45 255 12:54 17.01.2022
3616 Clouds 1 1013 48 10000 4.63 180 11:48 17.01.2022
3617 Clouds 0 1017 52 10000 1.94 209 10:21 17.01.2022
3618 Clouds 0 1014 55 10000 1.88 205 08:51 17.01.2022
3619 Clouds -1 1017 59 10000 2.08 197 07:22 17.01.2022
3620 Clouds -1 1017 59 10000 2.08 197 07:22 17.01.2022
3621 Clouds 3 1019 45 10000 1.2 50 02:23 17.01.2022
3622 Clouds 6 1019 34 10000 0.89 84 00:53 17.01.2022
3623 Clouds 12 1015 20 10000 1.98 24 21:26 16.01.2022
3624 Clouds 12 1015 25 10000 1.98 24 20:33 16.01.2022
3625 Clouds 9 1018 27 10000 0.45 281 18:50 16.01.2022
3626 Clouds 6 1018 33 10000 0.45 211 17:55 16.01.2022
3627 Clouds 3 1018 36 10000 0.89 205 16:56 16.01.2022
3628 Clouds 0 1018 41 10000 0.45 266 15:50 16.01.2022
3629 Clear -1 1017 47 10000 0.45 214 14:30 16.01.2022
3630 Clouds 0 1017 44 10000 0.89 245 13:33 16.01.2022
3631 Clouds 1 1017 41 10000 0.45 259 12:22 16.01.2022
3632 Clouds 2 1019 40 10000 0.89 16 11:29 16.01.2022
3633 Clouds 2 1019 39 10000 2.83 229 10:43 16.01.2022
3634 Clouds 1 1019 43 10000 3.11 225 09:58 16.01.2022
3635 Clouds 1 1020 47 10000 0.45 197 09:38 16.01.2022
3636 Clouds 1 1019 46 10000 0.45 209 09:19 16.01.2022
3637 Clouds 1 1020 54 10000 0.89 190 07:19 16.01.2022
3638 Clear 7 1019 46 10000 2.14 211 00:35 16.01.2022
3639 Clear 9 1021 43 10000 1.34 167 22:50 15.01.2022
3640 Clear 7 1025 41 10000 1.34 175 21:21 15.01.2022
3641 Clear 6 1026 41 10000 0.89 163 20:44 15.01.2022
3642 Clear 5 1026 44 10000 0.45 137 20:21 15.01.2022
3643 Clouds 3 1028 48 10000 1.34 238 19:26 15.01.2022
3644 Clear -1 1028 57 10000 0.89 215 17:58 15.01.2022
3645 Clear -4 1032 66 10000 2.88 174 16:49 15.01.2022
3646 Clear -7 1034 75 10000 2.9 174 14:36 15.01.2022
3647 Clouds -7 1030 77 10000 2.37 180 12:39 15.01.2022
3648 Clouds -7 1031 75 10000 0.81 221 11:20 15.01.2022
3649 Clouds -5 1031 72 10000 0.45 248 09:35 15.01.2022
3650 Snow 0 1025 77 10000 1.79 30 01:27 15.01.2022
3651 Snow 1 1022 75 3182 0.89 30 22:40 14.01.2022
3652 Clouds 3 1021 61 5564 1.34 47 20:54 14.01.2022
3653 Clouds 3 1021 66 10000 1.79 15 20:23 14.01.2022
3654 Clouds 3 1021 69 10000 2.24 325 19:49 14.01.2022
3655 Clouds 4 1021 59 10000 3.13 17 18:33 14.01.2022
3656 Clouds 5 1018 50 10000 0.89 341 16:56 14.01.2022
3657 Clouds 4 1018 52 10000 0.89 308 16:38 14.01.2022
3658 Clear 3 1015 51 10000 0.45 340 14:49 14.01.2022
3659 Clear 3 1013 52 10000 0.45 94 13:48 14.01.2022
3660 Clouds 3 1010 52 10000 0.45 138 12:34 14.01.2022
3661 Clouds 4 1011 50 10000 0.45 86 11:34 14.01.2022
3662 Clouds 4 1008 49 10000 0.89 277 10:22 14.01.2022
3663 Clouds 4 1010 54 10000 0.45 127 08:52 14.01.2022
3664 Clouds 4 1011 58 10000 0.45 107 07:27 14.01.2022
3665 Clouds 7 1014 65 10000 1.46 265 01:43 14.01.2022
3666 Clouds 12 1014 61 10000 1.58 320 23:36 13.01.2022
3667 Clouds 15 1015 53 10000 1.28 288 21:45 13.01.2022
3668 Clouds 15 1016 32 10000 1.16 224 21:27 13.01.2022
3669 Clouds 14 1018 33 10000 1.73 203 19:44 13.01.2022
3670 Clouds 12 1021 38 10000 2.03 196 19:22 13.01.2022
3671 Clouds 9 1023 41 10000 0.45 141 17:56 13.01.2022
3672 Clouds 4 1023 49 10000 0.89 192 16:43 13.01.2022
3673 Clouds 3 1023 53 10000 0.45 189 15:38 13.01.2022
3674 Clouds 3 1023 54 10000 0.45 190 14:50 13.01.2022
3675 Clouds 2 1023 58 10000 0.45 40 12:54 13.01.2022
3676 Clear 2 1024 58 10000 0.45 39 10:25 13.01.2022
3677 Clouds 3 1024 57 10000 0.45 61 09:20 13.01.2022
3678 Clouds 3 1024 56 10000 4.63 180 08:27 13.01.2022
3679 Clouds 3 1024 55 10000 0.45 267 07:24 13.01.2022
3680 Clouds 3 1024 54 10000 3.09 200 06:41 13.01.2022
3681 Clouds 4 1023 53 10000 0.45 197 05:20 13.01.2022
3682 Clouds 5 1023 50 10000 0.45 154 03:24 13.01.2022
3683 Clouds 10 1022 63 10000 2 225 00:56 13.01.2022
3684 Clouds 13 1021 59 10000 1.33 211 23:50 12.01.2022
3685 Clouds 13 1020 36 10000 1.01 258 23:29 12.01.2022
3686 Clouds 13 1020 26 10000 0.49 270 21:58 12.01.2022
3687 Clouds 13 1020 28 10000 0.89 158 21:23 12.01.2022
3688 Clouds 13 1020 28 10000 0.89 158 20:57 12.01.2022
3689 Clouds 12 1022 27 10000 1.39 184 19:57 12.01.2022
3690 Clouds 10 1026 31 10000 0.45 192 18:43 12.01.2022
3691 Clouds 7 1025 36 10000 0.45 115 17:50 12.01.2022
3692 Clouds 3 1024 44 10000 0.89 52 16:38 12.01.2022
3693 Clouds 0 1024 48 10000 0.45 325 14:49 12.01.2022
3694 Clouds 0 1022 45 10000 0.45 197 13:34 12.01.2022
3695 Clouds 0 1022 46 10000 0.45 198 12:34 12.01.2022
3696 Clear 0 1023 49 10000 0.45 191 08:50 12.01.2022
3697 Clear 1 1023 49 10000 0.89 115 07:52 12.01.2022
3698 Clouds 0 1023 48 10000 0.45 171 07:32 12.01.2022
3699 Clouds 4 1024 42 10000 1.56 272 01:26 12.01.2022
3700 Clouds 10 1023 12 10000 4.63 30 23:25 11.01.2022
3701 Clouds 11 1022 29 10000 1.87 39 22:24 11.01.2022
3702 Clouds 11 1023 30 10000 0.67 48 21:25 11.01.2022
3703 Clouds 11 1026 24 10000 3.09 340 20:33 11.01.2022
3704 Clouds 8 1027 32 10000 1.5 206 18:48 11.01.2022
3705 Clouds 6 1025 30 10000 0.45 254 17:46 11.01.2022
3706 Clouds 2 1025 32 10000 0.45 183 16:39 11.01.2022
3707 Clouds 0 1025 38 10000 0.45 168 15:59 11.01.2022
3708 Clouds 0 1025 36 10000 0.89 196 14:44 11.01.2022
3709 Clouds 0 1025 38 10000 1.34 192 13:58 11.01.2022
3710 Clouds 0 1024 39 10000 0.45 182 13:39 11.01.2022
3711 Clouds 0 1025 38 10000 0.45 198 13:21 11.01.2022
3712 Clouds 0 1024 39 10000 0.45 284 12:22 11.01.2022
3713 Clear 0 1025 40 10000 0.45 194 10:24 11.01.2022
3714 Clear 0 1026 46 10000 0.45 197 07:35 11.01.2022
3715 Clear 3 1028 40 10000 1.57 217 01:47 11.01.2022
3716 Clear 8 1027 56 10000 1.09 251 00:22 11.01.2022
3717 Clear 11 1027 56 10000 1.09 251 23:37 10.01.2022
3718 Clear 10 1028 60 10000 1.02 197 22:19 10.01.2022
3719 Clear 10 1028 23 10000 1.02 197 21:54 10.01.2022
3720 Clear 10 1028 24 10000 1.02 197 21:31 10.01.2022
3721 Clear 10 1029 24 10000 1.13 188 20:58 10.01.2022
3722 Clouds 10 1033 23 10000 3.09 170 20:58 10.01.2022
3723 Clouds 10 1033 26 10000 3.09 170 20:29 10.01.2022
3724 Clear 9 1036 27 10000 1.34 212 19:45 10.01.2022
3725 Clear 8 1036 29 10000 1.34 156 19:22 10.01.2022
3726 Clouds 7 1037 30 10000 0.45 193 18:54 10.01.2022
3727 Clouds 6 1037 31 10000 0.45 228 18:34 10.01.2022
3728 Clear 1 1037 41 10000 0.89 189 16:43 10.01.2022
3729 Clear -3 1036 48 10000 0.45 185 15:55 10.01.2022
3730 Clear -3 1035 51 10000 0.89 189 14:39 10.01.2022
3731 Clear -3 1036 53 10000 0.45 191 12:31 10.01.2022
3732 Clear -3 1035 53 10000 0.89 194 11:25 10.01.2022
3733 Clear -3 1034 57 10000 0.89 183 10:45 10.01.2022
3734 Clear -3 1034 64 10000 1.79 193 08:57 10.01.2022
3735 Clear -3 1036 76 10000 2.05 200 05:50 10.01.2022
3736 Clouds -1 1033 65 10000 0.45 29 01:33 10.01.2022
3737 Clouds 1 1032 58 10000 0.45 33 00:36 10.01.2022
3738 Clouds 3 1031 54 10000 0.45 169 23:54 09.01.2022
3739 Clouds 3 1030 56 10000 0.45 149 22:43 09.01.2022
3740 Clouds 2 1030 59 10000 0.89 20 21:47 09.01.2022
3741 Clouds 2 1030 61 10000 1.34 5 21:25 09.01.2022
3742 Clouds 2 1030 60 10000 0.89 33 21:25 09.01.2022
3743 Clouds 2 1030 61 10000 0.45 67 20:55 09.01.2022
3744 Clouds 1 1030 63 10000 0.89 276 20:37 09.01.2022
3745 Clear 1 1030 63 10000 0.89 25 20:18 09.01.2022
3746 Clear 0 1031 69 10000 0.89 28 19:37 09.01.2022
3747 Clear 0 1031 70 10000 0.45 324 19:18 09.01.2022
3748 Clouds 0 1030 68 10000 0.89 16 18:37 09.01.2022
3749 Clouds -2 1031 75 10000 0.45 212 17:48 09.01.2022
3750 Clouds -3 1029 82 10000 0.45 244 17:26 09.01.2022
3751 Clouds -4 1029 83 10000 1.18 171 16:38 09.01.2022
3752 Clouds -6 1028 85 10000 0.45 71 15:38 09.01.2022
3753 Clouds -6 1028 85 10000 0.45 36 14:41 09.01.2022
3754 Clouds -6 1028 84 10000 0.89 325 14:21 09.01.2022
3755 Clouds -6 1027 83 10000 0.45 328 13:41 09.01.2022
3756 Clouds -5 1026 83 10000 1.34 359 11:56 09.01.2022
3757 Clouds -5 1026 82 10000 0.89 298 11:24 09.01.2022
3758 Clouds -4 1026 79 10000 0.45 355 09:53 09.01.2022
3759 Clouds -3 1025 76 10000 0.89 32 08:54 09.01.2022
3760 Clouds 0 1023 65 10000 0.45 70 05:54 09.01.2022
3761 Clouds 4 1015 65 10000 0.45 284 01:26 09.01.2022
3762 Clouds 4 1014 67 10000 0.45 190 00:37 09.01.2022
3763 Clouds 5 1012 62 10000 0.89 194 23:30 08.01.2022
3764 Clouds 6 1010 58 10000 0.45 145 22:35 08.01.2022
3765 Clouds 6 1009 54 10000 0.45 170 21:27 08.01.2022
3766 Clouds 6 1009 53 10000 0.45 39 20:43 08.01.2022
3767 Clouds 6 1008 53 10000 0.45 92 20:21 08.01.2022
3768 Clouds 5 1008 54 10000 0.45 46 18:46 08.01.2022
3769 Clouds 3 1006 56 10000 0.45 20 17:24 08.01.2022
3770 Clouds 3 1005 55 10000 0.45 166 16:42 08.01.2022
3771 Clouds 1 1003 61 10000 0.45 23 14:52 08.01.2022
3772 Clear 1 1003 59 10000 0.45 155 13:56 08.01.2022
3773 Clouds 1 1001 59 10000 0.45 126 11:30 08.01.2022
3774 Clouds 1 1001 60 10000 0.45 187 10:33 08.01.2022
3775 Clouds 1 1001 61 10000 0.45 284 09:57 08.01.2022
3776 Clouds 2 1001 60 10000 2 216 09:30 08.01.2022
3777 Clouds 3 1002 61 10000 0.45 94 04:25 08.01.2022
3778 Clouds 4 1002 87 10000 3.26 211 00:59 08.01.2022
3779 Clouds 11 1001 92 2744 2.71 211 23:30 07.01.2022
3780 Clouds 8 1001 95 2490 1.96 225 21:46 07.01.2022
3781 Clouds 7 1003 97 2544 2.17 209 20:23 07.01.2022
3782 Clouds 5 1006 53 10000 2.55 208 19:26 07.01.2022
3783 Clouds 6 1008 68 10000 0.89 116 18:45 07.01.2022
3784 Clouds 5 1010 70 10000 0.45 152 17:58 07.01.2022
3785 Clouds 2 1010 73 10000 0.89 254 17:22 07.01.2022
3786 Clouds -2 1009 80 10000 0.45 193 14:50 07.01.2022
3787 Clouds -2 1009 81 10000 0.45 178 13:50 07.01.2022
3788 Clouds -1 1008 79 10000 0.45 148 12:50 07.01.2022
3789 Clouds -1 1009 76 10000 0.89 111 10:18 07.01.2022
3790 Clouds -10 1009 68 10000 0.45 200 02:59 07.01.2022
3791 Clouds -9 1009 69 10000 0.89 170 02:21 07.01.2022
3792 Clouds -9 1014 71 10000 0.45 87 01:45 07.01.2022
3793 Clouds -7 1019 71 10000 0.45 181 01:23 07.01.2022
3794 Clouds -4 1013 66 10000 0.34 6 00:28 07.01.2022
3795 Snow -1 1013 58 10000 1.34 26 21:56 06.01.2022
3796 Snow -7 1017 64 10000 0.89 130 20:37 06.01.2022
3797 Snow -7 1013 58 10000 0.89 168 19:54 06.01.2022
3798 Snow -10 1020 69 10000 0.89 242 19:29 06.01.2022
3799 Clouds -13 1023 75 10000 0.45 351 17:51 06.01.2022
3800 Clouds -14 1023 78 10000 0.45 89 17:19 06.01.2022
3801 Clouds -15 1023 80 10000 0.45 90 16:22 06.01.2022
3802 Clouds -16 1024 81 10000 0.45 186 15:41 06.01.2022
3803 Clouds -16 1024 80 10000 0.45 32 15:20 06.01.2022
3804 Clouds -16 1023 80 10000 0.45 83 14:19 06.01.2022
3805 Clouds -16 1023 80 10000 0.45 30 12:59 06.01.2022
3806 Clouds -16 1022 80 7365 1.34 32 11:58 06.01.2022
3807 Clouds -16 1022 80 10000 0.45 26 11:29 06.01.2022
3808 Snow -16 1022 81 1760 0.45 30 09:50 06.01.2022
3809 Snow -15 1020 79 155 0.45 87 05:55 06.01.2022
3810 Snow -7 1016 72 266 9.01 13 23:56 05.01.2022
3811 Clouds 1 1007 63 10000 6.16 17 23:21 05.01.2022
3812 Clouds 3 1006 59 10000 0.89 40 22:41 05.01.2022
3813 Clouds 5 1004 51 10000 3.13 32 21:59 05.01.2022
3814 Clouds 5 1000 46 10000 6.46 312 21:22 05.01.2022
3815 Clouds 7 1003 49 10000 0.45 147 20:30 05.01.2022
3816 Clouds 4 1004 56 10000 0.89 119 19:29 05.01.2022
3817 Clouds 1 1006 62 10000 0.45 175 18:20 05.01.2022
3818 Clouds -2 1008 71 10000 0.45 216 16:56 05.01.2022
3819 Clear -4 1014 75 10000 0.48 180 16:18 05.01.2022
3820 Clear -5 1015 72 10000 1.04 77 14:54 05.01.2022
3821 Clear -5 1015 69 10000 0.98 145 13:33 05.01.2022
3822 Clear -6 1016 79 10000 2.18 159 12:20 05.01.2022
3823 Clear -5 1016 76 10000 0.45 278 08:29 05.01.2022
3824 Clouds -2 1016 68 10000 0.89 76 06:37 05.01.2022
3825 Clear -2 1016 69 10000 1.34 72 06:37 05.01.2022
3826 Clear -2 1016 69 10000 1.34 72 06:37 05.01.2022
3827 Clouds 4 1011 40 10000 0.89 22 01:24 05.01.2022
3828 Clouds 7 1010 29 10000 2.24 327 23:42 04.01.2022
3829 Clouds 7 1010 26 10000 1.79 340 23:19 04.01.2022
3830 Clouds 9 1008 23 10000 2.24 286 21:36 04.01.2022
3831 Clouds 9 1010 23 10000 3.13 266 20:41 04.01.2022
3832 Clear 8 1010 24 10000 2.68 309 18:35 04.01.2022
3833 Clear 4 1009 37 10000 1.34 10 17:19 04.01.2022
3834 Clouds 0 1009 48 10000 0.89 271 16:31 04.01.2022
3835 Clear -1 1009 55 10000 0.45 325 14:58 04.01.2022
3836 Clear -1 1008 54 10000 0.89 306 14:37 04.01.2022
3837 Clear -1 1007 51 10000 1.34 0 13:55 04.01.2022
3838 Clouds -1 1006 51 10000 0.45 263 12:20 04.01.2022
3839 Clouds -1 1007 54 10000 1.34 268 10:21 04.01.2022
3840 Clouds -1 1008 59 10000 0.45 313 08:49 04.01.2022
3841 Clouds -1 1011 61 10000 0.45 76 06:28 04.01.2022
3842 Clouds 5 1016 92 2590 1.08 252 00:42 04.01.2022
3843 Clouds 5 1015 94 2529 0.64 267 23:54 03.01.2022
3844 Clouds 8 1014 25 2730 0.76 193 22:22 03.01.2022
3845 Clouds 8 1014 25 2730 0.76 193 21:38 03.01.2022
3846 Clouds 8 1015 31 10000 1.19 196 20:40 03.01.2022
3847 Clouds 5 1020 43 10000 0.45 190 18:55 03.01.2022
3848 Clouds 3 1020 47 10000 0.45 139 18:30 03.01.2022
3849 Clouds 0 1020 53 10000 0.45 263 17:20 03.01.2022
3850 Clouds -2 1020 57 10000 0.45 184 16:31 03.01.2022
3851 Clouds -4 1020 61 10000 0.45 256 14:31 03.01.2022
3852 Clouds -4 1021 60 10000 0.89 196 12:52 03.01.2022
3853 Clouds -5 1021 63 10000 0.45 184 11:50 03.01.2022
3854 Clouds -5 1022 64 10000 0.89 186 10:38 03.01.2022
3855 Clouds -4 1022 62 10000 0.45 186 09:28 03.01.2022
3856 Clouds -4 1023 63 10000 0.45 184 07:53 03.01.2022
3857 Clouds -2 1026 60 10000 1.79 211 02:56 03.01.2022
3858 Clouds 6 1023 53 1937 1.34 172 23:23 02.01.2022
3859 Clouds 6 1023 55 1937 0.89 154 22:56 02.01.2022
3860 Clouds 6 1023 45 10000 1.34 162 21:52 02.01.2022
3861 Clouds 5 1025 49 10000 0.45 129 20:50 02.01.2022
3862 Clear 4 1026 51 7889 0.89 144 20:29 02.01.2022
3863 Clear 3 1026 52 7889 0.89 170 19:31 02.01.2022
3864 Rain 1 1028 52 10000 1.34 153 18:56 02.01.2022
3865 Snow -1 1027 55 10000 0.45 221 17:56 02.01.2022
3866 Clear -2 1027 54 10000 0.45 221 17:38 02.01.2022
3867 Clear -4 1027 64 10000 0.45 221 17:20 02.01.2022
3868 Clear -10 1026 72 10000 1.34 184 16:27 02.01.2022
3869 Clear -11 1024 70 10000 0.89 191 14:41 02.01.2022
3870 Clear -13 1024 71 10000 1.34 188 13:25 02.01.2022
3871 Clear -13 1023 71 10000 1.34 190 12:31 02.01.2022
3872 Clear -14 1022 71 10000 1.34 186 11:41 02.01.2022
3873 Clear -14 1023 72 10000 0.45 220 10:53 02.01.2022
3874 Clear -14 1022 72 10000 0.45 136 09:55 02.01.2022
3875 Clouds -15 1022 77 10000 0.45 186 07:29 02.01.2022
3876 Clouds -15 1020 80 10000 0.45 0 02:20 02.01.2022
3877 Clouds -10 1018 74 10000 0.45 211 23:41 01.01.2022
3878 Clouds -10 1018 75 10000 0.45 213 23:23 01.01.2022
3879 Clouds -10 1017 75 10000 0.45 61 22:24 01.01.2022
3880 Clouds -11 1016 76 10000 0.45 28 21:44 01.01.2022
3881 Clouds -11 1016 78 10000 0.45 35 20:56 01.01.2022
3882 Snow -11 1016 79 865 0.45 90 20:19 01.01.2022
3883 Snow -12 1016 80 253 0.45 20 19:32 01.01.2022
3884 Snow -13 1017 81 171 0.45 37 18:29 01.01.2022
3885 Snow -14 1014 82 170 0.45 30 16:51 01.01.2022
3886 Snow -14 1013 82 145 0.89 38 16:29 01.01.2022
3887 Snow -14 1012 82 143 0.45 32 15:31 01.01.2022
3888 Snow -14 1010 83 275 1.79 27 14:22 01.01.2022
3889 Snow -13 1008 83 265 0.45 37 12:50 01.01.2022
3890 Snow -12 1006 82 261 0.45 23 11:59 01.01.2022
3891 Snow -12 1015 83 209 2.52 55 11:24 01.01.2022
3892 Mist -12 1006 83 6437 0.45 117 10:42 01.01.2022
3893 Snow -11 1007 84 376 0.89 74 09:47 01.01.2022
3894 Snow -10 1006 85 161 0.45 15 08:27 01.01.2022
3895 Snow -9 1006 86 161 0.89 16 07:56 01.01.2022
3896 Snow -9 1006 86 161 0.45 27 07:37 01.01.2022
3897 Snow -8 1006 86 213 0.45 51 06:42 01.01.2022
3898 Snow -8 1005 86 611 0.45 25 04:38 01.01.2022
3899 Snow -7 1005 86 157 0.89 32 03:38 01.01.2022
3900 Snow -1 998 82 798 1.79 78 23:52 31.12.2021
3901 Clouds 2 997 51 10000 1.79 115 21:54 31.12.2021
3902 Clouds 2 998 46 10000 1.79 132 20:41 31.12.2021
3903 Clouds 2 1000 53 10000 1.34 100 19:31 31.12.2021
3904 Clouds 1 1005 59 10000 1.08 69 18:44 31.12.2021
3905 Clouds 0 1000 62 10000 0.45 216 17:45 31.12.2021
3906 Clouds 0 1000 62 10000 0.45 105 17:19 31.12.2021
3907 Clouds -1 999 62 10000 0.45 279 16:44 31.12.2021
3908 Clear -1 998 63 10000 0.89 57 15:58 31.12.2021
3909 Clear -1 998 59 10000 0.45 59 15:31 31.12.2021
3910 Clear -1 997 54 10000 2.24 46 14:57 31.12.2021
3911 Clouds 0 997 53 10000 2.24 46 14:57 31.12.2021
3912 Clear 1 996 49 10000 0.89 360 14:31 31.12.2021
3913 Clear 1 995 49 10000 0.89 186 13:42 31.12.2021
3914 Clouds 1 995 47 10000 1.79 184 12:49 31.12.2021
3915 Clear 1 995 45 10000 0.89 191 11:52 31.12.2021
3916 Clear 1 995 44 10000 1.34 184 11:33 31.12.2021
3917 Clouds 1 996 41 10000 0.45 0 10:38 31.12.2021
3918 Clear 2 996 40 10000 0.45 214 10:20 31.12.2021
3919 Clear 2 996 40 10000 0.45 231 09:33 31.12.2021
3920 Clear 2 995 38 10000 0.45 81 08:49 31.12.2021
3921 Clear 3 996 36 10000 0.45 157 07:49 31.12.2021
3922 Clear 7 998 23 10000 1.34 213 00:47 31.12.2021
3923 Clear 8 998 20 10000 3.13 313 22:50 30.12.2021
3924 Clear 9 998 20 10000 3.13 303 22:26 30.12.2021
3925 Clear 9 998 19 10000 2.68 292 21:37 30.12.2021
3926 Clear 9 998 19 10000 2.68 292 21:37 30.12.2021
3927 Clear 8 999 19 10000 1.79 321 20:49 30.12.2021
3928 Clear 8 1000 20 10000 2.68 266 20:28 30.12.2021
3929 Clear 8 1001 21 10000 3.13 271 19:48 30.12.2021
3930 Clouds 7 1001 21 10000 2.24 269 19:18 30.12.2021
3931 Clear 6 1002 25 10000 2.24 269 18:20 30.12.2021
3932 Clear 2 1002 39 10000 1.34 152 16:37 30.12.2021
3933 Clear 0 1004 47 10000 0.45 214 15:52 30.12.2021
3934 Clear -1 1006 48 10000 0.45 188 14:49 30.12.2021
3935 Clear -1 1006 47 10000 0.89 187 14:30 30.12.2021
3936 Clear -2 1006 46 10000 0.89 32 13:23 30.12.2021
3937 Clear -1 1005 44 10000 0.89 189 11:35 30.12.2021
3938 Clear -1 1002 42 10000 2.68 176 10:27 30.12.2021
3939 Clear -2 1006 43 10000 2.53 209 09:27 30.12.2021
3940 Clear -3 1007 52 10000 2.02 178 06:55 30.12.2021
3941 Clouds -5 1007 48 10000 3.09 70 04:25 30.12.2021
3942 Clear -5 1008 46 10000 0.89 91 03:40 30.12.2021
3943 Clouds -1 1006 36 10000 0.45 98 00:42 30.12.2021
3944 Clouds 1 1005 34 10000 1.34 88 23:36 29.12.2021
3945 Clouds 1 1005 34 10000 0.45 80 22:32 29.12.2021
3946 Clouds 1 1004 34 10000 0.45 192 21:54 29.12.2021
3947 Clouds 0 1005 36 10000 1.34 93 20:56 29.12.2021
3948 Clouds -1 1005 38 10000 0.45 203 20:25 29.12.2021
3949 Clouds -2 1006 40 10000 0.45 75 19:31 29.12.2021
3950 Clouds -3 1008 44 10000 0.89 174 18:30 29.12.2021
3951 Clouds -5 1006 49 10000 0.45 189 17:30 29.12.2021
3952 Clouds -5 1004 49 10000 0.45 104 16:58 29.12.2021
3953 Clouds -7 1008 52 10000 2.5 16 16:19 29.12.2021
3954 Clear -6 1007 33 10000 2.41 13 14:59 29.12.2021
3955 Clear -7 1005 58 10000 1.67 13 12:57 29.12.2021
3956 Clear -8 1006 58 10000 1.8 13 12:30 29.12.2021
3957 Clear -8 1005 54 10000 1.62 3 10:53 29.12.2021
3958 Clear -7 1004 52 10000 1.8 4 09:24 29.12.2021
3959 Clouds -6 1001 47 10000 0.89 285 06:59 29.12.2021
3960 Clouds -6 1001 45 10000 0.89 271 06:30 29.12.2021
3961 Clouds -6 1001 46 10000 2.9 338 05:52 29.12.2021
3962 Clouds -4 1001 40 10000 1.34 146 03:48 29.12.2021
3963 Clouds 0 1000 32 10000 1.34 54 00:32 29.12.2021
3964 Clouds 1 1000 31 10000 1.79 52 23:57 28.12.2021
3965 Clouds 1 999 31 10000 1.34 118 22:56 28.12.2021
3966 Clouds 1 999 31 10000 2.24 107 22:24 28.12.2021
3967 Clouds 1 999 32 10000 2.24 78 21:54 28.12.2021
3968 Clear 1 998 33 10000 1.79 61 21:28 28.12.2021
3969 Clear 0 999 36 10000 1.79 54 19:52 28.12.2021
3970 Clear -1 1000 40 10000 1.34 76 18:53 28.12.2021
3971 Clear -1 1000 44 10000 1.34 61 18:25 28.12.2021
3972 Clear -3 999 50 10000 0.89 132 17:29 28.12.2021
3973 Clear -5 999 60 10000 0.89 159 15:53 28.12.2021
3974 Clear -5 998 61 10000 0.45 117 15:29 28.12.2021
3975 Clear -4 998 60 10000 0.45 126 14:55 28.12.2021
3976 Clear -4 997 59 10000 0.89 86 14:22 28.12.2021
3977 Clear -3 997 58 10000 0.89 41 13:58 28.12.2021
3978 Clouds -3 997 59 10000 0.89 62 13:34 28.12.2021
3979 Clouds -2 996 59 10000 0.45 85 12:55 28.12.2021
3980 Clouds -1 994 60 10000 1.34 77 12:19 28.12.2021
3981 Clear -1 993 53 10000 0.45 148 09:32 28.12.2021
3982 Clear 0 994 52 10000 0.45 273 07:33 28.12.2021
3983 Clouds 2 994 45 10000 5.66 200 03:31 28.12.2021
3984 Clouds 5 997 33 10000 0.89 9 23:37 27.12.2021
3985 Clouds 7 997 28 10000 1.79 256 22:20 27.12.2021
3986 Clear 8 998 27 10000 1.34 157 21:30 27.12.2021
3987 Clear 7 1000 29 10000 1.34 140 20:32 27.12.2021
3988 Clear 6 1002 32 10000 0.89 112 19:47 27.12.2021
3989 Clear 5 1004 35 10000 0.45 171 18:57 27.12.2021
3990 Clear 2 1006 45 10000 0.89 141 17:51 27.12.2021
3991 Clear 0 1005 50 10000 0.45 36 17:28 27.12.2021
3992 Clear -3 1010 38 10000 1.96 183 15:54 27.12.2021
3993 Clear -5 1011 61 10000 1.15 186 14:57 27.12.2021
3994 Clear -5 1011 60 10000 0.38 209 14:21 27.12.2021
3995 Clear -5 1010 58 10000 2.07 109 12:49 27.12.2021
3996 Clouds -3 1007 62 10000 4.63 110 10:37 27.12.2021
3997 Clear -2 1009 34 10000 1.13 151 10:18 27.12.2021
3998 Clear -1 1008 52 10000 0.89 78 08:42 27.12.2021
3999 Clouds -1 1006 50 10000 3.6 60 08:42 27.12.2021
4000 Clouds 1 1003 44 10000 0.45 319 07:34 27.12.2021
4001 Clouds 4 1001 44 10000 2.24 355 02:29 27.12.2021
4002 Clouds 5 998 43 10000 1.34 313 00:57 27.12.2021
4003 Clouds 8 995 26 10000 1.34 211 23:43 26.12.2021
4004 Clear 9 995 24 10000 2.68 277 23:18 26.12.2021
4005 Clouds 11 993 22 10000 0.45 272 21:33 26.12.2021
4006 Clear 10 994 29 10000 1.34 37 19:54 26.12.2021
4007 Clouds 9 996 33 10000 0.89 44 18:39 26.12.2021
4008 Clouds 8 996 34 10000 0.89 17 18:19 26.12.2021
4009 Clear 3 997 50 10000 0.45 117 15:35 26.12.2021
4010 Clouds 2 999 45 10000 1.79 245 13:43 26.12.2021
4011 Clouds 3 998 44 10000 1.34 213 13:21 26.12.2021
4012 Clouds 2 999 42 10000 1.79 180 12:35 26.12.2021
4013 Clouds 2 1001 40 10000 0.45 210 11:18 26.12.2021
4014 Clouds 2 1003 40 10000 0.45 114 09:30 26.12.2021
4015 Clouds 2 1004 42 10000 0.89 114 08:45 26.12.2021
4016 Clouds 2 1006 41 10000 1.34 178 08:23 26.12.2021
4017 Clear 6 1009 33 10000 0.89 25 01:50 26.12.2021
4018 Clear 9 1008 23 10000 0.45 210 00:39 26.12.2021
4019 Clear 11 1007 20 10000 0.89 250 23:35 25.12.2021
4020 Clouds 12 1007 20 10000 1.34 217 22:29 25.12.2021
4021 Clear 12 1007 20 10000 1.34 215 21:30 25.12.2021
4022 Clear 11 1008 24 10000 1.79 248 20:18 25.12.2021
4023 Clear 10 1009 29 10000 1.79 202 19:18 25.12.2021
4024 Clouds 9 1009 35 10000 1.79 219 18:29 25.12.2021
4025 Clear 5 1008 49 10000 0.89 189 16:49 25.12.2021
4026 Clear 2 1006 58 10000 0.45 190 15:30 25.12.2021
4027 Clouds 2 1005 60 10000 0.89 198 14:22 25.12.2021
4028 Clear 2 1003 62 10000 0.89 225 12:21 25.12.2021
4029 Clear 3 1002 63 10000 0.89 308 10:38 25.12.2021
4030 Clear 3 1001 64 10000 0.45 179 09:48 25.12.2021
4031 Clouds 3 999 69 10000 0.45 186 07:27 25.12.2021
4032 Clouds 3 998 84 10000 1.54 194 01:36 25.12.2021
4033 Clouds 5 998 82 10000 0.45 165 00:19 25.12.2021
4034 Clouds 7 996 66 10000 1.34 280 21:51 24.12.2021
4035 Clouds 8 996 55 10000 0.45 46 19:27 24.12.2021
4036 Clouds 8 996 55 10000 0.45 256 18:41 24.12.2021
4037 Clouds 5 997 66 10000 0.45 96 16:44 24.12.2021
4038 Clouds 4 997 72 10000 0.89 84 15:50 24.12.2021
4039 Clouds 4 997 72 10000 0.89 76 15:20 24.12.2021
4040 Clouds 5 996 69 10000 0.89 61 14:33 24.12.2021
4041 Clouds 7 995 61 10000 0.45 242 13:50 24.12.2021
4042 Clouds 8 994 59 10000 0.45 194 13:32 24.12.2021
4043 Clear 8 994 58 10000 0.45 194 12:39 24.12.2021
4044 Clear 9 994 57 10000 0.45 194 11:42 24.12.2021
4045 Clouds 9 994 56 10000 0.45 244 11:24 24.12.2021
4046 Clear 9 994 54 10000 3.62 206 10:34 24.12.2021
4047 Clouds 10 995 48 10000 0.89 331 08:48 24.12.2021
4048 Clear 10 995 46 10000 1.34 222 07:58 24.12.2021
4049 Clouds 10 995 48 10000 0.89 178 06:59 24.12.2021
4050 Clouds 15 1002 28 10000 0.89 272 00:22 24.12.2021
4051 Clouds 15 1002 27 10000 0.45 110 23:49 23.12.2021
4052 Clouds 17 1001 24 10000 1.34 188 22:53 23.12.2021
4053 Clouds 17 1001 23 10000 0.45 188 22:24 23.12.2021
4054 Clouds 17 1001 23 10000 0.89 131 21:41 23.12.2021
4055 Clouds 16 1003 24 10000 0.89 76 20:30 23.12.2021
4056 Clouds 14 1005 25 10000 1.34 84 19:30 23.12.2021
4057 Clouds 12 1008 30 10000 0.89 30 18:18 23.12.2021
4058 Clouds 10 1008 31 10000 0.45 19 17:45 23.12.2021
4059 Clouds 5 1006 36 10000 0.89 188 16:27 23.12.2021
4060 Clouds 6 1006 34 10000 1.79 196 15:40 23.12.2021
4061 Clouds 5 1008 36 10000 0.89 198 15:22 23.12.2021
4062 Clouds 5 1004 35 10000 0.45 268 14:40 23.12.2021
4063 Clouds 5 1007 34 10000 0.45 193 13:31 23.12.2021
4064 Clouds 5 1003 31 10000 0.45 280 11:49 23.12.2021
4065 Clouds 5 1008 30 10000 0.45 301 09:53 23.12.2021
4066 Clouds 5 1008 30 10000 0.45 301 09:53 23.12.2021
4067 Clouds 5 1007 29 10000 0.45 153 09:34 23.12.2021
4068 Clouds 6 1007 28 10000 0.45 325 08:28 23.12.2021
4069 Clouds 7 1009 23 10000 0.45 288 05:39 23.12.2021
4070 Clouds 11 1008 11 10000 0.45 64 01:31 23.12.2021
4071 Clouds 16 1007 14 10000 0.25 245 22:53 22.12.2021
4072 Clouds 16 1007 14 10000 0.23 200 22:19 22.12.2021
4073 Clouds 16 1007 15 10000 0.23 200 21:36 22.12.2021
4074 Clouds 16 1008 15 10000 0.52 147 21:18 22.12.2021
4075 Clouds 16 1007 12 10000 0.45 70 20:40 22.12.2021
4076 Clouds 14 1009 15 10000 0.89 74 19:54 22.12.2021
4077 Clouds 12 1011 18 10000 0.45 159 18:55 22.12.2021
4078 Clouds 9 1012 20 10000 0.89 280 17:38 22.12.2021
4079 Clouds 5 1012 21 10000 0.89 144 16:22 22.12.2021
4080 Clear 3 1011 19 10000 1.34 103 14:28 22.12.2021
4081 Clouds 3 1013 21 10000 0.89 123 12:53 22.12.2021
4082 Clear 3 1012 19 10000 0.45 216 11:42 22.12.2021
4083 Clouds 3 1012 21 10000 0.45 160 09:52 22.12.2021
4084 Clear 4 1013 22 10000 1.34 279 07:57 22.12.2021
4085 Clear 5 1013 20 10000 0.45 128 05:54 22.12.2021
4086 Clear 5 1013 20 10000 1.34 56 05:34 22.12.2021
4087 Clear 6 1013 19 10000 0.45 178 04:57 22.12.2021
4088 Clear 6 1013 18 10000 2.68 228 04:37 22.12.2021
4089 Clear 6 1013 18 10000 2.68 228 04:37 22.12.2021
4090 Clear 7 1012 17 10000 0.89 224 03:49 22.12.2021
4091 Clear 7 1013 17 10000 1.79 224 03:31 22.12.2021
4092 Clear 13 1012 13 10000 2.68 326 23:48 21.12.2021
4093 Clear 15 1011 13 10000 5.36 306 22:41 21.12.2021
4094 Clouds 15 1012 13 10000 3.13 269 21:56 21.12.2021
4095 Clear 16 1011 14 10000 0.66 194 21:32 21.12.2021
4096 Clear 15 1012 16 10000 0.8 171 20:24 21.12.2021
4097 Clear 15 1012 16 10000 0.8 171 19:55 21.12.2021
4098 Clouds 14 1014 18 10000 1.2 197 19:33 21.12.2021
4099 Clouds 11 1014 21 10000 0.89 215 18:23 21.12.2021
4100 Clouds 10 1014 20 10000 0.45 117 17:58 21.12.2021
4101 Clouds 7 1013 24 10000 0.45 215 17:29 21.12.2021
4102 Clouds 4 1015 27 10000 1.34 202 15:34 21.12.2021
4103 Clouds 4 1015 29 10000 0.45 180 14:20 21.12.2021
4104 Clouds 4 1014 28 10000 1.34 91 13:41 21.12.2021
4105 Clouds 5 1012 26 10000 0.45 193 12:25 21.12.2021
4106 Clouds 4 1012 31 10000 0.45 0 10:38 21.12.2021
4107 Clouds 4 1014 30 10000 0.45 72 09:42 21.12.2021
4108 Clouds 4 1012 34 10000 0.89 113 08:55 21.12.2021
4109 Clear 4 1014 33 10000 2.94 197 07:43 21.12.2021
4110 Clear 4 1015 37 10000 2.86 203 07:20 21.12.2021
4111 Clear 6 1016 33 10000 0.45 34 03:24 21.12.2021
4112 Clear 10 1016 24 10000 0.89 66 01:20 21.12.2021
4113 Clear 13 1016 20 10000 0.45 24 23:54 20.12.2021
4114 Clear 16 1015 18 10000 0.45 204 22:35 20.12.2021
4115 Clouds 16 1016 17 10000 0.45 299 21:51 20.12.2021
4116 Clear 16 1016 18 10000 1.85 160 21:24 20.12.2021
4117 Clear 15 1016 18 10000 0.89 232 20:51 20.12.2021
4118 Clear 15 1018 19 10000 0.89 214 20:19 20.12.2021
4119 Clear 14 1017 20 10000 0.45 103 19:36 20.12.2021
4120 Clouds 13 1018 20 10000 0.45 103 19:18 20.12.2021
4121 Clouds 10 1018 23 10000 0.89 228 18:30 20.12.2021
4122 Clouds 9 1019 23 10000 0.89 195 17:49 20.12.2021
4123 Clouds 5 1018 26 10000 0.45 210 16:45 20.12.2021
4124 Clouds 2 1020 29 10000 2.69 193 15:55 20.12.2021
4125 Clouds 2 1020 30 10000 2.69 193 15:31 20.12.2021
4126 Clouds 2 1019 29 10000 2.45 199 13:31 20.12.2021
4127 Clear 2 1017 29 10000 0.45 219 11:47 20.12.2021
4128 Clouds 2 1017 30 10000 3.09 190 10:35 20.12.2021
4129 Clouds 2 1016 28 10000 5.14 180 09:38 20.12.2021
4130 Clear 2 1016 28 10000 2.28 209 08:44 20.12.2021
4131 Clear 3 1016 27 10000 2.36 211 08:00 20.12.2021
4132 Clear 3 1016 26 10000 2.36 211 07:31 20.12.2021
4133 Clouds 4 1015 25 10000 0.89 344 06:32 20.12.2021
4134 Clouds 4 1015 25 10000 0.89 344 06:32 20.12.2021
4135 Clouds 11 1016 15 10000 0.89 6 00:19 20.12.2021
4136 Clouds 14 1011 12 10000 0.75 115 22:56 19.12.2021
4137 Clouds 15 1011 18 10000 0.58 77 21:58 19.12.2021
4138 Clouds 15 1011 18 10000 0.58 77 21:32 19.12.2021
4139 Clouds 14 1011 16 10000 0.98 125 20:35 19.12.2021
4140 Clouds 13 1016 18 10000 1.34 109 19:53 19.12.2021
4141 Clouds 13 1018 20 10000 0.45 146 19:32 19.12.2021
4142 Clouds 9 1017 25 10000 0.89 128 18:30 19.12.2021
4143 Clouds 8 1018 24 10000 0.45 187 17:53 19.12.2021
4144 Clouds 4 1018 27 10000 0.89 172 17:21 19.12.2021
4145 Clouds 1 1018 32 10000 0.45 182 16:27 19.12.2021
4146 Clear 1 1019 32 10000 0.89 189 15:50 19.12.2021
4147 Clear 0 1018 32 10000 0.45 183 15:23 19.12.2021
4148 Clear 0 1018 32 10000 0.45 207 14:44 19.12.2021
4149 Clouds 0 1017 31 10000 0.89 188 13:26 19.12.2021
4150 Clear 0 1017 30 10000 0.89 186 12:47 19.12.2021
4151 Clear 0 1017 30 10000 0.45 211 12:28 19.12.2021
4152 Clouds 0 1018 29 10000 1.34 182 11:26 19.12.2021
4153 Clear 0 1024 29 10000 0.89 54 10:28 19.12.2021
4154 Clear 0 1024 28 10000 0.89 40 09:53 19.12.2021
4155 Clear 0 1017 29 10000 0.45 246 08:45 19.12.2021
4156 Clear -1 1019 35 10000 0.45 260 04:45 19.12.2021
4157 Clear 0 1021 33 10000 1.44 206 01:34 19.12.2021
4158 Clear 2 1021 28 10000 0.89 214 00:53 19.12.2021
4159 Clear 6 1022 23 10000 1.34 23 22:42 18.12.2021
4160 Clear 6 1022 23 10000 0.89 25 22:20 18.12.2021
4161 Clear 6 1022 22 10000 0.89 288 21:41 18.12.2021
4162 Clear 6 1022 22 10000 0.89 360 21:22 18.12.2021
4163 Clear 4 1023 24 10000 1.34 18 20:19 18.12.2021
4164 Clear 3 1024 30 10000 0.45 296 19:25 18.12.2021
4165 Clear 0 1025 38 10000 0.89 265 18:22 18.12.2021
4166 Clear -1 1026 44 10000 1.65 165 17:48 18.12.2021
4167 Clear -6 1028 61 10000 1.14 163 16:26 18.12.2021
4168 Clear -8 1028 52 10000 0.98 162 15:27 18.12.2021
4169 Clear -8 1028 47 10000 0.98 162 14:48 18.12.2021
4170 Clear -8 1022 74 10000 2.57 160 13:28 18.12.2021
4171 Clear -8 1023 80 10000 4.12 170 11:22 18.12.2021
4172 Clear -8 1028 71 10000 2.63 120 09:40 18.12.2021
4173 Clear -8 1024 71 10000 3.19 83 08:47 18.12.2021
4174 Clear -8 1026 64 10000 3.41 72 08:24 18.12.2021
4175 Clouds -1 1021 35 10000 0.45 288 03:58 18.12.2021
4176 Clear 3 1016 26 10000 0.89 325 00:29 18.12.2021
4177 Clear 4 1015 25 10000 0.89 31 23:44 17.12.2021
4178 Clear 6 1013 23 10000 0.89 25 21:58 17.12.2021
4179 Clear 6 1013 23 10000 1.79 277 21:19 17.12.2021
4180 Clear 6 1013 25 10000 0.89 63 20:40 17.12.2021
4181 Clear 5 1013 32 10000 0.45 12 19:24 17.12.2021
4182 Clear 4 1014 38 10000 0.89 126 18:38 17.12.2021
4183 Clouds 1 1014 46 10000 0.45 243 17:31 17.12.2021
4184 Clear 0 1013 47 10000 0.89 202 16:49 17.12.2021
4185 Clear -2 1016 51 10000 0.31 219 16:22 17.12.2021
4186 Clear -2 1015 49 10000 1.6 198 15:25 17.12.2021
4187 Clear -3 1015 50 10000 1.6 198 14:40 17.12.2021
4188 Clouds -3 1011 52 10000 3.6 180 12:47 17.12.2021
4189 Clear -2 1014 49 10000 1.06 171 11:46 17.12.2021
4190 Clear -2 1007 48 10000 1.48 165 10:37 17.12.2021
4191 Clear -2 1010 47 10000 0.45 203 09:31 17.12.2021
4192 Clear -2 1010 45 10000 0.45 226 08:30 17.12.2021
4193 Clear 0 1008 41 10000 0.45 275 05:58 17.12.2021
4194 Clear 2 1008 34 10000 0.45 295 02:53 17.12.2021
4195 Clear 10 1006 20 10000 1.34 43 23:25 16.12.2021
4196 Clouds 11 1007 19 10000 1.34 74 22:24 16.12.2021
4197 Clear 11 1007 20 10000 1.34 74 22:24 16.12.2021
4198 Clear 11 1007 19 10000 0.89 24 21:50 16.12.2021
4199 Clear 11 1008 19 10000 0.89 19 21:25 16.12.2021
4200 Clear 10 1009 19 10000 1.34 17 20:30 16.12.2021
4201 Clear 9 1010 21 10000 0.45 37 19:42 16.12.2021
4202 Clear 7 1012 24 10000 0.45 218 18:38 16.12.2021
4203 Clear 6 1012 26 10000 0.89 165 17:56 16.12.2021
4204 Clear 4 1012 31 10000 0.45 123 17:30 16.12.2021
4205 Clear 0 1012 39 10000 2.3 185 16:21 16.12.2021
4206 Clear -1 1012 39 10000 0.45 328 14:50 16.12.2021
4207 Clear -2 1012 42 10000 0.45 172 13:25 16.12.2021
4208 Clear -2 1012 41 10000 0.45 115 11:20 16.12.2021
4209 Clear -2 1012 42 10000 1.21 161 10:58 16.12.2021
4210 Clear -2 1011 39 10000 0.45 93 10:20 16.12.2021
4211 Clear 1 1009 32 10000 0.45 245 07:31 16.12.2021
4212 Clear 1 1009 31 10000 0.89 183 06:19 16.12.2021
4213 Clouds 5 1002 26 10000 2.68 265 00:54 16.12.2021
4214 Clouds 7 999 22 10000 2.68 209 23:25 15.12.2021
4215 Clouds 8 997 22 10000 2.68 261 22:41 15.12.2021
4216 Clouds 8 994 23 10000 2.24 282 21:52 15.12.2021
4217 Clouds 8 992 23 10000 3.58 312 21:26 15.12.2021
4218 Clouds 7 990 25 10000 4.47 261 19:55 15.12.2021
4219 Clouds 7 989 26 10000 4.92 304 19:36 15.12.2021
4220 Clouds 6 989 35 10000 1.34 306 18:36 15.12.2021
4221 Clouds 5 989 58 10000 0.45 32 17:51 15.12.2021
4222 Clouds 5 993 61 8047 0.45 211 17:32 15.12.2021
4223 Rain 7 987 62 10000 2.24 93 16:27 15.12.2021
4224 Clouds 7 987 55 10000 1.79 174 15:46 15.12.2021
4225 Clouds 7 987 56 10000 0.45 205 15:27 15.12.2021
4226 Clear 7 991 50 10000 0.45 135 14:18 15.12.2021
4227 Clear 9 993 40 10000 2.24 179 12:32 15.12.2021
4228 Clear 10 999 36 10000 1.79 179 10:25 15.12.2021
4229 Clear 10 999 36 10000 2.68 168 08:54 15.12.2021
4230 Clear 8 1001 36 10000 1.34 131 06:45 15.12.2021
4231 Clouds 12 1005 26 10000 0.45 345 00:52 15.12.2021
4232 Clouds 16 1005 21 10000 0.89 33 23:41 14.12.2021
4233 Clouds 17 1006 19 10000 0.89 311 22:48 14.12.2021
4234 Clouds 17 1006 19 10000 1.47 213 21:51 14.12.2021
4235 Clouds 15 1005 20 10000 1.74 208 20:27 14.12.2021
4236 Clouds 15 1008 22 10000 0.89 222 19:40 14.12.2021
4237 Clouds 13 1010 24 10000 1.34 158 18:44 14.12.2021
4238 Clouds 11 1011 28 10000 1.79 228 17:58 14.12.2021
4239 Clouds 11 1011 29 10000 1.79 228 17:58 14.12.2021
4240 Clouds 8 1011 31 10000 0.89 198 17:27 14.12.2021
4241 Clouds 9 1010 29 10000 0.45 32 16:38 14.12.2021
4242 Clouds 7 1014 30 10000 1.34 201 15:26 14.12.2021
4243 Clouds 6 1014 27 10000 4.12 190 13:31 14.12.2021
4244 Clouds 6 1012 29 10000 2.33 212 11:58 14.12.2021
4245 Clouds 6 1012 28 10000 2.45 208 11:23 14.12.2021
4246 Clouds 6 1015 28 10000 5.66 190 09:57 14.12.2021
4247 Clouds 6 1013 28 10000 2.43 203 09:35 14.12.2021
4248 Clouds 6 1013 27 10000 2.13 208 08:23 14.12.2021
4249 Clouds 5 1013 29 10000 2.13 208 07:43 14.12.2021
4250 Clouds 6 1015 32 10000 0.89 247 02:25 14.12.2021
4251 Clouds 13 1012 20 10000 0.45 26 22:50 13.12.2021
4252 Clouds 13 1012 20 10000 1.34 355 21:52 13.12.2021
4253 Clouds 12 1012 21 10000 0.89 29 20:59 13.12.2021
4254 Clouds 12 1012 21 10000 0.89 317 20:34 13.12.2021
4255 Clouds 11 1013 22 10000 0.89 19 19:52 13.12.2021
4256 Clouds 9 1015 26 10000 0.45 266 17:56 13.12.2021
4257 Clouds 6 1016 31 10000 0.45 116 17:24 13.12.2021
4258 Clouds 2 1016 35 10000 1.35 193 15:50 13.12.2021
4259 Clouds 1 1016 37 10000 1.08 187 15:19 13.12.2021
4260 Clouds 1 1016 39 10000 0.79 200 13:38 13.12.2021
4261 Clouds 1 1013 41 10000 0.89 308 12:42 13.12.2021
4262 Clouds 2 1012 39 10000 0.45 306 11:54 13.12.2021
4263 Clouds 2 1014 37 10000 0.89 319 11:35 13.12.2021
4264 Clouds 3 1013 35 10000 0.79 304 10:43 13.12.2021
4265 Clouds 3 1011 35 10000 0.45 244 08:57 13.12.2021
4266 Clouds 4 1013 34 10000 0.45 274 07:38 13.12.2021
4267 Clouds 5 1013 35 10000 0.45 186 05:34 13.12.2021
4268 Clouds 13 1008 23 10000 2.32 215 00:43 13.12.2021
4269 Clouds 17 1005 18 10000 0.46 27 21:59 12.12.2021
4270 Clouds 17 1010 17 10000 3.6 360 21:35 12.12.2021
4271 Clouds 15 1008 22 10000 0.45 29 19:40 12.12.2021
4272 Clouds 11 1009 31 10000 0.45 194 18:35 12.12.2021
4273 Clouds 6 1010 45 10000 1.34 54 16:58 12.12.2021
4274 Clouds 2 1010 52 10000 0.45 159 16:27 12.12.2021
4275 Clouds 1 1010 54 10000 0.45 162 15:41 12.12.2021
4276 Clouds 1 1010 55 10000 0.45 167 15:21 12.12.2021
4277 Clouds 1 1010 54 10000 0.45 53 14:30 12.12.2021
4278 Clouds 1 1010 54 10000 0.45 274 13:22 12.12.2021
4279 Clouds 1 1010 55 10000 0.45 164 12:27 12.12.2021
4280 Clouds 1 1011 55 10000 0.89 188 11:44 12.12.2021
4281 Clouds 1 1011 54 10000 0.45 190 11:20 12.12.2021
4282 Clouds 2 1011 53 10000 0.45 182 10:22 12.12.2021
4283 Clouds 2 1012 52 10000 2.96 201 08:54 12.12.2021
4284 Clouds 1 1013 49 10000 1.34 251 07:31 12.12.2021
4285 Clouds 2 1013 43 10000 0.45 112 05:56 12.12.2021
4286 Clouds 2 1013 38 10000 0.89 219 04:55 12.12.2021
4287 Clouds 3 1014 35 10000 1.92 208 02:58 12.12.2021
4288 Clouds 8 1013 23 10000 1.54 350 23:31 11.12.2021
4289 Clouds 8 1013 22 10000 0.45 281 22:22 11.12.2021
4290 Clear 8 1013 24 10000 0.45 49 21:51 11.12.2021
4291 Clear 6 1015 26 10000 1.34 199 20:24 11.12.2021
4292 Clear 3 1017 29 10000 0.45 201 19:21 11.12.2021
4293 Clouds 3 1017 30 10000 0.45 217 18:51 11.12.2021
4294 Clear 1 1018 32 10000 0.45 173 18:19 11.12.2021
4295 Clear -3 1018 38 10000 0.45 214 16:59 11.12.2021
4296 Clear -7 1016 42 10000 0.45 0 15:48 11.12.2021
4297 Clear -7 1016 42 10000 0.89 212 14:54 11.12.2021
4298 Clear -7 1015 40 10000 0.45 215 12:49 11.12.2021
4299 Clear -7 1016 39 10000 0.89 238 11:24 11.12.2021
4300 Clear -7 1016 44 10000 0.45 215 09:45 11.12.2021
4301 Clear -6 1016 41 10000 0.89 262 07:32 11.12.2021
4302 Clouds -3 1011 35 10000 2.24 247 00:51 11.12.2021
4303 Snow -1 1009 32 10000 1.79 285 23:49 10.12.2021
4304 Clouds 0 1007 30 10000 1.34 346 23:18 10.12.2021
4305 Rain 1 1004 43 10000 2.68 17 21:52 10.12.2021
4306 Rain 1 1002 58 10000 1.34 44 20:57 10.12.2021
4307 Snow -1 1002 75 10000 0.89 355 19:21 10.12.2021
4308 Snow -1 1002 82 5690 0.89 345 17:54 10.12.2021
4309 Snow -1 1001 88 1806 1.34 26 16:55 10.12.2021
4310 Snow -1 1000 89 295 0.89 26 15:51 10.12.2021
4311 Snow -1 1000 88 189 0.89 20 15:29 10.12.2021
4312 Snow -1 1000 87 189 1.79 345 14:59 10.12.2021
4313 Snow -1 999 84 512 0.45 1 13:51 10.12.2021
4314 Clouds -1 999 82 10000 0.45 38 13:25 10.12.2021
4315 Clouds -1 998 77 10000 1.79 330 12:23 10.12.2021
4316 Clouds -1 998 75 10000 0.45 300 11:28 10.12.2021
4317 Clouds 0 995 68 10000 1.34 306 09:54 10.12.2021
4318 Clouds 0 995 67 10000 0.45 265 08:30 10.12.2021
4319 Clouds 2 997 61 10000 1.94 33 05:56 10.12.2021
4320 Clouds 4 1000 52 10000 0.89 289 02:47 10.12.2021
4321 Clouds 9 999 39 10000 0.89 213 23:44 09.12.2021
4322 Clouds 10 999 36 10000 0.89 30 22:59 09.12.2021
4323 Clouds 10 1000 36 10000 1.79 37 22:24 09.12.2021
4324 Clouds 10 1000 36 10000 0.45 294 21:48 09.12.2021
4325 Clouds 11 1000 33 10000 1.34 290 20:40 09.12.2021
4326 Clouds 11 1001 34 10000 0.45 302 19:46 09.12.2021
4327 Clouds 11 1002 34 10000 0.89 12 19:21 09.12.2021
4328 Clouds 10 1003 37 10000 0.45 350 18:25 09.12.2021
4329 Clouds 9 1002 40 10000 0.45 305 17:51 09.12.2021
4330 Clouds 7 1003 45 10000 0.89 191 17:25 09.12.2021
4331 Clouds 7 1003 45 10000 0.89 191 17:25 09.12.2021
4332 Clouds 6 1003 46 10000 0.45 210 16:50 09.12.2021
4333 Clouds 4 1002 55 10000 0.45 55 15:31 09.12.2021
4334 Clouds 4 1002 53 10000 0.89 55 14:43 09.12.2021
4335 Clouds 4 1001 50 10000 0.45 181 13:18 09.12.2021
4336 Clouds 4 1001 50 10000 2.52 193 12:31 09.12.2021
4337 Clouds 5 1002 50 10000 0.45 148 10:47 09.12.2021
4338 Clouds 5 1001 48 10000 0.45 229 08:20 09.12.2021
4339 Clouds 8 999 39 10000 0.89 42 05:54 09.12.2021
4340 Clouds 9 999 31 10000 1.34 288 01:52 09.12.2021
4341 Clouds 11 1000 25 10000 0.89 22 23:40 08.12.2021
4342 Clouds 12 1001 23 10000 2.06 360 23:20 08.12.2021
4343 Clouds 12 1001 23 10000 1.54 280 22:43 08.12.2021
4344 Clouds 12 1001 23 10000 0.45 211 21:39 08.12.2021
4345 Clouds 11 1002 23 10000 0.45 355 20:58 08.12.2021
4346 Clouds 11 1005 23 10000 0.89 5 19:57 08.12.2021
4347 Clouds 11 1005 24 10000 0.45 169 19:29 08.12.2021
4348 Clouds 9 1007 27 10000 0.45 186 18:28 08.12.2021
4349 Clouds 6 1009 33 10000 0.45 218 17:24 08.12.2021
4350 Clear 2 1009 36 10000 1.34 169 15:45 08.12.2021
4351 Clear 1 1009 38 10000 0.45 248 15:23 08.12.2021
4352 Clear 2 1009 38 10000 1.34 187 13:40 08.12.2021
4353 Clouds 3 1011 38 10000 0.45 194 10:45 08.12.2021
4354 Clear 3 1011 38 10000 0.45 178 10:23 08.12.2021
4355 Clear 3 1010 37 10000 0.45 0 08:54 08.12.2021
4356 Clear 3 1012 39 10000 0.45 198 06:36 08.12.2021
4357 Clear 9 1009 29 10000 0.89 236 01:20 08.12.2021
4358 Clear 12 1008 25 10000 1.79 282 23:29 07.12.2021
4359 Clear 10 1010 31 10000 0.45 217 21:26 07.12.2021
4360 Clouds 8 1011 36 10000 0.45 182 20:26 07.12.2021
4361 Clouds 8 1011 36 10000 0.45 234 20:26 07.12.2021
4362 Clouds 6 1013 40 10000 0.45 352 19:23 07.12.2021
4363 Clouds 5 1013 41 10000 0.45 250 18:32 07.12.2021
4364 Clouds 2 1014 48 10000 0.45 71 17:27 07.12.2021
4365 Clouds 2 1013 49 10000 0.45 41 16:56 07.12.2021
4366 Clouds 1 1014 49 10000 1.34 24 16:26 07.12.2021
4367 Clouds 2 1010 47 10000 0.89 24 14:38 07.12.2021
4368 Clouds 3 1010 46 10000 0.45 229 13:41 07.12.2021
4369 Clouds 4 1009 44 10000 0.45 68 12:27 07.12.2021
4370 Clouds 5 1009 42 10000 0.45 188 11:23 07.12.2021
4371 Clouds 4 1008 41 10000 0.45 250 09:40 07.12.2021
4372 Clouds 3 1011 43 10000 0.89 167 07:50 07.12.2021
4373 Clouds 3 1009 39 10000 1.79 242 05:52 07.12.2021
4374 Clouds 3 1011 39 10000 0.89 153 05:26 07.12.2021
4375 Clouds 3 1011 39 10000 0.89 119 05:26 07.12.2021
4376 Clouds 1 1014 39 10000 0.45 212 23:38 06.12.2021
4377 Clouds 1 1015 40 10000 0.45 282 22:41 06.12.2021
4378 Clouds 1 1015 40 10000 0.45 65 21:59 06.12.2021
4379 Clouds 0 1016 43 10000 0.45 13 21:31 06.12.2021
4380 Clouds -1 1017 45 10000 0.89 281 20:32 06.12.2021
4381 Clouds -2 1020 48 10000 0.89 91 19:24 06.12.2021
4382 Clouds -2 1020 46 10000 0.45 227 18:42 06.12.2021
4383 Clouds -4 1020 49 10000 0.45 149 17:54 06.12.2021
4384 Clouds -5 1021 52 10000 0.45 165 17:33 06.12.2021
4385 Clouds -7 1022 54 10000 0.84 147 15:52 06.12.2021
4386 Clouds -8 1021 53 10000 0.89 115 14:40 06.12.2021
4387 Clouds -7 1022 54 10000 0.45 130 13:28 06.12.2021
4388 Clouds -7 1022 55 10000 1.34 115 12:37 06.12.2021
4389 Clouds -6 1023 54 10000 0.45 130 10:28 06.12.2021
4390 Snow -6 1023 57 10000 0.45 121 07:41 06.12.2021
4391 Clouds -3 1020 61 10000 0.45 97 02:28 06.12.2021
4392 Clouds 17 1005 13 10000 0.45 355 22:26 05.12.2021
4393 Clouds 17 1005 11 10000 0.89 302 21:25 05.12.2021
4394 Clouds 17 1005 11 10000 0.45 355 20:54 05.12.2021
4395 Clouds 17 1004 11 10000 1.34 286 20:18 05.12.2021
4396 Clouds 16 1005 13 10000 1.34 256 19:26 05.12.2021
4397 Clouds 16 1005 14 10000 0.89 311 18:31 05.12.2021
4398 Clouds 15 1005 16 10000 0.45 222 17:52 05.12.2021
4399 Clouds 15 1004 16 10000 1.79 174 17:34 05.12.2021
4400 Clouds 13 1005 20 10000 0.45 287 16:36 05.12.2021
4401 Clouds 11 1004 23 10000 0.45 31 16:18 05.12.2021
4402 Clouds 9 1004 23 10000 1.32 196 14:48 05.12.2021
4403 Clouds 10 1004 25 10000 1.32 196 14:30 05.12.2021
4404 Clouds 10 1007 27 10000 0.45 222 13:35 05.12.2021
4405 Clouds 10 1006 26 10000 0.45 211 12:45 05.12.2021
4406 Clouds 10 1007 27 10000 0.45 211 12:26 05.12.2021
4407 Clouds 9 1008 28 10000 0.89 241 11:44 05.12.2021
4408 Clouds 8 1008 31 10000 0.89 254 10:43 05.12.2021
4409 Clouds 9 1008 30 10000 0.89 107 09:47 05.12.2021
4410 Clouds 9 1011 34 10000 0.45 236 06:30 05.12.2021
4411 Clear 12 1011 28 10000 0.45 275 01:29 05.12.2021
4412 Clear 19 1012 19 10000 0.45 100 23:22 04.12.2021
4413 Clouds 19 1013 22 10000 0.89 99 21:51 04.12.2021
4414 Clear 18 1013 25 10000 0.45 319 20:47 04.12.2021
4415 Clear 16 1014 27 10000 0.89 340 19:54 04.12.2021
4416 Clear 15 1015 30 10000 1.34 329 19:30 04.12.2021
4417 Clouds 12 1017 39 10000 0.45 97 17:53 04.12.2021
4418 Clouds 9 1017 44 10000 0.45 168 17:35 04.12.2021
4419 Clouds 9 1017 47 10000 1.45 191 16:47 04.12.2021
4420 Clouds 6 1015 55 10000 1.56 191 16:28 04.12.2021
4421 Clouds 4 1018 63 10000 2.17 187 13:39 04.12.2021
4422 Clear 4 1018 61 10000 0.64 56 11:44 04.12.2021
4423 Clear 4 1018 61 10000 0.93 26 11:19 04.12.2021
4424 Clear 3 1018 66 10000 0.77 159 10:24 04.12.2021
4425 Clear 3 1018 65 10000 0.55 77 08:42 04.12.2021
4426 Clear 5 1018 56 10000 0.45 272 05:30 04.12.2021
4427 Clear 6 1019 56 10000 0.45 271 04:40 04.12.2021
4428 Clouds 15 1016 33 10000 0.89 34 23:49 03.12.2021
4429 Clouds 16 1015 30 10000 1.79 11 22:55 03.12.2021
4430 Clouds 16 1015 30 10000 0.89 102 21:58 03.12.2021
4431 Clouds 16 1016 32 10000 1.79 71 21:24 03.12.2021
4432 Clouds 15 1016 35 10000 1.34 82 20:43 03.12.2021
4433 Clouds 12 1018 41 10000 0.45 113 19:36 03.12.2021
4434 Clouds 10 1020 47 10000 0.89 156 18:26 03.12.2021
4435 Clouds 8 1020 51 10000 0.45 68 17:42 03.12.2021
4436 Clear 6 1018 42 10000 0.45 67 13:48 03.12.2021
4437 Clear 8 1016 34 10000 1.65 22 12:51 03.12.2021
4438 Clear 9 1018 33 10000 4.12 180 11:24 03.12.2021
4439 Clear 9 1013 31 10000 0.89 181 09:44 03.12.2021
4440 Clear 10 1018 32 10000 4.12 200 08:21 03.12.2021
4441 Clear 10 1008 31 10000 2.35 205 07:29 03.12.2021
4442 Clear 13 1014 27 10000 0.45 259 01:51 03.12.2021
4443 Clear 16 1013 20 10000 0.99 264 00:42 03.12.2021
4444 Clear 19 1013 17 10000 0.89 330 23:42 02.12.2021
4445 Clear 21 1013 17 10000 2.24 322 21:42 02.12.2021
4446 Clear 21 1014 16 10000 0.89 33 20:56 02.12.2021
4447 Clear 21 1014 16 10000 0.89 290 20:35 02.12.2021
4448 Clear 21 1014 16 10000 0.89 290 20:35 02.12.2021
4449 Clouds 20 1015 17 10000 0.45 167 19:24 02.12.2021
4450 Clouds 16 1018 23 10000 0.89 180 17:36 02.12.2021
4451 Clear 10 1016 30 10000 0.45 174 15:42 02.12.2021
4452 Clear 9 1016 33 10000 0.45 211 14:58 02.12.2021
4453 Clear 9 1016 33 10000 0.45 178 13:56 02.12.2021
4454 Clear 9 1018 34 10000 0.89 186 12:52 02.12.2021
4455 Clear 9 1016 33 10000 0.89 188 12:52 02.12.2021
4456 Clear 9 1016 35 10000 0.45 180 11:56 02.12.2021
4457 Clear 9 1018 37 10000 0.45 196 09:34 02.12.2021
4458 Clear 9 1016 38 10000 0.45 112 08:35 02.12.2021
4459 Clear 13 1018 33 10000 0.45 198 03:39 02.12.2021
4460 Clouds 17 1021 21 10000 3.09 330 00:51 02.12.2021
4461 Clear 21 1014 20 10000 0.81 142 22:51 01.12.2021
4462 Clear 22 1019 20 10000 0.45 133 22:23 01.12.2021
4463 Clouds 21 1017 22 10000 0.45 212 20:36 01.12.2021
4464 Clear 21 1016 22 10000 1.34 338 20:36 01.12.2021
4465 Clear 21 1017 22 10000 1.34 325 19:53 01.12.2021
4466 Clear 19 1017 23 10000 0.89 221 19:25 01.12.2021
4467 Clouds 14 1018 31 10000 0.45 172 17:45 01.12.2021
4468 Clouds 14 1018 31 10000 0.45 172 17:45 01.12.2021
4469 Clear 12 1016 35 10000 0.45 151 16:40 01.12.2021
4470 Clear 7 1019 38 10000 0.45 187 14:50 01.12.2021
4471 Clouds 6 1018 36 10000 4.12 190 13:44 01.12.2021
4472 Clouds 6 1017 34 10000 0.45 213 12:30 01.12.2021
4473 Clouds 7 1016 32 10000 0.45 192 10:42 01.12.2021
4474 Clouds 8 1017 32 10000 0.89 275 08:58 01.12.2021
4475 Clouds 8 1018 33 10000 0.89 215 08:26 01.12.2021
4476 Clouds 8 1017 34 10000 0.89 32 07:33 01.12.2021
4477 Clouds 9 1016 30 10000 1.34 29 04:22 01.12.2021
4478 Clouds 9 1016 31 10000 0.89 28 03:39 01.12.2021
4479 Clouds 13 1014 21 10000 0.45 318 00:52 01.12.2021
4480 Clouds 15 1014 23 10000 0.45 0 23:45 30.11.2021
4481 Clouds 16 1014 23 10000 0.45 282 22:49 30.11.2021
4482 Clouds 15 1016 30 10000 1.34 184 21:28 30.11.2021
4483 Clear 13 1018 36 10000 0.45 105 20:37 30.11.2021
4484 Clear 12 1019 40 10000 1.34 209 19:53 30.11.2021
4485 Clouds 11 1020 43 10000 0.89 194 19:30 30.11.2021
4486 Clear 11 1020 43 10000 0.89 194 19:30 30.11.2021
4487 Clouds 9 1022 47 10000 0.89 114 18:33 30.11.2021
4488 Clouds 6 1024 56 10000 0.45 158 16:35 30.11.2021
4489 Clouds 4 1023 57 10000 0.45 140 14:58 30.11.2021
4490 Clouds 6 1021 50 10000 0.45 278 14:19 30.11.2021
4491 Clouds 7 1021 44 10000 0.45 45 13:25 30.11.2021
4492 Clouds 9 1019 37 10000 1.34 55 12:45 30.11.2021
4493 Clouds 8 1018 38 10000 0.89 221 11:27 30.11.2021
4494 Clouds 8 1018 45 10000 0.45 94 10:53 30.11.2021
4495 Clouds 9 1020 42 10000 1.13 22 10:30 30.11.2021
4496 Clouds 8 1013 44 10000 0.45 261 08:51 30.11.2021
4497 Clear 9 1014 42 10000 0.45 247 08:20 30.11.2021
4498 Clear 9 1015 42 10000 0.45 195 07:40 30.11.2021
4499 Clear 14 1015 32 10000 0.45 133 01:58 30.11.2021
4500 Clear 14 1014 31 10000 0.89 113 01:38 30.11.2021
4501 Clear 19 1015 24 10000 0.89 72 23:57 29.11.2021
4502 Clear 20 1014 22 10000 0.89 111 23:22 29.11.2021
4503 Clear 21 1013 22 10000 1.34 55 22:48 29.11.2021
4504 Clear 22 1014 21 10000 0.89 138 22:29 29.11.2021
4505 Clear 22 1014 21 10000 0.45 82 21:22 29.11.2021
4506 Clouds 22 1015 20 10000 0.45 63 20:56 29.11.2021
4507 Clear 22 1014 21 10000 1.34 28 20:23 29.11.2021
4508 Clear 21 1015 21 10000 0.89 33 19:50 29.11.2021
4509 Clear 21 1015 23 10000 1.79 17 19:27 29.11.2021
4510 Clear 17 1014 22 10000 1.47 197 18:48 29.11.2021
4511 Clear 12 1017 33 10000 2.87 211 17:22 29.11.2021
4512 Clear 12 1017 33 10000 2.84 211 16:57 29.11.2021
4513 Clear 10 1018 39 10000 3.02 215 16:28 29.11.2021
4514 Clear 10 1018 39 10000 3.02 215 15:32 29.11.2021
4515 Clear 9 1018 42 10000 2.97 215 14:42 29.11.2021
4516 Clear 9 1018 42 10000 2.85 215 13:32 29.11.2021
4517 Clear 9 1018 43 10000 2.91 206 12:28 29.11.2021
4518 Clear 9 1018 43 10000 2.91 206 11:34 29.11.2021
4519 Clear 9 1018 43 10000 2.85 206 10:32 29.11.2021
4520 Clear 11 1019 42 10000 2.45 216 09:24 29.11.2021
4521 Clear 11 1019 37 10000 2.54 213 06:19 29.11.2021
4522 Clear 15 1018 30 10000 1.83 233 01:38 29.11.2021
4523 Clouds 17 1017 28 10000 1.4 198 00:38 29.11.2021
4524 Clouds 19 1016 25 10000 0.64 133 23:43 28.11.2021
4525 Clouds 19 1016 23 10000 1.46 72 22:42 28.11.2021
4526 Clouds 18 1015 22 10000 1.77 83 21:41 28.11.2021
4527 Clouds 16 1016 23 10000 1.89 174 20:58 28.11.2021
4528 Clear 14 1018 26 10000 1.55 183 19:58 28.11.2021
4529 Clear 11 1020 27 10000 0.85 161 18:45 28.11.2021
4530 Clear 10 1020 31 10000 0.37 169 18:27 28.11.2021
4531 Clear 9 1020 31 10000 0.37 169 17:49 28.11.2021
4532 Clear 8 1020 31 10000 0.37 169 17:30 28.11.2021
4533 Clouds 3 1021 41 10000 1.29 212 16:28 28.11.2021
4534 Clouds 1 1021 41 10000 1.29 212 15:53 28.11.2021
4535 Clouds -1 1021 44 10000 1.8 189 14:57 28.11.2021
4536 Clouds 0 1021 44 10000 1.8 189 14:35 28.11.2021
4537 Clouds -1 1023 69 10000 5.14 180 12:58 28.11.2021
4538 Clouds -1 1022 44 10000 1.7 166 11:57 28.11.2021
4539 Clouds -1 1024 74 10000 4.12 200 10:37 28.11.2021
4540 Clouds -1 1022 46 10000 0.59 213 10:19 28.11.2021
4541 Clouds 0 1022 46 10000 0.59 213 09:36 28.11.2021
4542 Clouds 2 1021 43 10000 0.44 295 05:50 28.11.2021
4543 Clouds 11 1018 32 10000 2.91 107 23:33 27.11.2021
4544 Clear 12 1020 27 10000 2.23 96 20:33 27.11.2021
4545 Clouds 10 1022 26 10000 1.9 96 18:49 27.11.2021
4546 Clouds 4 1024 38 10000 3.09 130 16:31 27.11.2021
4547 Clear 4 1021 35 10000 2.16 164 15:32 27.11.2021
4548 Clear 4 1019 39 10000 1.85 127 13:46 27.11.2021
4549 Clouds 5 1016 36 10000 0.44 139 12:29 27.11.2021
4550 Clouds 9 1015 35 10000 1.94 226 10:32 27.11.2021
4551 Clouds 9 1015 34 10000 2.21 213 09:43 27.11.2021
4552 Clouds 10 1014 31 10000 2.07 228 07:44 27.11.2021
4553 Clouds 11 1018 31 10000 2.57 200 04:57 27.11.2021
4554 Clouds 17 1012 23 10000 0.57 319 00:55 27.11.2021
4555 Clouds 19 1012 20 10000 1.21 57 23:29 26.11.2021
4556 Clouds 20 1012 19 10000 1.23 97 22:25 26.11.2021
4557 Clouds 20 1012 19 10000 1.23 97 22:25 26.11.2021
4558 Clouds 20 1012 19 10000 1.23 97 21:35 26.11.2021
4559 Clouds 18 1012 19 10000 1.21 147 20:45 26.11.2021
4560 Clouds 17 1014 21 10000 1.21 130 19:56 26.11.2021
4561 Clear 16 1016 23 10000 0.3 86 19:28 26.11.2021
4562 Clear 11 1018 26 10000 0.97 184 17:56 26.11.2021
4563 Clear 10 1019 30 10000 1.71 197 17:22 26.11.2021
4564 Clouds 5 1022 45 10000 4.63 180 15:56 26.11.2021
4565 Clear 5 1022 42 10000 0.45 188 13:35 26.11.2021
4566 Clear 5 1021 42 10000 0.45 189 12:30 26.11.2021
4567 Clear 5 1021 40 10000 0.89 211 10:37 26.11.2021
4568 Clear 5 1022 38 10000 1.34 176 08:58 26.11.2021
4569 Clear 5 1022 38 10000 0.89 200 08:21 26.11.2021
4570 Clear 5 1024 37 10000 0.45 186 07:26 26.11.2021
4571 Clear 5 1024 36 10000 0.45 223 06:26 26.11.2021
4572 Clear 5 1025 34 10000 0.45 191 04:51 26.11.2021
4573 Clear 7 1025 27 10000 2.26 241 02:52 26.11.2021
4574 Clear 14 1025 16 10000 1.79 286 23:18 25.11.2021
4575 Clear 13 1025 21 10000 0.89 238 21:27 25.11.2021
4576 Clear 11 1026 26 10000 0.89 182 20:29 25.11.2021
4577 Clouds 7 1028 32 10000 0.89 190 18:48 25.11.2021
4578 Clouds 4 1029 38 10000 1.34 179 17:48 25.11.2021
4579 Clouds 2 1029 45 10000 0.89 187 17:25 25.11.2021
4580 Clouds 0 1029 46 10000 0.45 223 16:33 25.11.2021
4581 Clouds -4 1029 58 10000 0.89 176 15:33 25.11.2021
4582 Clouds -4 1030 63 10000 0.45 187 13:50 25.11.2021
4583 Clear -4 1028 69 10000 0.89 194 12:27 25.11.2021
4584 Clear -4 1029 72 10000 2.99 188 11:51 25.11.2021
4585 Clear -4 1029 80 10000 0.45 173 09:41 25.11.2021
4586 Clouds -2 1029 75 10000 0.89 130 06:22 25.11.2021
4587 Snow 0 1026 78 10000 0.45 53 02:50 25.11.2021
4588 Clouds 4 1020 49 10000 0.89 15 23:28 24.11.2021
4589 Clouds 5 1018 44 10000 0.89 240 22:26 24.11.2021
4590 Clouds 6 1017 42 10000 0.45 170 21:38 24.11.2021
4591 Clouds 6 1016 43 10000 0.45 345 20:53 24.11.2021
4592 Clouds 5 1016 44 10000 0.89 96 20:26 24.11.2021
4593 Clouds 5 1015 40 10000 0.45 334 18:31 24.11.2021
4594 Clouds 5 1014 41 8614 0.45 56 17:59 24.11.2021
4595 Clouds 4 1011 41 7062 0.89 109 15:47 24.11.2021
4596 Clouds 4 1010 39 10000 1.34 105 14:53 24.11.2021
4597 Clouds 5 1009 38 10000 0.45 81 14:20 24.11.2021
4598 Clouds 6 1006 40 10000 1.79 86 12:47 24.11.2021
4599 Clouds 7 1005 38 10000 0.89 229 11:21 24.11.2021
4600 Clouds 8 1005 38 10000 0.45 162 10:49 24.11.2021
4601 Clouds 8 1005 36 10000 1.34 317 10:26 24.11.2021
4602 Clouds 10 1003 30 10000 0.89 355 07:55 24.11.2021
4603 Clouds 11 1002 28 10000 0.89 266 06:55 24.11.2021
4604 Clouds 13 1003 24 10000 1.34 240 03:55 24.11.2021
4605 Clouds 16 1001 16 10000 0.89 302 00:53 24.11.2021
4606 Clouds 19 1001 10 10000 1.34 74 22:40 23.11.2021
4607 Clouds 20 1002 10 10000 0.45 89 22:20 23.11.2021
4608 Clouds 20 1002 9 10000 0.89 92 21:44 23.11.2021
4609 Clouds 20 1002 9 10000 0.89 92 21:44 23.11.2021
4610 Clouds 20 1005 10 10000 0.45 84 19:43 23.11.2021
4611 Clouds 18 1007 13 10000 0.89 146 18:43 23.11.2021
4612 Clouds 16 1007 15 10000 0.45 358 18:22 23.11.2021
4613 Clouds 13 1009 18 10000 0.89 200 17:19 23.11.2021
4614 Clouds 8 1010 23 10000 0.89 178 16:34 23.11.2021
4615 Clear 6 1009 25 10000 0.89 188 15:22 23.11.2021
4616 Clear 6 1010 25 10000 0.45 182 14:26 23.11.2021
4617 Clear 6 1015 27 10000 1.54 260 11:43 23.11.2021
4618 Clear 7 1012 27 10000 2.29 206 10:19 23.11.2021
4619 Clear 7 1013 28 10000 2.26 212 09:18 23.11.2021
4620 Clear 7 1016 28 10000 0.89 172 06:45 23.11.2021
4621 Clear 9 1019 28 10000 0.45 281 03:52 23.11.2021
4622 Clear 10 1019 26 10000 1.34 294 02:57 23.11.2021
4623 Clear 19 1018 13 10000 0.45 346 23:21 22.11.2021
4624 Clear 20 1018 12 10000 0.87 1 22:52 22.11.2021
4625 Clear 20 1019 12 10000 1.34 49 22:25 22.11.2021
4626 Clear 20 1019 12 10000 1.34 49 22:25 22.11.2021
4627 Clear 20 1020 13 10000 0.45 229 21:41 22.11.2021
4628 Clouds 19 1021 13 10000 0.45 182 20:52 22.11.2021
4629 Clouds 18 1021 14 10000 0.89 0 19:56 22.11.2021
4630 Clear 17 1024 17 10000 0.89 124 19:19 22.11.2021
4631 Clear 16 1023 18 10000 0.89 120 18:39 22.11.2021
4632 Clear 13 1023 21 10000 0.89 0 17:38 22.11.2021
4633 Clear 6 1024 29 10000 0.45 190 16:18 22.11.2021
4634 Clear 4 1025 29 10000 0.45 186 13:58 22.11.2021
4635 Clear 4 1024 27 10000 2.06 207 12:18 22.11.2021
4636 Clear 4 1024 24 10000 1.99 207 10:43 22.11.2021
4637 Clear 4 1024 26 10000 0.45 222 09:43 22.11.2021
4638 Clear 4 1025 27 10000 0.45 186 08:40 22.11.2021
4639 Clear 3 1025 35 10000 0.89 186 06:22 22.11.2021
4640 Clouds 14 1024 16 10000 0.45 134 23:28 21.11.2021
4641 Clouds 14 1024 17 10000 0.89 128 22:49 21.11.2021
4642 Clouds 13 1024 21 10000 0.45 216 21:53 21.11.2021
4643 Clear 12 1025 27 10000 1.34 139 20:42 21.11.2021
4644 Clear 10 1027 32 10000 1.34 118 19:48 21.11.2021
4645 Clear 7 1029 44 10000 1.34 193 18:24 21.11.2021
4646 Clear 6 1029 47 10000 0.89 155 17:38 21.11.2021
4647 Clear 1 1030 61 10000 2.19 196 15:49 21.11.2021
4648 Clear 0 1030 70 10000 1.09 197 14:45 21.11.2021
4649 Clear 0 1029 67 10000 0.61 158 13:46 21.11.2021
4650 Clear 1 1025 65 10000 1.34 302 12:35 21.11.2021
4651 Clear 1 1024 69 10000 0.89 305 11:42 21.11.2021
4652 Clear 1 1026 72 10000 0.69 249 11:23 21.11.2021
4653 Clear 1 1027 77 10000 1.39 191 10:18 21.11.2021
4654 Clouds 2 1025 79 10000 0.45 166 08:42 21.11.2021
4655 Clouds 2 1025 79 10000 0.45 212 08:22 21.11.2021
4656 Clouds 2 1024 79 10000 0.45 199 07:43 21.11.2021
4657 Clouds 4 1023 76 10000 1.71 158 05:49 21.11.2021
4658 Clouds 4 1022 75 10000 1.71 135 05:19 21.11.2021
4659 Clouds 6 1021 60 10000 0.45 176 03:18 21.11.2021
4660 Clouds 6 1021 60 10000 0.45 144 02:50 21.11.2021
4661 Clouds 8 1019 52 10000 1.79 46 00:56 21.11.2021
4662 Clouds 10 1017 38 10000 1.79 80 23:43 20.11.2021
4663 Clouds 12 1015 34 10000 1.34 36 21:40 20.11.2021
4664 Clouds 12 1015 33 10000 1.79 94 20:54 20.11.2021
4665 Clouds 12 1016 33 10000 0.45 299 18:46 20.11.2021
4666 Clouds 12 1016 33 10000 0.45 299 18:46 20.11.2021
4667 Clouds 11 1016 34 10000 0.45 221 18:26 20.11.2021
4668 Clouds 9 1017 40 10000 0.45 192 17:26 20.11.2021
4669 Clouds 7 1019 43 10000 0.75 91 16:42 20.11.2021
4670 Clear 3 1018 54 10000 0.15 23 14:43 20.11.2021
4671 Clouds 3 1018 53 10000 1.54 20 14:23 20.11.2021
4672 Clouds 4 1016 45 10000 0.89 355 11:56 20.11.2021
4673 Clouds 5 1016 42 10000 0.89 222 10:35 20.11.2021
4674 Clouds 6 1015 42 10000 0.89 9 09:29 20.11.2021
4675 Clouds 7 1013 39 10000 0.45 287 07:22 20.11.2021
4676 Clouds 8 1013 39 10000 0.45 165 05:26 20.11.2021
4677 Clouds 9 1013 39 10000 0.45 265 04:50 20.11.2021
4678 Clouds 13 1012 28 10000 1.34 287 01:48 20.11.2021
4679 Clouds 14 1007 26 10000 3.13 352 00:40 20.11.2021
4680 Clouds 18 1010 22 10000 0.89 42 22:55 19.11.2021
4681 Clouds 18 1010 21 10000 2.68 319 21:58 19.11.2021
4682 Clouds 18 1012 19 10000 0.45 143 20:57 19.11.2021
4683 Clouds 18 1013 19 10000 1.34 117 20:36 19.11.2021
4684 Clouds 17 1013 19 10000 0.45 93 19:50 19.11.2021
4685 Clouds 16 1014 20 10000 0.89 68 18:53 19.11.2021
4686 Clouds 14 1014 22 10000 0.89 51 18:22 19.11.2021
4687 Clouds 11 1015 25 10000 0.45 28 17:26 19.11.2021
4688 Clouds 5 1017 28 10000 0.45 176 15:32 19.11.2021
4689 Clouds 5 1016 22 10000 0.89 31 13:25 19.11.2021
4690 Clouds 6 1017 21 10000 0.45 221 10:27 19.11.2021
4691 Clouds 6 1017 20 10000 1.34 186 09:37 19.11.2021
4692 Clouds 5 1015 24 10000 2.3 203 07:41 19.11.2021
4693 Clouds 3 1018 42 10000 1.11 202 04:29 19.11.2021
4694 Clear 4 1020 35 10000 0.23 341 02:26 19.11.2021
4695 Clouds 10 1021 16 10000 0.45 21 23:51 18.11.2021
4696 Clouds 11 1021 15 10000 0.89 119 21:50 18.11.2021
4697 Clouds 10 1023 16 10000 0.45 216 20:48 18.11.2021
4698 Clouds 10 1024 16 10000 0.45 167 20:30 18.11.2021
4699 Clouds 9 1025 19 10000 0.45 159 19:44 18.11.2021
4700 Clouds 7 1027 24 10000 0.45 247 18:55 18.11.2021
4701 Clouds 5 1028 29 10000 0.45 217 18:27 18.11.2021
4702 Clouds 5 1026 32 10000 0.45 270 17:49 18.11.2021
4703 Clouds 2 1028 37 10000 1.16 185 16:44 18.11.2021
4704 Clouds -5 1030 59 10000 1.55 166 15:25 18.11.2021
4705 Clear -5 1027 66 10000 5.66 190 13:31 18.11.2021
4706 Clear -5 1030 62 10000 1.75 181 12:33 18.11.2021
4707 Clear -5 1030 65 10000 1.75 181 11:42 18.11.2021
4708 Clear -5 1030 65 10000 1.7 183 11:24 18.11.2021
4709 Clear -4 1030 64 10000 1.48 184 09:34 18.11.2021
4710 Clear -4 1028 59 10000 4.12 180 07:34 18.11.2021
4711 Clear -3 1028 56 10000 4.12 160 05:48 18.11.2021
4712 Clear -3 1027 55 10000 3.6 170 04:54 18.11.2021
4713 Clouds 0 1025 44 10000 0.45 111 01:23 18.11.2021
4714 Clouds 3 1023 38 10000 0.45 42 22:49 17.11.2021
4715 Clouds 3 1022 39 10000 0.89 72 22:20 17.11.2021
4716 Clouds 3 1022 40 10000 0.89 294 21:38 17.11.2021
4717 Clouds 2 1022 41 10000 0.89 78 20:56 17.11.2021
4718 Clouds 0 1023 48 10000 0.89 78 18:27 17.11.2021
4719 Clouds -1 1022 58 10000 0.45 105 17:27 17.11.2021
4720 Clouds -3 1020 72 10000 0.45 15 14:51 17.11.2021
4721 Clouds -2 1022 69 10000 4.08 78 12:41 17.11.2021
4722 Clouds 0 1018 48 10000 1.34 55 11:44 17.11.2021
4723 Clouds 1 1016 45 10000 0.45 82 10:28 17.11.2021
4724 Clear 2 1015 48 10000 4.3 86 09:24 17.11.2021
4725 Clear 6 1010 48 10000 1.34 52 07:44 17.11.2021
4726 Clouds 12 1005 27 10000 1.34 292 03:51 17.11.2021
4727 Clouds 12 1005 27 10000 1.34 292 03:51 17.11.2021
4728 Clouds 16 1003 21 10000 2.24 279 01:21 17.11.2021
4729 Clouds 20 1002 16 10000 1.79 302 23:18 16.11.2021
4730 Clouds 21 1000 14 10000 1.34 281 21:23 16.11.2021
4731 Clouds 21 1001 15 10000 0.45 320 20:18 16.11.2021
4732 Clouds 19 1003 20 10000 0.89 119 18:54 16.11.2021
4733 Clouds 19 1003 21 10000 0.45 119 18:35 16.11.2021
4734 Clouds 17 1006 26 10000 0.45 207 17:40 16.11.2021
4735 Clouds 15 1001 30 10000 0.89 11 16:39 16.11.2021
4736 Clouds 12 1006 33 10000 0.45 161 15:53 16.11.2021
4737 Clouds 11 1005 35 10000 0.45 82 15:27 16.11.2021
4738 Clouds 13 1005 31 10000 0.89 0 11:50 16.11.2021
4739 Clouds 15 1005 27 10000 2.51 214 09:49 16.11.2021
4740 Clouds 14 1007 27 10000 0.89 100 08:46 16.11.2021
4741 Clouds 14 1008 27 10000 0.45 56 07:34 16.11.2021
4742 Clouds 14 1014 24 10000 0.45 230 02:47 16.11.2021
4743 Clouds 20 1013 18 10000 0.45 232 23:23 15.11.2021
4744 Clouds 20 1013 17 10000 0.45 182 22:37 15.11.2021
4745 Clouds 21 1014 16 10000 0.45 26 21:53 15.11.2021
4746 Clouds 21 1014 15 10000 1.34 308 21:29 15.11.2021
4747 Clouds 21 1015 16 10000 0.45 294 19:49 15.11.2021
4748 Clouds 21 1013 17 10000 1.34 224 18:47 15.11.2021
4749 Clear 18 1016 26 10000 2.4 213 16:54 15.11.2021
4750 Clear 14 1016 30 10000 0.45 347 15:42 15.11.2021
4751 Clouds 12 1014 38 10000 0.89 30 15:24 15.11.2021
4752 Clouds 13 1013 37 10000 3.17 233 13:32 15.11.2021
4753 Clouds 12 1012 39 10000 0.45 60 11:53 15.11.2021
4754 Clear 13 1013 43 10000 3.31 204 09:28 15.11.2021
4755 Clear 14 1014 41 10000 0.89 85 07:55 15.11.2021
4756 Clouds 14 1016 36 10000 0.89 92 05:23 15.11.2021
4757 Clouds 18 1015 28 10000 0.45 275 23:57 14.11.2021
4758 Clouds 18 1015 28 10000 0.45 22 22:37 14.11.2021
4759 Clouds 18 1016 26 10000 1.79 307 19:59 14.11.2021
4760 Clouds 17 1017 26 10000 0.89 175 19:18 14.11.2021
4761 Clouds 17 1019 27 10000 0.45 185 18:54 14.11.2021
4762 Clouds 16 1015 26 10000 1.97 320 18:36 14.11.2021
4763 Clouds 15 1010 30 10000 0.99 231 18:18 14.11.2021
4764 Clouds 14 1010 32 10000 0.99 231 17:57 14.11.2021
4765 Clouds 13 1010 30 10000 1.08 207 17:39 14.11.2021
4766 Clouds 11 1015 42 10000 2.57 250 17:21 14.11.2021
4767 Clouds 11 1011 37 10000 2.01 192 16:49 14.11.2021
4768 Clouds 6 1018 48 10000 1.98 193 16:20 14.11.2021
4769 Clouds 4 1018 71 10000 0.43 240 15:23 14.11.2021
4770 Clouds 4 1018 48 10000 0.43 240 14:49 14.11.2021
4771 Clouds 2 1018 64 10000 0.15 195 14:29 14.11.2021
4772 Clouds 1 1018 69 10000 0.15 195 13:57 14.11.2021
4773 Clouds 1 1018 64 10000 0.15 195 13:39 14.11.2021
4774 Clouds 1 1022 59 10000 0.45 184 12:28 14.11.2021
4775 Clouds 2 1023 56 10000 1.61 150 11:52 14.11.2021
4776 Clouds 2 1025 55 10000 0.89 173 10:42 14.11.2021
4777 Clouds 2 1024 57 10000 0.89 168 09:52 14.11.2021
4778 Clouds 3 1024 58 10000 0.89 184 08:55 14.11.2021
4779 Clouds 7 1018 54 10000 1.09 111 07:24 14.11.2021
4780 Clouds 15 1015 29 10000 0.45 296 01:24 14.11.2021
4781 Clouds 18 1014 24 10000 0.89 296 22:26 13.11.2021
4782 Clouds 18 1015 24 10000 0.89 287 21:57 13.11.2021
4783 Clouds 18 1014 25 10000 0.45 305 21:23 13.11.2021
4784 Clouds 18 1016 24 10000 0.89 240 19:47 13.11.2021
4785 Clouds 17 1018 26 10000 0.89 272 18:33 13.11.2021
4786 Clouds 16 1017 28 10000 0.45 235 17:55 13.11.2021
4787 Clouds 13 1018 37 10000 1.34 261 16:38 13.11.2021
4788 Clouds 9 1018 49 10000 0.45 207 15:34 13.11.2021
4789 Clouds 9 1017 47 10000 2.76 223 14:30 13.11.2021
4790 Clouds 9 1018 47 10000 2.76 223 13:32 13.11.2021
4791 Clouds 7 1019 49 10000 3.46 220 12:24 13.11.2021
4792 Clouds 8 1018 47 10000 0.45 287 11:34 13.11.2021
4793 Clear 7 1019 48 10000 0.45 188 10:45 13.11.2021
4794 Clear 6 1019 49 10000 0.45 196 10:20 13.11.2021
4795 Clear 6 1020 52 10000 0.45 205 09:37 13.11.2021
4796 Clouds 6 1021 50 10000 3.6 200 08:56 13.11.2021
4797 Clear 6 1019 49 10000 1.93 223 08:30 13.11.2021
4798 Clouds 7 1023 49 10000 1.34 258 04:48 13.11.2021
4799 Clouds 7 1023 48 10000 0.45 233 04:30 13.11.2021
4800 Clouds 10 1022 40 10000 0.45 291 01:36 13.11.2021
4801 Clouds 13 1022 31 10000 0.45 65 22:58 12.11.2021
4802 Clouds 13 1022 31 10000 2.24 37 21:46 12.11.2021
4803 Clouds 10 1023 36 10000 0.45 342 19:54 12.11.2021
4804 Clouds 9 1023 37 10000 0.45 120 19:28 12.11.2021
4805 Clouds 7 1025 42 10000 0.89 201 18:29 12.11.2021
4806 Clouds 1 1024 58 10000 0.45 64 16:35 12.11.2021
4807 Clouds -2 1024 64 10000 0.89 81 15:33 12.11.2021
4808 Clouds -1 1023 57 10000 3.98 68 11:57 12.11.2021
4809 Clouds 0 1023 54 10000 0.89 162 10:51 12.11.2021
4810 Clouds 0 1022 51 10000 0.89 188 09:44 12.11.2021
4811 Clouds 2 1022 48 10000 5.14 80 08:38 12.11.2021
4812 Clouds 9 1014 41 10000 1.34 94 02:32 12.11.2021
4813 Clouds 12 1014 32 10000 2.68 296 23:42 11.11.2021
4814 Clouds 12 1014 29 10000 1.79 360 22:36 11.11.2021
4815 Clouds 13 1014 27 10000 2.24 278 21:27 11.11.2021
4816 Clouds 12 1015 25 10000 0.89 78 20:42 11.11.2021
4817 Clear 11 1016 25 10000 1.34 21 19:20 11.11.2021
4818 Clear 8 1018 28 10000 2.24 59 17:43 11.11.2021
4819 Clear 7 1018 31 10000 1.34 274 16:54 11.11.2021
4820 Clouds 2 1018 37 10000 0.45 274 14:58 11.11.2021
4821 Clear 2 1018 38 10000 2.68 52 14:29 11.11.2021
4822 Clear 2 1018 40 10000 0.89 250 13:39 11.11.2021
4823 Clear 3 1018 37 10000 0.89 294 12:50 11.11.2021
4824 Clear 4 1018 39 10000 1.34 315 10:44 11.11.2021
4825 Clouds 4 1018 42 10000 1.34 37 09:36 11.11.2021
4826 Clouds 5 1016 40 10000 1.34 242 07:59 11.11.2021
4827 Clear 6 1014 38 10000 0.45 317 04:45 11.11.2021
4828 Clear 12 1014 23 10000 1.34 289 23:35 10.11.2021
4829 Clouds 13 1013 22 10000 2.68 238 22:22 10.11.2021
4830 Clear 13 1013 23 10000 1.79 271 21:21 10.11.2021
4831 Clear 13 1013 22 10000 2.24 360 20:47 10.11.2021
4832 Clear 13 1013 21 10000 0.45 344 19:47 10.11.2021
4833 Clouds 13 1013 22 10000 1.34 300 19:24 10.11.2021
4834 Clouds 10 1013 36 10000 0.89 278 16:34 10.11.2021
4835 Clouds 9 1012 41 10000 0.45 318 15:40 10.11.2021
4836 Clouds 7 1011 50 10000 2.24 320 13:51 10.11.2021
4837 Clouds 8 1010 49 10000 0.45 146 12:59 10.11.2021
4838 Clouds 8 1008 52 10000 3.58 291 10:56 10.11.2021
4839 Clouds 7 1013 63 10000 1.54 180 08:47 10.11.2021
4840 Clouds 6 1010 67 10000 0.82 62 07:48 10.11.2021
4841 Clouds 7 1010 66 10000 1.38 36 06:26 10.11.2021
4842 Clouds 7 1010 63 10000 1.38 36 05:51 10.11.2021
4843 Clouds 13 1013 45 10000 0.89 0 23:55 09.11.2021
4844 Clouds 16 1011 38 10000 2.6 315 21:51 09.11.2021
4845 Clouds 15 1017 40 10000 0.89 5 20:32 09.11.2021
4846 Clouds 15 1017 40 10000 0.89 5 20:32 09.11.2021
4847 Clouds 14 1019 42 10000 0.45 46 19:25 09.11.2021
4848 Clouds 12 1022 47 10000 0.45 180 17:44 09.11.2021
4849 Clear 6 1021 68 10000 0.75 111 16:24 09.11.2021
4850 Clear 1 1022 81 10000 0.18 119 14:44 09.11.2021
4851 Clear 1 1023 83 10000 3.09 200 12:53 09.11.2021
4852 Clear 1 1021 83 10000 0.83 48 12:53 09.11.2021
4853 Clear 2 1021 78 10000 0.68 186 11:58 09.11.2021
4854 Clear 1 1023 79 10000 2.57 210 10:45 09.11.2021
4855 Clear 1 1023 76 10000 1.27 308 09:34 09.11.2021
4856 Clear 2 1023 74 10000 1.18 356 08:27 09.11.2021
4857 Clouds 4 1023 68 10000 1.79 17 05:56 09.11.2021
4858 Clouds 7 1022 60 10000 0.45 178 02:23 09.11.2021
4859 Clouds 7 1021 59 10000 0.45 191 01:46 09.11.2021
4860 Clouds 9 1017 52 10000 2.15 70 23:59 08.11.2021
4861 Clouds 10 1017 49 10000 1.91 42 22:51 08.11.2021
4862 Clouds 10 1022 47 10000 0.45 25 22:27 08.11.2021
4863 Clouds 10 1022 50 10000 0.45 355 20:56 08.11.2021
4864 Clear 10 1023 50 10000 1.34 19 19:52 08.11.2021
4865 Clouds 9 1022 50 10000 0.89 317 18:56 08.11.2021
4866 Clouds 5 1025 67 10000 0.45 38 16:34 08.11.2021
4867 Clear 2 1020 73 10000 2 31 15:25 08.11.2021
4868 Clear 2 1020 75 10000 2 31 14:40 08.11.2021
4869 Clear 3 1023 70 10000 1.94 23 13:33 08.11.2021
4870 Clear 4 1021 64 10000 2.78 357 12:20 08.11.2021
4871 Clear 6 1020 58 10000 0.45 217 11:20 08.11.2021
4872 Clear 9 1016 44 10000 0.45 22 09:44 08.11.2021
4873 Clear 10 1012 29 10000 1.34 291 08:54 08.11.2021
4874 Clear 11 1014 21 10000 0.89 227 07:35 08.11.2021
4875 Clear 13 1012 20 10000 0.89 289 03:56 08.11.2021
4876 Clear 14 1013 19 10000 0.89 199 03:28 08.11.2021
4877 Clear 23 1010 11 10000 0.45 28 23:46 07.11.2021
4878 Clouds 25 1010 9 10000 0.89 107 21:54 07.11.2021
4879 Clouds 24 1010 9 10000 0.45 107 21:20 07.11.2021
4880 Clear 23 1011 13 10000 2.24 121 19:40 07.11.2021
4881 Clouds 20 1013 17 10000 1.34 164 18:22 07.11.2021
4882 Clouds 15 1012 21 10000 2.02 211 16:54 07.11.2021
4883 Clouds 13 1013 22 10000 2.23 207 15:48 07.11.2021
4884 Clouds 10 1012 26 10000 2.37 204 14:29 07.11.2021
4885 Clouds 10 1012 25 10000 2.42 212 13:35 07.11.2021
4886 Clouds 11 1009 25 10000 2.56 213 11:43 07.11.2021
4887 Clouds 11 1012 26 10000 6.17 200 09:52 07.11.2021
4888 Clouds 11 1013 23 10000 0.89 142 07:54 07.11.2021
4889 Clear 14 1014 22 10000 0.45 244 02:38 07.11.2021
4890 Clear 24 1011 9 10000 0.45 27 23:37 06.11.2021
4891 Clear 24 1011 8 10000 1.79 355 22:47 06.11.2021
4892 Clouds 25 1011 7 10000 0.45 231 21:33 06.11.2021
4893 Clear 24 1011 8 10000 0.89 168 20:50 06.11.2021
4894 Clouds 21 1014 12 10000 0.45 171 18:56 06.11.2021
4895 Clouds 13 1016 20 10000 2.11 190 16:46 06.11.2021
4896 Clouds 13 1016 20 10000 2.11 190 16:46 06.11.2021
4897 Clouds 13 1016 20 10000 2.11 190 16:46 06.11.2021
4898 Clouds 13 1016 20 10000 2.11 190 16:46 06.11.2021
4899 Clouds 13 1016 20 10000 2.11 190 16:46 06.11.2021
4900 Clouds 8 1020 25 10000 4.12 190 14:38 06.11.2021
4901 Clouds 7 1017 29 10000 2.46 199 13:38 06.11.2021
4902 Clear 8 1017 31 10000 2.35 203 11:46 06.11.2021
4903 Clear 9 1017 31 10000 1.88 246 09:23 06.11.2021
4904 Clouds 12 1016 28 10000 2.24 270 04:59 06.11.2021
4905 Clouds 16 1014 19 10000 0.89 111 01:47 06.11.2021
4906 Clear 22 1010 11 10000 2.68 316 23:35 05.11.2021
4907 Clear 23 1013 12 10000 0.45 20 22:34 05.11.2021
4908 Clear 22 1014 16 10000 0.89 29 20:51 05.11.2021
4909 Clear 22 1015 17 10000 0.89 110 20:20 05.11.2021
4910 Clear 21 1015 18 10000 2.24 168 19:40 05.11.2021
4911 Clear 20 1015 21 10000 0.45 92 18:39 05.11.2021
4912 Clear 16 1017 29 10000 0.89 168 17:26 05.11.2021
4913 Clear 11 1019 35 10000 0.89 159 15:34 05.11.2021
4914 Clear 8 1013 37 10000 0.63 160 13:35 05.11.2021
4915 Clouds 10 1015 36 10000 0.89 350 10:38 05.11.2021
4916 Clouds 10 1014 38 10000 0.45 145 08:40 05.11.2021
4917 Clouds 10 1014 38 10000 0.45 132 07:26 05.11.2021
4918 Clouds 11 1013 37 10000 0.89 130 04:44 05.11.2021
4919 Clear 12 1015 37 10000 0.45 184 02:25 05.11.2021
4920 Clouds 17 1013 25 10000 1.54 330 00:40 05.11.2021
4921 Clear 20 1014 21 10000 0.45 34 23:18 04.11.2021
4922 Clear 20 1015 21 10000 1.34 303 22:19 04.11.2021
4923 Clear 20 1015 21 10000 0.45 38 21:32 04.11.2021
4924 Clouds 19 1016 22 10000 0.89 157 20:40 04.11.2021
4925 Clear 19 1016 22 10000 0.45 116 20:20 04.11.2021
4926 Clear 18 1017 24 10000 0.89 116 19:40 04.11.2021
4927 Clouds 15 1019 32 10000 0.89 90 18:44 04.11.2021
4928 Clouds 13 1019 36 10000 0.89 146 17:37 04.11.2021
4929 Clouds 10 1021 44 10000 1.34 111 16:41 04.11.2021
4930 Clear 4 1019 62 10000 1.54 204 14:28 04.11.2021
4931 Clear 4 1022 65 10000 3.6 200 11:44 04.11.2021
4932 Clear 4 1019 63 10000 1.25 231 09:29 04.11.2021
4933 Clear 5 1019 61 10000 1.25 231 08:30 04.11.2021
4934 Clear 5 1019 60 10000 1.33 226 07:34 04.11.2021
4935 Clear 14 1021 39 10000 0.45 83 23:54 03.11.2021
4936 Clouds 15 1021 38 10000 0.89 97 22:50 03.11.2021
4937 Clear 15 1022 39 10000 0.45 108 21:47 03.11.2021
4938 Clear 15 1022 39 10000 0.89 114 21:25 03.11.2021
4939 Clouds 14 1023 41 10000 0.89 39 20:34 03.11.2021
4940 Clear 14 1024 44 10000 0.89 128 19:40 03.11.2021
4941 Clear 13 1024 50 10000 0.89 74 18:51 03.11.2021
4942 Clear 11 1025 59 10000 0.45 176 18:18 03.11.2021
4943 Clear 9 1026 69 10000 0.45 217 17:20 03.11.2021
4944 Clouds 5 1026 81 10000 0.45 166 15:57 03.11.2021
4945 Clear 5 1024 81 10000 0.47 225 15:38 03.11.2021
4946 Clear 3 1024 86 10000 0.45 0 13:49 03.11.2021
4947 Clouds 4 1022 86 10000 1.86 211 11:39 03.11.2021
4948 Clouds 4 1025 86 10000 1.6 206 10:53 03.11.2021
4949 Clouds 4 1026 86 10000 1.54 195 10:18 03.11.2021
4950 Clouds 4 1025 87 10000 1.48 190 09:28 03.11.2021
4951 Clouds 4 1025 86 10000 1.52 178 08:21 03.11.2021
4952 Clouds 4 1025 87 10000 3.09 190 07:38 03.11.2021
4953 Clouds 5 1023 86 10000 0.45 199 04:24 03.11.2021
4954 Rain 5 1022 79 10000 2.57 23 01:42 03.11.2021
4955 Clouds 7 1021 74 10000 0.89 19 23:33 02.11.2021
4956 Clouds 7 1021 73 10000 0.45 28 22:21 02.11.2021
4957 Clouds 7 1021 76 10000 0.45 22 20:54 02.11.2021
4958 Clouds 6 1022 77 10000 0.45 90 20:23 02.11.2021
4959 Drizzle 6 1022 79 10000 0.45 175 19:46 02.11.2021
4960 Clouds 4 1023 82 10000 0.45 147 18:36 02.11.2021
4961 Clouds 4 1023 82 10000 0.45 296 17:57 02.11.2021
4962 Rain 4 1023 83 10000 0.81 31 17:31 02.11.2021
4963 Clouds 3 1024 84 10000 0.45 183 16:27 02.11.2021
4964 Clouds 2 1024 85 10000 1.84 26 14:58 02.11.2021
4965 Clouds 2 1024 84 10000 2.77 5 13:44 02.11.2021
4966 Clouds 2 1024 84 10000 2.87 356 13:26 02.11.2021
4967 Clouds 2 1024 83 10000 0.45 144 12:28 02.11.2021
4968 Clouds 2 1025 82 10000 0.45 323 11:28 02.11.2021
4969 Clouds 2 1025 82 10000 0.89 27 10:50 02.11.2021
4970 Clouds 2 1025 81 10000 1.34 315 10:23 02.11.2021
4971 Clouds 2 1026 82 10000 0.45 116 08:25 02.11.2021
4972 Clouds 2 1025 82 10000 0.45 5 06:32 02.11.2021
4973 Clouds 3 1027 81 10000 0.45 343 03:32 02.11.2021
4974 Clouds 4 1021 80 10000 3.24 40 00:55 02.11.2021
4975 Clouds 6 1020 46 10000 1.15 95 22:25 01.11.2021
4976 Clouds 5 1025 87 10000 3.6 350 20:47 01.11.2021
4977 Clouds 5 1025 87 10000 3.6 350 20:27 01.11.2021
4978 Clouds 3 1022 52 10000 1.36 46 19:44 01.11.2021
4979 Rain 3 1023 70 10000 1.79 23 18:55 01.11.2021
4980 Clouds 3 1025 80 10000 0.45 22 17:59 01.11.2021
4981 Clouds 3 1024 82 10000 0.45 17 17:18 01.11.2021
4982 Clouds 3 1024 83 10000 0.45 311 16:33 01.11.2021
4983 Clouds 3 1023 83 10000 0.89 12 15:40 01.11.2021
4984 Clouds 2 1023 83 10000 0.89 5 15:19 01.11.2021
4985 Clouds 2 1022 83 10000 1.34 0 14:39 01.11.2021
4986 Clouds 2 1022 83 10000 0.89 28 14:19 01.11.2021
4987 Clouds 2 1022 83 10000 0.89 28 14:19 01.11.2021
4988 Clouds 2 1022 83 10000 0.45 317 14:19 01.11.2021
4989 Clouds 2 1020 83 10000 0.89 10 12:53 01.11.2021
4990 Clouds 2 1020 83 10000 0.89 38 11:39 01.11.2021
4991 Clouds 2 1019 80 10000 0.45 13 10:21 01.11.2021
4992 Clouds 3 1019 76 10000 0.45 7 08:23 01.11.2021
4993 Clouds 4 1020 75 10000 4.12 170 07:47 01.11.2021
4994 Clouds 4 1021 72 10000 0.89 298 03:55 01.11.2021
4995 Clouds 4 1021 72 10000 0.89 322 03:33 01.11.2021
4996 Clouds 5 1021 65 10000 0.45 73 23:52 31.10.2021
4997 Clouds 6 1019 67 10000 0.45 24 20:58 31.10.2021
4998 Clouds 5 1020 69 10000 0.89 21 19:54 31.10.2021
4999 Clouds 5 1021 73 10000 0.45 260 18:43 31.10.2021
5000 Clouds 4 1021 74 10000 0.45 297 18:21 31.10.2021
5001 Clouds 4 1022 78 10000 0.45 287 16:47 31.10.2021
5002 Clouds 3 1021 81 10000 0.45 19 14:53 31.10.2021
5003 Clouds 4 1019 81 10000 0.89 333 12:56 31.10.2021
5004 Clouds 4 1019 81 10000 0.45 309 11:56 31.10.2021
5005 Clouds 4 1021 79 10000 0.45 11 10:48 31.10.2021
5006 Clouds 5 1021 75 10000 0.45 236 09:26 31.10.2021
5007 Clouds 5 1020 75 10000 0.89 355 08:45 31.10.2021
5008 Clouds 13 1015 44 10000 0.89 46 02:54 31.10.2021
5009 Clear 19 1011 25 10000 0.89 64 23:42 30.10.2021
5010 Clear 21 1010 19 10000 2.24 102 21:36 30.10.2021
5011 Clouds 21 1011 16 10000 0.45 45 21:18 30.10.2021
5012 Clouds 20 1012 21 10000 0.45 25 19:23 30.10.2021
5013 Clear 15 1012 26 10000 0.89 173 17:42 30.10.2021
5014 Clear 8 1016 35 10000 3.09 190 15:30 30.10.2021
5015 Clear 9 1004 33 10000 0.45 222 13:56 30.10.2021
5016 Clear 10 1009 33 10000 1.79 278 13:21 30.10.2021
5017 Clear 9 1008 35 10000 1.34 257 12:57 30.10.2021
5018 Clear 9 1012 35 10000 0.45 273 11:46 30.10.2021
5019 Clear 10 1012 34 10000 0.89 0 10:32 30.10.2021
5020 Clear 10 1011 38 10000 1.77 224 08:54 30.10.2021
5021 Clear 11 1011 38 10000 1.84 224 07:42 30.10.2021
5022 Clear 12 1015 35 10000 1.81 243 05:44 30.10.2021
5023 Clear 21 1011 19 10000 1.61 123 01:37 30.10.2021
5024 Clear 23 1014 16 10000 0.89 178 22:54 29.10.2021
5025 Clear 23 1014 17 10000 0.45 110 22:32 29.10.2021
5026 Clear 21 1017 21 10000 0.45 138 20:46 29.10.2021
5027 Clear 20 1018 23 10000 1.34 117 20:24 29.10.2021
5028 Clouds 16 1020 31 10000 0.89 184 18:36 29.10.2021
5029 Clear 10 1021 43 10000 0.45 188 16:54 29.10.2021
5030 Clear 7 1022 52 10000 0.45 218 15:21 29.10.2021
5031 Clear 7 1023 51 10000 0.45 191 12:24 29.10.2021
5032 Clear 7 1023 54 10000 2.34 210 10:46 29.10.2021
5033 Clear 7 1021 52 10000 2.08 213 08:41 29.10.2021
5034 Clear 14 1021 31 10000 0.45 91 00:37 29.10.2021
5035 Clear 14 1021 32 10000 0.45 91 00:37 29.10.2021
5036 Clear 14 1021 31 10000 0.45 117 23:27 28.10.2021
5037 Clouds 13 1022 33 10000 0.45 50 22:18 28.10.2021
5038 Clear 12 1022 34 10000 0.89 94 20:54 28.10.2021
5039 Clear 11 1022 33 10000 0.89 75 19:51 28.10.2021
5040 Clear 8 1023 40 10000 0.89 79 18:27 28.10.2021
5041 Clear 6 1024 48 10000 0.89 214 17:19 28.10.2021
5042 Clouds 3 1024 59 10000 2.06 70 16:19 28.10.2021
5043 Clear 2 1020 69 10000 2.53 124 14:25 28.10.2021
5044 Clear 3 1018 67 10000 1.67 21 13:29 28.10.2021
5045 Clear 3 1018 69 10000 1.67 21 12:41 28.10.2021
5046 Clear 5 1019 61 10000 1.34 96 10:58 28.10.2021
5047 Clear 7 1017 47 10000 1.34 307 09:40 28.10.2021
5048 Clear 7 1016 45 10000 1.34 291 09:22 28.10.2021
5049 Clouds 6 1017 45 10000 1.79 295 08:35 28.10.2021
5050 Clear 7 1016 44 10000 1.34 295 07:40 28.10.2021
5051 Clear 12 1012 28 10000 1.79 259 00:33 28.10.2021
5052 Clear 13 1011 28 10000 1.34 305 22:31 27.10.2021
5053 Clear 13 1011 26 10000 1.79 296 21:34 27.10.2021
5054 Clear 13 1011 26 10000 1.34 340 20:54 27.10.2021
5055 Clear 12 1012 26 10000 2.24 61 20:34 27.10.2021
5056 Clear 11 1012 29 10000 1.79 277 19:42 27.10.2021
5057 Clear 11 1011 31 10000 1.34 10 18:53 27.10.2021
5058 Clear 6 1012 39 10000 0.89 35 16:38 27.10.2021
5059 Clear 5 1011 46 10000 0.45 312 16:18 27.10.2021
5060 Clear 4 1012 45 10000 2.24 16 15:21 27.10.2021
5061 Clouds 5 1009 45 10000 0.45 303 12:51 27.10.2021
5062 Clouds 4 1011 63 10000 1.34 352 10:58 27.10.2021
5063 Clouds 4 1008 58 10000 4.52 309 09:51 27.10.2021
5064 Clouds 4 1007 64 10000 4.45 312 08:47 27.10.2021
5065 Clouds 5 1006 68 10000 3.65 7 07:32 27.10.2021
5066 Clouds 9 999 64 10000 1.34 25 02:39 27.10.2021
5067 Clouds 13 995 43 10000 1.34 45 00:58 27.10.2021
5068 Clouds 15 994 31 10000 0.89 61 00:33 27.10.2021
5069 Clouds 15 993 30 10000 0.45 355 23:50 26.10.2021
5070 Clouds 16 991 32 10000 1.34 319 22:39 26.10.2021
5071 Clouds 16 991 34 10000 0.45 292 21:59 26.10.2021
5072 Rain 17 998 35 10000 0.45 195 20:51 26.10.2021
5073 Clouds 21 990 26 10000 1.79 195 19:32 26.10.2021
5074 Clouds 20 991 27 10000 2.24 174 18:41 26.10.2021
5075 Clouds 18 994 30 10000 0.45 223 16:57 26.10.2021
5076 Clouds 15 994 32 10000 0.45 115 14:56 26.10.2021
5077 Clouds 16 997 31 10000 0.89 240 11:47 26.10.2021
5078 Clouds 16 997 30 10000 1.79 188 10:33 26.10.2021
5079 Clouds 16 1005 30 10000 1.34 202 07:47 26.10.2021
5080 Clouds 16 1000 33 10000 2.92 212 07:20 26.10.2021
5081 Clouds 24 1003 23 10000 0.89 178 23:51 25.10.2021
5082 Clouds 24 1003 23 10000 0.89 178 23:51 25.10.2021
5083 Clouds 24 1004 24 10000 0.89 355 22:55 25.10.2021
5084 Clouds 23 1004 25 10000 0.89 355 22:20 25.10.2021
5085 Clouds 23 1006 26 10000 0.89 49 21:39 25.10.2021
5086 Clouds 20 1006 33 10000 0.49 99 19:54 25.10.2021
5087 Clouds 17 1012 37 10000 0.45 30 19:26 25.10.2021
5088 Clouds 20 1007 17 10000 0.31 145 18:59 25.10.2021
5089 Clouds 15 1009 38 10000 1.21 174 18:19 25.10.2021
5090 Clouds 8 1010 59 10000 0.96 112 16:20 25.10.2021
5091 Clouds 7 1013 56 10000 0.54 117 14:28 25.10.2021
5092 Clouds 8 1013 52 10000 2.35 339 12:30 25.10.2021
5093 Clouds 9 1010 48 10000 0.36 274 10:23 25.10.2021
5094 Clouds 9 1014 45 10000 1.26 196 08:35 25.10.2021
5095 Clouds 10 1014 41 10000 2.62 161 06:24 25.10.2021
5096 Clouds 17 1008 25 10000 0.45 36 00:58 25.10.2021
5097 Clouds 18 1008 24 10000 0.45 92 00:37 25.10.2021
5098 Clouds 19 1008 24 10000 0.89 40 23:47 24.10.2021
5099 Clear 19 1007 23 10000 0.89 81 22:44 24.10.2021
5100 Clouds 19 1008 23 10000 1.34 70 22:21 24.10.2021
5101 Clear 18 1007 24 10000 0.89 23 21:41 24.10.2021
5102 Clear 17 1008 26 10000 1.34 76 20:45 24.10.2021
5103 Clear 17 1008 28 10000 2.24 162 20:23 24.10.2021
5104 Clear 15 1009 36 10000 0.89 31 18:52 24.10.2021
5105 Clear 13 1008 42 10000 0.45 276 17:55 24.10.2021
5106 Clear 9 1010 52 10000 0.45 190 16:52 24.10.2021
5107 Clouds 7 1007 59 10000 1.83 224 15:28 24.10.2021
5108 Clouds 7 1009 55 10000 0.89 173 13:49 24.10.2021
5109 Clouds 7 1003 55 10000 0.89 185 12:41 24.10.2021
5110 Clouds 8 1004 52 10000 2.68 281 11:40 24.10.2021
5111 Clouds 8 1008 53 10000 1.4 102 10:43 24.10.2021
5112 Clouds 9 1003 50 10000 0.89 278 09:38 24.10.2021
5113 Clouds 14 1003 30 10000 0.45 5 03:36 24.10.2021
5114 Clouds 20 1001 18 10000 0.89 81 00:19 24.10.2021
5115 Clouds 21 1000 19 10000 0.89 67 23:24 23.10.2021
5116 Clouds 19 1001 21 10000 0.45 109 21:45 23.10.2021
5117 Clouds 17 1008 23 10000 0.63 133 19:39 23.10.2021
5118 Clouds 16 1003 25 10000 0.93 174 18:46 23.10.2021
5119 Clouds 16 1003 25 10000 0.93 174 18:46 23.10.2021
5120 Clouds 14 1004 28 10000 1.07 215 17:48 23.10.2021
5121 Clouds 12 1007 30 10000 0.45 169 17:26 23.10.2021
5122 Clouds 10 1006 30 10000 2.11 192 15:58 23.10.2021
5123 Clouds 9 1006 32 10000 2.32 204 13:51 23.10.2021
5124 Clouds 17 1010 23 10000 1.87 76 02:36 23.10.2021
5125 Clouds 23 1011 14 10000 0.45 101 23:41 22.10.2021
5126 Clear 22 1013 15 10000 1.34 112 21:39 22.10.2021
5127 Clear 20 1016 19 10000 0.45 141 19:43 22.10.2021
5128 Clouds 16 1017 27 10000 0.45 188 18:27 22.10.2021
5129 Clouds 12 1020 32 10000 0.45 155 17:19 22.10.2021
5130 Clear 8 1021 38 10000 4.12 190 14:58 22.10.2021
5131 Clear 8 1021 38 10000 4.63 190 12:45 22.10.2021
5132 Clear 8 1017 39 10000 2.36 204 10:57 22.10.2021
5133 Clear 8 1017 38 10000 2.36 204 10:33 22.10.2021
5134 Clear 9 1018 38 10000 2.06 211 09:35 22.10.2021
5135 Clear 9 1018 35 10000 0.95 253 07:46 22.10.2021
5136 Clear 10 1018 35 10000 1.55 257 07:21 22.10.2021
5137 Clouds 17 1021 24 10000 0.45 167 01:41 22.10.2021
5138 Clouds 18 1023 22 10000 0.45 170 23:51 21.10.2021
5139 Clouds 17 1016 21 10000 1.23 124 22:44 21.10.2021
5140 Clouds 16 1017 25 10000 1.8 140 21:38 21.10.2021
5141 Clouds 14 1020 26 10000 1.28 150 20:24 21.10.2021
5142 Clouds 14 1020 29 10000 1.28 150 19:55 21.10.2021
5143 Clouds 13 1020 33 10000 1.49 168 19:25 21.10.2021
5144 Clouds 11 1020 39 10000 1.49 168 18:33 21.10.2021
5145 Clouds 11 1021 38 10000 1.08 178 17:51 21.10.2021
5146 Clouds 9 1022 42 10000 0.8 182 16:47 21.10.2021
5147 Clouds 6 1024 49 10000 3.6 170 15:29 21.10.2021
5148 Clouds 5 1021 51 10000 0.22 179 14:53 21.10.2021
5149 Clouds 6 1021 52 10000 1.17 199 13:57 21.10.2021
5150 Clouds 6 1020 51 10000 1.36 210 11:56 21.10.2021
5151 Clouds 6 1020 50 10000 1.03 228 09:39 21.10.2021
5152 Clouds 7 1023 51 10000 4.63 190 07:48 21.10.2021
5153 Clouds 7 1023 51 10000 1.41 310 06:35 21.10.2021
5154 Clouds 16 1020 28 10000 0.89 86 00:35 21.10.2021
5155 Clear 16 1019 27 10000 1.34 25 22:29 20.10.2021
5156 Clear 16 1020 29 10000 0.89 40 21:47 20.10.2021
5157 Clear 16 1020 28 10000 0.89 93 21:47 20.10.2021
5158 Clear 15 1020 31 10000 1.34 69 20:58 20.10.2021
5159 Clear 14 1021 32 10000 0.45 69 20:38 20.10.2021
5160 Clear 14 1021 35 10000 0.89 5 20:18 20.10.2021
5161 Clear 11 1021 49 10000 0.45 166 19:23 20.10.2021
5162 Clear 8 1022 64 10000 0.89 178 18:29 20.10.2021
5163 Clear 4 1021 71 10000 0.8 84 16:37 20.10.2021
5164 Clouds 0 1022 86 10000 3.6 140 13:54 20.10.2021
5165 Clouds 2 1020 84 10000 0.89 170 09:53 20.10.2021
5166 Clouds 5 1017 74 10000 0.45 198 05:30 20.10.2021
5167 Clouds 9 1013 58 10000 0.89 61 01:48 20.10.2021
5168 Clouds 12 1009 43 10000 1.79 26 00:33 20.10.2021
5169 Clouds 12 1008 47 10000 1.79 38 22:30 19.10.2021
5170 Clouds 13 1012 48 10000 1.79 66 21:35 19.10.2021
5171 Clouds 14 1007 46 10000 1.79 31 20:26 19.10.2021
5172 Clouds 14 1011 48 10000 0.89 27 19:58 19.10.2021
5173 Clouds 14 1011 43 10000 0.89 28 19:34 19.10.2021
5174 Clear 13 1011 41 10000 0.45 88 18:33 19.10.2021
5175 Clouds 11 1007 48 10000 0.89 40 17:24 19.10.2021
5176 Clear 8 1003 47 10000 2.99 231 15:28 19.10.2021
5177 Clouds 9 1002 40 10000 4.64 195 14:33 19.10.2021
5178 Clouds 9 1002 38 10000 4.9 191 13:50 19.10.2021
5179 Clouds 9 1001 18 10000 6.66 182 12:20 19.10.2021
5180 Clouds 9 1001 19 10000 4.27 175 11:23 19.10.2021
5181 Clouds 10 1003 42 10000 2.87 204 09:43 19.10.2021
5182 Clouds 10 1007 40 10000 0.57 189 08:56 19.10.2021
5183 Clouds 24 1001 16 10000 0.45 164 00:39 19.10.2021
5184 Clouds 24 1002 15 10000 0.89 171 23:57 18.10.2021
5185 Clouds 24 1003 15 10000 0.89 135 23:36 18.10.2021
5186 Clouds 24 1002 16 10000 1.79 171 22:55 18.10.2021
5187 Clouds 24 1004 16 10000 1.34 199 22:18 18.10.2021
5188 Clouds 22 1005 20 10000 0.45 350 20:46 18.10.2021
5189 Clouds 22 1005 22 10000 0.45 15 20:21 18.10.2021
5190 Clouds 20 1007 26 10000 0.89 146 19:31 18.10.2021
5191 Clouds 19 1010 28 10000 0.45 160 18:58 18.10.2021
5192 Clouds 19 1010 28 10000 0.45 160 18:58 18.10.2021
5193 Clouds 13 1009 35 10000 1.72 206 16:33 18.10.2021
5194 Clouds 11 1008 38 10000 1.97 201 14:42 18.10.2021
5195 Clouds 11 1008 38 10000 1.81 218 11:54 18.10.2021
5196 Clouds 12 1015 35 10000 1.54 230 09:48 18.10.2021
5197 Clouds 12 1016 34 10000 3.6 180 07:46 18.10.2021
5198 Clear 24 1011 15 10000 0.45 36 00:29 18.10.2021
5199 Clear 23 1013 16 10000 0.89 26 22:30 17.10.2021
5200 Clear 22 1014 17 10000 0.89 36 21:44 17.10.2021
5201 Clear 21 1016 19 10000 0.89 109 20:56 17.10.2021
5202 Clear 21 1017 20 10000 0.45 45 20:21 17.10.2021
5203 Clear 19 1018 23 10000 0.89 161 19:38 17.10.2021
5204 Clear 17 1018 26 10000 0.45 143 18:34 17.10.2021
5205 Clear 11 1019 33 10000 1.39 210 16:40 17.10.2021
5206 Clear 6 1019 43 10000 1.45 198 14:40 17.10.2021
5207 Clear 7 1019 44 10000 1.53 191 14:21 17.10.2021
5208 Clear 7 1019 43 10000 1.53 191 13:33 17.10.2021
5209 Clear 8 1020 40 10000 1.69 205 11:31 17.10.2021
5210 Clear 8 1025 39 10000 4.63 190 10:19 17.10.2021
5211 Clear 9 1021 38 10000 1.44 194 08:47 17.10.2021
5212 Clear 10 1025 37 10000 1.77 228 06:52 17.10.2021
5213 Clear 20 1022 18 10000 0.89 39 00:35 17.10.2021
5214 Clear 21 1022 17 10000 1.34 20 23:22 16.10.2021
5215 Clear 19 1024 20 10000 0.89 188 20:55 16.10.2021
5216 Clear 18 1025 22 10000 0.45 113 20:29 16.10.2021
5217 Clear 17 1025 23 10000 0.89 11 19:41 16.10.2021
5218 Clear 16 1025 26 10000 0.89 113 19:20 16.10.2021
5219 Clear 15 1026 27 10000 0.89 119 18:45 16.10.2021
5220 Clear 13 1026 31 10000 0.89 149 18:24 16.10.2021
5221 Clear 11 1026 33 10000 0.89 139 17:35 16.10.2021
5222 Clear 6 1027 42 10000 0.89 165 16:28 16.10.2021
5223 Clear 4 1025 43 10000 1.38 193 13:26 16.10.2021
5224 Clear 4 1024 42 10000 1.42 197 11:25 16.10.2021
5225 Clear 3 1026 42 10000 1.11 201 09:38 16.10.2021
5226 Clear 6 1025 36 10000 2.06 110 04:47 16.10.2021
5227 Clear 12 1023 21 10000 0.45 351 01:24 16.10.2021
5228 Clear 13 1023 20 10000 1.34 38 23:27 15.10.2021
5229 Clear 12 1023 21 10000 1.34 5 22:22 15.10.2021
5230 Clear 11 1023 21 10000 1.79 20 21:45 15.10.2021
5231 Clear 10 1024 23 10000 1.34 20 20:54 15.10.2021
5232 Clear 10 1024 24 10000 0.89 355 20:35 15.10.2021
5233 Clear 8 1025 27 10000 0.89 321 19:20 15.10.2021
5234 Clear 7 1025 30 10000 0.89 355 18:25 15.10.2021
5235 Clear 2 1025 48 10000 0.89 309 16:19 15.10.2021
5236 Clear 0 1023 60 10000 1.79 306 14:26 15.10.2021
5237 Clouds 1 1021 67 10000 1.34 311 12:27 15.10.2021
5238 Clouds 1 1021 75 10000 0.89 257 11:20 15.10.2021
5239 Clouds 1 1020 83 10000 0.45 27 10:32 15.10.2021
5240 Clouds 2 1020 85 10000 0.45 104 08:21 15.10.2021
5241 Clouds 3 1017 82 10000 0.45 325 05:30 15.10.2021
5242 Clouds 6 1014 69 10000 1.34 26 00:25 15.10.2021
5243 Clouds 6 1014 70 10000 0.45 345 23:26 14.10.2021
5244 Clouds 8 1012 52 10000 1.34 355 22:39 14.10.2021
5245 Clouds 10 1010 47 10000 0.89 22 21:40 14.10.2021
5246 Clouds 10 1012 45 10000 0.89 302 20:22 14.10.2021
5247 Clouds 9 1011 47 10000 0.89 296 19:49 14.10.2021
5248 Clouds 8 1012 53 10000 0.45 11 18:44 14.10.2021
5249 Clouds 4 1012 63 10000 1.9 11 16:59 14.10.2021
5250 Clouds 3 1013 67 10000 0.45 237 16:33 14.10.2021
5251 Clouds 2 1012 69 10000 2.61 351 15:20 14.10.2021
5252 Clouds 2 1012 66 10000 2.72 355 14:30 14.10.2021
5253 Clouds 2 1012 67 10000 0.45 190 13:34 14.10.2021
5254 Clouds 3 1012 64 10000 0.45 198 11:35 14.10.2021
5255 Clear 4 1012 59 10000 0.45 88 09:28 14.10.2021
5256 Clouds 6 1010 50 10000 0.45 107 06:21 14.10.2021
5257 Clear 14 1005 26 10000 1.34 48 00:43 14.10.2021
5258 Clear 15 1004 25 10000 2.24 342 22:46 13.10.2021
5259 Clear 15 1004 27 10000 1.79 17 21:37 13.10.2021
5260 Clear 14 1004 27 10000 1.79 318 20:45 13.10.2021
5261 Clouds 13 1004 29 10000 0.89 35 19:40 13.10.2021
5262 Clear 12 1004 32 10000 1.34 350 18:47 13.10.2021
5263 Clear 8 1003 44 10000 0.45 105 17:28 13.10.2021
5264 Clear 3 1003 66 10000 0.45 183 14:55 13.10.2021
5265 Clear 3 1003 65 10000 0.45 197 14:34 13.10.2021
5266 Clouds 3 1001 67 10000 0.45 36 12:48 13.10.2021
5267 Clouds 3 1001 70 10000 0.45 35 11:37 13.10.2021
5268 Clouds 2 999 82 10000 0.45 310 10:21 13.10.2021
5269 Clouds 2 999 84 10000 0.68 160 07:54 13.10.2021
5270 Clouds 5 1000 78 8099 0.89 44 04:50 13.10.2021
5271 Clouds 9 1002 79 10000 3.6 80 02:22 13.10.2021
5272 Rain 10 1003 57 10000 5.66 280 23:38 12.10.2021
5273 Clouds 11 993 20 10000 4.56 296 22:53 12.10.2021
5274 Clouds 11 993 20 10000 4.56 296 22:34 12.10.2021
5275 Clouds 11 1001 56 10000 0.89 15 20:54 12.10.2021
5276 Clouds 11 1000 57 10000 0.45 305 20:31 12.10.2021
5277 Clouds 11 1000 57 10000 0.89 39 19:42 12.10.2021
5278 Clouds 10 1000 63 10000 0.45 15 18:26 12.10.2021
5279 Clouds 8 1001 68 10000 0.45 309 17:21 12.10.2021
5280 Clouds 7 1001 71 10000 1.34 24 16:24 12.10.2021
5281 Clouds 6 1002 71 10000 0.89 17 15:33 12.10.2021
5282 Clear 6 1002 67 10000 0.45 360 13:46 12.10.2021
5283 Clouds 6 1002 66 10000 0.45 360 13:18 12.10.2021
5284 Clouds 7 1002 62 10000 1.79 304 11:30 12.10.2021
5285 Clear 8 1002 55 10000 0.45 34 09:34 12.10.2021
5286 Clouds 9 1001 51 10000 1.79 322 08:26 12.10.2021
5287 Clouds 11 1003 47 10000 3.43 154 06:45 12.10.2021
5288 Clouds 14 1001 37 10000 0.45 155 04:39 12.10.2021
5289 Clear 16 1000 31 10000 1.34 129 02:55 12.10.2021
5290 Clear 20 1001 24 10000 1.34 175 23:49 11.10.2021
5291 Clear 20 1001 24 10000 1.34 55 23:28 11.10.2021
5292 Clear 20 1002 24 10000 1.79 73 22:47 11.10.2021
5293 Clear 19 1003 26 10000 2.24 164 21:20 11.10.2021
5294 Clear 18 1006 32 10000 2.24 43 19:48 11.10.2021
5295 Clear 17 1006 34 10000 0.89 116 19:23 11.10.2021
5296 Clear 15 1007 38 10000 0.89 170 18:23 11.10.2021
5297 Clear 10 1009 44 10000 1.98 167 16:40 11.10.2021
5298 Clear 8 1009 50 10000 1.88 165 16:19 11.10.2021
5299 Clear 7 1013 49 10000 4.63 180 15:42 11.10.2021
5300 Clear 6 1009 54 10000 1.75 176 14:53 11.10.2021
5301 Clear 6 1014 53 10000 4.12 190 13:55 11.10.2021
5302 Clear 6 1014 53 10000 4.12 190 13:32 11.10.2021
5303 Clear 7 1013 52 10000 0.87 31 10:49 11.10.2021
5304 Clear 8 1013 50 10000 0.98 13 09:45 11.10.2021
5305 Clouds 9 1008 43 10000 0.45 222 07:56 11.10.2021
5306 Clouds 17 1007 29 10000 0.45 307 01:43 11.10.2021
5307 Clear 18 1006 28 10000 2.24 199 00:55 11.10.2021
5308 Clear 19 1006 28 10000 0.45 169 00:33 11.10.2021
5309 Clear 18 1007 29 10000 0.45 224 22:25 10.10.2021
5310 Clear 18 1007 30 10000 0.89 121 21:36 10.10.2021
5311 Clear 17 1008 31 10000 0.45 61 20:56 10.10.2021
5312 Clear 17 1009 33 10000 0.89 103 20:36 10.10.2021
5313 Clear 17 1009 34 10000 1.34 168 20:18 10.10.2021
5314 Clear 16 1010 36 10000 0.89 103 19:40 10.10.2021
5315 Clear 14 1010 42 10000 0.45 130 18:41 10.10.2021
5316 Clear 13 1011 46 10000 1.34 119 17:58 10.10.2021
5317 Clouds 7 1013 59 10000 3.09 180 15:48 10.10.2021
5318 Clouds 6 1015 62 10000 3.6 180 14:45 10.10.2021
5319 Clear 6 1015 63 10000 3.1 150 13:39 10.10.2021
5320 Clear 6 1009 56 10000 1.57 135 12:41 10.10.2021
5321 Clouds 8 1010 50 10000 0.45 325 11:29 10.10.2021
5322 Clear 8 1009 50 10000 0.45 55 11:29 10.10.2021
5323 Clear 9 1009 43 10000 0.45 285 09:51 10.10.2021
5324 Clear 10 1008 43 10000 0.45 270 08:54 10.10.2021
5325 Clear 11 1009 39 10000 0.45 267 07:56 10.10.2021
5326 Clear 14 1007 34 10000 0.45 299 03:47 10.10.2021
5327 Clear 14 1007 34 10000 0.45 299 03:47 10.10.2021
5328 Clouds 18 1005 28 10000 1.34 321 01:39 10.10.2021
5329 Clouds 20 1004 23 10000 1.79 306 00:37 10.10.2021
5330 Clouds 21 1007 21 10000 1.79 323 23:22 09.10.2021
5331 Clouds 22 1004 24 10000 0.89 355 21:52 09.10.2021
5332 Clear 22 1003 25 10000 0.89 291 21:29 09.10.2021
5333 Clouds 21 1004 24 10000 1.34 282 19:45 09.10.2021
5334 Clouds 21 1004 25 10000 0.89 297 19:22 09.10.2021
5335 Clouds 20 1005 31 10000 2.24 164 18:33 09.10.2021
5336 Clouds 20 1005 31 10000 2.24 164 18:33 09.10.2021
5337 Clouds 17 1006 46 10000 1.79 230 17:21 09.10.2021
5338 Clouds 15 1007 57 10000 2.24 263 16:19 09.10.2021
5339 Clouds 13 998 59 10000 1.52 289 13:46 09.10.2021
5340 Clouds 13 1003 57 10000 0.89 257 12:54 09.10.2021
5341 Clouds 13 1005 56 10000 0.73 237 11:56 09.10.2021
5342 Clouds 13 1012 54 10000 4.12 160 10:42 09.10.2021
5343 Clouds 13 1012 54 10000 4.63 180 09:53 09.10.2021
5344 Clouds 13 1012 54 10000 2.07 182 08:32 09.10.2021
5345 Clouds 14 1008 51 10000 2.04 184 07:49 09.10.2021
5346 Clouds 16 1009 47 10000 0.45 95 05:39 09.10.2021
5347 Clouds 19 1009 37 10000 0.45 42 03:44 09.10.2021
5348 Clouds 20 1009 32 10000 2.24 337 02:41 09.10.2021
5349 Clouds 23 1008 24 10000 0.89 241 23:52 08.10.2021
5350 Clouds 24 1008 22 10000 0.89 62 22:59 08.10.2021
5351 Clouds 25 1009 21 10000 0.45 77 22:24 08.10.2021
5352 Clouds 24 1011 23 10000 0.89 103 21:18 08.10.2021
5353 Clouds 21 1014 32 10000 0.45 164 18:59 08.10.2021
5354 Clouds 17 1013 41 10000 1.23 196 17:36 08.10.2021
5355 Clouds 16 1014 44 10000 1.26 193 16:51 08.10.2021
5356 Clouds 14 1014 50 10000 0.95 198 16:23 08.10.2021
5357 Clouds 12 1013 53 10000 0.56 26 13:57 08.10.2021
5358 Clouds 13 1013 49 10000 0.41 335 12:56 08.10.2021
5359 Clouds 13 1012 47 10000 0.58 342 11:33 08.10.2021
5360 Clouds 14 1018 46 10000 0.92 355 10:41 08.10.2021
5361 Clouds 14 1017 44 10000 1.39 291 09:25 08.10.2021
5362 Clouds 25 1011 23 10000 0.45 76 23:59 07.10.2021
5363 Clouds 25 1011 23 10000 0.89 70 23:19 07.10.2021
5364 Clouds 24 1013 24 10000 0.45 19 21:46 07.10.2021
5365 Clouds 24 1012 25 10000 0.89 109 21:23 07.10.2021
5366 Clouds 23 1013 27 10000 0.45 284 20:20 07.10.2021
5367 Clouds 21 1015 30 10000 0.45 117 19:29 07.10.2021
5368 Clouds 19 1015 37 10000 0.45 153 18:22 07.10.2021
5369 Clouds 16 1015 47 10000 0.45 159 17:18 07.10.2021
5370 Clear 12 1015 53 10000 2.68 197 15:34 07.10.2021
5371 Clouds 12 1015 55 10000 2.72 185 13:52 07.10.2021
5372 Clouds 12 1015 56 10000 2.72 185 13:34 07.10.2021
5373 Clouds 12 1014 54 10000 3 172 12:40 07.10.2021
5374 Clouds 14 1018 54 10000 2.57 165 10:49 07.10.2021
5375 Clouds 14 1018 54 10000 2.33 157 10:19 07.10.2021
5376 Clouds 15 1015 53 10000 2.33 157 09:32 07.10.2021
5377 Clear 15 1013 51 10000 0.93 196 08:41 07.10.2021
5378 Clouds 16 1011 51 10000 0.45 69 07:42 07.10.2021
5379 Clouds 17 1012 48 10000 1.34 240 06:59 07.10.2021
5380 Clouds 22 1008 36 10000 0.89 306 02:24 07.10.2021
5381 Clouds 25 1007 26 10000 0.89 292 23:40 06.10.2021
5382 Clouds 26 1008 25 10000 0.89 106 22:50 06.10.2021
5383 Clouds 26 1008 25 10000 0.89 149 21:53 06.10.2021
5384 Clouds 25 1009 25 10000 2.24 190 20:35 06.10.2021
5385 Clouds 24 1010 27 10000 0.89 158 19:48 06.10.2021
5386 Clouds 22 1012 32 10000 1.79 156 18:39 06.10.2021
5387 Clear 17 1014 43 10000 0.4 134 16:55 06.10.2021
5388 Clouds 12 1020 55 10000 1.54 260 15:26 06.10.2021
5389 Clouds 13 1019 48 10000 0.21 62 13:54 06.10.2021
5390 Clear 14 1016 43 10000 1.04 4 12:57 06.10.2021
5391 Clear 14 1014 43 10000 0.45 280 12:39 06.10.2021
5392 Clear 14 1013 41 10000 0.89 291 12:20 06.10.2021
5393 Clear 16 1014 38 10000 0.45 186 09:59 06.10.2021
5394 Clear 16 1015 37 10000 0.45 194 09:38 06.10.2021
5395 Clear 16 1016 37 10000 1.34 195 08:42 06.10.2021
5396 Clear 17 1016 36 10000 1.34 121 07:20 06.10.2021
5397 Clear 18 1014 30 10000 1.79 73 05:26 06.10.2021
5398 Clear 27 1014 17 10000 0.89 174 00:26 06.10.2021
5399 Clear 27 1014 18 10000 1.34 108 23:52 05.10.2021
5400 Clear 27 1014 18 10000 1.34 108 23:52 05.10.2021
5401 Clear 27 1014 17 10000 1.34 193 23:32 05.10.2021
5402 Clear 27 1015 19 10000 1.34 69 22:44 05.10.2021
5403 Clear 27 1015 20 10000 0.89 11 21:58 05.10.2021
5404 Clear 27 1015 20 10000 0.89 11 21:58 05.10.2021
5405 Clear 26 1016 22 10000 0.89 40 21:36 05.10.2021
5406 Clear 25 1016 24 10000 0.89 114 20:39 05.10.2021
5407 Clear 24 1018 25 10000 0.45 83 20:20 05.10.2021
5408 Clear 22 1019 29 10000 0.45 134 19:27 05.10.2021
5409 Clear 21 1019 30 10000 0.45 157 18:46 05.10.2021
5410 Clear 16 1020 37 10000 0.16 114 16:35 05.10.2021
5411 Clear 13 1020 43 10000 0.24 82 14:30 05.10.2021
5412 Clear 13 1019 40 10000 0.11 209 13:29 05.10.2021
5413 Clear 13 1019 39 10000 0.11 209 12:36 05.10.2021
5414 Clear 14 1023 37 10000 0.52 250 11:59 05.10.2021
5415 Clear 14 1024 33 10000 0.91 233 10:39 05.10.2021
5416 Clear 15 1024 35 10000 2.58 190 08:39 05.10.2021
5417 Clear 19 1017 27 10000 0.45 127 03:38 05.10.2021
5418 Clouds 27 1018 16 10000 0.45 136 23:52 04.10.2021
5419 Clear 26 1018 19 10000 0.89 63 21:54 04.10.2021
5420 Clear 22 1021 30 10000 0.45 242 18:55 04.10.2021
5421 Clear 19 1020 35 10000 0.45 171 17:58 04.10.2021
5422 Clear 13 1026 43 10000 4.63 190 16:20 04.10.2021
5423 Clear 12 1021 44 10000 2.01 211 15:30 04.10.2021
5424 Clear 12 1020 43 10000 2.07 203 14:39 04.10.2021
5425 Clear 12 1025 44 10000 4.63 190 13:48 04.10.2021
5426 Clear 12 1019 43 10000 2.26 207 13:23 04.10.2021
5427 Clear 12 1019 42 10000 2.21 207 11:34 04.10.2021
5428 Clear 12 1019 41 10000 1.43 230 10:48 04.10.2021
5429 Clear 12 1024 41 10000 4.63 180 09:48 04.10.2021
5430 Clear 13 1024 42 10000 1.51 263 08:32 04.10.2021
5431 Clear 14 1017 36 10000 0.45 258 06:51 04.10.2021
5432 Clear 25 1015 19 10000 0.45 144 23:42 03.10.2021
5433 Clear 25 1017 19 10000 0.89 212 22:33 03.10.2021
5434 Clear 25 1017 19 10000 0.89 212 22:33 03.10.2021
5435 Clear 24 1018 20 10000 0.89 82 21:36 03.10.2021
5436 Clear 24 1018 20 10000 0.89 136 20:50 03.10.2021
5437 Clear 23 1020 22 10000 0.45 180 19:54 03.10.2021
5438 Clear 20 1020 38 10000 0.45 132 18:31 03.10.2021
5439 Clear 18 1019 43 10000 0.45 173 17:40 03.10.2021
5440 Clear 10 1020 59 10000 2.12 212 15:30 03.10.2021
5441 Clear 10 1020 62 10000 2.14 212 14:39 03.10.2021
5442 Clear 10 1024 66 10000 4.63 190 13:40 03.10.2021
5443 Clear 10 1024 66 10000 4.63 190 13:20 03.10.2021
5444 Clear 10 1019 65 10000 1.46 201 11:48 03.10.2021
5445 Clear 11 1024 62 10000 1.21 208 10:31 03.10.2021
5446 Clouds 12 1022 57 10000 1.2 202 07:39 03.10.2021
5447 Clear 21 1018 28 10000 0.45 350 00:26 03.10.2021
5448 Clear 21 1019 34 10000 0.45 38 22:19 02.10.2021
5449 Clouds 19 1021 43 10000 1.34 29 20:35 02.10.2021
5450 Clouds 17 1021 50 10000 0.45 32 18:57 02.10.2021
5451 Clouds 16 1021 55 10000 0.45 32 18:27 02.10.2021
5452 Clouds 15 1021 61 10000 0.45 324 17:38 02.10.2021
5453 Clouds 11 1023 75 10000 0.45 159 16:39 02.10.2021
5454 Clouds 9 1025 80 10000 1.34 339 14:35 02.10.2021
5455 Clouds 7 1026 84 10000 0.45 179 15:37 30.09.2021
5456 Clouds 7 1023 86 10000 0.89 121 14:29 30.09.2021
5457 Clouds 7 1022 86 10000 0.45 166 11:59 30.09.2021
5458 Rain 7 1022 84 10000 2.15 24 11:23 30.09.2021
5459 Clouds 7 1022 80 10000 0.45 248 10:25 30.09.2021
5460 Clouds 7 1022 80 10000 0.45 248 10:25 30.09.2021
5461 Clouds 7 1021 76 10000 0.45 37 08:32 30.09.2021
5462 Clouds 8 1021 74 10000 0.45 55 07:45 30.09.2021
5463 Clouds 9 1018 73 7959 0.89 48 05:25 30.09.2021
5464 Clouds 12 1015 75 7602 0.45 28 02:33 30.09.2021
5465 Clouds 13 1012 82 3278 0.45 34 00:33 30.09.2021
5466 Rain 18 1007 45 10000 5.77 68 22:41 29.09.2021
5467 Clouds 20 1008 43 10000 1.79 346 21:42 29.09.2021
5468 Clouds 20 1009 43 10000 0.89 107 20:31 29.09.2021
5469 Clouds 20 1008 45 10000 0.89 38 19:58 29.09.2021
5470 Clouds 19 1008 49 10000 0.45 73 19:18 29.09.2021
5471 Clouds 17 1008 52 10000 0.89 28 17:58 29.09.2021
5472 Clouds 16 1008 56 10000 0.45 125 16:55 29.09.2021
5473 Clouds 15 1008 60 10000 0.89 62 16:22 29.09.2021
5474 Clouds 13 1011 60 10000 0 0 14:42 29.09.2021
5475 Clouds 13 1006 60 10000 1.94 6 14:20 29.09.2021
5476 Clouds 13 1006 57 10000 1.94 6 13:32 29.09.2021
5477 Clouds 14 1006 57 10000 2.44 327 12:38 29.09.2021
5478 Clouds 13 1005 59 10000 3.46 296 10:57 29.09.2021
5479 Clouds 14 1009 57 10000 1.95 305 09:58 29.09.2021
5480 Clouds 14 1009 57 10000 1.95 305 09:36 29.09.2021
5481 Clouds 15 1001 51 10000 0.89 320 07:48 29.09.2021
5482 Clouds 17 1003 47 10000 2.97 212 05:50 29.09.2021
5483 Clouds 26 999 25 10000 0.45 178 23:36 28.09.2021
5484 Clouds 27 999 22 10000 0.45 85 22:24 28.09.2021
5485 Clouds 27 1000 22 10000 0.89 161 21:45 28.09.2021
5486 Clouds 26 1001 24 10000 0.89 172 20:44 28.09.2021
5487 Clouds 25 1003 27 10000 0.89 80 19:47 28.09.2021
5488 Clouds 24 1003 32 10000 0.45 84 18:53 28.09.2021
5489 Clouds 23 1004 35 10000 0.45 161 18:18 28.09.2021
5490 Clouds 20 1005 42 10000 0.45 171 16:41 28.09.2021
5491 Clouds 17 1006 47 10000 0.45 198 14:37 28.09.2021
5492 Clouds 18 1006 40 10000 0.89 284 13:19 28.09.2021
5493 Clouds 18 1008 38 10000 0.45 176 12:22 28.09.2021
5494 Clouds 18 1013 40 10000 0 0 11:47 28.09.2021
5495 Clouds 18 1013 42 10000 1.94 187 11:23 28.09.2021
5496 Clouds 18 1013 41 10000 0.59 112 10:21 28.09.2021
5497 Clouds 18 1013 41 10000 0.59 112 10:21 28.09.2021
5498 Clouds 18 1013 41 10000 0.59 112 10:21 28.09.2021
5499 Clouds 18 1014 38 10000 4.63 180 09:22 28.09.2021
5500 Clouds 18 1013 38 10000 0.54 200 08:39 28.09.2021
5501 Clouds 19 1014 36 10000 3.09 150 07:49 28.09.2021
5502 Clouds 21 1007 28 10000 3.01 170 05:41 28.09.2021
5503 Clouds 29 1007 15 10000 0.45 62 01:26 28.09.2021
5504 Clouds 30 1007 15 10000 0.45 72 00:26 28.09.2021
5505 Clouds 31 1007 14 10000 0.89 98 23:42 27.09.2021
5506 Clouds 31 1007 15 10000 0.45 205 23:22 27.09.2021
5507 Clear 30 1008 16 10000 0.45 15 22:19 27.09.2021
5508 Clouds 29 1011 18 10000 0.45 261 20:45 27.09.2021
5509 Clouds 28 1011 19 10000 0.45 28 19:57 27.09.2021
5510 Clouds 26 1011 22 10000 0.45 59 19:29 27.09.2021
5511 Clouds 26 1011 22 10000 0.89 58 18:51 27.09.2021
5512 Clouds 22 1011 30 10000 0.45 96 17:30 27.09.2021
5513 Clouds 21 1011 29 10000 1.14 208 16:51 27.09.2021
5514 Clouds 17 1012 28 10000 1.34 211 15:45 27.09.2021
5515 Clouds 15 1011 34 10000 1.4 219 15:19 27.09.2021
5516 Clouds 16 1011 31 10000 1.43 215 13:32 27.09.2021
5517 Clouds 16 1011 31 10000 0.87 205 11:49 27.09.2021
5518 Clouds 17 1018 31 10000 3.6 190 10:38 27.09.2021
5519 Clouds 17 1011 28 10000 1.92 342 09:28 27.09.2021
5520 Clouds 20 1017 25 10000 1.74 360 06:30 27.09.2021
5521 Clouds 24 1009 20 10000 0.45 340 03:25 27.09.2021
5522 Clouds 31 1008 12 10000 0.89 136 22:39 26.09.2021
5523 Clouds 31 1009 13 10000 0.89 34 21:53 26.09.2021
5524 Clouds 30 1010 14 10000 0.45 125 21:26 26.09.2021
5525 Clouds 29 1010 16 10000 0.89 39 20:23 26.09.2021
5526 Clouds 29 1012 17 10000 0.45 22 19:52 26.09.2021
5527 Clear 27 1012 22 10000 0.89 116 18:47 26.09.2021
5528 Clear 25 1012 26 10000 0.45 166 17:57 26.09.2021
5529 Clear 22 1010 30 10000 0.45 213 17:24 26.09.2021
5530 Clear 22 1018 28 10000 0.45 168 16:58 26.09.2021
5531 Clear 17 1018 33 10000 2.54 215 16:20 26.09.2021
5532 Clear 15 1019 39 10000 4.12 190 15:22 26.09.2021
5533 Clear 15 1012 38 10000 2.67 213 13:57 26.09.2021
5534 Clear 15 1018 40 10000 4.63 190 13:29 26.09.2021
5535 Clear 15 1011 39 10000 2.28 212 12:25 26.09.2021
5536 Clear 15 1011 41 10000 2.28 212 11:42 26.09.2021
5537 Clear 15 1011 38 10000 2.29 220 10:37 26.09.2021
5538 Clear 16 1017 37 10000 4.12 190 09:21 26.09.2021
5539 Clear 17 1017 35 10000 2.43 230 07:56 26.09.2021
5540 Clear 30 1010 14 10000 0.89 79 00:23 26.09.2021
5541 Clear 30 1011 14 10000 0.89 69 23:33 25.09.2021
5542 Clear 30 1012 15 10000 0.45 173 22:38 25.09.2021
5543 Clear 29 1013 15 10000 1.34 221 21:56 25.09.2021
5544 Clear 29 1014 16 10000 0.89 101 21:33 25.09.2021
5545 Clear 28 1015 17 10000 0.45 50 20:51 25.09.2021
5546 Clear 25 1016 24 10000 0.45 125 19:32 25.09.2021
5547 Clear 22 1017 33 10000 0.89 134 18:26 25.09.2021
5548 Clouds 15 1022 50 10000 4.12 200 16:28 25.09.2021
5549 Clear 12 1017 56 10000 1.44 195 13:58 25.09.2021
5550 Clear 12 1017 55 10000 1.44 195 13:33 25.09.2021
5551 Clear 12 1017 56 10000 0.98 148 12:28 25.09.2021
5552 Clear 13 1022 53 10000 1.51 167 10:36 25.09.2021
5553 Clear 13 1022 52 10000 1.46 167 09:45 25.09.2021
5554 Clouds 13 1023 52 10000 1.07 309 08:29 25.09.2021
5555 Clouds 14 1023 48 10000 1.19 80 06:26 25.09.2021
5556 Clear 23 1017 29 10000 0.45 29 00:49 25.09.2021
5557 Clear 21 1018 32 10000 0.45 355 21:54 24.09.2021
5558 Clear 20 1018 34 10000 0.45 76 20:49 24.09.2021
5559 Clouds 19 1021 35 10000 0.45 181 19:58 24.09.2021
5560 Clouds 17 1023 39 10000 0.89 93 18:35 24.09.2021
5561 Clouds 16 1026 37 10000 0.89 151 17:55 24.09.2021
5562 Clear 16 1026 37 10000 1.34 209 17:37 24.09.2021
5563 Clear 16 1020 38 10000 0.45 91 17:18 24.09.2021
5564 Clouds 12 1023 44 10000 4.12 180 14:31 24.09.2021
5565 Clouds 12 1016 41 10000 0.62 250 13:18 24.09.2021
5566 Clouds 12 1016 41 10000 0.62 250 12:39 24.09.2021
5567 Clouds 12 1016 39 10000 0.94 29 12:20 24.09.2021
5568 Clouds 14 1015 39 10000 0.36 141 10:27 24.09.2021
5569 Clouds 14 1021 38 10000 0.72 282 08:54 24.09.2021
5570 Clouds 16 1015 36 10000 1.61 249 07:34 24.09.2021
5571 Clouds 17 1017 31 10000 1.54 40 06:45 24.09.2021
5572 Clouds 20 1015 26 10000 0.45 69 04:54 24.09.2021
5573 Clouds 27 1012 14 10000 0.45 53 23:57 23.09.2021
5574 Clouds 28 1012 15 10000 0.89 33 22:30 23.09.2021
5575 Clouds 27 1012 15 10000 0.89 167 21:52 23.09.2021
5576 Clouds 26 1014 17 10000 0.45 106 20:34 23.09.2021
5577 Clouds 24 1015 20 10000 0.45 32 19:31 23.09.2021
5578 Clouds 21 1015 28 10000 0.89 166 17:46 23.09.2021
5579 Clear 12 1016 36 10000 1.76 205 15:28 23.09.2021
5580 Clear 13 1016 32 10000 1.76 205 14:59 23.09.2021
5581 Clear 12 1015 35 10000 1.99 205 13:45 23.09.2021
5582 Clear 12 1019 36 10000 1.95 210 13:19 23.09.2021
5583 Clear 13 1014 32 10000 1.95 210 12:49 23.09.2021
5584 Clear 13 1014 31 10000 2.08 206 12:22 23.09.2021
5585 Clear 13 1021 33 10000 3.6 180 11:32 23.09.2021
5586 Clear 13 1014 33 10000 1.9 210 10:20 23.09.2021
5587 Clear 14 1014 35 10000 1.9 210 09:51 23.09.2021
5588 Clear 15 1021 33 10000 1.78 223 07:44 23.09.2021
5589 Clear 25 1017 16 10000 0.45 77 01:43 23.09.2021
5590 Clear 26 1019 16 10000 0.89 10 22:58 22.09.2021
5591 Clear 25 1020 16 10000 0.45 115 22:28 22.09.2021
5592 Clear 25 1020 16 10000 0.89 80 21:52 22.09.2021
5593 Clear 25 1021 17 10000 0.45 157 21:32 22.09.2021
5594 Clear 24 1022 20 10000 0.45 279 20:39 22.09.2021
5595 Clear 22 1023 24 10000 0.89 86 19:28 22.09.2021
5596 Clear 20 1024 31 10000 0.45 213 18:37 22.09.2021
5597 Clear 18 1025 38 10000 0.45 157 17:43 22.09.2021
5598 Clear 13 1024 49 10000 1.81 202 16:37 22.09.2021
5599 Clear 7 1030 64 10000 3.09 200 14:55 22.09.2021
5600 Clear 7 1026 63 10000 0.65 149 13:25 22.09.2021
5601 Clear 7 1026 64 10000 0.28 37 11:41 22.09.2021
5602 Clear 8 1030 59 10000 0.26 343 10:37 22.09.2021
5603 Clear 9 1030 51 10000 1.84 322 08:57 22.09.2021
5604 Clear 9 1031 47 10000 1.44 310 07:50 22.09.2021
5605 Clear 10 1031 45 10000 5.14 130 06:57 22.09.2021
5606 Clear 11 1028 38 10000 2.8 160 05:51 22.09.2021
5607 Clear 11 1028 37 10000 0.45 5 05:31 22.09.2021
5608 Clear 14 1027 32 10000 0.89 78 03:43 22.09.2021
5609 Clouds 19 1027 27 10000 0.45 26 00:20 22.09.2021
5610 Clouds 18 1027 30 10000 0.45 45 22:49 21.09.2021
5611 Clouds 16 1029 33 10000 0.89 116 21:31 21.09.2021
5612 Clear 14 1031 42 10000 0.89 128 19:42 21.09.2021
5613 Clear 13 1032 45 10000 0.89 127 19:20 21.09.2021
5614 Clear 9 1031 78 10000 0.45 258 16:59 21.09.2021
5615 Clear 8 1031 85 10000 0.45 216 16:29 21.09.2021
5616 Clouds 5 1034 87 10000 2.06 150 15:35 21.09.2021
5617 Clear 5 1031 89 10000 2.42 57 14:56 21.09.2021
5618 Clouds 5 1030 87 10000 0.45 340 13:40 21.09.2021
5619 Clouds 6 1029 86 10000 2.32 69 13:19 21.09.2021
5620 Clouds 11 1028 50 10000 3.05 49 11:21 21.09.2021
5621 Rain 8 1027 46 10000 2.48 55 09:55 21.09.2021
5622 Clouds 9 1025 37 10000 3.66 52 07:59 21.09.2021
5623 Clouds 11 1024 33 10000 3.37 64 06:38 21.09.2021
5624 Clouds 20 1012 13 10000 5.28 102 23:58 20.09.2021
5625 Clear 20 1011 12 10000 5.94 65 22:18 20.09.2021
5626 Clear 19 1011 12 10000 5.94 65 21:36 20.09.2021
5627 Clear 18 1014 23 10000 4.13 51 20:29 20.09.2021
5628 Clouds 17 1014 31 10000 0.45 43 19:28 20.09.2021
5629 Clear 15 1013 42 10000 0.89 41 17:39 20.09.2021
5630 Clear 13 1012 55 10000 0.45 87 16:33 20.09.2021
5631 Clear 11 1012 63 10000 0.45 98 15:49 20.09.2021
5632 Clear 11 1011 63 10000 0.45 88 15:22 20.09.2021
5633 Clear 12 1009 61 10000 0.45 32 13:43 20.09.2021
5634 Clear 12 1008 57 10000 0.45 129 12:35 20.09.2021
5635 Clear 13 1008 52 10000 6.15 75 11:23 20.09.2021
5636 Clouds 15 1006 51 10000 4.83 104 09:57 20.09.2021
5637 Clouds 15 1014 51 10000 2.24 74 09:36 20.09.2021
5638 Clear 17 1003 50 10000 0.89 266 08:58 20.09.2021
5639 Clear 19 1010 36 10000 3.64 204 06:51 20.09.2021
5640 Clear 30 1002 20 10000 0.89 40 23:45 19.09.2021
5641 Clear 29 1002 21 10000 0.89 25 22:21 19.09.2021
5642 Clear 29 1003 22 10000 0.45 39 21:39 19.09.2021
5643 Clear 28 1004 22 10000 0.45 34 20:34 19.09.2021
5644 Clouds 27 1007 24 10000 0.45 299 19:18 19.09.2021
5645 Clear 25 1008 29 10000 0.89 166 18:25 19.09.2021
5646 Clear 23 1007 36 10000 0.45 199 17:22 19.09.2021
5647 Clouds 19 1010 46 10000 1.92 191 15:52 19.09.2021
5648 Clouds 17 1015 50 10000 0.97 197 14:50 19.09.2021
5649 Clouds 18 1015 47 10000 2.57 80 14:29 19.09.2021
5650 Clouds 18 1008 46 10000 0.96 297 13:19 19.09.2021
5651 Clouds 19 1008 43 10000 0.45 130 12:45 19.09.2021
5652 Clouds 20 1007 38 10000 0.89 100 11:27 19.09.2021
5653 Clouds 20 1007 38 10000 1.34 256 10:21 19.09.2021
5654 Clouds 21 1007 36 10000 0.45 200 09:28 19.09.2021
5655 Clouds 21 1010 34 10000 1.83 217 07:29 19.09.2021
5656 Clouds 29 1009 17 10000 1.34 345 02:24 19.09.2021
5657 Clouds 33 1010 13 10000 0.45 95 23:34 18.09.2021
5658 Clear 32 1012 14 10000 1.34 140 21:58 18.09.2021
5659 Clouds 32 1013 14 10000 0.89 196 21:58 18.09.2021
5660 Clear 30 1015 14 10000 0.89 113 20:48 18.09.2021
5661 Clear 30 1015 15 10000 0.45 170 20:26 18.09.2021
5662 Clear 29 1016 19 10000 1.34 111 19:38 18.09.2021
5663 Clear 27 1017 22 10000 0.45 179 19:20 18.09.2021
5664 Clear 25 1017 27 10000 0.89 114 18:31 18.09.2021
5665 Clear 21 1017 37 10000 0.89 169 17:23 18.09.2021
5666 Clear 16 1024 42 10000 2.57 190 15:46 18.09.2021
5667 Clear 13 1018 63 10000 1.68 179 13:46 18.09.2021
5668 Clear 13 1018 60 10000 1.61 168 13:25 18.09.2021
5669 Clear 12 1018 72 10000 1.15 161 12:24 18.09.2021
5670 Clear 12 1018 73 10000 1.15 161 11:34 18.09.2021
5671 Clear 12 1019 70 10000 0.28 356 10:31 18.09.2021
5672 Clear 12 1024 68 10000 2.06 190 09:25 18.09.2021
5673 Clear 13 1024 64 10000 1.1 342 08:29 18.09.2021
5674 Clear 23 1013 36 10000 0.56 106 00:55 18.09.2021
5675 Clear 23 1024 34 10000 1.45 83 23:56 17.09.2021
5676 Clear 22 1024 38 10000 0.89 34 23:32 17.09.2021
5677 Clear 21 1025 39 10000 0.45 150 22:25 17.09.2021
5678 Clear 20 1018 43 10000 1.65 65 21:45 17.09.2021
5679 Clouds 16 1028 47 10000 0.45 274 19:53 17.09.2021
5680 Clear 12 1023 52 10000 1.85 85 18:43 17.09.2021
5681 Clear 10 1022 62 10000 0.89 21 16:47 17.09.2021
5682 Clouds 9 1022 64 10000 0.45 17 15:25 17.09.2021
5683 Clouds 12 1017 56 10000 1.34 40 11:53 17.09.2021
5684 Clouds 16 1015 51 10000 0.45 30 10:24 17.09.2021
5685 Clouds 20 1006 28 10000 0.45 275 07:49 17.09.2021
5686 Clouds 22 1006 23 10000 0.89 333 06:27 17.09.2021
5687 Clouds 31 1001 12 10000 0.89 19 00:33 17.09.2021
5688 Clouds 33 1001 10 10000 0.45 192 22:42 16.09.2021
5689 Clear 33 1001 11 10000 1.34 182 22:24 16.09.2021
5690 Clouds 32 1003 13 10000 0.89 224 21:35 16.09.2021
5691 Clear 31 1003 12 10000 0.45 42 20:30 16.09.2021
5692 Clear 28 1005 18 10000 0.45 161 18:52 16.09.2021
5693 Clear 27 1006 22 10000 0.89 188 18:18 16.09.2021
5694 Clear 22 1016 24 10000 2.57 220 16:47 16.09.2021
5695 Clear 17 1008 34 10000 2.12 206 14:49 16.09.2021
5696 Clear 17 1008 34 10000 1.93 209 13:34 16.09.2021
5697 Clear 17 1002 35 10000 1.93 231 12:45 16.09.2021
5698 Clear 18 1002 34 10000 2.12 209 11:50 16.09.2021
5699 Clear 18 1007 34 10000 2.2 202 10:56 16.09.2021
5700 Clear 18 1007 34 10000 1.84 210 10:22 16.09.2021
5701 Clear 19 1014 32 10000 1.69 219 09:20 16.09.2021
5702 Clear 20 1008 37 10000 1.87 235 07:52 16.09.2021
5703 Clear 20 1010 35 10000 5.14 200 06:57 16.09.2021
5704 Clear 20 1009 36 10000 0.45 219 06:38 16.09.2021
5705 Clear 26 1007 26 10000 0.89 131 03:22 16.09.2021
5706 Clear 32 1005 15 10000 0.45 14 00:49 16.09.2021
5707 Clear 32 1006 15 10000 0.45 198 23:26 15.09.2021
5708 Clear 32 1007 15 10000 0.89 57 22:28 15.09.2021
5709 Clouds 31 1008 16 10000 0.45 76 21:31 15.09.2021
5710 Clear 30 1009 17 10000 0.89 161 20:42 15.09.2021
5711 Clear 28 1010 24 10000 0.45 98 19:33 15.09.2021
5712 Clear 26 1010 31 10000 0.45 157 18:45 15.09.2021
5713 Clear 23 1012 38 10000 0.89 201 17:39 15.09.2021
5714 Clear 23 1012 38 10000 0.89 201 17:39 15.09.2021
5715 Clear 18 1017 53 10000 0.45 196 16:30 15.09.2021
5716 Clear 14 1012 63 10000 1.55 218 15:22 15.09.2021
5717 Clear 14 1012 64 10000 1.55 218 14:41 15.09.2021
5718 Clear 14 1019 64 10000 1.54 290 13:45 15.09.2021
5719 Clear 14 1012 63 10000 1.62 206 13:27 15.09.2021
5720 Clear 15 1011 62 10000 1.86 197 12:33 15.09.2021
5721 Clear 14 1018 62 10000 5.66 200 11:50 15.09.2021
5722 Clear 15 1017 64 10000 1.6 201 10:57 15.09.2021
5723 Clear 15 1017 64 10000 1.6 201 10:30 15.09.2021
5724 Clear 16 1018 64 10000 2.1 236 08:47 15.09.2021
5725 Clear 16 1014 64 10000 3.04 171 07:25 15.09.2021
5726 Clouds 23 1011 50 10000 0.45 293 00:55 15.09.2021
5727 Clouds 26 1018 41 10000 0.89 35 22:24 14.09.2021
5728 Clouds 25 1004 40 10000 0.45 201 21:21 14.09.2021
5729 Clouds 25 1006 41 10000 0.45 201 21:21 14.09.2021
5730 Clouds 25 1013 40 10000 0.89 30 20:18 14.09.2021
5731 Clouds 22 1020 41 10000 0.45 355 18:44 14.09.2021
5732 Clouds 19 1015 54 10000 2.03 197 17:32 14.09.2021
5733 Clouds 16 1020 64 10000 1.79 220 15:59 14.09.2021
5734 Clouds 14 1020 72 10000 1.16 162 14:32 14.09.2021
5735 Clear 14 1020 71 10000 1.73 190 13:53 14.09.2021
5736 Clear 14 1017 70 10000 3.34 169 11:41 14.09.2021
5737 Clear 16 1014 65 10000 0.89 281 10:20 14.09.2021
5738 Clear 16 1013 63 10000 0.45 100 09:45 14.09.2021
5739 Clouds 18 1012 53 10000 0.89 0 07:28 14.09.2021
5740 Clouds 28 1009 29 10000 1.34 119 00:57 14.09.2021
5741 Clouds 28 1010 31 10000 0.89 241 23:18 13.09.2021
5742 Clouds 28 1011 30 10000 0.89 158 22:27 13.09.2021
5743 Clouds 27 1011 31 10000 0.45 103 21:54 13.09.2021
5744 Clouds 27 1012 36 10000 0.45 87 21:19 13.09.2021
5745 Clouds 27 1012 34 10000 0.45 14 21:19 13.09.2021
5746 Clouds 24 1007 17 10000 2.4 43 19:34 13.09.2021
5747 Clouds 23 1008 19 10000 1.65 178 18:43 13.09.2021
5748 Clouds 23 1011 43 10000 2.68 38 17:18 13.09.2021
5749 Clouds 20 1007 49 10000 0.45 192 15:55 13.09.2021
5750 Clouds 18 1012 57 10000 2.57 203 14:19 13.09.2021
5751 Clouds 18 1018 53 10000 2.11 194 11:21 13.09.2021
5752 Clear 18 1019 55 10000 2.03 184 09:54 13.09.2021
5753 Clouds 18 1020 58 10000 0.45 192 07:46 13.09.2021
5754 Clouds 29 1012 30 10000 1.79 78 23:50 12.09.2021
5755 Clouds 29 1013 30 10000 0.45 39 22:27 12.09.2021
5756 Clouds 28 1013 32 10000 0.45 35 21:51 12.09.2021
5757 Clouds 28 1016 30 10000 0.89 5 20:41 12.09.2021
5758 Clouds 27 1016 32 10000 1.34 32 19:54 12.09.2021
5759 Clouds 26 1015 34 10000 0.89 30 19:29 12.09.2021
5760 Clouds 24 1016 38 10000 0.89 16 18:32 12.09.2021
5761 Clouds 21 1015 48 10000 0.45 340 16:58 12.09.2021
5762 Clouds 19 1017 50 10000 1.55 184 15:37 12.09.2021
5763 Clouds 17 1016 53 10000 1.69 217 14:32 12.09.2021
5764 Clouds 17 1015 55 10000 1.2 145 11:49 12.09.2021
5765 Clear 18 1022 51 10000 1.99 308 10:18 12.09.2021
5766 Clear 20 1013 44 10000 0.45 341 08:38 12.09.2021
5767 Clouds 28 1010 25 10000 0.45 344 02:56 12.09.2021
5768 Clouds 31 1009 20 10000 1.79 346 00:46 12.09.2021
5769 Clouds 34 1009 15 10000 0.89 113 22:29 11.09.2021
5770 Clouds 34 1010 14 10000 0.45 100 21:37 11.09.2021
5771 Clouds 32 1013 19 10000 0.45 120 19:34 11.09.2021
5772 Clouds 28 1016 25 10000 0.45 190 17:56 11.09.2021
5773 Clouds 22 1014 33 10000 2.18 217 16:24 11.09.2021
5774 Clouds 19 1014 29 10000 2.19 217 14:27 11.09.2021
5775 Clouds 19 1013 29 10000 2.39 207 13:20 11.09.2021
5776 Clouds 20 1013 32 10000 1.5 176 11:34 11.09.2021
5777 Clear 21 1012 26 10000 0.83 301 09:42 11.09.2021
5778 Clouds 23 1020 24 10000 1.96 262 07:53 11.09.2021
5779 Clouds 23 1011 24 10000 1.96 262 07:34 11.09.2021
5780 Clouds 35 1010 12 10000 0.45 103 01:20 11.09.2021
5781 Clouds 36 1012 12 10000 0.45 132 22:26 10.09.2021
5782 Clouds 35 1011 10 10000 0.89 102 21:55 10.09.2021
5783 Clouds 34 1012 12 10000 0.89 46 20:41 10.09.2021
5784 Clouds 30 1012 20 10000 0.45 189 18:34 10.09.2021
5785 Clouds 26 1015 26 10000 0.45 148 17:27 10.09.2021
5786 Clouds 20 1015 28 10000 1.98 208 15:36 10.09.2021
5787 Clear 19 1022 27 10000 5.14 210 13:18 10.09.2021
5788 Clear 20 1014 25 10000 2 218 09:50 10.09.2021
5789 Clear 21 1021 24 10000 2.03 209 07:51 10.09.2021
5790 Clear 27 1012 22 10000 0.45 220 03:43 10.09.2021
5791 Clear 34 1012 12 10000 0.45 83 22:33 09.09.2021
5792 Clear 34 1014 10 10000 0.45 36 21:46 09.09.2021
5793 Clear 33 1014 12 10000 0.45 111 20:47 09.09.2021
5794 Clear 32 1014 13 10000 0.45 80 20:21 09.09.2021
5795 Clear 27 1017 26 10000 0.45 213 18:34 09.09.2021
5796 Clear 22 1015 16 10000 1.7 215 16:41 09.09.2021
5797 Clear 19 1016 35 10000 1.81 219 15:51 09.09.2021
5798 Clear 16 1016 48 10000 1.61 215 12:53 09.09.2021
5799 Clear 16 1016 48 10000 0.61 292 11:47 09.09.2021
5800 Clear 17 1016 48 10000 1.64 306 10:25 09.09.2021
5801 Clear 18 1022 46 10000 1.07 347 08:50 09.09.2021
5802 Clouds 20 1023 38 10000 1.35 163 06:26 09.09.2021
5803 Clouds 28 1014 27 10000 0.45 327 02:36 09.09.2021
5804 Clouds 30 1016 23 10000 0.45 16 22:45 08.09.2021
5805 Clouds 29 1016 24 10000 0.45 26 21:35 08.09.2021
5806 Clouds 26 1017 29 10000 0.89 355 19:56 08.09.2021
5807 Clouds 25 1018 31 10000 0.45 38 19:22 08.09.2021
5808 Clouds 23 1018 35 10000 0.45 106 18:29 08.09.2021
5809 Clouds 23 1020 36 10000 0.89 105 17:56 08.09.2021
5810 Clouds 19 1025 47 10000 1.64 19 16:32 08.09.2021
5811 Clouds 16 1018 51 10000 0.09 52 14:26 08.09.2021
5812 Clouds 17 1017 49 10000 0.94 183 12:47 08.09.2021
5813 Clouds 17 1017 48 10000 1.02 189 12:27 08.09.2021
5814 Clouds 17 1017 46 10000 0.91 190 11:30 08.09.2021
5815 Clouds 17 1024 45 10000 0.91 190 10:38 08.09.2021
5816 Clear 18 1024 44 10000 0.45 217 10:20 08.09.2021
5817 Clear 19 1024 42 10000 1.5 215 08:36 08.09.2021
5818 Clear 19 1018 40 10000 1.5 215 07:35 08.09.2021
5819 Clear 21 1019 34 10000 2.99 148 05:28 08.09.2021
5820 Clouds 29 1015 20 10000 0.45 109 22:43 07.09.2021
5821 Clouds 28 1016 20 10000 0.45 84 21:52 07.09.2021
5822 Clouds 26 1017 21 10000 0.89 28 19:52 07.09.2021
5823 Clouds 25 1018 22 10000 0.45 37 18:45 07.09.2021
5824 Clear 23 1016 25 10000 0.45 10 17:49 07.09.2021
5825 Clear 21 1018 29 10000 2.13 342 16:38 07.09.2021
5826 Clear 19 1018 27 10000 1.28 2 15:36 07.09.2021
5827 Clouds 17 1023 27 10000 4.63 190 14:42 07.09.2021
5828 Clear 18 1015 27 10000 1.06 232 12:41 07.09.2021
5829 Clear 18 1021 28 10000 2.15 224 11:37 07.09.2021
5830 Clear 19 1011 24 10000 0.89 241 10:41 07.09.2021
5831 Clear 20 1011 24 10000 0.45 250 08:25 07.09.2021
5832 Clouds 22 1014 21 10000 0.45 286 06:45 07.09.2021
5833 Clear 23 1012 21 10000 0.89 286 05:40 07.09.2021
5834 Clear 31 1009 12 10000 0.89 265 02:34 07.09.2021
5835 Clear 34 1008 10 10000 0.45 142 00:43 07.09.2021
5836 Clear 34 1009 11 10000 0.89 67 23:34 06.09.2021
5837 Clear 33 1009 12 10000 0.45 96 22:53 06.09.2021
5838 Clear 33 1010 12 10000 0.45 83 22:32 06.09.2021
5839 Clear 32 1011 12 10000 0.89 74 20:55 06.09.2021
5840 Clear 30 1013 18 10000 0.45 111 19:22 06.09.2021
5841 Clear 29 1013 22 10000 0.89 109 18:46 06.09.2021
5842 Clear 27 1013 27 10000 0.45 110 18:23 06.09.2021
5843 Clear 26 1009 27 10000 1.34 110 17:36 06.09.2021
5844 Clear 19 1016 32 10000 2.26 214 15:49 06.09.2021
5845 Clear 17 1016 38 10000 1.89 220 13:47 06.09.2021
5846 Clear 17 1015 37 10000 1.77 228 12:46 06.09.2021
5847 Clear 17 1021 34 10000 1.88 222 10:44 06.09.2021
5848 Clear 18 1022 29 10000 1.74 188 07:59 06.09.2021
5849 Clear 21 1021 26 10000 3.29 172 04:44 06.09.2021
5850 Clear 30 1013 13 10000 0.45 18 23:27 05.09.2021
5851 Clear 30 1012 13 10000 1.34 0 22:46 05.09.2021
5852 Clear 29 1014 14 10000 0.89 333 21:57 05.09.2021
5853 Clear 29 1014 14 10000 0.89 28 21:29 05.09.2021
5854 Clear 28 1015 15 10000 1.34 102 19:50 05.09.2021
5855 Clear 26 1015 26 10000 0.45 132 18:38 05.09.2021
5856 Clear 22 1015 38 10000 0.45 132 17:29 05.09.2021
5857 Clear 15 1023 52 10000 0.45 0 15:27 05.09.2021
5858 Clear 15 1017 56 10000 2.4 210 13:54 05.09.2021
5859 Clear 16 1022 58 10000 1.95 222 11:57 05.09.2021
5860 Clear 16 1013 57 10000 0.45 226 10:47 05.09.2021
5861 Clear 17 1014 57 10000 1.75 326 10:23 05.09.2021
5862 Clear 17 1014 61 10000 2.79 327 09:21 05.09.2021
5863 Clear 19 1017 65 10000 8.75 190 07:31 05.09.2021
5864 Clouds 28 1011 25 10000 0.89 16 00:46 05.09.2021
5865 Clear 29 1011 25 10000 1.34 5 00:21 05.09.2021
5866 Clear 29 1012 25 10000 0.89 111 23:29 04.09.2021
5867 Clear 28 1012 25 10000 0.89 113 22:35 04.09.2021
5868 Clouds 28 1014 27 10000 0.89 42 21:44 04.09.2021
5869 Clouds 25 1015 39 10000 0.45 41 19:40 04.09.2021
5870 Clear 20 1013 61 10000 0.45 275 17:43 04.09.2021
5871 Clear 15 1023 82 10000 0.82 227 15:53 04.09.2021
5872 Clear 14 1021 85 10000 1.37 194 12:22 04.09.2021
5873 Clear 15 1021 85 10000 1.42 205 11:18 04.09.2021
5874 Clouds 15 1015 83 10000 1.18 279 08:46 04.09.2021
5875 Clouds 23 1010 57 10000 0.89 133 01:59 04.09.2021
5876 Clouds 24 1009 54 10000 0.89 143 00:23 04.09.2021
5877 Thunderstorm 23 1020 66 10000 2.57 40 23:23 03.09.2021
5878 Rain 25 1020 47 10000 2.57 260 21:53 03.09.2021
5879 Clouds 26 1009 44 10000 5.56 311 21:30 03.09.2021
5880 Clouds 26 1010 46 10000 0.45 219 20:35 03.09.2021
5881 Clear 25 1010 46 10000 0.89 281 19:45 03.09.2021
5882 Clear 24 1011 51 10000 1.34 350 18:37 03.09.2021
5883 Clouds 22 1012 56 10000 0.45 359 17:32 03.09.2021
5884 Clouds 19 1012 66 10000 0.45 44 16:22 03.09.2021
5885 Clouds 17 1011 73 10000 1.11 140 14:47 03.09.2021
5886 Clouds 18 1011 67 10000 0.45 298 11:47 03.09.2021
5887 Clouds 19 1011 60 10000 0.45 155 10:21 03.09.2021
5888 Clouds 19 1011 59 10000 4.84 192 08:22 03.09.2021
5889 Clouds 20 1011 57 10000 0.45 40 06:51 03.09.2021
5890 Clouds 26 1008 37 10000 1.34 333 23:59 02.09.2021
5891 Clouds 27 1007 41 10000 1.34 121 22:22 02.09.2021
5892 Clouds 26 1008 45 10000 0.45 248 20:59 02.09.2021
5893 Clouds 23 1009 53 10000 0.45 209 18:57 02.09.2021
5894 Clouds 19 1007 66 10000 0.45 294 16:57 02.09.2021
5895 Clouds 17 1016 74 10000 1.87 27 15:32 02.09.2021
5896 Clouds 16 1015 75 10000 2.57 340 13:42 02.09.2021
5897 Clouds 17 1009 73 10000 2.04 41 11:46 02.09.2021
5898 Clouds 17 1011 73 10000 0 0 11:46 02.09.2021
5899 Clouds 17 1015 71 10000 3.23 12 11:27 02.09.2021
5900 Clouds 18 1014 71 10000 5.3 14 09:21 02.09.2021
5901 Clouds 19 1008 73 10000 0.45 5 07:40 02.09.2021
5902 Clouds 19 1006 72 10000 0.45 123 06:40 02.09.2021
5903 Clouds 26 1003 34 10000 0.89 286 02:38 02.09.2021
5904 Clouds 27 1003 33 10000 1.34 304 01:50 02.09.2021
5905 Clouds 30 998 13 10000 7.03 145 23:41 01.09.2021
5906 Clouds 30 998 11 10000 7.37 140 23:23 01.09.2021
5907 Clouds 31 998 28 10000 7.37 140 22:30 01.09.2021
5908 Clouds 31 1012 27 10000 5.14 10 22:30 01.09.2021
5909 Clouds 30 1011 25 10000 1.34 17 21:32 01.09.2021
5910 Clouds 29 1004 32 10000 1.34 352 19:37 01.09.2021
5911 Clouds 27 1007 38 10000 1.79 333 17:57 01.09.2021
5912 Clouds 25 1013 37 10000 0.45 237 16:59 01.09.2021
5913 Clouds 24 1005 32 10000 0.65 235 16:36 01.09.2021
5914 Clouds 20 1005 38 10000 1.24 133 15:18 01.09.2021
5915 Clouds 20 1002 35 10000 2.24 308 11:48 01.09.2021
5916 Clouds 20 1006 32 10000 0.52 44 10:39 01.09.2021
5917 Clouds 22 1000 30 10000 0.45 147 08:42 01.09.2021
5918 Clouds 25 1002 26 10000 0.89 142 06:59 01.09.2021
5919 Clouds 34 1002 12 10000 1.34 49 23:33 31.08.2021
5920 Clear 34 1003 13 10000 0.45 150 22:23 31.08.2021
5921 Clouds 32 1005 17 10000 0.45 121 20:19 31.08.2021
5922 Clear 32 1006 19 10000 0.45 114 19:43 31.08.2021
5923 Clear 28 1006 25 10000 0.45 27 17:52 31.08.2021
5924 Clear 26 1006 29 10000 0.89 27 17:26 31.08.2021
5925 Clear 24 1007 25 10000 1.55 222 16:41 31.08.2021
5926 Clear 21 1007 27 10000 2.17 218 15:39 31.08.2021
5927 Clear 19 1007 35 10000 2.37 211 12:43 31.08.2021
5928 Clear 20 1007 36 10000 2.38 221 11:20 31.08.2021
5929 Clear 20 1013 33 10000 2.38 221 10:43 31.08.2021
5930 Clear 20 1013 33 10000 0.45 198 09:41 31.08.2021
5931 Clouds 21 1013 32 10000 3.13 197 07:52 31.08.2021
5932 Clouds 23 1014 26 10000 4.36 166 05:57 31.08.2021
5933 Clouds 33 1005 13 10000 1.34 15 23:36 30.08.2021
5934 Clear 33 1006 13 10000 1.79 5 22:36 30.08.2021
5935 Clear 33 1006 15 10000 1.34 10 21:35 30.08.2021
5936 Clear 32 1007 16 10000 0.89 29 20:41 30.08.2021
5937 Clear 31 1008 25 10000 0.89 115 19:53 30.08.2021
5938 Clear 29 1008 28 10000 0.45 115 19:19 30.08.2021
5939 Clear 26 1004 37 10000 0.89 296 17:50 30.08.2021
5940 Clear 20 1011 56 10000 2.16 201 16:28 30.08.2021
5941 Clear 19 1011 46 10000 2.16 201 15:45 30.08.2021
5942 Clear 15 1017 72 10000 1.39 185 13:59 30.08.2021
5943 Clear 16 1017 73 10000 1.35 175 13:19 30.08.2021
5944 Clear 17 1015 73 10000 4.12 190 10:59 30.08.2021
5945 Clear 24 1009 49 10000 0.89 173 03:31 30.08.2021
5946 Clouds 26 1010 38 10000 0.89 34 21:36 29.08.2021
5947 Clear 25 1013 42 10000 0.89 129 20:48 29.08.2021
5948 Clear 22 1015 51 10000 0.89 67 19:28 29.08.2021
5949 Clear 20 1015 57 10000 0.45 65 18:24 29.08.2021
5950 Clouds 16 1016 67 10000 0.89 52 15:58 29.08.2021
5951 Clouds 16 1016 63 10000 0.45 30 14:28 29.08.2021
5952 Clouds 16 1015 62 10000 0.45 26 13:55 29.08.2021
5953 Clouds 16 1015 62 10000 0.45 26 13:55 29.08.2021
5954 Clouds 17 1015 59 10000 0.45 86 12:57 29.08.2021
5955 Clouds 17 1015 57 10000 0.45 86 11:59 29.08.2021
5956 Clouds 18 1015 57 10000 0.89 37 11:40 29.08.2021
5957 Clouds 18 1015 55 10000 0.45 32 10:46 29.08.2021
5958 Clouds 18 1015 54 10000 0.89 355 10:28 29.08.2021
5959 Clear 19 1016 54 10000 0.89 16 09:26 29.08.2021
5960 Clouds 25 1011 40 10000 0.89 15 04:18 29.08.2021
5961 Clear 33 1007 23 10000 0.45 29 22:43 28.08.2021
5962 Clear 30 1009 24 10000 0.89 40 20:31 28.08.2021
5963 Clear 30 1009 27 10000 0.45 92 19:19 28.08.2021
5964 Clear 28 1001 31 10000 0.89 335 18:22 28.08.2021
5965 Clear 26 1001 34 10000 0.41 201 17:45 28.08.2021
5966 Clear 21 1009 42 10000 2.23 210 16:21 28.08.2021
5967 Clear 18 1017 48 10000 2.21 217 14:43 28.08.2021
5968 Clouds 18 1016 47 10000 0.88 201 13:47 28.08.2021
5969 Clouds 19 1011 44 10000 0.89 16 12:46 28.08.2021
5970 Clouds 19 1007 43 10000 0.79 171 12:24 28.08.2021
5971 Clouds 20 1011 44 10000 0.45 233 10:45 28.08.2021
5972 Clouds 21 1010 42 10000 0.67 5 09:33 28.08.2021
5973 Clouds 23 1005 35 10000 0.89 291 07:25 28.08.2021
5974 Clouds 34 1005 20 10000 0.89 332 22:50 27.08.2021
5975 Clear 33 1006 20 10000 0.89 150 21:26 27.08.2021
5976 Clear 32 1007 21 10000 0.89 138 20:35 27.08.2021
5977 Clear 30 1007 25 10000 2.24 160 19:29 27.08.2021
5978 Clear 29 1008 30 10000 0.89 166 18:38 27.08.2021
5979 Clear 25 1009 39 10000 0.45 158 17:30 27.08.2021
5980 Clouds 21 1012 48 10000 0.45 169 16:28 27.08.2021
5981 Clear 16 1018 55 10000 0.45 221 14:44 27.08.2021
5982 Clouds 16 1018 55 10000 2.64 216 12:55 27.08.2021
5983 Clouds 17 1012 53 10000 2.76 211 11:38 27.08.2021
5984 Clouds 17 1013 53 10000 0.45 250 10:45 27.08.2021
5985 Clouds 18 1020 52 10000 0.45 0 09:51 27.08.2021
5986 Clouds 18 1013 51 10000 0.45 177 08:48 27.08.2021
5987 Clouds 19 1012 50 10000 0.45 184 07:39 27.08.2021
5988 Clouds 22 1008 42 10000 0.89 39 05:31 27.08.2021
5989 Clouds 27 1011 38 10000 0.45 229 00:37 27.08.2021
5990 Clouds 28 1010 34 10000 0.89 190 23:19 26.08.2021
5991 Clouds 29 1008 16 10000 3.34 44 22:19 26.08.2021
5992 Clouds 29 1008 16 10000 3.34 44 22:19 26.08.2021
5993 Clouds 29 1008 16 10000 3.34 44 22:19 26.08.2021
5994 Clouds 29 1008 16 10000 3.34 44 22:19 26.08.2021
5995 Clouds 28 1021 29 10000 1.34 265 21:28 26.08.2021
5996 Clouds 28 1023 29 10000 5.14 320 19:20 26.08.2021
5997 Clouds 25 1012 56 10000 2.06 300 17:45 26.08.2021
5998 Clear 23 1006 63 10000 1.47 174 16:44 26.08.2021
5999 Clouds 20 1014 72 10000 2.06 220 16:26 26.08.2021
6000 Clear 17 1012 78 10000 0.78 252 13:53 26.08.2021
6001 Clear 18 1013 72 10000 1.79 315 12:57 26.08.2021
6002 Clear 18 1010 70 10000 1.02 282 12:31 26.08.2021
6003 Clear 20 1012 61 10000 0.45 316 10:21 26.08.2021
6004 Clouds 21 1013 57 10000 0.45 133 08:34 26.08.2021
6005 Clear 23 1012 52 10000 0.89 355 06:34 26.08.2021
6006 Clouds 29 1013 36 10000 0.45 304 22:54 25.08.2021
6007 Clear 29 1011 37 10000 0.45 36 22:35 25.08.2021
6008 Clear 28 1011 38 10000 1.34 302 21:54 25.08.2021
6009 Clear 27 1012 44 10000 0.45 110 20:49 25.08.2021
6010 Clear 26 1015 45 10000 0.89 109 20:28 25.08.2021
6011 Clear 24 1020 51 10000 0.45 20 18:45 25.08.2021
6012 Clouds 21 1019 57 10000 1.34 309 17:36 25.08.2021
6013 Clear 18 1017 64 10000 0.89 28 15:45 25.08.2021
6014 Clear 16 1016 63 10000 0.45 288 14:48 25.08.2021
6015 Clouds 16 1017 62 10000 0.45 338 14:29 25.08.2021
6016 Clear 17 1016 57 10000 0.45 275 13:25 25.08.2021
6017 Clear 19 1013 48 10000 1.34 302 11:27 25.08.2021
6018 Clear 19 1013 43 10000 1.34 198 10:43 25.08.2021
6019 Clear 20 1013 38 10000 1.79 294 09:56 25.08.2021
6020 Clear 21 1014 35 10000 0.45 280 08:50 25.08.2021
6021 Clouds 21 1011 35 10000 1.79 272 08:29 25.08.2021
6022 Clouds 28 1008 21 10000 0.45 30 03:53 25.08.2021
6023 Clear 33 1008 15 10000 0.89 20 23:44 24.08.2021
6024 Clear 32 1009 17 10000 0.45 11 21:49 24.08.2021
6025 Clear 33 1008 17 10000 0.45 11 21:49 24.08.2021
6026 Clear 32 1009 17 10000 1.34 198 20:48 24.08.2021
6027 Clear 31 1009 18 10000 0.89 63 19:52 24.08.2021
6028 Clear 27 1008 29 10000 0.45 343 17:58 24.08.2021
6029 Clear 27 1008 29 10000 0.45 343 17:58 24.08.2021
6030 Clear 27 1008 29 10000 0.45 343 17:58 24.08.2021
6031 Clear 25 1010 33 10000 0.45 333 17:27 24.08.2021
6032 Clear 25 1004 35 10000 1.71 226 16:56 24.08.2021
6033 Clouds 18 1011 42 10000 2.14 209 14:29 24.08.2021
6034 Clouds 18 1018 43 10000 2.04 214 13:24 24.08.2021
6035 Clouds 19 1009 43 10000 1.84 221 11:39 24.08.2021
6036 Clouds 19 1008 41 10000 1.72 236 10:48 24.08.2021
6037 Clouds 20 1008 37 10000 0.89 179 10:26 24.08.2021
6038 Clouds 21 1009 43 10000 1.79 308 08:50 24.08.2021
6039 Clouds 22 1008 41 10000 0.89 298 06:45 24.08.2021
6040 Clouds 25 1006 36 10000 2.72 289 04:48 24.08.2021
6041 Clouds 32 1005 23 10000 2.24 304 00:45 24.08.2021
6042 Clouds 32 1006 24 10000 1.34 284 22:52 23.08.2021
6043 Clear 32 1006 23 10000 2.24 255 22:21 23.08.2021
6044 Clouds 31 1008 25 10000 0.45 182 20:27 23.08.2021
6045 Clouds 28 1009 33 10000 0.45 309 18:50 23.08.2021
6046 Clouds 21 1011 49 10000 0.45 256 16:37 23.08.2021
6047 Clouds 17 1018 57 10000 3.09 180 14:29 23.08.2021
6048 Clouds 17 1017 54 10000 0.85 333 12:56 23.08.2021
6049 Clouds 17 1017 51 10000 1.21 348 11:48 23.08.2021
6050 Clouds 18 1009 47 10000 1.34 288 10:37 23.08.2021
6051 Clear 20 1009 44 10000 1.34 308 09:31 23.08.2021
6052 Clouds 21 1009 41 10000 0.84 329 07:58 23.08.2021
6053 Clouds 22 1008 40 10000 0.45 272 06:48 23.08.2021
6054 Clouds 23 1008 37 10000 0.89 316 05:40 23.08.2021
6055 Clear 32 1005 21 10000 0.89 33 00:51 23.08.2021
6056 Clear 31 1006 24 10000 2.24 18 22:44 22.08.2021
6057 Clear 31 1006 27 10000 0.89 115 22:23 22.08.2021
6058 Clear 28 1001 41 10000 0.45 325 20:21 22.08.2021
6059 Clear 27 1003 42 10000 0.89 341 19:22 22.08.2021
6060 Clear 20 1009 61 10000 0.45 336 16:27 22.08.2021
6061 Clear 17 1009 67 10000 0.45 265 14:56 22.08.2021
6062 Clear 17 1008 69 10000 0.89 27 14:35 22.08.2021
6063 Clouds 17 1007 71 10000 0.89 106 13:20 22.08.2021
6064 Clouds 17 1007 71 10000 0.89 133 12:51 22.08.2021
6065 Clear 17 1006 71 10000 0.45 194 11:58 22.08.2021
6066 Clear 17 1006 71 10000 0.45 178 11:39 22.08.2021
6067 Clear 18 1008 71 10000 0.45 188 10:20 22.08.2021
6068 Clouds 18 1009 67 10000 0.45 12 08:18 22.08.2021
6069 Clouds 19 1012 67 10000 0.45 0 04:50 22.08.2021
6070 Clouds 27 1007 33 10000 1.79 116 22:51 21.08.2021
6071 Clouds 27 1010 32 10000 0.45 296 22:27 21.08.2021
6072 Clouds 23 1010 39 10000 3.13 136 19:22 21.08.2021
6073 Clouds 22 1012 42 10000 4.02 171 18:39 21.08.2021
6074 Clouds 20 1012 47 10000 0.89 115 17:48 21.08.2021
6075 Clouds 17 1009 53 10000 3.15 192 16:50 21.08.2021
6076 Clouds 15 1021 60 10000 3.65 166 15:51 21.08.2021
6077 Clouds 14 1015 63 10000 0.45 0 15:26 21.08.2021
6078 Clouds 14 1015 63 10000 0.45 254 14:21 21.08.2021
6079 Clouds 15 1014 58 10000 0.89 329 12:43 21.08.2021
6080 Clouds 15 1016 57 10000 1.34 343 12:23 21.08.2021
6081 Clear 15 1016 51 10000 0.89 340 09:21 21.08.2021
6082 Clouds 26 1008 27 10000 0.45 36 01:39 21.08.2021
6083 Clear 26 1007 26 10000 0.89 273 22:41 20.08.2021
6084 Clear 24 1008 28 10000 0.89 341 20:47 20.08.2021
6085 Clear 19 1003 60 10000 1.07 257 17:46 20.08.2021
6086 Clear 15 1009 76 10000 1.38 185 15:42 20.08.2021
6087 Clouds 14 1009 88 10000 0.86 193 13:23 20.08.2021
6088 Clouds 15 1008 81 10000 1.34 296 11:32 20.08.2021
6089 Clouds 16 1006 81 10000 0.45 261 10:37 20.08.2021
6090 Clear 16 1005 82 7667 0.45 65 09:29 20.08.2021
6091 Clear 16 1005 81 7667 2.77 17 08:38 20.08.2021
6092 Clouds 18 1007 75 10000 3.6 320 05:48 20.08.2021
6093 Clouds 19 1005 71 10000 5.08 351 04:21 20.08.2021
6094 Rain 22 1004 64 9679 3.17 74 23:51 19.08.2021
6095 Clouds 26 1005 46 10000 0.45 275 22:39 19.08.2021
6096 Clouds 26 1004 46 10000 3.13 296 21:57 19.08.2021
6097 Clear 25 1005 50 10000 0.89 76 20:21 19.08.2021
6098 Clear 23 1006 57 10000 0.45 28 18:57 19.08.2021
6099 Clear 20 1006 67 10000 1.34 17 16:59 19.08.2021
6100 Clear 19 1005 70 10000 1.34 335 15:39 19.08.2021
6101 Clouds 19 1004 66 10000 0.45 308 13:19 19.08.2021
6102 Clouds 20 1003 65 10000 3.13 360 12:29 19.08.2021
6103 Clouds 21 1003 56 10000 1.34 279 11:18 19.08.2021
6104 Clear 23 1001 45 10000 2.68 327 09:49 19.08.2021
6105 Clear 23 1003 45 10000 2.24 331 09:29 19.08.2021
6106 Clouds 23 1002 44 10000 1.79 17 08:33 19.08.2021
6107 Clouds 25 1003 35 10000 0.45 288 05:39 19.08.2021
6108 Clouds 31 1000 23 10000 1.34 334 02:20 19.08.2021
6109 Clouds 33 1002 20 10000 0.45 32 01:30 19.08.2021
6110 Clouds 34 1002 19 10000 1.79 5 22:38 18.08.2021
6111 Clouds 33 1003 21 10000 0.45 28 21:34 18.08.2021
6112 Clouds 32 1004 24 10000 2.24 324 20:22 18.08.2021
6113 Clouds 30 1004 28 10000 1.34 17 19:28 18.08.2021
6114 Clouds 29 1004 31 10000 1.34 16 18:35 18.08.2021
6115 Clouds 26 1004 39 10000 0.45 231 17:24 18.08.2021
6116 Clouds 22 1013 43 10000 0.67 244 15:41 18.08.2021
6117 Clouds 19 1009 49 10000 4.12 210 15:21 18.08.2021
6118 Clouds 19 1002 45 10000 2.22 216 13:25 18.08.2021
6119 Clouds 19 1001 44 10000 0.45 155 12:39 18.08.2021
6120 Clouds 20 1001 43 10000 0.89 20 12:21 18.08.2021
6121 Clear 22 1003 40 10000 0.45 148 08:50 18.08.2021
6122 Clouds 26 999 31 10000 0.89 190 03:21 18.08.2021
6123 Clouds 35 1003 15 10000 0.45 76 22:40 17.08.2021
6124 Clouds 34 1003 15 10000 0.45 36 21:59 17.08.2021
6125 Clear 34 1002 16 10000 0.45 115 21:22 17.08.2021
6126 Clear 33 1002 18 10000 0.89 106 20:42 17.08.2021
6127 Clear 28 1005 32 10000 0.89 188 17:54 17.08.2021
6128 Clear 26 1005 37 10000 0.45 153 17:26 17.08.2021
6129 Clear 22 1009 41 10000 2.06 208 15:54 17.08.2021
6130 Clear 21 1009 35 10000 2.06 208 15:35 17.08.2021
6131 Clear 19 1015 42 10000 0.45 149 12:45 17.08.2021
6132 Clear 20 1016 40 10000 0.45 204 10:40 17.08.2021
6133 Clear 21 1016 38 10000 3.09 203 09:19 17.08.2021
6134 Clear 22 1009 35 10000 0.89 227 07:24 17.08.2021
6135 Clear 33 1006 18 10000 0.89 40 23:25 16.08.2021
6136 Clear 32 1007 19 10000 1.34 118 22:53 16.08.2021
6137 Clear 32 1007 19 10000 0.45 139 22:35 16.08.2021
6138 Clouds 32 1009 21 10000 0.89 122 21:46 16.08.2021
6139 Clouds 31 1009 23 10000 0.45 56 20:52 16.08.2021
6140 Clouds 29 1010 30 10000 0.45 153 19:29 16.08.2021
6141 Clouds 27 1009 36 10000 0.45 21 18:26 16.08.2021
6142 Clouds 26 1012 39 10000 0.45 174 17:54 16.08.2021
6143 Clouds 21 1013 50 10000 0.45 220 16:29 16.08.2021
6144 Clouds 18 1013 52 10000 1.8 220 15:23 16.08.2021
6145 Clouds 17 1019 54 10000 1.43 216 13:55 16.08.2021
6146 Clouds 17 1013 54 10000 0.45 153 12:59 16.08.2021
6147 Clouds 18 1019 54 10000 2.45 212 12:24 16.08.2021
6148 Clouds 18 1020 50 10000 3.09 200 09:33 16.08.2021
6149 Clouds 19 1012 47 10000 1.85 228 08:43 16.08.2021
6150 Clouds 20 1011 46 10000 0.45 163 07:30 16.08.2021
6151 Clouds 21 1010 42 10000 0.45 267 05:56 16.08.2021
6152 Clouds 29 1011 26 10000 0.89 322 01:21 16.08.2021
6153 Clouds 31 1011 24 10000 0.45 329 21:34 15.08.2021
6154 Clouds 30 1011 27 10000 1.79 115 19:35 15.08.2021
6155 Clouds 29 1021 32 10000 0.89 194 18:41 15.08.2021
6156 Clouds 26 1021 37 10000 1.34 199 17:48 15.08.2021
6157 Clouds 23 1014 42 10000 2.19 27 16:39 15.08.2021
6158 Clouds 21 1014 46 10000 0.96 43 15:35 15.08.2021
6159 Clouds 20 1023 50 10000 2.06 220 15:35 15.08.2021
6160 Clouds 19 1022 49 10000 0.82 328 14:36 15.08.2021
6161 Clear 19 1016 50 10000 0.89 284 13:34 15.08.2021
6162 Clouds 20 1010 43 10000 1.4 324 09:57 15.08.2021
6163 Clouds 23 1010 37 10000 0.45 190 06:55 15.08.2021
6164 Clear 33 1009 22 10000 0.45 14 01:22 15.08.2021
6165 Clear 33 1011 23 10000 0.89 15 00:31 15.08.2021
6166 Clear 31 1013 33 10000 0.89 10 21:22 14.08.2021
6167 Clear 31 1013 33 10000 0.89 10 21:22 14.08.2021
6168 Clear 29 1015 39 10000 1.34 28 19:45 14.08.2021
6169 Clouds 28 1016 42 10000 0.89 110 19:26 14.08.2021
6170 Clear 25 1017 51 10000 1.34 119 17:35 14.08.2021
6171 Clear 22 1021 56 10000 0.45 44 16:39 14.08.2021
6172 Clear 19 1018 68 10000 0.36 270 15:34 14.08.2021
6173 Clouds 17 1019 73 10000 0.76 222 13:32 14.08.2021
6174 Clouds 18 1018 70 10000 2.13 193 10:56 14.08.2021
6175 Clouds 20 1016 63 10000 2.27 217 08:53 14.08.2021
6176 Clouds 29 1015 36 10000 0.45 51 23:56 13.08.2021
6177 Clouds 30 1014 36 10000 0.45 44 23:38 13.08.2021
6178 Clouds 28 1015 40 10000 0.45 294 21:49 13.08.2021
6179 Clouds 24 1018 49 10000 0.45 75 19:29 13.08.2021
6180 Clouds 24 1016 51 10000 0.45 312 18:45 13.08.2021
6181 Clouds 20 1015 61 10000 0.89 302 16:51 13.08.2021
6182 Clouds 17 1016 71 10000 1.34 287 15:41 13.08.2021
6183 Clouds 18 1012 67 10000 0.89 5 11:21 13.08.2021
6184 Clouds 19 1012 68 10000 1.34 287 10:39 13.08.2021
6185 Clouds 20 1010 67 10000 4.75 350 08:39 13.08.2021
6186 Clouds 22 1015 60 10000 0.45 97 07:48 13.08.2021
6187 Clouds 24 1011 44 10000 1.34 25 05:36 13.08.2021
6188 Clouds 30 1010 31 10000 2.24 294 23:59 12.08.2021
6189 Clouds 30 1015 30 10000 1.34 5 21:43 12.08.2021
6190 Clouds 28 1013 31 10000 0.45 315 20:26 12.08.2021
6191 Clouds 28 1013 31 10000 1.34 4 19:49 12.08.2021
6192 Clouds 25 1013 34 10000 2.24 339 17:55 12.08.2021
6193 Clouds 24 1015 35 10000 2.24 9 16:50 12.08.2021
6194 Clear 20 1016 39 10000 2.55 11 15:34 12.08.2021
6195 Clear 19 1020 40 10000 0.45 147 13:39 12.08.2021
6196 Clear 20 1018 33 10000 1.47 305 11:33 12.08.2021
6197 Clear 22 1008 30 10000 0.45 257 08:30 12.08.2021
6198 Clouds 23 1013 28 10000 0.43 43 07:18 12.08.2021
6199 Clear 34 1008 14 10000 0.89 24 23:20 11.08.2021
6200 Clear 33 1009 16 10000 1.34 20 21:37 11.08.2021
6201 Clear 29 1010 21 10000 1.34 12 18:48 11.08.2021
6202 Clear 28 1010 25 10000 0.45 107 18:24 11.08.2021
6203 Clear 20 1013 35 10000 1.76 198 15:21 11.08.2021
6204 Clouds 19 1003 37 10000 0.45 270 14:25 11.08.2021
6205 Clouds 19 1019 38 10000 0.45 206 12:36 11.08.2021
6206 Clouds 20 1019 35 10000 0.45 229 11:57 11.08.2021
6207 Clouds 20 1019 36 10000 0.45 241 11:38 11.08.2021
6208 Clouds 20 1019 34 10000 0.45 206 11:18 11.08.2021
6209 Clouds 22 1011 33 10000 0.45 302 08:38 11.08.2021
6210 Clouds 32 1008 17 10000 0.45 53 01:39 11.08.2021
6211 Clouds 34 1008 15 10000 0.45 124 22:33 10.08.2021
6212 Clouds 33 1008 16 10000 0.89 356 21:38 10.08.2021
6213 Clear 32 1009 21 10000 1.34 15 20:42 10.08.2021
6214 Clear 30 1010 27 10000 0.45 19 19:25 10.08.2021
6215 Clear 24 1013 34 10000 0.95 353 16:49 10.08.2021
6216 Clear 19 1013 39 10000 1.17 240 15:22 10.08.2021
6217 Clear 19 1013 39 10000 1.17 240 14:38 10.08.2021
6218 Clear 19 1009 38 10000 0.45 51 10:47 10.08.2021
6219 Clouds 22 1008 35 10000 0.45 280 08:18 10.08.2021
6220 Clouds 26 1006 26 10000 0.45 347 04:59 10.08.2021
6221 Clouds 26 1006 26 10000 0.45 244 04:59 10.08.2021
6222 Clouds 33 999 15 10000 0.45 36 00:33 10.08.2021
6223 Clouds 34 1005 14 10000 0.89 28 23:23 09.08.2021
6224 Clouds 34 1007 15 10000 0.45 52 21:38 09.08.2021
6225 Clear 34 1006 17 10000 0.89 185 20:19 09.08.2021
6226 Clear 29 1009 29 10000 0.45 120 17:57 09.08.2021
6227 Clear 21 1010 40 10000 2.67 214 15:35 09.08.2021
6228 Clear 20 1016 40 10000 4.63 210 14:26 09.08.2021
6229 Clear 20 1016 39 10000 2.69 212 13:28 09.08.2021
6230 Clear 20 1015 39 10000 2.64 210 11:47 09.08.2021
6231 Clear 21 1016 39 10000 0.89 190 08:48 09.08.2021
6232 Clear 22 1012 38 10000 4.63 190 07:47 09.08.2021
6233 Clear 31 1007 21 10000 1.34 137 21:30 08.08.2021
6234 Clear 30 1008 22 10000 0.45 123 19:55 08.08.2021
6235 Clear 23 1010 42 10000 2.2 219 16:56 08.08.2021
6236 Clear 20 1011 41 10000 2.6 215 15:43 08.08.2021
6237 Clear 16 1017 48 10000 0.89 161 13:54 08.08.2021
6238 Clear 17 1011 47 10000 0.45 131 11:53 08.08.2021
6239 Clear 17 1017 47 10000 0.89 196 09:49 08.08.2021
6240 Clear 19 1012 46 10000 0.45 264 06:40 08.08.2021
6241 Clouds 28 1017 24 10000 0.89 5 00:43 08.08.2021
6242 Clouds 28 1005 27 10000 7.21 330 00:24 08.08.2021
6243 Clouds 27 1017 29 10000 0.89 119 21:43 07.08.2021
6244 Clear 27 1009 30 10000 0.45 326 20:59 07.08.2021
6245 Clouds 23 1009 47 10000 0.89 10 18:18 07.08.2021
6246 Clouds 21 1017 56 10000 0.89 355 16:50 07.08.2021
6247 Clouds 18 1016 62 10000 0.39 200 15:28 07.08.2021
6248 Clouds 17 1016 63 10000 0.45 218 13:33 07.08.2021
6249 Clouds 19 1009 58 10000 0.45 181 10:27 07.08.2021
6250 Clouds 22 1005 49 10000 0.45 209 06:31 07.08.2021
6251 Clouds 29 1005 35 10000 0.89 156 01:51 07.08.2021
6252 Clouds 32 1003 22 10000 1.34 127 21:51 06.08.2021
6253 Clouds 33 1006 23 10000 0.45 138 20:34 06.08.2021
6254 Clouds 33 1006 22 10000 0.45 355 19:56 06.08.2021
6255 Clouds 30 1008 27 10000 0.89 150 18:32 06.08.2021
6256 Clear 23 1010 38 10000 2.79 214 15:48 06.08.2021
6257 Clear 21 1009 40 10000 2.58 206 10:51 06.08.2021
6258 Clear 21 1011 37 10000 7.72 190 09:56 06.08.2021
6259 Clear 22 1010 39 10000 0.45 130 07:47 06.08.2021
6260 Clear 33 1012 19 10000 0.45 124 23:33 05.08.2021
6261 Clear 32 1013 20 10000 0.45 119 21:56 05.08.2021
6262 Clear 31 1014 23 10000 0.45 51 20:44 05.08.2021
6263 Clear 28 1015 33 10000 0.45 164 19:24 05.08.2021
6264 Clear 20 1015 56 10000 2.06 207 16:33 05.08.2021
6265 Clear 16 1024 65 10000 2.14 215 14:25 05.08.2021
6266 Clear 17 1017 57 10000 0.45 154 11:21 05.08.2021
6267 Clear 18 1019 58 10000 0.89 263 08:35 05.08.2021
6268 Clouds 23 1016 40 10000 2.57 80 04:48 05.08.2021
6269 Clear 28 1015 36 10000 0.89 347 23:20 04.08.2021
6270 Clear 26 1016 43 10000 0.45 24 21:44 04.08.2021
6271 Clear 26 1015 45 10000 0.45 304 21:21 04.08.2021
6272 Clouds 20 1017 70 10000 0.45 225 17:25 04.08.2021
6273 Clouds 19 1017 77 10000 0.45 209 16:40 04.08.2021
6274 Clouds 16 1017 86 10000 1.63 49 14:42 04.08.2021
6275 Clouds 17 1015 87 10000 1.54 330 10:51 04.08.2021
6276 Clouds 24 1013 54 10000 0.45 219 01:46 04.08.2021
6277 Clouds 27 1012 43 10000 0.45 12 20:35 03.08.2021
6278 Clouds 26 1012 45 10000 1.34 184 19:56 03.08.2021
6279 Clouds 22 1014 56 10000 0.45 59 17:50 03.08.2021
6280 Clouds 20 1014 66 10000 2.36 253 14:59 03.08.2021
6281 Clouds 20 1022 64 10000 3.09 210 11:44 03.08.2021
6282 Clouds 20 1016 62 10000 1.19 267 10:39 03.08.2021
6283 Clouds 29 1013 33 10000 0.45 273 01:44 03.08.2021
6284 Clouds 22 1019 57 10000 0.45 332 17:33 02.08.2021
6285 Clouds 20 1020 63 10000 0.45 138 16:32 02.08.2021
6286 Clouds 17 1026 71 10000 3.09 190 14:44 02.08.2021
6287 Clouds 17 1027 72 10000 0.27 248 11:58 02.08.2021
6288 Clouds 17 1026 71 10000 0.29 295 11:22 02.08.2021
6289 Clouds 18 1023 68 10000 0.73 352 09:48 02.08.2021
6290 Clouds 26 1021 41 10000 1.34 185 22:24 01.08.2021
6291 Clouds 21 1024 71 10000 0.45 134 18:18 01.08.2021
6292 Clouds 16 1023 92 10000 1.2 46 13:26 01.08.2021
6293 Clouds 17 1022 91 10000 0.54 79 11:38 01.08.2021
6294 Clouds 17 1022 91 10000 0.54 79 11:38 01.08.2021
6295 Clouds 18 1022 86 10000 0.89 278 04:53 01.08.2021
6296 Rain 18 1022 88 10000 1.34 315 03:47 01.08.2021
6297 Clouds 24 1019 58 7915 0.89 294 22:45 31.07.2021
6298 Clouds 23 1020 65 10000 1.34 0 19:59 31.07.2021
6299 Clouds 20 1018 79 10000 1.79 341 16:40 31.07.2021
6300 Clouds 18 1022 86 10000 0 0 15:38 31.07.2021
6301 Clouds 18 1019 85 10000 1.9 88 12:21 31.07.2021
6302 Rain 19 1018 83 10000 1.79 263 06:18 31.07.2021
6303 Rain 19 1018 83 10000 1.79 263 06:18 31.07.2021
6304 Clear 33 1011 33 10000 0.45 18 23:27 30.07.2021
6305 Clouds 29 1015 42 10000 0.45 204 20:26 30.07.2021
6306 Clouds 23 1025 53 10000 3.26 7 16:32 30.07.2021
6307 Clear 31 1013 42 10000 0.89 296 22:26 29.07.2021
6308 Clear 24 1013 40 10000 0.45 0 08:43 29.07.2021
6309 Clear 29 1008 30 10000 1.34 311 04:52 29.07.2021
6310 Clear 30 1010 28 10000 0.45 41 04:27 29.07.2021
6311 Clouds 32 1012 33 10000 0.45 34 19:55 28.07.2021
6312 Clear 27 1011 47 10000 0.45 342 17:18 28.07.2021
6313 Clear 23 1011 48 10000 0.89 152 09:56 28.07.2021
6314 Clear 34 1010 18 10000 0.45 127 23:56 27.07.2021
6315 Clear 33 1011 22 10000 0.89 309 21:36 27.07.2021
6316 Clear 21 1016 53 10000 0.8 290 15:35 27.07.2021
6317 Clouds 19 1023 55 10000 4.12 220 14:51 27.07.2021
6318 Clear 21 1017 55 10000 7.72 190 10:33 27.07.2021
6319 Clear 30 1009 22 10000 0.89 12 03:46 27.07.2021
6320 Clouds 19 1018 65 10000 0.53 360 15:34 26.07.2021
6321 Clouds 19 1015 61 10000 0.45 271 10:59 26.07.2021
6322 Clouds 31 1011 31 10000 1.34 284 20:58 25.07.2021
6323 Clouds 30 1010 32 10000 0.89 329 20:37 25.07.2021
6324 Clouds 30 1010 32 10000 0.89 329 20:37 25.07.2021
6325 Clouds 24 1015 44 10000 0.89 32 17:22 25.07.2021
6326 Clouds 19 1014 57 10000 2 208 13:33 25.07.2021
6327 Clouds 22 1014 49 10000 2.09 202 08:21 25.07.2021
6328 Clouds 24 1015 40 10000 2.57 130 04:56 25.07.2021
6329 Clouds 27 1016 45 10000 0.89 18 20:22 24.07.2021
6330 Clouds 26 1018 49 10000 0.89 17 19:36 24.07.2021
6331 Clouds 21 1013 63 10000 0.45 236 09:49 24.07.2021
6332 Clouds 28 1013 45 10000 0.45 40 17:35 23.07.2021
6333 Clouds 21 1010 65 10000 0.45 264 14:35 23.07.2021
6334 Clouds 21 1010 64 10000 3.09 200 12:40 23.07.2021
6335 Clouds 34 1010 26 10000 0.45 57 22:50 22.07.2021
6336 Clouds 20 1013 64 10000 1.38 216 14:57 22.07.2021
6337 Clouds 21 1009 60 10000 0.45 243 11:18 22.07.2021
6338 Clouds 22 1009 54 10000 0.45 91 08:26 22.07.2021
6339 Clouds 32 1009 33 10000 1.34 62 22:33 21.07.2021
6340 Clouds 31 1008 34 10000 0.45 27 21:33 21.07.2021
6341 Clouds 29 1011 38 10000 0.89 19 18:45 21.07.2021
6342 Clouds 22 1009 52 10000 0.45 323 09:56 21.07.2021
6343 Clouds 22 1009 49 10000 1.34 296 09:19 21.07.2021
6344 Clouds 28 1008 30 10000 1.79 133 04:51 21.07.2021
6345 Clouds 32 1013 28 10000 0.45 150 20:29 20.07.2021
6346 Clouds 24 1006 41 10000 0.47 32 16:36 20.07.2021
6347 Clouds 20 1024 54 10000 0.4 194 15:27 20.07.2021
6348 Clouds 21 1016 44 10000 2.6 190 11:19 20.07.2021
6349 Clouds 23 1014 40 10000 0.45 137 07:37 20.07.2021
6350 Clouds 31 1014 21 10000 0.45 85 02:58 20.07.2021
6351 Clear 27 1019 40 10000 0.45 110 17:50 19.07.2021
6352 Clear 19 1026 60 10000 1.95 217 12:45 19.07.2021
6353 Clear 31 1016 32 10000 0.45 163 20:59 18.07.2021
6354 Clear 19 1026 64 10000 1.79 188 15:21 18.07.2021
6355 Clouds 19 1016 65 10000 1.9 4 10:19 18.07.2021
6356 Clear 33 1011 25 10000 0.45 5 22:30 17.07.2021
6357 Clear 33 1011 26 10000 0.89 123 21:58 17.07.2021
6358 Clear 32 1012 26 10000 0.89 118 21:39 17.07.2021
6359 Clouds 18 1012 62 10000 3.58 334 12:35 17.07.2021
6360 Clouds 19 1016 59 10000 0.45 153 11:30 17.07.2021
6361 Clouds 24 1009 39 10000 1.17 87 04:47 17.07.2021
6362 Clouds 19 1019 57 10000 0.45 236 15:34 16.07.2021
6363 Clouds 18 1012 60 10000 1.68 211 11:43 16.07.2021
6364 Clear 20 1013 52 10000 0.45 232 07:24 16.07.2021
6365 Clear 24 1014 50 10000 0.89 44 18:33 15.07.2021
6366 Clear 13 1020 76 10000 1.01 265 13:49 15.07.2021
6367 Clear 16 1021 69 10000 2.12 202 09:25 15.07.2021
6368 Clouds 24 1011 55 10000 0.89 115 00:31 15.07.2021
6369 Clouds 20 1013 59 10000 1.87 47 16:48 14.07.2021
6370 Clouds 19 1011 55 10000 2.68 316 11:59 14.07.2021
6371 Clouds 24 1010 39 10000 0.45 218 04:44 14.07.2021
6372 Clouds 28 1022 31 10000 2.06 330 20:22 13.07.2021
6373 Clouds 28 1010 42 10000 2.53 355 19:50 13.07.2021
6374 Clouds 27 1011 42 10000 1.86 6 19:21 13.07.2021
6375 Clouds 27 1011 38 10000 1.86 6 18:43 13.07.2021
6376 Clouds 26 1021 41 10000 1.34 61 18:23 13.07.2021
6377 Clouds 20 1014 46 10000 0.89 226 14:33 13.07.2021
6378 Clouds 22 1016 44 10000 0.45 165 09:38 13.07.2021
6379 Clear 31 1012 20 10000 0.89 16 22:45 12.07.2021
6380 Clouds 24 1024 43 10000 2.57 270 17:28 12.07.2021
6381 Clear 18 1022 61 10000 1.27 191 15:20 12.07.2021
6382 Clear 30 1012 25 10000 2.24 20 00:31 12.07.2021
6383 Clouds 27 1017 36 10000 0.89 155 20:53 11.07.2021
6384 Clear 17 1020 65 10000 2.45 345 15:30 11.07.2021
6385 Clear 29 1014 31 10000 0.89 16 01:27 11.07.2021
6386 Clouds 22 1015 51 10000 0.89 340 17:19 10.07.2021
6387 Clouds 23 1008 47 10000 1.34 304 07:52 10.07.2021
6388 Clouds 30 1012 41 10000 4.11 150 02:27 10.07.2021
6389 Clouds 33 1008 27 10000 1.34 315 19:47 09.07.2021
6390 Clouds 22 1010 46 10000 0.45 184 14:50 09.07.2021
6391 Clouds 21 1006 46 10000 2.6 217 12:46 09.07.2021
6392 Clouds 35 1005 20 10000 0.45 164 23:55 08.07.2021
6393 Clouds 36 1005 20 10000 1.79 180 22:49 08.07.2021
6394 Clear 35 1006 22 10000 0.45 105 19:49 08.07.2021
6395 Clear 30 1008 37 10000 0.45 123 17:50 08.07.2021
6396 Clear 20 1006 50 10000 1.79 172 13:49 08.07.2021
6397 Clouds 21 1007 50 10000 2.24 167 13:29 08.07.2021
6398 Clear 21 1006 51 10000 1.34 155 12:33 08.07.2021
6399 Clear 21 1007 49 10000 1.79 146 10:54 08.07.2021
6400 Clear 24 1009 44 10000 3.13 152 06:20 08.07.2021
6401 Clear 30 1009 23 10000 0.89 186 02:53 08.07.2021
6402 Clear 32 1012 21 10000 0.45 163 22:58 07.07.2021
6403 Clear 31 1012 23 10000 1.34 122 22:19 07.07.2021
6404 Clear 31 1012 27 10000 0.45 157 21:44 07.07.2021
6405 Clear 30 1012 30 10000 2.24 113 21:24 07.07.2021
6406 Clear 28 1014 44 10000 0.45 167 19:58 07.07.2021
6407 Clear 27 1014 47 10000 0.89 146 19:29 07.07.2021
6408 Clear 24 1016 59 10000 0.89 20 17:36 07.07.2021
6409 Clear 20 1016 74 10000 0.45 205 15:47 07.07.2021
6410 Clouds 16 1017 86 10000 1.06 207 13:56 07.07.2021
6411 Clouds 18 1024 86 10000 0.45 0 10:23 07.07.2021
6412 Clouds 20 1020 73 10000 0.89 60 06:47 07.07.2021
6413 Clouds 22 1015 63 10000 1.79 232 05:48 07.07.2021
6414 Clouds 26 1013 43 10000 1.34 27 02:48 07.07.2021
6415 Clouds 25 1015 53 10000 2.24 14 19:31 06.07.2021
6416 Clouds 24 1015 55 10000 1.34 302 18:53 06.07.2021
6417 Clouds 23 1016 57 10000 0.89 19 18:31 06.07.2021
6418 Clouds 21 1015 65 10000 0.45 31 16:59 06.07.2021
6419 Clouds 18 1014 76 10000 1.33 319 13:33 06.07.2021
6420 Clouds 20 1012 65 10000 0.45 92 09:42 06.07.2021
6421 Clouds 21 1011 64 10000 1.8 166 08:35 06.07.2021
6422 Clouds 21 1011 64 10000 1.8 166 08:35 06.07.2021
6423 Clouds 21 1012 61 10000 0.45 355 07:38 06.07.2021
6424 Rain 24 1010 46 10000 2.68 244 01:54 06.07.2021
6425 Clouds 31 1009 31 10000 0.89 108 23:18 05.07.2021
6426 Clear 32 1009 31 10000 0.45 160 21:57 05.07.2021
6427 Clear 24 1013 53 10000 0.45 30 16:54 05.07.2021
6428 Clear 19 1010 66 10000 0.45 192 08:48 05.07.2021
6429 Clouds 21 1012 58 10000 3.09 190 05:47 05.07.2021
6430 Clouds 23 1011 51 10000 0.45 159 04:41 05.07.2021
6431 Clouds 28 1012 38 10000 4.08 289 23:21 04.07.2021
6432 Clear 31 1009 35 10000 0.45 344 20:42 04.07.2021
6433 Clear 25 1011 48 10000 0.45 58 16:57 04.07.2021
6434 Clear 18 1014 68 10000 1.43 240 13:37 04.07.2021
6435 Clear 20 1010 60 10000 1 284 09:28 04.07.2021
6436 Clouds 28 1010 38 10000 0.45 251 01:30 04.07.2021
6437 Clouds 30 1018 33 10000 1.34 241 22:44 03.07.2021
6438 Clear 20 1012 67 10000 0.45 182 15:41 03.07.2021
6439 Clear 17 1015 71 10000 4.63 220 12:39 03.07.2021
6440 Clear 18 1011 66 10000 0.45 179 09:41 03.07.2021
6441 Clear 18 1011 65 10000 0.45 187 09:20 03.07.2021
6442 Clouds 19 1013 63 10000 0.45 193 08:44 03.07.2021
6443 Clear 21 1015 69 10000 0.45 125 17:57 02.07.2021
6444 Clouds 16 1017 87 10000 0.45 227 07:41 02.07.2021
6445 Clouds 16 1018 86 10000 0.45 167 06:34 02.07.2021
6446 Clouds 25 1011 55 10000 6.28 90 23:25 01.07.2021
6447 Clouds 26 1012 53 10000 0.45 193 22:29 01.07.2021
6448 Clouds 26 1015 52 10000 0.89 55 21:34 01.07.2021
6449 Clouds 25 1015 58 10000 1.34 211 19:37 01.07.2021
6450 Clouds 24 1015 60 10000 1.34 211 19:18 01.07.2021
6451 Clouds 23 1015 64 10000 1.79 309 18:38 01.07.2021
6452 Clouds 21 1016 72 10000 0.45 314 17:19 01.07.2021
6453 Clouds 19 1014 82 10000 0.45 49 15:45 01.07.2021
6454 Clouds 18 1014 84 10000 0.89 278 15:22 01.07.2021
6455 Clouds 18 1013 78 10000 2.37 324 11:27 01.07.2021
6456 Clouds 19 1014 67 10000 0.89 285 08:53 01.07.2021
6457 Clear 28 1014 32 10000 1.34 355 23:23 30.06.2021
6458 Clear 27 1015 34 10000 0.89 160 22:21 30.06.2021
6459 Clear 27 1015 36 10000 2.24 321 21:55 30.06.2021
6460 Clear 26 1015 41 10000 1.34 25 20:59 30.06.2021
6461 Clouds 25 1016 44 10000 0.45 5 20:20 30.06.2021
6462 Clouds 19 1017 61 10000 0.45 51 16:42 30.06.2021
6463 Clouds 14 1021 75 10000 1.15 214 13:25 30.06.2021
6464 Clouds 16 1018 69 10000 0.45 132 08:58 30.06.2021
6465 Clouds 25 1016 42 10000 1.34 304 23:56 29.06.2021
6466 Clouds 22 1019 49 10000 0.89 15 19:29 29.06.2021
6467 Clouds 19 1019 58 10000 0.89 38 17:45 29.06.2021
6468 Clouds 19 1019 60 10000 0.45 313 17:24 29.06.2021
6469 Clouds 15 1021 73 10000 1.54 200 15:50 29.06.2021
6470 Clouds 15 1020 72 10000 0.45 205 15:50 29.06.2021
6471 Clouds 13 1021 82 10000 0.81 323 14:55 29.06.2021
6472 Clouds 12 1021 84 10000 1.52 333 13:21 29.06.2021
6473 Clouds 20 1019 46 10000 4.03 250 02:53 29.06.2021
6474 Clouds 21 1019 48 10000 1.34 291 23:20 28.06.2021
6475 Clouds 21 1019 48 10000 0.89 360 23:20 28.06.2021
6476 Clouds 21 1019 47 10000 0.45 5 20:49 28.06.2021
6477 Clouds 19 1020 59 10000 0.45 29 18:18 28.06.2021
6478 Clouds 18 1021 64 10000 0.45 59 16:57 28.06.2021
6479 Clouds 11 1022 88 10000 2.51 355 14:30 28.06.2021
6480 Clouds 13 1020 85 10000 2.57 260 11:34 28.06.2021
6481 Clouds 21 1021 47 10000 1.34 227 23:47 27.06.2021
6482 Clouds 22 1015 41 10000 0.45 28 22:31 27.06.2021
6483 Clouds 21 1017 46 10000 0.89 203 19:44 27.06.2021
6484 Clear 19 1018 56 10000 0.89 119 17:44 27.06.2021
6485 Clear 16 1018 72 10000 0.45 181 15:39 27.06.2021
6486 Clouds 14 1017 80 10000 1.43 344 10:30 27.06.2021
6487 Rain 15 1018 83 6697 1.79 291 00:27 27.06.2021
6488 Clouds 19 1015 57 10000 0.45 37 21:53 26.06.2021
6489 Rain 19 1014 59 10000 1.34 31 20:48 26.06.2021
6490 Clouds 18 1015 72 10000 1.34 315 19:27 26.06.2021
6491 Clouds 14 1014 92 10000 0.89 302 15:39 26.06.2021
6492 Clouds 13 1014 93 10000 0.45 281 13:52 26.06.2021
6493 Clouds 13 1013 93 10000 0.89 306 10:39 26.06.2021
6494 Rain 15 1013 90 10000 4.26 11 06:23 26.06.2021
6495 Clouds 26 1006 37 10000 0.45 360 22:24 25.06.2021
6496 Clouds 25 1008 40 10000 0.45 121 20:35 25.06.2021
6497 Clear 24 1008 46 10000 0.89 16 18:48 25.06.2021
6498 Clear 21 1009 53 10000 0.89 62 17:30 25.06.2021
6499 Clouds 19 1010 61 10000 0.45 35 16:21 25.06.2021
6500 Clouds 14 1010 76 10000 1.47 178 13:42 25.06.2021
6501 Clouds 17 1010 62 10000 0.45 80 09:56 25.06.2021
6502 Clouds 18 1008 58 10000 0.88 246 07:23 25.06.2021
6503 Clouds 20 1006 52 10000 0.45 311 03:59 25.06.2021
6504 Clouds 28 1007 29 10000 0.45 136 23:48 24.06.2021
6505 Clouds 28 1008 32 10000 0.45 28 21:48 24.06.2021
6506 Clouds 28 1008 35 10000 0.45 40 20:42 24.06.2021
6507 Clouds 27 1008 36 10000 0.89 24 19:47 24.06.2021
6508 Clouds 23 1010 49 10000 0.45 233 17:29 24.06.2021
6509 Clouds 19 1010 61 10000 0.45 216 15:23 24.06.2021
6510 Clouds 19 1010 60 10000 0.89 219 14:51 24.06.2021
6511 Clouds 19 1010 58 10000 0.89 250 12:55 24.06.2021
6512 Clouds 24 1009 35 10000 0.89 275 09:51 24.06.2021
6513 Clouds 25 1008 30 10000 2.24 263 08:28 24.06.2021
6514 Clouds 25 1003 27 10000 3.18 220 06:39 24.06.2021
6515 Clouds 34 1003 15 10000 0.89 208 23:33 23.06.2021
6516 Clouds 34 1004 14 10000 0.89 202 22:25 23.06.2021
6517 Clouds 35 1004 13 10000 0.89 13 20:59 23.06.2021
6518 Clouds 34 1005 15 10000 0.45 136 19:51 23.06.2021
6519 Clouds 30 1003 25 10000 0.89 133 18:28 23.06.2021
6520 Clouds 27 998 29 10000 0.89 137 16:52 23.06.2021
6521 Clouds 19 1010 39 10000 0.89 229 14:30 23.06.2021
6522 Clouds 19 1008 42 10000 2.42 208 12:37 23.06.2021
6523 Clear 20 1011 40 10000 1.95 235 10:49 23.06.2021
6524 Clear 22 1005 34 10000 0.45 79 09:20 23.06.2021
6525 Clear 22 1005 37 10000 0.45 210 08:38 23.06.2021
6526 Clouds 22 1005 39 10000 0.45 115 07:48 23.06.2021
6527 Clouds 26 1003 34 10000 3.23 218 04:34 23.06.2021
6528 Clouds 33 1005 21 10000 0.45 113 00:49 23.06.2021
6529 Clouds 33 1005 18 10000 0.45 30 23:58 22.06.2021
6530 Clouds 33 1006 18 10000 0.45 81 22:47 22.06.2021
6531 Clear 33 1006 18 10000 0.45 35 22:29 22.06.2021
6532 Clouds 33 1007 19 10000 0.45 69 21:39 22.06.2021
6533 Clear 31 1007 24 10000 0.89 26 20:18 22.06.2021
6534 Clear 29 1009 31 10000 0.89 294 18:58 22.06.2021
6535 Clear 28 1008 34 10000 0.45 120 18:27 22.06.2021
6536 Clear 25 1007 43 10000 0.45 157 17:22 22.06.2021
6537 Clear 23 1008 49 10000 1.73 196 16:38 22.06.2021
6538 Clear 16 1010 63 10000 1.96 207 14:49 22.06.2021
6539 Clear 15 1010 70 10000 2.02 212 14:21 22.06.2021
6540 Clear 14 1012 70 10000 1.96 210 12:59 22.06.2021
6541 Clear 14 1010 73 10000 2.02 197 11:51 22.06.2021
6542 Clear 14 1010 73 10000 0.45 231 10:31 22.06.2021
6543 Clouds 16 1015 71 10000 5.14 170 06:52 22.06.2021
6544 Clouds 22 1014 49 10000 1.34 189 00:50 22.06.2021
6545 Clouds 21 1016 54 10000 1.34 117 23:29 21.06.2021
6546 Clouds 20 1017 57 10000 0.45 161 22:27 21.06.2021
6547 Clouds 18 1017 61 10000 0.45 124 21:23 21.06.2021
6548 Clouds 17 1018 66 10000 1.34 201 20:43 21.06.2021
6549 Clouds 17 1018 68 10000 0.89 107 19:53 21.06.2021
6550 Clouds 16 1018 69 10000 0.45 172 18:57 21.06.2021
6551 Clouds 14 1018 77 10000 0.45 26 17:24 21.06.2021
6552 Clouds 13 1018 82 10000 0.45 131 16:41 21.06.2021
6553 Clouds 13 1018 83 10000 0.45 100 16:23 21.06.2021
6554 Clouds 12 1017 87 10000 0.45 221 15:45 21.06.2021
6555 Clouds 11 1017 90 10000 2.73 27 14:18 21.06.2021
6556 Clouds 11 1017 90 10000 0.45 266 13:33 21.06.2021
6557 Clouds 11 1017 90 10000 0.45 250 12:36 21.06.2021
6558 Rain 11 1017 90 10000 1.34 0 11:48 21.06.2021
6559 Rain 12 1017 88 9741 0.45 52 10:30 21.06.2021
6560 Rain 13 1018 86 10000 0.45 49 09:29 21.06.2021
6561 Rain 14 1017 81 10000 0.45 30 08:21 21.06.2021
6562 Clouds 18 1014 60 10000 0.89 34 06:47 21.06.2021
6563 Clouds 27 1005 36 10000 2.24 355 00:29 21.06.2021
6564 Clouds 28 1006 36 10000 1.79 335 23:35 20.06.2021
6565 Clouds 28 1005 36 10000 1.79 338 22:58 20.06.2021
6566 Clouds 27 1006 36 10000 0.89 310 21:57 20.06.2021
6567 Clear 27 1006 36 10000 0.89 286 21:20 20.06.2021
6568 Clear 25 1007 36 10000 0.45 38 19:41 20.06.2021
6569 Clear 24 1007 37 10000 0.45 30 19:22 20.06.2021
6570 Clouds 23 1008 38 10000 0.45 355 17:48 20.06.2021
6571 Clouds 22 1008 39 10000 0.45 327 16:51 20.06.2021
6572 Clear 21 1007 41 10000 0.89 110 15:50 20.06.2021
6573 Clear 21 1007 44 10000 0.45 28 15:31 20.06.2021
6574 Clear 20 1006 42 10000 5.14 210 14:46 20.06.2021
6575 Clear 18 1005 41 10000 0.45 156 13:40 20.06.2021
6576 Clear 18 1005 45 10000 0.89 155 12:49 20.06.2021
6577 Clear 18 1005 46 10000 0.45 243 11:46 20.06.2021
6578 Clouds 18 1004 49 10000 0.45 140 10:28 20.06.2021
6579 Clear 18 1004 52 10000 1.34 138 09:44 20.06.2021
6580 Clouds 20 1003 53 10000 0.45 184 06:57 20.06.2021
6581 Clouds 27 1008 31 10000 3.49 317 23:37 19.06.2021
6582 Clouds 26 997 41 10000 0.45 122 22:58 19.06.2021
6583 Clouds 25 1005 51 10000 1.79 268 21:51 19.06.2021
6584 Clouds 27 1002 39 10000 10.65 301 21:22 19.06.2021
6585 Clouds 27 1006 40 10000 0.45 94 18:55 19.06.2021
6586 Clouds 26 1006 43 10000 0.45 311 18:22 19.06.2021
6587 Clouds 24 1007 43 10000 0.89 297 17:26 19.06.2021
6588 Clouds 24 1007 45 10000 0.89 30 16:40 19.06.2021
6589 Clouds 20 1008 54 10000 0.43 165 15:25 19.06.2021
6590 Clouds 18 1007 54 10000 1.34 292 12:52 19.06.2021
6591 Clouds 19 1007 52 10000 0.45 355 11:54 19.06.2021
6592 Clouds 20 1007 52 10000 0.45 173 10:46 19.06.2021
6593 Clouds 21 1007 52 10000 3.22 209 10:25 19.06.2021
6594 Clouds 22 1007 55 10000 0.45 186 09:48 19.06.2021
6595 Clouds 23 1009 51 10000 0.89 266 07:49 19.06.2021
6596 Clouds 24 1008 45 10000 1.34 282 06:29 19.06.2021
6597 Clouds 24 1008 45 10000 1.34 282 06:29 19.06.2021
6598 Clouds 29 1019 26 10000 5.14 180 02:22 19.06.2021
6599 Clouds 31 1008 26 10000 0.45 109 00:19 19.06.2021
6600 Clouds 31 1008 27 10000 3.13 7 23:33 18.06.2021
6601 Clouds 31 1008 27 10000 0.89 122 22:50 18.06.2021
6602 Clouds 31 1009 28 10000 1.34 132 22:50 18.06.2021
6603 Clouds 31 1008 27 10000 0.45 29 22:25 18.06.2021
6604 Clouds 31 1009 27 10000 1.34 28 21:43 18.06.2021
6605 Clouds 31 1009 26 10000 0.45 34 21:21 18.06.2021
6606 Clouds 30 1010 27 10000 1.34 307 20:18 18.06.2021
6607 Clouds 28 1010 25 10000 0.45 26 18:27 18.06.2021
6608 Clouds 28 1010 29 10000 0.89 267 17:39 18.06.2021
6609 Clouds 24 1013 43 10000 0.45 148 16:30 18.06.2021
6610 Clouds 24 1018 40 10000 1.09 41 15:45 18.06.2021
6611 Clouds 21 1011 43 10000 0.4 24 14:32 18.06.2021
6612 Clouds 21 1018 40 10000 2.06 190 13:41 18.06.2021
6613 Clouds 21 1008 40 10000 2.38 214 12:47 18.06.2021
6614 Clouds 21 1006 38 10000 2.79 210 12:29 18.06.2021
6615 Clouds 22 1005 36 10000 0.45 355 11:28 18.06.2021
6616 Clouds 22 1006 36 10000 0.45 47 10:52 18.06.2021
6617 Clouds 22 1005 35 10000 2.71 214 10:23 18.06.2021
6618 Clouds 23 1007 34 10000 0.45 281 09:49 18.06.2021
6619 Clear 23 1016 34 10000 1.63 218 08:50 18.06.2021
6620 Clouds 23 1007 32 10000 0.45 263 08:23 18.06.2021
6621 Clouds 24 1007 32 10000 0.89 124 07:29 18.06.2021
6622 Clouds 31 1007 22 10000 0.45 143 03:23 18.06.2021
6623 Clouds 34 999 18 10000 2.24 147 00:32 18.06.2021
6624 Clouds 36 1008 14 10000 6.67 185 22:56 17.06.2021
6625 Clouds 36 1011 13 10000 0.45 121 22:25 17.06.2021
6626 Clouds 37 1011 11 10000 0.45 147 21:49 17.06.2021
6627 Clouds 37 1007 12 10000 0.89 119 20:58 17.06.2021
6628 Clouds 36 1007 12 10000 1.34 123 20:28 17.06.2021
6629 Clouds 36 1007 13 10000 1.79 97 19:51 17.06.2021
6630 Clouds 34 1009 19 10000 0.89 124 18:48 17.06.2021
6631 Clouds 31 1008 26 10000 0.45 231 17:48 17.06.2021
6632 Clouds 30 1009 30 10000 0.45 154 17:21 17.06.2021
6633 Clouds 27 1011 34 10000 0.45 242 16:27 17.06.2021
6634 Clouds 23 1013 36 10000 0.45 148 15:39 17.06.2021
6635 Clouds 20 1012 39 10000 0.45 156 14:26 17.06.2021
6636 Clouds 21 1011 35 10000 0.45 112 12:54 17.06.2021
6637 Clouds 21 1009 34 10000 0.45 354 12:30 17.06.2021
6638 Clouds 22